# Wetter Temperatur Luftdruck Luftfeuchtigkeit Sichtweite Windgeschwindigkeit Windrichtung Zeit
1 Rain 12 1018 54 10000 5.66 330 12:19 22.04.2021
2 Rain 14 1017 51 10000 6.69 330 11:43 22.04.2021
3 Clouds 14 1017 51 10000 5.66 320 11:22 22.04.2021
4 Clouds 15 1017 51 10000 5.66 300 10:43 22.04.2021
5 Clouds 14 1017 51 10000 5.66 300 10:43 22.04.2021
6 Clouds 14 1017 51 10000 5.66 320 10:21 22.04.2021
7 Clear 13 1016 55 10000 6.17 310 09:41 22.04.2021
8 Clear 13 1016 54 10000 5.66 290 09:19 22.04.2021
9 Clear 13 1016 58 10000 6.17 300 08:38 22.04.2021
10 Clear 12 1016 76 10000 1.54 140 08:18 22.04.2021
11 Clear 11 1016 62 10000 3.6 280 07:37 22.04.2021
12 Clear 10 1016 66 10000 4.12 280 07:18 22.04.2021
13 Clear 8 1015 87 10000 2.57 270 06:22 22.04.2021
14 Clear 8 1015 81 10000 2.57 240 05:24 22.04.2021
15 Clear 8 1015 93 10000 1.54 190 02:49 22.04.2021
16 Clear 9 1015 81 10000 1.54 170 00:45 22.04.2021
17 Clear 10 1015 76 10000 2.06 180 23:44 21.04.2021
18 Clear 10 1015 71 10000 2.57 190 23:23 21.04.2021
19 Clear 11 1015 66 10000 3.09 260 22:41 21.04.2021
20 Clear 11 1015 62 10000 2.57 270 22:23 21.04.2021
21 Clear 11 1015 62 10000 2.57 260 21:42 21.04.2021
22 Clear 11 1015 62 10000 2.57 260 21:42 21.04.2021
23 Clear 12 1014 62 10000 3.09 260 21:23 21.04.2021
24 Clear 13 1014 58 10000 3.09 230 20:40 21.04.2021
25 Clear 13 1014 58 10000 3.6 190 20:18 21.04.2021
26 Clear 14 1014 51 10000 6.17 210 19:41 21.04.2021
27 Clear 15 1014 47 10000 7.2 240 19:23 21.04.2021
28 Clear 16 1014 41 10000 6.17 240 18:45 21.04.2021
29 Clear 17 1013 41 10000 5.66 230 18:24 21.04.2021
30 Clouds 17 1013 42 10000 5.66 230 17:46 21.04.2021
31 Clear 18 1013 42 10000 5.14 230 17:24 21.04.2021
32 Clear 18 1013 39 10000 5.14 230 16:43 21.04.2021
33 Clear 18 1014 36 10000 2.06 170 15:56 21.04.2021
34 Clear 18 1014 36 10000 2.06 170 15:37 21.04.2021
35 Clouds 18 1014 36 10000 4.63 220 14:48 21.04.2021
36 Clear 18 1014 42 10000 3.09 180 14:30 21.04.2021
37 Clear 18 1014 42 10000 2.06 350 13:51 21.04.2021
38 Clear 17 1015 44 10000 2.57 330 13:24 21.04.2021
39 Clear 17 1015 41 10000 2.57 260 12:58 21.04.2021
40 Clouds 17 1015 45 10000 2.57 250 12:29 21.04.2021
41 Clouds 17 1015 45 10000 2.57 250 12:29 21.04.2021
42 Clouds 17 1015 48 10000 4.12 340 11:49 21.04.2021
43 Clouds 16 1016 48 10000 2.57 310 11:29 21.04.2021
44 Clouds 15 1016 51 10000 3.6 330 10:48 21.04.2021
45 Clouds 14 1015 54 10000 5.14 300 10:18 21.04.2021
46 Clear 14 1015 58 10000 2.06 260 09:41 21.04.2021
47 Clouds 12 1016 56 10000 2.29 279 08:56 21.04.2021
48 Clear 11 1015 76 10000 3.09 180 08:37 21.04.2021
49 Clear 10 1015 81 10000 1.54 160 08:18 21.04.2021
50 Clear 6 1015 81 10000 2.06 170 07:31 21.04.2021
51 Clear 4 1014 93 10000 2.06 160 06:28 21.04.2021
52 Clear 5 1015 81 10000 1.54 160 04:46 21.04.2021
53 Clear 9 1015 71 10000 4.63 310 00:53 21.04.2021
54 Clear 9 1015 66 10000 6.17 280 23:48 20.04.2021
55 Clear 10 1015 66 10000 5.14 290 23:21 20.04.2021
56 Clear 10 1014 66 10000 6.69 280 22:40 20.04.2021
57 Clear 10 1014 66 10000 6.69 280 22:18 20.04.2021
58 Clear 10 1014 66 10000 5.66 280 21:46 20.04.2021
59 Clear 10 1014 62 10000 6.17 270 21:24 20.04.2021
60 Clear 10 1014 66 10000 7.2 280 20:42 20.04.2021
61 Clear 10 1014 62 10000 4.63 290 20:23 20.04.2021
62 Clear 11 1013 62 10000 5.14 290 19:54 20.04.2021
63 Clear 12 1013 58 10000 6.69 280 19:36 20.04.2021
64 Clouds 12 1013 62 10000 5.66 260 18:55 20.04.2021
65 Clouds 13 1013 62 10000 5.66 260 18:35 20.04.2021
66 Rain 13 1013 58 10000 5.66 300 17:45 20.04.2021
67 Clouds 13 1013 54 10000 7.2 300 17:22 20.04.2021
68 Rain 12 1013 58 10000 8.75 300 16:44 20.04.2021
69 Clouds 11 1011 73 10000 2.24 238 15:51 20.04.2021
70 Clouds 14 1013 62 10000 4.12 310 15:28 20.04.2021
71 Clouds 13 1014 59 10000 5.27 285 14:57 20.04.2021
72 Rain 13 1013 67 10000 4.63 310 14:31 20.04.2021
73 Clouds 15 1014 51 10000 1.54 0 13:37 20.04.2021
74 Clouds 14 1014 62 10000 3.6 340 13:18 20.04.2021
75 Clouds 13 1014 66 10000 5.66 320 12:40 20.04.2021
76 Clouds 12 1014 71 10000 6.17 320 12:19 20.04.2021
77 Clouds 12 1014 71 10000 5.14 320 11:40 20.04.2021
78 Clouds 11 1015 76 10000 5.66 320 11:20 20.04.2021
79 Clouds 10 1015 76 10000 4.63 330 10:42 20.04.2021
80 Clouds 9 1014 81 10000 5.14 320 10:22 20.04.2021
81 Clouds 9 1014 81 10000 4.63 310 09:22 20.04.2021
82 Clouds 8 1014 87 10000 5.14 310 08:54 20.04.2021
83 Clouds 8 1014 87 10000 4.63 310 08:19 20.04.2021
84 Clouds 8 1014 81 10000 5.66 310 07:39 20.04.2021
85 Clouds 8 1014 81 10000 5.14 310 06:36 20.04.2021
86 Clouds 8 1014 87 10000 4.12 300 05:37 20.04.2021
87 Clouds 8 1014 87 8000 3.6 300 04:41 20.04.2021
88 Clouds 8 1015 87 10000 5.14 310 00:53 20.04.2021
89 Clouds 8 1015 87 10000 5.14 310 00:28 20.04.2021
90 Clouds 8 1015 87 10000 4.63 300 23:34 19.04.2021
91 Clouds 8 1015 87 10000 4.63 300 22:56 19.04.2021
92 Clouds 8 1015 87 10000 5.14 300 22:30 19.04.2021
93 Clouds 8 1015 87 10000 5.14 300 22:30 19.04.2021
94 Clouds 8 1016 87 10000 5.14 300 21:47 19.04.2021
95 Clouds 8 1016 87 10000 5.14 310 21:27 19.04.2021
96 Clouds 9 1015 81 10000 4.63 310 20:43 19.04.2021
97 Clouds 9 1015 81 10000 5.66 310 20:23 19.04.2021
98 Clouds 8 1015 81 10000 5.14 300 19:57 19.04.2021
99 Rain 9 1015 81 10000 5.14 300 19:39 19.04.2021
100 Clouds 9 1015 76 10000 5.66 310 19:18 19.04.2021
101 Clouds 9 1015 81 10000 6.17 310 18:44 19.04.2021
102 Clouds 9 1015 81 10000 5.66 310 18:21 19.04.2021
103 Clouds 10 1015 76 10000 7.72 310 17:47 19.04.2021
104 Clouds 10 1015 71 10000 7.72 310 17:26 19.04.2021
105 Clouds 10 1015 66 10000 8.23 310 16:49 19.04.2021
106 Clouds 10 1015 66 10000 8.23 310 16:30 19.04.2021
107 Clouds 10 1015 66 10000 6.17 320 15:44 19.04.2021
108 Clouds 11 1015 66 10000 5.14 330 15:24 19.04.2021
109 Rain 11 1016 71 10000 6.17 320 14:52 19.04.2021
110 Clouds 11 1016 66 10000 6.17 310 14:33 19.04.2021
111 Clouds 11 1016 66 10000 5.66 330 13:53 19.04.2021
112 Clouds 11 1016 66 10000 5.14 330 13:29 19.04.2021
113 Clouds 10 1016 71 10000 5.66 310 12:49 19.04.2021
114 Clouds 10 1016 71 10000 5.66 330 12:29 19.04.2021
115 Clouds 10 1016 76 10000 5.14 320 11:59 19.04.2021
116 Clouds 9 1016 76 10000 5.14 320 11:39 19.04.2021
117 Clouds 10 1016 76 10000 4.63 320 11:19 19.04.2021
118 Clouds 9 1016 76 10000 5.66 320 10:43 19.04.2021
119 Clouds 8 1017 76 10000 5.66 320 10:19 19.04.2021
120 Clouds 8 1017 81 8000 5.14 330 09:42 19.04.2021
121 Clouds 8 1017 81 10000 4.63 320 09:23 19.04.2021
122 Drizzle 7 1017 87 8000 4.12 320 08:34 19.04.2021
123 Clouds 7 1017 93 8000 4.63 310 07:50 19.04.2021
124 Clouds 6 1017 93 7000 4.12 330 07:24 19.04.2021
125 Clouds 6 1017 87 7000 4.63 320 06:48 19.04.2021
126 Clouds 6 1017 93 9000 3.09 310 04:40 19.04.2021
127 Drizzle 7 1018 81 10000 3.6 310 01:49 19.04.2021
128 Clouds 7 1018 81 10000 4.12 310 00:41 19.04.2021
129 Clouds 7 1018 81 10000 4.12 300 23:21 18.04.2021
130 Clouds 7 1018 81 10000 5.14 300 22:58 18.04.2021
131 Clouds 7 1018 76 10000 5.14 300 22:33 18.04.2021
132 Clouds 8 1018 71 10000 4.63 300 21:53 18.04.2021
133 Rain 8 1018 71 10000 5.66 300 21:28 18.04.2021
134 Clouds 8 1018 71 10000 4.63 300 20:44 18.04.2021
135 Clouds 8 1018 71 10000 5.14 300 20:25 18.04.2021
136 Clouds 8 1018 66 10000 4.63 300 19:59 18.04.2021
137 Clouds 8 1018 66 10000 4.63 300 19:39 18.04.2021
138 Clouds 9 1018 66 10000 5.14 310 19:18 18.04.2021
139 Clouds 9 1017 66 10000 4.12 310 18:45 18.04.2021
140 Clouds 9 1017 66 10000 4.63 310 18:25 18.04.2021
141 Clouds 9 1017 66 10000 4.63 310 18:25 18.04.2021
142 Clouds 9 1017 66 10000 5.14 310 17:46 18.04.2021
143 Clouds 9 1017 66 10000 5.14 320 17:27 18.04.2021
144 Clouds 9 1017 66 10000 4.63 320 16:47 18.04.2021
145 Clouds 9 1017 66 10000 4.63 320 16:29 18.04.2021
146 Clouds 9 1018 66 10000 5.14 330 15:46 18.04.2021
147 Clouds 9 1018 66 10000 4.12 320 15:27 18.04.2021
148 Clouds 9 1018 71 10000 4.63 310 14:52 18.04.2021
149 Clouds 8 1018 71 10000 4.12 310 14:23 18.04.2021
150 Clouds 8 1018 76 10000 4.63 300 13:56 18.04.2021
151 Clouds 8 1018 76 10000 4.63 310 13:34 18.04.2021
152 Clouds 7 1018 76 10000 4.12 310 12:51 18.04.2021
153 Clouds 7 1018 70 10000 4.63 310 12:32 18.04.2021
154 Clouds 6 1018 75 10000 4.63 300 11:45 18.04.2021
155 Clouds 6 1018 75 10000 4.63 300 11:22 18.04.2021
156 Clouds 6 1018 75 10000 4.12 300 10:48 18.04.2021
157 Clouds 6 1018 75 10000 4.63 310 10:23 18.04.2021
158 Clouds 6 1018 75 10000 4.63 310 09:53 18.04.2021
159 Clouds 6 1018 75 10000 4.63 310 09:34 18.04.2021
160 Clouds 5 1018 81 10000 4.63 320 08:57 18.04.2021
161 Clouds 5 1018 81 10000 4.12 320 08:35 18.04.2021
162 Clouds 5 1018 81 10000 4.63 310 07:59 18.04.2021
163 Clouds 5 1018 81 10000 4.63 310 07:38 18.04.2021
164 Clouds 5 1018 81 10000 5.14 310 05:42 18.04.2021
165 Clouds 5 1018 81 10000 4.63 320 05:24 18.04.2021
166 Clouds 5 1019 81 10000 4.12 320 02:56 18.04.2021
167 Clouds 5 1019 81 10000 3.6 320 02:22 18.04.2021
168 Clouds 5 1019 81 10000 4.63 320 00:38 18.04.2021
169 Clouds 6 1019 75 10000 3.6 330 23:38 17.04.2021
170 Clouds 6 1019 75 10000 4.12 340 22:52 17.04.2021
171 Clouds 6 1019 70 10000 3.6 330 22:31 17.04.2021
172 Clouds 6 1019 70 10000 4.12 330 21:50 17.04.2021
173 Clouds 6 1019 70 10000 4.63 340 21:31 17.04.2021
174 Clouds 7 1019 70 10000 4.63 340 20:51 17.04.2021
175 Clouds 7 1019 65 10000 4.12 350 20:28 17.04.2021
176 Clouds 7 1019 70 10000 4.12 360 19:46 17.04.2021
177 Clouds 7 1018 65 10000 5.14 350 19:21 17.04.2021
178 Clouds 8 1018 66 10000 5.14 360 18:56 17.04.2021
179 Clouds 8 1018 61 10000 5.66 350 18:36 17.04.2021
180 Clouds 9 1018 66 10000 5.66 350 17:57 17.04.2021
181 Clouds 9 1018 66 10000 5.66 350 17:39 17.04.2021
182 Clouds 9 1018 61 10000 5.14 340 16:53 17.04.2021
183 Clouds 9 1018 57 10000 5.66 330 16:28 17.04.2021
184 Clouds 9 1018 57 10000 5.66 330 16:28 17.04.2021
185 Clouds 9 1018 61 10000 5.66 350 15:50 17.04.2021
186 Clouds 9 1019 57 10000 4.12 350 14:50 17.04.2021
187 Clouds 9 1019 53 10000 5.14 320 14:31 17.04.2021
188 Clouds 9 1019 53 10000 4.12 350 13:48 17.04.2021
189 Clouds 9 1019 57 10000 5.14 340 13:22 17.04.2021
190 Clouds 9 1019 57 10000 5.66 350 12:41 17.04.2021
191 Clouds 9 1019 57 10000 5.66 320 12:18 17.04.2021
192 Clouds 9 1019 57 10000 5.14 320 11:39 17.04.2021
193 Clouds 8 1019 61 10000 5.14 350 11:21 17.04.2021
194 Clouds 7 1020 65 10000 5.14 320 10:41 17.04.2021
195 Clouds 7 1020 65 10000 5.14 320 10:23 17.04.2021
196 Clouds 6 1020 70 10000 5.14 320 09:22 17.04.2021
197 Clouds 6 1020 70 10000 5.66 320 08:38 17.04.2021
198 Clouds 5 1020 75 10000 5.14 320 08:19 17.04.2021
199 Clouds 5 1019 75 10000 4.63 320 06:43 17.04.2021
200 Clouds 5 1020 75 10000 3.6 320 03:51 17.04.2021
201 Clouds 5 1020 75 10000 4.12 330 02:58 17.04.2021
202 Clouds 5 1021 75 10000 4.12 320 00:46 17.04.2021
203 Clouds 6 1021 70 10000 3.6 330 00:24 17.04.2021
204 Clouds 6 1021 65 10000 4.63 320 23:46 16.04.2021
205 Clouds 6 1022 65 10000 5.14 330 23:23 16.04.2021
206 Clouds 6 1022 65 10000 4.63 330 22:43 16.04.2021
207 Clouds 6 1022 65 10000 4.63 330 22:20 16.04.2021
208 Clouds 6 1022 65 10000 4.63 330 21:50 16.04.2021
209 Clouds 6 1022 65 10000 4.63 330 21:50 16.04.2021
210 Clouds 6 1021 65 10000 5.14 340 21:29 16.04.2021
211 Clouds 6 1021 65 10000 4.12 330 20:48 16.04.2021
212 Clouds 6 1021 65 10000 4.63 340 20:24 16.04.2021
213 Clouds 7 1021 61 10000 5.14 340 19:50 16.04.2021
214 Clouds 7 1021 61 10000 5.66 340 19:27 16.04.2021
215 Clouds 8 1020 61 10000 5.66 330 18:28 16.04.2021
216 Clouds 8 1020 61 10000 5.66 330 18:28 16.04.2021
217 Clouds 8 1020 57 10000 6.17 320 17:55 16.04.2021
218 Clouds 8 1021 53 10000 6.69 320 17:21 16.04.2021
219 Clouds 8 1020 53 10000 7.72 330 16:59 16.04.2021
220 Clouds 8 1020 53 10000 7.72 330 16:41 16.04.2021
221 Clouds 8 1020 57 10000 5.14 330 16:21 16.04.2021
222 Clouds 8 1021 53 10000 6.17 320 15:42 16.04.2021
223 Clouds 8 1021 57 10000 5.66 310 14:59 16.04.2021
224 Clouds 8 1021 57 10000 5.66 310 14:40 16.04.2021
225 Clouds 8 1021 57 10000 6.17 310 13:59 16.04.2021
226 Clouds 7 1021 61 10000 6.69 310 13:38 16.04.2021
227 Clouds 7 1021 61 10000 6.69 310 13:18 16.04.2021
228 Clouds 7 1022 61 10000 7.72 310 12:44 16.04.2021
229 Clouds 6 1022 61 10000 7.2 310 12:25 16.04.2021
230 Clouds 6 1022 61 10000 7.72 300 11:43 16.04.2021
231 Clouds 6 1022 60 10000 7.72 300 11:24 16.04.2021
232 Clouds 5 1022 60 10000 7.72 300 10:43 16.04.2021
233 Clouds 5 1021 60 10000 7.72 300 10:24 16.04.2021
234 Clouds 5 1021 60 10000 8.23 300 09:49 16.04.2021
235 Clouds 5 1021 65 10000 7.2 300 09:23 16.04.2021
236 Clouds 4 1021 65 10000 6.69 310 08:45 16.04.2021
237 Clouds 4 1021 65 10000 6.17 310 08:27 16.04.2021
238 Clouds 3 1021 70 10000 5.14 310 07:47 16.04.2021
239 Clouds 3 1021 65 10000 4.63 300 07:28 16.04.2021
240 Clouds 3 1021 65 10000 5.14 310 06:47 16.04.2021
241 Clouds 3 1021 70 10000 6.69 300 05:33 16.04.2021
242 Clouds 3 1021 70 10000 6.69 300 05:33 16.04.2021
243 Clouds 3 1021 70 10000 7.2 310 03:59 16.04.2021
244 Clouds 3 1022 70 10000 5.14 310 00:49 16.04.2021
245 Clouds 3 1022 70 10000 5.66 310 00:22 16.04.2021
246 Clear 3 1022 70 10000 6.17 310 23:58 15.04.2021
247 Clear 3 1022 70 10000 6.17 310 23:35 15.04.2021
248 Clear 3 1022 75 10000 6.17 320 22:52 15.04.2021
249 Clear 3 1022 75 10000 6.17 320 22:26 15.04.2021
250 Clouds 3 1022 75 10000 5.66 330 21:56 15.04.2021
251 Clouds 3 1022 75 10000 5.66 330 21:37 15.04.2021
252 Clear 4 1022 75 10000 6.17 330 21:19 15.04.2021
253 Clouds 4 1022 65 10000 6.17 330 20:38 15.04.2021
254 Clouds 4 1022 70 10000 6.69 330 20:20 15.04.2021
255 Clouds 5 1022 56 10000 6.69 330 19:42 15.04.2021
256 Clouds 5 1021 60 10000 7.2 340 19:23 15.04.2021
257 Clouds 6 1021 52 10000 7.72 340 18:41 15.04.2021
258 Clouds 6 1021 52 10000 7.72 340 18:20 15.04.2021
259 Clouds 7 1021 45 10000 8.23 330 17:54 15.04.2021
260 Clouds 7 1021 45 10000 8.23 330 17:36 15.04.2021
261 Clouds 7 1021 45 10000 8.23 330 17:36 15.04.2021
262 Clouds 8 1021 53 10000 8.23 360 16:47 15.04.2021
263 Clouds 8 1021 53 10000 7.2 350 16:26 15.04.2021
264 Clouds 8 1021 45 10000 7.72 340 15:59 15.04.2021
265 Clouds 8 1021 45 10000 7.72 340 15:40 15.04.2021
266 Clouds 8 1022 42 10000 6.69 320 15:22 15.04.2021
267 Clouds 8 1022 39 10000 6.69 330 14:38 15.04.2021
268 Clouds 8 1022 39 10000 6.69 330 14:20 15.04.2021
269 Clouds 8 1022 42 10000 6.17 330 13:41 15.04.2021
270 Clouds 8 1022 45 10000 6.17 340 13:18 15.04.2021
271 Clouds 7 1022 52 10000 5.14 330 12:39 15.04.2021
272 Clouds 7 1023 36 10000 5.92 326 12:20 15.04.2021
273 Clouds 7 1023 56 10000 6.17 320 11:44 15.04.2021
274 Clouds 6 1023 53 10000 7.2 320 11:22 15.04.2021
275 Clouds 7 1023 52 10000 8.23 310 10:49 15.04.2021
276 Clouds 6 1023 56 10000 7.2 320 10:27 15.04.2021
277 Clouds 5 1023 56 10000 7.2 310 09:45 15.04.2021
278 Clear 5 1023 56 10000 7.2 310 09:18 15.04.2021
279 Clear 4 1023 60 10000 6.69 310 08:41 15.04.2021
280 Clear 3 1022 65 10000 6.69 300 07:52 15.04.2021
281 Clear 3 1022 65 10000 6.17 300 07:22 15.04.2021
282 Clear 3 1022 65 10000 6.17 300 07:22 15.04.2021
283 Clear 3 1022 65 10000 5.66 300 06:38 15.04.2021
284 Clouds 2 1022 65 10000 6.17 310 06:20 15.04.2021
285 Clear 3 1022 65 10000 4.63 310 04:51 15.04.2021
286 Clear 4 1023 65 10000 5.14 330 00:54 15.04.2021
287 Clouds 4 1023 56 10000 5.14 320 23:41 14.04.2021
288 Clouds 5 1023 56 10000 6.17 320 23:19 14.04.2021
289 Clear 5 1023 56 10000 5.66 320 22:43 14.04.2021
290 Clear 5 1023 52 10000 5.66 320 22:25 14.04.2021
291 Clear 5 1023 52 10000 5.66 320 22:25 14.04.2021
292 Clear 5 1023 52 10000 5.14 330 21:47 14.04.2021
293 Clear 5 1023 49 10000 6.17 320 21:28 14.04.2021
294 Clear 5 1023 49 10000 5.66 320 20:56 14.04.2021
295 Clear 5 1023 49 10000 6.69 320 20:34 14.04.2021
296 Clouds 6 1022 49 10000 7.2 320 19:54 14.04.2021
297 Clouds 7 1022 45 10000 7.2 330 19:20 14.04.2021
298 Clouds 7 1022 42 10000 7.2 330 18:57 14.04.2021
299 Clouds 8 1022 42 10000 7.72 330 18:22 14.04.2021
300 Clouds 8 1022 42 10000 7.2 340 17:59 14.04.2021
301 Clouds 8 1022 46 10000 7.2 350 17:28 14.04.2021
302 Clouds 8 1022 53 10000 6.69 350 16:54 14.04.2021
303 Clouds 9 1022 49 10000 8.23 330 16:28 14.04.2021
304 Clouds 9 1022 57 10000 7.72 340 15:47 14.04.2021
305 Rain 8 1022 43 10000 3.13 347 15:27 14.04.2021
306 Clouds 8 1022 53 10000 7.2 340 14:56 14.04.2021
307 Clouds 8 1022 53 10000 7.2 340 14:37 14.04.2021
308 Clouds 8 1022 49 10000 9.26 330 14:18 14.04.2021
309 Clouds 8 1022 57 10000 9.26 330 13:44 14.04.2021
310 Clouds 7 1029 55 10000 1.34 83 12:41 14.04.2021
311 Clouds 6 1023 57 10000 9.26 330 12:18 14.04.2021
312 Clouds 7 1023 65 10000 9.26 330 11:39 14.04.2021
313 Clouds 6 1023 61 10000 10.29 330 11:21 14.04.2021
314 Clouds 6 1023 70 10000 8.23 330 10:34 14.04.2021
315 Drizzle 5 1023 75 10000 9.77 330 09:43 14.04.2021
316 Rain 5 1023 75 10000 9.26 320 09:23 14.04.2021
317 Clouds 4 1023 75 10000 8.23 320 08:48 14.04.2021
318 Clouds 4 1023 81 10000 8.75 320 08:23 14.04.2021
319 Clouds 3 1022 87 10000 7.72 320 07:28 14.04.2021
320 Clouds 2 1022 93 10000 8.75 320 06:28 14.04.2021
321 Clouds 2 1022 93 9000 8.75 320 05:24 14.04.2021
322 Clouds 2 1023 93 8000 6.69 320 02:24 14.04.2021
323 Rain 2 1023 93 7000 7.72 320 00:50 14.04.2021
324 Rain 2 1023 93 7000 7.72 320 00:50 14.04.2021
325 Rain 2 1023 93 9000 8.23 320 00:27 14.04.2021
326 Rain 2 1024 93 10000 8.75 320 23:32 13.04.2021
327 Rain 2 1024 93 7000 8.23 330 22:44 13.04.2021
328 Rain 2 1024 93 7000 8.75 330 22:21 13.04.2021
329 Rain 2 1024 93 7000 6.17 330 21:49 13.04.2021
330 Snow 2 1024 93 6000 7.2 340 21:30 13.04.2021
331 Rain 2 1023 93 8000 7.72 330 20:51 13.04.2021
332 Rain 2 1023 93 9000 8.23 330 20:25 13.04.2021
333 Rain 2 1023 93 8000 8.75 330 19:58 13.04.2021
334 Rain 2 1023 93 10000 8.75 320 19:26 13.04.2021
335 Rain 2 1023 93 10000 9.26 320 18:51 13.04.2021
336 Snow 2 1023 87 10000 9.77 320 18:31 13.04.2021
337 Rain 3 1023 87 10000 9.26 320 17:40 13.04.2021
338 Rain 3 1023 87 10000 8.75 320 17:21 13.04.2021
339 Rain 3 1023 87 10000 8.75 320 17:21 13.04.2021
340 Rain 3 1023 87 10000 9.77 320 16:49 13.04.2021
341 Rain 3 1023 87 10000 9.77 330 16:31 13.04.2021
342 Rain 3 1023 93 10000 8.75 320 15:56 13.04.2021
343 Rain 3 1023 93 10000 8.75 320 15:38 13.04.2021
344 Rain 4 1023 93 10000 9.26 320 14:58 13.04.2021
345 Rain 3 1024 87 10000 9.77 330 14:25 13.04.2021
346 Rain 4 1024 87 10000 8.75 330 13:57 13.04.2021
347 Rain 4 1024 87 10000 8.75 330 13:39 13.04.2021
348 Rain 4 1024 87 10000 7.72 330 13:20 13.04.2021
349 Rain 4 1025 87 10000 7.72 340 12:46 13.04.2021
350 Rain 3 1025 87 6000 7.72 330 12:22 13.04.2021
351 Rain 3 1025 93 8000 7.2 330 11:38 13.04.2021
352 Clouds 3 1025 87 10000 7.72 330 10:58 13.04.2021
353 Rain 3 1025 87 10000 7.72 330 10:40 13.04.2021
354 Snow 3 1025 93 10000 7.72 320 10:19 13.04.2021
355 Snow 3 1025 87 10000 7.72 320 09:51 13.04.2021
356 Snow 3 1024 87 10000 8.23 330 09:26 13.04.2021
357 Snow 2 1025 87 10000 7.72 320 08:44 13.04.2021
358 Snow 3 1024 75 10000 9.26 320 08:22 13.04.2021
359 Snow 3 1024 75 10000 8.23 320 07:43 13.04.2021
360 Snow 3 1024 75 10000 8.23 320 07:23 13.04.2021
361 Rain 3 1024 81 10000 9.77 320 06:22 13.04.2021
362 Clouds 3 1024 81 10000 7.72 320 03:44 13.04.2021
363 Clouds 3 1025 81 10000 9.77 320 01:31 13.04.2021
364 Clouds 3 1024 81 10000 9.77 320 23:52 12.04.2021
365 Clouds 3 1024 81 10000 9.77 310 23:32 12.04.2021
366 Clouds 3 1024 81 10000 9.77 310 23:32 12.04.2021
367 Rain 3 1024 81 10000 10.8 310 22:52 12.04.2021
368 Rain 3 1024 87 10000 8.75 310 22:33 12.04.2021
369 Rain 3 1024 87 10000 10.29 310 21:48 12.04.2021
370 Rain 3 1024 87 10000 9.26 310 21:25 12.04.2021
371 Rain 3 1023 87 10000 9.77 310 20:58 12.04.2021
372 Rain 3 1023 93 10000 10.29 310 20:36 12.04.2021
373 Rain 3 1023 93 10000 10.29 310 20:18 12.04.2021
374 Rain 3 1022 87 10000 9.26 310 19:39 12.04.2021
375 Rain 3 1022 87 10000 9.26 310 19:21 12.04.2021
376 Rain 4 1022 87 10000 9.26 310 19:21 12.04.2021
377 Rain 4 1021 87 10000 8.23 300 18:49 12.04.2021
378 Rain 4 1020 87 10000 10.8 300 18:30 12.04.2021
379 Rain 5 1019 81 10000 11.32 290 17:59 12.04.2021
380 Rain 5 1019 81 10000 11.32 290 17:40 12.04.2021
381 Rain 7 1018 71 10000 13.38 300 17:19 12.04.2021
382 Clouds 8 1017 66 10000 12.35 290 16:38 12.04.2021
383 Clouds 8 1017 66 10000 13.38 300 16:19 12.04.2021
384 Clouds 14 1016 58 10000 9.26 290 15:39 12.04.2021
385 Clouds 15 1016 51 10000 5.66 310 14:56 12.04.2021
386 Clouds 16 1016 51 10000 5.66 310 14:37 12.04.2021
387 Clouds 16 1016 48 10000 3.6 300 14:19 12.04.2021
388 Clouds 17 1015 48 10000 3.09 310 13:40 12.04.2021
389 Clouds 18 1015 48 10000 2.57 290 13:19 12.04.2021
390 Clouds 17 1015 48 10000 2.06 330 12:43 12.04.2021
391 Clouds 17 1016 51 10000 4.63 330 12:22 12.04.2021
392 Clouds 17 1016 55 10000 2.06 0 11:41 12.04.2021
393 Clouds 15 1016 55 10000 3.23 287 10:51 12.04.2021
394 Clouds 15 1016 56 10000 2.94 291 10:28 12.04.2021
395 Clear 14 1015 71 10000 2.57 20 09:53 12.04.2021
396 Clear 12 1015 81 10000 2.57 50 09:25 12.04.2021
397 Clear 10 1015 87 10000 2.06 10 08:51 12.04.2021
398 Clear 8 1015 81 10000 2.06 280 07:58 12.04.2021
399 Clear 7 1014 87 10000 1.03 0 07:30 12.04.2021
400 Clouds 7 1021 81 10000 1.48 311 06:40 12.04.2021
401 Clear 7 1013 87 10000 1.03 20 05:47 12.04.2021
402 Clear 8 1013 81 10000 2.57 180 03:19 12.04.2021
403 Clear 10 1013 71 10000 5.66 140 00:30 12.04.2021
404 Clear 10 1013 71 10000 4.63 130 23:56 11.04.2021
405 Clear 10 1013 71 10000 4.63 130 23:38 11.04.2021
406 Clear 11 1013 66 10000 5.66 150 23:19 11.04.2021
407 Clear 12 1013 66 10000 6.17 140 22:38 11.04.2021
408 Clear 12 1013 62 10000 6.69 150 22:19 11.04.2021
409 Clear 13 1013 62 10000 6.17 140 21:42 11.04.2021
410 Clear 13 1013 58 10000 6.69 140 21:24 11.04.2021
411 Clear 14 1013 54 10000 7.2 140 20:42 11.04.2021
412 Clear 14 1013 54 10000 7.72 140 20:23 11.04.2021
413 Clear 15 1013 51 10000 6.69 140 19:43 11.04.2021
414 Clear 15 1012 51 10000 7.72 150 19:20 11.04.2021
415 Clear 16 1012 48 10000 9.26 150 18:57 11.04.2021
416 Clear 17 1012 48 10000 9.26 150 18:39 11.04.2021
417 Clear 17 1012 44 10000 9.77 150 18:20 11.04.2021
418 Clear 17 1012 44 10000 9.26 160 17:40 11.04.2021
419 Clear 17 1012 44 10000 9.26 160 17:40 11.04.2021
420 Clear 18 1012 45 10000 11.32 150 17:22 11.04.2021
421 Clear 18 1012 39 10000 10.29 150 16:42 11.04.2021
422 Clear 18 1013 42 10000 9.77 160 16:21 11.04.2021
423 Clear 19 1013 42 10000 9.77 170 15:46 11.04.2021
424 Clear 19 1013 42 10000 9.77 170 15:46 11.04.2021
425 Clear 18 1013 42 10000 9.77 170 15:46 11.04.2021
426 Clear 18 1013 42 10000 9.77 160 15:26 11.04.2021
427 Clouds 19 1019 38 10000 2.24 199 14:51 11.04.2021
428 Clear 18 1013 45 10000 9.77 150 14:24 11.04.2021
429 Clear 17 1013 45 10000 9.77 170 13:45 11.04.2021
430 Clear 17 1013 44 10000 10.29 170 13:27 11.04.2021
431 Clear 16 1014 44 10000 9.26 160 12:41 11.04.2021
432 Clear 16 1014 45 10000 8.75 160 12:20 11.04.2021
433 Clear 15 1014 48 10000 8.75 170 11:48 11.04.2021
434 Clear 15 1014 51 10000 8.75 170 11:21 11.04.2021
435 Clear 14 1014 54 10000 8.23 160 10:47 11.04.2021
436 Clear 12 1014 62 10000 7.2 150 10:23 11.04.2021
437 Clear 11 1014 66 10000 5.66 140 09:51 11.04.2021
438 Clear 10 1014 66 10000 6.17 150 09:30 11.04.2021
439 Clear 9 1013 66 10000 5.14 140 08:41 11.04.2021
440 Clear 8 1013 71 10000 5.66 140 07:59 11.04.2021
441 Clear 7 1013 71 10000 6.17 140 07:21 11.04.2021
442 Clear 7 1013 70 10000 8.23 140 05:59 11.04.2021
443 Clear 7 1013 70 10000 8.23 140 05:37 11.04.2021
444 Clear 7 1013 66 10000 7.2 140 05:18 11.04.2021
445 Clear 8 1014 66 10000 6.17 140 04:33 11.04.2021
446 Clear 9 1015 53 10000 7.2 140 01:40 11.04.2021
447 Clear 10 1015 40 10000 6.17 140 00:33 11.04.2021
448 Clear 11 1015 43 10000 6.17 130 23:47 10.04.2021
449 Clear 11 1015 40 10000 6.17 130 22:59 10.04.2021
450 Clear 12 1015 43 10000 5.14 130 22:31 10.04.2021
451 Clear 12 1016 47 10000 4.63 130 21:57 10.04.2021
452 Clear 12 1016 47 10000 4.63 130 21:57 10.04.2021
453 Clear 12 1016 47 10000 4.63 130 21:37 10.04.2021
454 Clear 12 1016 54 10000 3.09 140 21:19 10.04.2021
455 Clear 15 1016 47 10000 4.12 140 20:41 10.04.2021
456 Clear 15 1016 47 10000 5.14 150 20:22 10.04.2021
457 Clear 17 1015 41 10000 7.2 150 19:43 10.04.2021
458 Clear 18 1015 36 10000 7.2 140 19:25 10.04.2021
459 Clear 19 1015 34 10000 7.72 140 18:44 10.04.2021
460 Clear 19 1015 32 10000 7.2 140 18:25 10.04.2021
461 Clear 19 1015 30 10000 7.2 130 17:37 10.04.2021
462 Clear 19 1015 32 10000 7.2 130 16:57 10.04.2021
463 Clear 19 1016 30 10000 6.17 130 16:26 10.04.2021
464 Clear 19 1016 34 10000 6.17 140 15:53 10.04.2021
465 Clear 18 1017 34 10000 6.69 140 14:58 10.04.2021
466 Clear 18 1017 34 10000 6.69 140 14:38 10.04.2021
467 Clear 17 1017 36 10000 6.69 130 14:18 10.04.2021
468 Clear 17 1017 39 10000 6.17 130 13:40 10.04.2021
469 Clear 15 1017 41 10000 6.17 140 12:49 10.04.2021
470 Clear 14 1018 47 10000 6.17 140 12:26 10.04.2021
471 Clear 14 1018 47 10000 5.66 130 11:47 10.04.2021
472 Clear 13 1018 50 10000 6.17 140 11:25 10.04.2021
473 Clear 12 1018 54 10000 5.66 120 10:52 10.04.2021
474 Clear 11 1018 57 10000 5.14 120 10:31 10.04.2021
475 Clear 10 1018 57 10000 4.63 120 09:45 10.04.2021
476 Clear 8 1017 61 10000 5.14 130 09:20 10.04.2021
477 Clear 7 1017 65 10000 4.63 130 08:47 10.04.2021
478 Clear 7 1017 70 10000 4.12 120 08:28 10.04.2021
479 Clouds 5 1024 66 10000 1.72 118 07:38 10.04.2021
480 Clear 4 1017 80 10000 3.09 160 07:19 10.04.2021
481 Clear 4 1016 70 10000 2.57 170 06:24 10.04.2021
482 Clear 5 1016 70 10000 2.06 150 03:49 10.04.2021
483 Clear 6 1016 65 10000 2.06 150 02:50 10.04.2021
484 Clear 7 1016 61 10000 1.03 130 02:21 10.04.2021
485 Clear 8 1016 65 10000 3.6 170 00:43 10.04.2021
486 Clear 8 1017 65 10000 4.12 170 00:21 10.04.2021
487 Clouds 9 1016 48 10000 0.45 119 23:41 09.04.2021
488 Clear 10 1017 53 10000 3.6 150 22:59 09.04.2021
489 Clear 10 1017 53 10000 3.6 150 22:38 09.04.2021
490 Clear 11 1017 43 10000 4.63 160 21:56 09.04.2021
491 Clear 11 1017 43 10000 4.63 160 21:38 09.04.2021
492 Clear 12 1017 40 10000 4.63 150 21:18 09.04.2021
493 Clear 12 1017 35 10000 4.63 140 20:42 09.04.2021
494 Clear 13 1017 37 10000 5.14 160 20:22 09.04.2021
495 Clear 15 1017 33 10000 6.69 160 19:54 09.04.2021
496 Clear 15 1017 26 10000 7.2 160 19:36 09.04.2021
497 Clear 16 1017 26 10000 7.2 160 19:18 09.04.2021
498 Clear 15 1018 27 10000 6.69 150 18:41 09.04.2021
499 Clear 16 1018 27 10000 6.69 150 18:19 09.04.2021
500 Clear 16 1018 26 10000 8.23 150 17:37 09.04.2021
501 Clear 16 1018 25 10000 9.26 150 16:56 09.04.2021
502 Clear 16 1019 27 10000 8.23 150 16:35 09.04.2021
503 Clear 16 1019 25 10000 7.2 140 15:52 09.04.2021
504 Clear 16 1020 25 10000 7.2 140 15:34 09.04.2021
505 Clear 16 1020 26 10000 7.2 140 14:58 09.04.2021
506 Clear 15 1020 26 10000 7.2 140 14:39 09.04.2021
507 Clear 15 1021 26 10000 7.2 140 13:52 09.04.2021
508 Clear 14 1021 26 10000 6.17 150 13:25 09.04.2021
509 Clear 14 1022 28 10000 5.14 170 12:51 09.04.2021
510 Clear 13 1022 28 10000 4.63 170 12:32 09.04.2021
511 Clear 11 1022 32 10000 5.66 150 11:46 09.04.2021
512 Clear 11 1023 32 10000 5.66 150 11:22 09.04.2021
513 Clear 10 1023 34 10000 6.69 160 10:46 09.04.2021
514 Clear 8 1023 31 10000 7.72 170 10:20 09.04.2021
515 Clear 6 1023 36 10000 8.23 170 09:39 09.04.2021
516 Clear 6 1023 42 10000 7.72 160 09:20 09.04.2021
517 Clear 4 1023 45 10000 7.2 160 08:51 09.04.2021
518 Clear 1 1024 64 10000 4.12 160 07:38 09.04.2021
519 Clouds 0 1030 62 10000 2.36 159 06:34 09.04.2021
520 Clouds 0 1031 66 10000 2.36 159 05:56 09.04.2021
521 Clear 0 1032 74 10000 1.91 145 03:53 09.04.2021
522 Clouds 1 1023 69 10000 0.45 216 01:35 09.04.2021
523 Clouds 2 1026 67 10000 1.16 248 00:37 09.04.2021
524 Clouds 2 1026 67 10000 1.79 260 00:19 09.04.2021
525 Clear 2 1026 64 10000 2.57 260 23:21 08.04.2021
526 Clear 3 1026 60 10000 3.09 270 22:43 08.04.2021
527 Clear 3 1026 60 10000 3.09 270 22:43 08.04.2021
528 Clear 3 1026 60 10000 3.6 270 22:22 08.04.2021
529 Clear 3 1026 56 10000 4.63 270 21:55 08.04.2021
530 Clear 3 1026 56 10000 4.63 270 21:55 08.04.2021
531 Clear 3 1026 56 10000 4.63 270 21:55 08.04.2021
532 Clear 4 1026 56 10000 4.63 270 21:36 08.04.2021
533 Clear 4 1025 56 10000 6.17 280 21:18 08.04.2021
534 Clear 4 1025 56 10000 5.66 270 20:52 08.04.2021
535 Clear 5 1025 52 10000 5.14 270 20:30 08.04.2021
536 Clear 5 1025 52 10000 6.69 270 19:46 08.04.2021
537 Clouds 6 1025 52 10000 7.72 270 19:20 08.04.2021
538 Clouds 6 1025 52 10000 7.72 270 19:20 08.04.2021
539 Clouds 6 1024 45 10000 8.23 280 18:51 08.04.2021
540 Clouds 7 1024 45 10000 8.75 270 18:21 08.04.2021
541 Clouds 7 1024 42 10000 9.26 270 17:49 08.04.2021
542 Clouds 7 1023 45 10000 9.77 280 17:26 08.04.2021
543 Clouds 8 1023 37 10000 9.26 280 16:51 08.04.2021
544 Clouds 8 1023 45 10000 6.17 310 16:33 08.04.2021
545 Clouds 8 1023 56 10000 12.86 310 15:48 08.04.2021
546 Clouds 8 1023 61 10000 8.75 260 15:29 08.04.2021
547 Clouds 8 1023 61 10000 11.32 290 14:58 08.04.2021
548 Clouds 8 1023 61 10000 11.32 290 14:36 08.04.2021
549 Rain 7 1023 45 10000 5.66 280 14:18 08.04.2021
550 Clouds 7 1023 65 10000 6.69 270 13:43 08.04.2021
551 Clouds 6 1023 70 10000 7.72 280 13:22 08.04.2021
552 Clouds 6 1023 45 10000 10.29 300 12:44 08.04.2021
553 Rain 6 1023 52 10000 10.29 290 12:25 08.04.2021
554 Clouds 6 1022 56 10000 6.69 310 11:43 08.04.2021
555 Snow 5 1023 65 10000 9.77 290 11:18 08.04.2021
556 Rain 5 1022 56 10000 8.75 280 10:42 08.04.2021
557 Clouds 5 1021 56 10000 9.77 290 10:19 08.04.2021
558 Clouds 5 1021 56 10000 8.75 300 09:43 08.04.2021
559 Clouds 4 1020 60 10000 9.26 290 08:47 08.04.2021
560 Clouds 3 1020 65 10000 8.23 280 08:28 08.04.2021
561 Clouds 3 1019 65 10000 8.23 290 07:59 08.04.2021
562 Clouds 3 1019 65 10000 8.23 290 07:35 08.04.2021
563 Clouds 2 1018 70 10000 8.23 280 04:44 08.04.2021
564 Clouds 2 1017 69 10000 7.72 280 01:21 08.04.2021
565 Clouds 2 1017 69 10000 7.72 280 01:21 08.04.2021
566 Clear 2 1018 75 10000 5.14 270 00:29 08.04.2021
567 Clear 2 1018 75 10000 4.12 260 23:45 07.04.2021
568 Clear 2 1017 75 10000 5.66 280 23:22 07.04.2021
569 Clear 1 1017 75 10000 6.69 280 22:54 07.04.2021
570 Clear 1 1017 64 10000 7.2 270 22:35 07.04.2021
571 Clouds 2 1017 69 10000 4.12 270 21:48 07.04.2021
572 Clouds 2 1017 69 10000 3.09 270 21:26 07.04.2021
573 Clouds 2 1016 69 10000 4.63 280 20:47 07.04.2021
574 Clouds 2 1016 75 10000 7.72 290 20:27 07.04.2021
575 Clouds 2 1016 75 10000 5.14 280 19:46 07.04.2021
576 Clouds 3 1015 69 10000 2.68 309 19:28 07.04.2021
577 Rain 3 1015 68 10000 4.47 275 18:53 07.04.2021
578 Snow 2 1016 65 10000 9.26 290 18:21 07.04.2021
579 Rain 3 1015 56 10000 9.77 290 17:57 07.04.2021
580 Rain 4 1015 56 10000 9.77 290 17:39 07.04.2021
581 Rain 4 1014 60 10000 8.23 280 16:59 07.04.2021
582 Clouds 4 1014 60 10000 8.23 280 16:39 07.04.2021
583 Snow 5 1014 70 10000 11.83 280 16:20 07.04.2021
584 Clouds 5 1013 65 10000 7.2 260 15:50 07.04.2021
585 Rain 5 1013 65 10000 7.2 280 15:25 07.04.2021
586 Rain 5 1013 65 10000 7.2 280 15:25 07.04.2021
587 Clouds 5 1020 53 10000 0.45 263 14:35 07.04.2021
588 Clouds 5 1013 75 10000 8.75 280 13:55 07.04.2021
589 Rain 5 1013 56 10000 7.72 290 13:28 07.04.2021
590 Rain 5 1012 42 10000 6.69 300 12:58 07.04.2021
591 Clouds 5 1012 45 10000 6.17 320 12:26 07.04.2021
592 Clouds 5 1012 48 10000 7.2 310 11:59 07.04.2021
593 Clouds 4 1011 52 10000 8.23 320 11:29 07.04.2021
594 Clouds 5 1011 52 10000 7.72 320 10:59 07.04.2021
595 Clouds 4 1011 56 10000 8.75 310 10:33 07.04.2021
596 Clouds 4 1011 60 10000 6.17 310 09:46 07.04.2021
597 Clouds 3 1011 56 10000 8.23 320 09:28 07.04.2021
598 Clouds 2 1010 60 10000 4.63 310 08:48 07.04.2021
599 Clouds 2 1010 64 10000 3.09 320 08:23 07.04.2021
600 Clouds 1 1010 69 10000 3.09 330 07:46 07.04.2021
601 Clouds 1 1009 74 10000 5.14 310 07:26 07.04.2021
602 Clouds 0 1009 74 10000 6.69 300 06:39 07.04.2021
603 Clear 0 1008 74 10000 2.06 260 04:37 07.04.2021
604 Clear 0 1008 69 10000 4.12 260 01:21 07.04.2021
605 Clear 1 1008 75 10000 4.12 260 23:47 06.04.2021
606 Clear 1 1008 75 10000 5.66 270 23:22 06.04.2021
607 Clear 1 1008 75 10000 6.69 290 22:50 06.04.2021
608 Clouds 1 1008 75 10000 5.14 280 22:21 06.04.2021
609 Clouds 1 1008 75 10000 5.14 290 21:44 06.04.2021
610 Clouds 1 1008 75 10000 5.66 290 21:24 06.04.2021
611 Clouds 1 1008 80 10000 6.17 280 20:58 06.04.2021
612 Clouds 1 1008 80 10000 6.17 280 20:39 06.04.2021
613 Clouds 2 1007 69 10000 7.72 270 20:19 06.04.2021
614 Clouds 3 1007 65 10000 7.2 280 19:42 06.04.2021
615 Clouds 3 1007 60 10000 2.57 220 19:24 06.04.2021
616 Clouds 4 1007 65 10000 2.06 190 18:43 06.04.2021
617 Clouds 5 1007 60 10000 3.09 330 18:20 06.04.2021
618 Clouds 5 1007 65 10000 3.09 260 17:45 06.04.2021
619 Clouds 6 1007 70 10000 4.12 310 17:20 06.04.2021
620 Clouds 5 1016 46 10000 0.89 100 16:49 06.04.2021
621 Clouds 6 1016 46 10000 0.89 100 16:27 06.04.2021
622 Rain 4 1008 81 10000 5.66 280 15:27 06.04.2021
623 Rain 5 1016 46 10000 0.89 100 14:50 06.04.2021
624 Rain 5 1008 48 10000 6.69 290 14:31 06.04.2021
625 Rain 5 1008 42 10000 7.72 280 13:55 06.04.2021
626 Rain 5 1008 42 10000 7.72 280 13:37 06.04.2021
627 Clouds 5 1009 48 10000 9.26 270 13:18 06.04.2021
628 Clouds 5 1009 45 10000 9.77 270 12:38 06.04.2021
629 Clouds 5 1009 48 10000 8.75 270 12:19 06.04.2021
630 Clouds 4 1009 48 10000 8.75 280 11:45 06.04.2021
631 Clouds 4 1009 52 10000 8.75 280 11:20 06.04.2021
632 Clouds 4 1009 52 10000 7.2 300 10:45 06.04.2021
633 Clouds 3 1009 52 10000 7.72 310 10:22 06.04.2021
634 Clouds 3 1009 55 10000 8.75 300 09:47 06.04.2021
635 Clouds 2 1009 55 10000 7.72 300 09:26 06.04.2021
636 Clouds 1 1009 60 10000 8.23 320 08:34 06.04.2021
637 Clouds 1 1009 55 10000 9.26 320 07:33 06.04.2021
638 Clouds 1 1009 60 10000 8.75 320 06:55 06.04.2021
639 Snow 1 1008 69 10000 7.72 310 04:53 06.04.2021
640 Snow 1 1007 64 10000 10.29 330 01:54 06.04.2021
641 Clouds 3 1005 65 10000 10.8 330 00:43 06.04.2021
642 Rain 3 1004 75 10000 10.29 330 00:20 06.04.2021
643 Rain 6 1002 50 10000 11.83 300 23:42 05.04.2021
644 Rain 7 1002 50 10000 11.83 300 23:19 05.04.2021
645 Rain 11 1002 40 10000 6.69 320 22:43 05.04.2021
646 Rain 11 1001 43 10000 6.17 340 22:24 05.04.2021
647 Rain 13 1001 35 10000 5.14 260 21:39 05.04.2021
648 Clouds 13 1001 35 10000 5.14 260 21:20 05.04.2021
649 Rain 14 1001 41 10000 5.14 210 20:42 05.04.2021
650 Rain 14 1000 35 10000 5.14 220 20:23 05.04.2021
651 Clear 14 1000 35 10000 6.69 210 19:39 05.04.2021
652 Clear 14 1000 35 10000 6.17 190 19:19 05.04.2021
653 Clear 14 1000 35 10000 6.17 190 19:19 05.04.2021
654 Clear 15 1000 33 10000 5.14 170 18:43 05.04.2021
655 Clear 15 1000 31 10000 4.63 170 18:25 05.04.2021
656 Clear 16 1000 31 10000 5.14 170 17:47 05.04.2021
657 Clear 16 1001 29 10000 5.66 170 17:25 05.04.2021
658 Clear 17 1001 27 10000 6.17 180 16:57 05.04.2021
659 Clear 17 1001 27 10000 6.17 180 16:38 05.04.2021
660 Clear 18 1002 27 10000 6.17 180 16:18 05.04.2021
661 Clear 18 1002 25 10000 6.17 170 15:47 05.04.2021
662 Clear 18 1003 27 10000 5.66 180 15:22 05.04.2021
663 Clear 17 1004 29 10000 5.66 180 14:36 05.04.2021
664 Clear 17 1005 29 10000 6.69 200 13:56 05.04.2021
665 Clear 16 1006 31 10000 5.66 190 13:31 05.04.2021
666 Clear 15 1007 31 10000 4.63 180 12:47 05.04.2021
667 Clear 15 1007 33 10000 5.66 220 12:26 05.04.2021
668 Clear 15 1008 33 10000 6.17 190 11:53 05.04.2021
669 Clear 14 1009 35 10000 6.69 210 11:32 05.04.2021
670 Clear 13 1009 35 10000 6.17 210 10:57 05.04.2021
671 Clear 12 1010 40 10000 6.17 190 10:36 05.04.2021
672 Clear 9 1010 46 10000 6.69 190 09:49 05.04.2021
673 Clear 7 1010 53 10000 5.66 190 09:26 05.04.2021
674 Clear 7 1010 60 10000 5.14 180 08:59 05.04.2021
675 Clear 7 1010 60 10000 5.14 180 08:37 05.04.2021
676 Clear 4 1011 75 10000 3.6 160 08:19 05.04.2021
677 Clear 2 1011 86 10000 4.63 170 07:33 05.04.2021
678 Clear 2 1014 80 10000 5.14 170 03:58 05.04.2021
679 Clouds 3 1028 74 10000 0.89 235 01:34 05.04.2021
680 Clouds 3 1028 74 10000 0.89 235 00:20 05.04.2021
681 Clear 3 1017 64 10000 3.09 210 23:37 04.04.2021
682 Clear 4 1017 56 10000 2.06 220 23:18 04.04.2021
683 Clear 4 1018 48 10000 1.03 0 22:45 04.04.2021
684 Clear 4 1018 48 10000 2.06 250 22:26 04.04.2021
685 Clear 5 1018 42 10000 2.06 260 21:23 04.04.2021
686 Clear 5 1018 45 10000 2.06 260 20:51 04.04.2021
687 Clear 6 1018 42 10000 2.06 310 20:23 04.04.2021
688 Clear 8 1018 42 10000 3.6 310 19:42 04.04.2021
689 Clear 8 1018 39 10000 4.63 310 19:20 04.04.2021
690 Clear 9 1018 37 10000 5.66 310 18:56 04.04.2021
691 Clear 9 1018 37 10000 5.66 310 18:37 04.04.2021
692 Clouds 9 1019 37 10000 5.66 330 18:19 04.04.2021
693 Clouds 9 1019 37 10000 4.63 330 17:37 04.04.2021
694 Clouds 10 1019 37 10000 5.66 310 17:18 04.04.2021
695 Clouds 10 1019 40 10000 5.14 330 16:41 04.04.2021
696 Clouds 9 1020 42 10000 5.66 340 15:58 04.04.2021
697 Clouds 9 1020 40 10000 4.63 330 15:33 04.04.2021
698 Clouds 9 1020 40 10000 6.69 320 14:43 04.04.2021
699 Clouds 9 1021 46 10000 7.2 350 14:25 04.04.2021
700 Clouds 9 1021 46 10000 4.63 340 13:29 04.04.2021
701 Clouds 8 1022 49 10000 5.66 310 12:53 04.04.2021
702 Clouds 8 1022 53 10000 5.14 320 12:32 04.04.2021
703 Clouds 7 1022 57 10000 4.63 320 11:52 04.04.2021
704 Clouds 7 1022 61 10000 5.66 310 11:31 04.04.2021
705 Clouds 7 1022 61 10000 5.66 340 10:56 04.04.2021
706 Clouds 6 1022 70 10000 5.66 320 10:33 04.04.2021
707 Clouds 6 1022 70 10000 4.63 330 09:52 04.04.2021
708 Clouds 5 1022 75 10000 4.63 330 09:24 04.04.2021
709 Clouds 4 1022 75 10000 4.63 330 08:51 04.04.2021
710 Clouds 4 1022 81 10000 5.66 320 08:33 04.04.2021
711 Clouds 3 1021 81 10000 4.12 320 07:24 04.04.2021
712 Clouds 3 1021 81 10000 5.14 320 06:36 04.04.2021
713 Clouds 3 1021 81 10000 5.14 330 04:56 04.04.2021
714 Rain 4 1021 75 10000 7.2 330 01:28 04.04.2021
715 Clouds 4 1020 65 10000 5.66 320 00:19 04.04.2021
716 Clouds 4 1020 65 10000 4.63 320 23:47 03.04.2021
717 Clouds 5 1020 70 10000 4.12 330 23:23 03.04.2021
718 Clouds 5 1020 65 10000 3.6 320 22:51 03.04.2021
719 Clear 5 1020 70 10000 5.14 320 22:21 03.04.2021
720 Rain 5 1019 65 10000 6.17 320 21:47 03.04.2021
721 Clouds 5 1019 70 10000 9.26 310 21:24 03.04.2021
722 Rain 5 1019 70 10000 5.14 310 20:51 03.04.2021
723 Rain 6 1019 70 10000 5.66 320 20:28 03.04.2021
724 Clouds 6 1018 70 10000 5.66 320 19:51 03.04.2021
725 Rain 6 1018 70 10000 5.14 320 19:25 03.04.2021
726 Clouds 6 1018 81 10000 8.75 350 18:52 03.04.2021
727 Rain 8 1017 49 10000 8.75 310 18:33 03.04.2021
728 Clouds 9 1017 49 10000 6.69 310 17:55 03.04.2021
729 Clouds 10 1017 49 10000 8.75 320 17:26 03.04.2021
730 Clouds 9 1017 43 10000 8.75 320 16:54 03.04.2021
731 Clouds 9 1017 50 10000 8.23 320 16:25 03.04.2021
732 Clouds 9 1017 57 10000 9.77 330 15:51 03.04.2021
733 Clouds 9 1017 57 10000 9.77 330 15:31 03.04.2021
734 Rain 9 1017 61 10000 7.2 330 14:45 03.04.2021
735 Clouds 9 1017 76 10000 5.66 310 14:25 03.04.2021
736 Rain 8 1015 69 10000 1.34 260 13:54 03.04.2021
737 Rain 8 1017 57 10000 10.29 310 13:34 03.04.2021
738 Rain 9 1017 53 10000 9.77 310 12:58 03.04.2021
739 Clouds 9 1017 53 10000 8.75 310 12:33 03.04.2021
740 Clouds 8 1017 57 10000 8.75 320 11:41 03.04.2021
741 Clouds 9 1016 49 10000 8.75 340 11:20 03.04.2021
742 Clouds 9 1016 53 10000 6.69 320 10:45 03.04.2021
743 Clouds 8 1016 57 10000 8.75 320 10:26 03.04.2021
744 Clouds 7 1016 57 10000 8.75 330 09:36 03.04.2021
745 Clouds 7 1016 61 10000 8.23 320 09:18 03.04.2021
746 Clouds 6 1016 61 10000 7.72 320 08:35 03.04.2021
747 Clear 6 1016 65 10000 7.2 310 07:40 03.04.2021
748 Clear 6 1015 65 10000 6.69 320 07:22 03.04.2021
749 Clear 6 1014 65 10000 5.14 330 03:54 03.04.2021
750 Clouds 7 1015 65 10000 6.69 330 02:55 03.04.2021
751 Clouds 8 1015 70 10000 5.66 340 02:30 03.04.2021
752 Clouds 9 1015 61 10000 6.69 340 00:45 03.04.2021
753 Clouds 9 1015 61 10000 5.14 340 00:18 03.04.2021
754 Clouds 9 1015 61 10000 5.66 330 23:44 02.04.2021
755 Clouds 9 1015 61 10000 5.66 330 23:44 02.04.2021
756 Clouds 10 1015 57 10000 5.66 340 23:18 02.04.2021
757 Clouds 10 1015 57 10000 4.12 320 22:44 02.04.2021
758 Clear 10 1014 57 10000 4.63 330 22:25 02.04.2021
759 Clear 10 1014 57 10000 4.63 340 21:41 02.04.2021
760 Clear 10 1014 57 10000 5.66 340 21:19 02.04.2021
761 Clear 10 1014 57 10000 4.12 340 20:43 02.04.2021
762 Clear 11 1013 54 10000 5.66 340 20:21 02.04.2021
763 Clear 12 1013 54 10000 5.14 350 19:42 02.04.2021
764 Clouds 12 1013 50 10000 4.63 360 19:23 02.04.2021
765 Clouds 13 1013 47 10000 6.17 360 18:48 02.04.2021
766 Clouds 14 1013 47 10000 6.69 350 18:30 02.04.2021
767 Clouds 14 1013 41 10000 7.2 350 17:56 02.04.2021
768 Clouds 15 1013 41 10000 7.2 350 17:32 02.04.2021
769 Clouds 15 1014 41 10000 7.2 350 16:37 02.04.2021
770 Clouds 16 1014 44 10000 7.2 330 15:47 02.04.2021
771 Clouds 16 1015 44 10000 7.2 350 15:25 02.04.2021
772 Clouds 15 1015 41 10000 7.2 310 14:33 02.04.2021
773 Clouds 15 1015 41 10000 7.72 310 13:50 02.04.2021
774 Clouds 14 1015 47 10000 7.2 330 13:28 02.04.2021
775 Clouds 14 1016 50 10000 6.69 300 12:59 02.04.2021
776 Clouds 14 1016 50 10000 6.69 300 12:38 02.04.2021
777 Clouds 14 1016 50 10000 7.72 320 12:19 02.04.2021
778 Clouds 13 1016 54 10000 6.69 320 11:48 02.04.2021
779 Clouds 12 1016 62 10000 6.17 320 11:19 02.04.2021
780 Clouds 11 1017 66 10000 6.17 320 10:43 02.04.2021
781 Clouds 11 1016 66 10000 6.17 330 10:23 02.04.2021
782 Clouds 11 1016 66 10000 6.69 330 09:51 02.04.2021
783 Clouds 11 1016 71 10000 6.17 330 09:24 02.04.2021
784 Clouds 11 1015 71 10000 6.69 330 08:46 02.04.2021
785 Clouds 11 1015 71 10000 6.69 330 08:46 02.04.2021
786 Clouds 12 1015 66 10000 6.69 320 08:26 02.04.2021
787 Clouds 12 1014 66 10000 7.2 320 07:22 02.04.2021
788 Clear 13 1014 62 10000 6.17 320 06:34 02.04.2021
789 Clear 13 1013 58 10000 3.09 350 03:40 02.04.2021
790 Clear 15 1014 48 10000 2.57 280 01:49 02.04.2021
791 Clouds 15 1014 48 10000 3.09 310 00:43 02.04.2021
792 Rain 16 1014 51 10000 3.09 310 23:48 01.04.2021
793 Rain 17 1013 48 10000 3.09 310 23:27 01.04.2021
794 Rain 16 1013 48 10000 2.57 330 22:50 01.04.2021
795 Clear 17 1014 45 10000 1.54 350 22:18 01.04.2021
796 Clear 18 1013 45 10000 3.6 360 21:44 01.04.2021
797 Clear 18 1013 42 10000 7.72 340 21:23 01.04.2021
798 Clouds 21 1012 34 10000 6.17 330 20:41 01.04.2021
799 Clouds 20 1012 34 10000 6.17 330 20:41 01.04.2021
800 Clouds 21 1012 26 10000 8.75 290 20:22 01.04.2021
801 Clouds 22 1012 26 10000 7.2 280 19:43 01.04.2021
802 Clouds 22 1012 27 10000 6.17 270 19:24 01.04.2021
803 Clouds 23 1012 27 10000 7.2 270 18:45 01.04.2021
804 Clear 24 1012 27 10000 7.72 280 18:18 01.04.2021
805 Clear 24 1012 25 10000 7.2 270 17:45 01.04.2021
806 Clear 23 1013 25 10000 7.72 260 17:24 01.04.2021
807 Clear 24 1013 23 10000 6.69 270 16:50 01.04.2021
808 Clear 24 1013 23 10000 6.69 270 16:50 01.04.2021
809 Clear 24 1013 23 10000 6.69 270 16:24 01.04.2021
810 Clear 24 1014 25 10000 6.69 270 15:43 01.04.2021
811 Clear 24 1014 25 10000 6.69 280 15:19 01.04.2021
812 Clear 23 1015 27 10000 7.2 280 14:42 01.04.2021
813 Clear 23 1015 27 10000 7.2 290 14:23 01.04.2021
814 Clear 23 1016 27 10000 6.69 290 13:52 01.04.2021
815 Clear 22 1016 27 10000 7.2 300 13:30 01.04.2021
816 Clear 22 1016 27 10000 7.2 300 13:30 01.04.2021
817 Clear 22 1016 28 10000 6.17 290 12:49 01.04.2021
818 Clear 21 1016 30 10000 7.2 280 12:30 01.04.2021
819 Clear 21 1017 32 10000 6.17 290 11:47 01.04.2021
820 Clear 20 1017 45 10000 1.03 0 11:24 01.04.2021
821 Clear 19 1017 52 10000 1.03 0 10:53 01.04.2021
822 Clear 19 1017 52 10000 1.03 0 10:53 01.04.2021
823 Clear 18 1017 63 10000 1.03 0 10:35 01.04.2021
824 Clear 17 1017 63 10000 2.06 0 09:54 01.04.2021
825 Clear 15 1018 67 10000 1.03 0 09:24 01.04.2021
826 Clear 15 1018 82 10000 1.03 160 08:33 01.04.2021
827 Clear 10 1018 87 10000 2.06 170 07:57 01.04.2021
828 Clear 11 1018 87 10000 1.54 160 07:19 01.04.2021
829 Clear 9 1018 87 10000 1.03 180 06:47 01.04.2021
830 Clear 11 1019 81 10000 1.03 0 03:30 01.04.2021
831 Clear 13 1020 67 10000 0.51 0 00:59 01.04.2021
832 Clear 14 1020 67 10000 3.09 140 23:44 31.03.2021
833 Clear 14 1020 62 10000 4.12 140 23:19 31.03.2021
834 Clear 15 1021 67 10000 4.12 150 22:41 31.03.2021
835 Clear 15 1021 62 10000 3.09 160 22:20 31.03.2021
836 Clear 16 1021 58 10000 1.54 110 21:46 31.03.2021
837 Clear 16 1021 55 10000 2.06 100 21:24 31.03.2021
838 Clear 17 1021 51 10000 1.03 140 20:57 31.03.2021
839 Clear 17 1021 51 10000 1.03 140 20:39 31.03.2021
840 Clear 18 1021 48 10000 2.06 120 20:18 31.03.2021
841 Clear 20 1021 42 10000 3.6 140 19:40 31.03.2021
842 Clear 22 1021 42 10000 3.6 140 19:19 31.03.2021
843 Clear 22 1021 40 10000 3.6 140 18:49 31.03.2021
844 Clear 22 1022 37 10000 4.12 140 18:21 31.03.2021
845 Clear 23 1022 37 10000 3.09 120 17:37 31.03.2021
846 Clear 23 1022 37 10000 3.6 130 17:18 31.03.2021
847 Clear 23 1023 37 10000 3.6 130 16:48 31.03.2021
848 Clear 23 1023 37 10000 3.6 150 16:25 31.03.2021
849 Clear 23 1023 40 10000 4.12 140 15:50 31.03.2021
850 Clear 22 1024 37 10000 3.09 130 15:19 31.03.2021
851 Clear 22 1024 40 10000 3.09 150 14:45 31.03.2021
852 Clear 22 1025 40 10000 3.09 180 14:24 31.03.2021
853 Clear 22 1025 43 10000 2.57 160 13:42 31.03.2021
854 Clear 21 1026 43 10000 3.09 170 13:18 31.03.2021
855 Clear 21 1026 45 10000 2.57 150 12:36 31.03.2021
856 Clear 20 1026 49 10000 3.09 140 12:18 31.03.2021
857 Clear 18 1027 45 10000 1.54 170 11:21 31.03.2021
858 Clear 18 1027 48 10000 1.54 110 10:47 31.03.2021
859 Clear 16 1027 51 10000 1.54 110 10:26 31.03.2021
860 Clear 16 1027 54 10000 1.03 0 09:45 31.03.2021
861 Clear 14 1027 62 10000 1.54 130 09:26 31.03.2021
862 Clear 13 1027 66 10000 1.54 160 08:41 31.03.2021
863 Clear 10 1027 76 10000 2.06 170 07:58 31.03.2021
864 Clear 9 1027 76 10000 1.03 190 06:50 31.03.2021
865 Clear 10 1027 71 10000 2.06 170 04:34 31.03.2021
866 Clear 12 1028 54 10000 1.54 270 02:32 31.03.2021
867 Clear 14 1028 41 10000 3.09 340 00:54 31.03.2021
868 Clear 15 1028 39 10000 2.57 350 00:22 31.03.2021
869 Clouds 15 1026 49 10000 0.45 247 23:54 30.03.2021
870 Clouds 16 1026 48 10000 0.45 270 23:22 30.03.2021
871 Clear 16 1028 39 10000 3.09 310 22:49 30.03.2021
872 Clear 17 1028 36 10000 3.09 300 22:30 30.03.2021
873 Clear 17 1028 34 10000 4.12 300 21:56 30.03.2021
874 Clear 18 1028 34 10000 4.12 300 21:25 30.03.2021
875 Clear 18 1028 34 10000 4.12 290 20:58 30.03.2021
876 Clear 18 1028 30 10000 4.63 290 20:30 30.03.2021
877 Clear 19 1028 30 10000 2.57 310 19:55 30.03.2021
878 Clear 19 1028 26 10000 3.6 330 19:36 30.03.2021
879 Clear 22 1028 24 10000 5.14 350 18:47 30.03.2021
880 Clear 21 1028 24 10000 5.14 350 18:24 30.03.2021
881 Clear 21 1028 26 10000 5.14 330 17:45 30.03.2021
882 Clear 22 1028 21 10000 5.66 350 17:26 30.03.2021
883 Clear 22 1029 26 10000 3.6 330 16:46 30.03.2021
884 Clear 22 1029 25 10000 5.14 300 16:25 30.03.2021
885 Clear 22 1029 28 10000 5.66 320 15:36 30.03.2021
886 Clear 22 1029 28 10000 5.66 320 15:18 30.03.2021
887 Clear 22 1030 28 10000 4.63 300 14:43 30.03.2021
888 Clear 21 1030 30 10000 5.66 340 14:19 30.03.2021
889 Clear 21 1031 32 10000 4.63 310 13:44 30.03.2021
890 Clear 20 1031 32 10000 3.6 350 13:24 30.03.2021
891 Clear 20 1031 34 10000 3.09 310 12:41 30.03.2021
892 Clear 19 1032 34 10000 3.6 340 12:20 30.03.2021
893 Clear 19 1032 34 10000 4.63 320 11:41 30.03.2021
894 Clear 18 1032 34 10000 4.63 330 11:18 30.03.2021
895 Clear 18 1032 36 10000 3.6 330 10:40 30.03.2021
896 Clear 17 1032 39 10000 2.57 330 10:19 30.03.2021
897 Clear 16 1032 41 10000 3.09 310 09:40 30.03.2021
898 Clouds 16 1029 50 10000 1.34 256 09:20 30.03.2021
899 Clouds 14 1031 41 10000 3.13 347 08:41 30.03.2021
900 Clouds 13 1029 53 10000 1.34 239 07:55 30.03.2021
901 Clouds 13 1031 44 10000 3.13 269 07:28 30.03.2021
902 Clear 13 1031 58 10000 2.57 50 06:23 30.03.2021
903 Clear 14 1031 41 10000 4.12 310 05:24 30.03.2021
904 Clear 13 1031 58 10000 0.51 0 01:37 30.03.2021
905 Clear 13 1031 38 10000 2.57 290 23:53 29.03.2021
906 Clear 13 1031 47 10000 0.51 0 23:21 29.03.2021
907 Clear 13 1031 47 10000 1.03 0 22:37 29.03.2021
908 Rain 14 1031 47 10000 2.06 240 21:55 29.03.2021
909 Clear 15 1031 36 10000 1.54 240 21:33 29.03.2021
910 Clear 15 1031 36 10000 1.54 260 20:51 29.03.2021
911 Clear 15 1031 39 10000 2.57 240 20:29 29.03.2021
912 Clear 16 1031 34 10000 2.57 260 19:53 29.03.2021
913 Clear 16 1031 34 10000 3.09 290 19:27 29.03.2021
914 Clear 16 1031 34 10000 3.09 290 19:27 29.03.2021
915 Clear 18 1031 34 10000 3.6 290 18:54 29.03.2021
916 Clear 17 1030 32 10000 3.6 280 18:30 29.03.2021
917 Clear 17 1030 34 10000 3.09 330 17:58 29.03.2021
918 Clear 18 1030 34 10000 3.09 330 17:35 29.03.2021
919 Clear 18 1031 34 10000 2.57 360 16:53 29.03.2021
920 Clear 18 1031 34 10000 4.12 330 16:27 29.03.2021
921 Clear 18 1031 34 10000 4.63 320 15:43 29.03.2021
922 Clear 18 1031 34 10000 4.12 330 15:24 29.03.2021
923 Clear 18 1031 34 10000 4.12 260 14:48 29.03.2021
924 Clear 18 1031 32 10000 4.12 290 14:21 29.03.2021
925 Clear 17 1032 34 10000 4.12 340 13:40 29.03.2021
926 Clear 17 1032 31 10000 3.09 0 13:18 29.03.2021
927 Clear 16 1032 36 10000 3.6 310 12:49 29.03.2021
928 Clear 14 1033 47 10000 1.54 240 11:49 29.03.2021
929 Clouds 14 1032 40 10000 1.79 323 11:28 29.03.2021
930 Clouds 13 1032 42 10000 2.68 260 10:49 29.03.2021
931 Clear 11 1033 66 10000 1.54 160 10:31 29.03.2021
932 Clear 9 1032 76 10000 1.03 0 09:33 29.03.2021
933 Clear 9 1032 81 10000 1.03 0 08:43 29.03.2021
934 Clear 7 1032 81 10000 1.54 170 08:25 29.03.2021
935 Clear 6 1032 81 10000 3.09 160 07:21 29.03.2021
936 Clouds 6 1038 64 10000 0.96 250 06:25 29.03.2021
937 Clouds 6 1038 65 10000 0.45 16 03:25 29.03.2021
938 Clouds 6 1029 69 10000 1.08 237 00:46 29.03.2021
939 Clear 6 1031 75 10000 2.06 190 00:18 29.03.2021
940 Clear 7 1031 75 10000 4.12 170 23:30 28.03.2021
941 Clear 7 1031 75 10000 3.6 170 22:53 28.03.2021
942 Clear 8 1031 70 10000 3.6 170 22:35 28.03.2021
943 Clear 8 1031 65 10000 3.6 170 21:59 28.03.2021
944 Clear 8 1031 61 10000 2.57 170 21:40 28.03.2021
945 Clear 9 1031 61 10000 2.57 170 21:22 28.03.2021
946 Clear 9 1030 57 10000 2.06 160 20:47 28.03.2021
947 Clear 9 1030 57 10000 2.06 140 20:29 28.03.2021
948 Clear 11 1030 53 10000 3.6 130 19:43 28.03.2021
949 Clear 12 1030 50 10000 3.09 130 19:22 28.03.2021
950 Clear 12 1030 50 10000 3.6 120 18:58 28.03.2021
951 Clear 13 1030 47 10000 3.09 110 18:25 28.03.2021
952 Clear 13 1030 47 10000 3.6 100 17:46 28.03.2021
953 Clear 14 1030 43 10000 2.57 110 17:23 28.03.2021
954 Clear 14 1031 43 10000 4.12 120 16:46 28.03.2021
955 Clouds 14 1038 35 10000 1.34 281 16:23 28.03.2021
956 Clouds 14 1038 35 10000 1.34 281 15:26 28.03.2021
957 Clear 13 1031 40 10000 4.12 110 14:52 28.03.2021
958 Clouds 13 1031 43 10000 3.09 160 14:30 28.03.2021
959 Clouds 13 1032 43 10000 2.06 150 13:43 28.03.2021
960 Clouds 12 1032 46 10000 2.57 130 13:20 28.03.2021
961 Clouds 13 1032 46 10000 2.06 170 12:49 28.03.2021
962 Clouds 12 1032 46 10000 2.06 10 12:29 28.03.2021
963 Clouds 11 1033 50 10000 1.03 0 11:43 28.03.2021
964 Clouds 11 1033 53 10000 2.57 350 11:24 28.03.2021
965 Clear 10 1033 57 10000 3.09 340 10:44 28.03.2021
966 Clear 9 1033 53 10000 3.09 350 10:24 28.03.2021
967 Clear 9 1033 53 10000 3.6 360 09:46 28.03.2021
968 Clear 9 1032 53 10000 3.6 340 09:24 28.03.2021
969 Clear 7 1032 57 10000 3.6 320 08:45 28.03.2021
970 Clear 6 1031 61 10000 2.57 330 07:49 28.03.2021
971 Clear 6 1031 61 10000 3.6 310 06:30 28.03.2021
972 Clear 7 1030 53 10000 5.66 340 03:55 28.03.2021
973 Clear 9 1028 46 10000 4.63 290 00:53 28.03.2021
974 Clear 9 1028 50 10000 5.66 280 00:20 28.03.2021
975 Clear 9 1028 53 10000 5.66 270 23:40 27.03.2021
976 Clear 9 1027 53 10000 5.14 300 22:57 27.03.2021
977 Clear 9 1027 53 10000 6.69 280 22:36 27.03.2021
978 Clear 9 1027 53 10000 6.17 290 21:55 27.03.2021
979 Clouds 9 1027 50 10000 8.75 300 21:36 27.03.2021
980 Clouds 9 1027 50 10000 8.75 300 21:18 27.03.2021
981 Rain 10 1026 53 10000 6.17 300 20:38 27.03.2021
982 Rain 10 1026 50 10000 7.2 300 20:19 27.03.2021
983 Clouds 10 1026 54 10000 7.72 280 19:42 27.03.2021
984 Rain 10 1025 54 10000 7.72 290 19:23 27.03.2021
985 Clouds 10 1025 54 10000 6.17 290 18:48 27.03.2021
986 Rain 10 1024 54 10000 6.17 300 18:28 27.03.2021
987 Rain 11 1024 50 10000 8.23 300 17:50 27.03.2021
988 Clear 11 1023 50 10000 6.69 290 17:23 27.03.2021
989 Clear 12 1023 47 10000 8.23 290 16:49 27.03.2021
990 Clouds 12 1022 47 10000 8.23 290 16:28 27.03.2021
991 Clouds 12 1022 51 10000 11.83 310 15:48 27.03.2021
992 Clouds 14 1022 51 10000 10.8 290 15:22 27.03.2021
993 Clouds 16 1021 45 10000 9.26 280 14:45 27.03.2021
994 Clear 17 1020 42 10000 7.2 300 13:44 27.03.2021
995 Clear 17 1020 36 10000 3.6 0 13:24 27.03.2021
996 Clouds 17 1020 41 10000 4.12 10 12:53 27.03.2021
997 Clouds 17 1020 44 10000 2.06 100 11:59 27.03.2021
998 Clouds 16 1020 44 10000 2.06 100 11:41 27.03.2021
999 Clear 15 1020 50 10000 2.57 280 11:19 27.03.2021
1000 Clear 14 1020 47 10000 1.54 0 10:43 27.03.2021
1001 Clear 12 1019 54 10000 2.57 120 10:22 27.03.2021
1002 Clear 11 1019 61 10000 5.14 140 09:28 27.03.2021
1003 Clear 10 1019 61 10000 4.12 150 08:43 27.03.2021
1004 Clear 10 1019 61 10000 4.12 150 08:43 27.03.2021
1005 Clear 9 1019 61 10000 4.12 130 08:21 27.03.2021
1006 Clear 7 1019 70 10000 2.06 130 07:34 27.03.2021
1007 Clear 6 1018 75 10000 2.06 110 06:43 27.03.2021
1008 Clear 5 1018 70 10000 2.06 130 04:57 27.03.2021
1009 Clear 5 1018 70 10000 2.06 130 04:39 27.03.2021
1010 Clear 8 1019 53 10000 4.63 140 00:49 27.03.2021
1011 Clear 9 1019 53 10000 5.66 140 00:29 27.03.2021
1012 Clear 9 1019 57 10000 4.63 150 23:48 26.03.2021
1013 Clear 10 1020 57 10000 3.6 150 22:56 26.03.2021
1014 Clear 10 1020 57 10000 3.6 150 22:34 26.03.2021
1015 Clear 11 1020 43 10000 5.66 140 21:25 26.03.2021
1016 Clear 12 1020 43 10000 4.12 140 20:59 26.03.2021
1017 Clear 12 1020 43 10000 4.12 140 20:32 26.03.2021
1018 Clear 13 1020 43 10000 3.09 130 19:56 26.03.2021
1019 Clear 13 1020 43 10000 3.09 130 19:37 26.03.2021
1020 Clear 13 1020 41 10000 3.09 120 19:18 26.03.2021
1021 Clear 14 1020 41 10000 4.12 130 18:41 26.03.2021
1022 Clear 15 1020 38 10000 4.63 130 18:19 26.03.2021
1023 Clear 16 1020 36 10000 5.14 130 17:45 26.03.2021
1024 Clear 16 1020 36 10000 5.14 130 17:45 26.03.2021
1025 Clear 17 1020 31 10000 5.66 130 16:54 26.03.2021
1026 Clear 18 1020 29 10000 5.66 140 16:32 26.03.2021
1027 Clear 18 1020 32 10000 4.63 140 15:51 26.03.2021
1028 Clear 19 1021 29 10000 5.14 110 15:21 26.03.2021
1029 Clear 18 1022 36 10000 3.09 140 14:24 26.03.2021
1030 Clouds 17 1022 36 10000 2.57 120 13:34 26.03.2021
1031 Clouds 18 1022 41 10000 3.09 130 12:50 26.03.2021
1032 Clouds 16 1023 44 10000 3.09 130 11:58 26.03.2021
1033 Clouds 16 1023 44 10000 3.09 130 11:34 26.03.2021
1034 Clear 14 1023 50 10000 2.57 140 10:52 26.03.2021
1035 Clear 12 1023 50 10000 2.57 160 10:33 26.03.2021
1036 Clear 11 1023 54 10000 2.57 150 09:42 26.03.2021
1037 Clear 10 1023 57 10000 2.06 180 09:19 26.03.2021
1038 Clear 8 1023 70 10000 2.57 160 08:38 26.03.2021
1039 Clear 9 1023 70 10000 2.57 160 08:20 26.03.2021
1040 Clear 6 1023 87 10000 2.06 170 07:23 26.03.2021
1041 Clear 5 1023 80 10000 0.51 0 06:58 26.03.2021
1042 Clear 5 1023 80 10000 0.51 0 06:58 26.03.2021
1043 Clear 4 1022 80 10000 0.51 0 06:32 26.03.2021
1044 Clear 5 1022 80 10000 1.03 0 05:30 26.03.2021
1045 Clear 5 1022 80 10000 1.03 0 01:59 26.03.2021
1046 Clear 6 1021 75 10000 3.6 160 00:31 26.03.2021
1047 Clear 7 1021 70 10000 2.06 170 23:44 25.03.2021
1048 Clear 7 1021 65 10000 2.57 180 23:20 25.03.2021
1049 Clear 7 1021 65 10000 2.06 200 22:36 25.03.2021
1050 Clear 7 1021 70 10000 3.6 170 21:53 25.03.2021
1051 Clear 8 1021 65 10000 2.57 180 21:34 25.03.2021
1052 Clear 9 1021 57 10000 2.57 160 20:45 25.03.2021
1053 Clear 9 1020 57 10000 2.57 160 20:25 25.03.2021
1054 Clear 10 1020 50 10000 1.54 130 19:48 25.03.2021
1055 Clear 10 1020 43 10000 2.06 80 19:30 25.03.2021
1056 Clear 11 1019 47 10000 0.51 0 18:49 25.03.2021
1057 Clear 13 1019 41 10000 2.06 50 18:27 25.03.2021
1058 Clear 15 1019 44 10000 2.06 40 17:55 25.03.2021
1059 Clear 15 1019 44 10000 2.06 40 17:36 25.03.2021
1060 Clear 16 1019 41 10000 4.12 20 16:56 25.03.2021
1061 Clear 16 1019 39 10000 4.63 350 16:32 25.03.2021
1062 Clear 16 1019 39 10000 5.14 350 15:46 25.03.2021
1063 Clear 16 1020 39 10000 4.63 340 15:24 25.03.2021
1064 Clear 16 1020 41 10000 4.12 320 14:48 25.03.2021
1065 Clear 15 1020 44 10000 2.06 10 14:29 25.03.2021
1066 Clear 14 1021 47 10000 2.06 10 13:25 25.03.2021
1067 Clear 13 1021 50 10000 2.57 0 12:46 25.03.2021
1068 Clear 13 1022 54 10000 1.54 0 12:22 25.03.2021
1069 Clear 12 1022 50 10000 1.54 230 11:53 25.03.2021
1070 Clear 12 1022 50 10000 1.54 230 11:53 25.03.2021
1071 Clear 12 1022 53 10000 1.54 130 11:33 25.03.2021
1072 Clear 11 1023 57 10000 1.03 0 10:58 25.03.2021
1073 Clear 10 1023 57 10000 1.03 0 10:39 25.03.2021
1074 Clear 10 1023 57 10000 1.54 0 10:19 25.03.2021
1075 Clear 8 1023 70 10000 1.03 0 09:43 25.03.2021
1076 Clear 7 1023 75 10000 0.51 0 09:21 25.03.2021
1077 Clear 5 1023 80 8000 0.51 0 08:31 25.03.2021
1078 Clouds 1 1022 93 6000 1.54 170 07:29 25.03.2021
1079 Clouds 1 1022 93 7000 1.03 200 06:43 25.03.2021
1080 Clouds 1 1022 93 7000 1.54 200 06:22 25.03.2021
1081 Clouds 0 1022 93 7000 2.57 180 04:51 25.03.2021
1082 Clear 2 1023 80 10000 2.57 260 01:25 25.03.2021
1083 Clear 3 1023 80 10000 3.6 260 00:19 25.03.2021
1084 Clear 3 1023 75 10000 2.57 260 23:40 24.03.2021
1085 Clear 3 1023 75 10000 2.06 270 23:19 24.03.2021
1086 Clouds 3 1024 75 10000 2.06 300 22:39 24.03.2021
1087 Clouds 4 1024 70 10000 2.06 330 21:57 24.03.2021
1088 Clouds 4 1024 70 10000 2.06 330 21:39 24.03.2021
1089 Clouds 4 1024 75 10000 3.09 350 21:19 24.03.2021
1090 Clouds 4 1024 70 10000 3.09 350 20:41 24.03.2021
1091 Clouds 5 1024 70 10000 2.57 350 20:18 24.03.2021
1092 Clouds 5 1023 70 10000 2.57 10 19:33 24.03.2021
1093 Clouds 6 1023 61 10000 3.09 20 18:56 24.03.2021
1094 Clouds 6 1023 61 10000 4.12 20 18:37 24.03.2021
1095 Clouds 7 1023 61 10000 4.12 20 18:19 24.03.2021
1096 Clouds 8 1023 61 10000 5.14 20 17:33 24.03.2021
1097 Clouds 8 1023 57 10000 5.66 360 16:59 24.03.2021
1098 Clouds 8 1023 57 10000 5.66 360 16:40 24.03.2021
1099 Clouds 9 1023 57 10000 6.69 360 16:19 24.03.2021
1100 Clouds 9 1023 57 10000 5.66 350 15:41 24.03.2021
1101 Clouds 9 1023 57 10000 5.66 360 15:21 24.03.2021
1102 Clouds 9 1023 57 10000 5.14 10 14:41 24.03.2021
1103 Clouds 9 1023 53 10000 6.17 340 14:21 24.03.2021
1104 Clouds 8 1024 57 10000 7.72 340 13:44 24.03.2021
1105 Clouds 8 1024 57 10000 6.17 340 13:24 24.03.2021
1106 Clouds 8 1024 57 10000 5.14 330 12:40 24.03.2021
1107 Clouds 8 1024 57 10000 6.17 330 12:20 24.03.2021
1108 Clouds 7 1025 57 10000 6.69 330 11:41 24.03.2021
1109 Clouds 7 1025 57 10000 6.69 340 10:49 24.03.2021
1110 Clouds 6 1025 57 10000 6.69 340 10:31 24.03.2021
1111 Clouds 7 1025 65 10000 6.69 340 09:55 24.03.2021
1112 Clouds 6 1025 65 10000 6.69 340 09:33 24.03.2021
1113 Clouds 6 1025 65 10000 4.63 320 08:58 24.03.2021
1114 Clouds 5 1025 70 10000 4.63 320 08:39 24.03.2021
1115 Clouds 5 1025 70 10000 5.14 320 07:50 24.03.2021
1116 Clouds 5 1025 70 10000 5.14 320 07:19 24.03.2021
1117 Clouds 4 1024 70 10000 5.14 330 06:45 24.03.2021
1118 Clear 5 1024 70 10000 5.14 340 02:29 24.03.2021
1119 Clear 4 1024 70 10000 6.69 310 00:42 24.03.2021
1120 Clouds 5 1024 70 10000 6.69 320 23:52 23.03.2021
1121 Clouds 5 1024 70 10000 5.66 310 23:20 23.03.2021
1122 Clouds 5 1024 70 10000 6.69 320 22:50 23.03.2021
1123 Clouds 5 1024 65 10000 7.2 320 22:25 23.03.2021
1124 Clouds 5 1023 65 10000 7.2 320 21:46 23.03.2021
1125 Clouds 5 1023 65 10000 7.72 320 21:27 23.03.2021
1126 Clouds 5 1023 65 10000 7.72 320 20:47 23.03.2021
1127 Clouds 5 1023 65 10000 8.23 310 20:25 23.03.2021
1128 Clouds 5 1023 65 10000 9.26 310 19:48 23.03.2021
1129 Clouds 6 1022 65 10000 7.72 310 19:26 23.03.2021
1130 Clouds 6 1022 65 10000 6.69 310 18:47 23.03.2021
1131 Clouds 6 1022 65 10000 6.17 300 18:23 23.03.2021
1132 Clouds 6 1022 61 10000 7.2 310 17:49 23.03.2021
1133 Clouds 6 1022 61 10000 7.72 310 17:23 23.03.2021
1134 Clouds 7 1022 61 10000 7.72 310 16:57 23.03.2021
1135 Clouds 7 1022 61 10000 8.23 310 16:25 23.03.2021
1136 Clouds 7 1022 61 10000 7.72 310 15:47 23.03.2021
1137 Clouds 7 1022 61 10000 8.23 320 15:18 23.03.2021
1138 Clouds 7 1022 61 10000 6.17 290 14:40 23.03.2021
1139 Clouds 7 1022 57 10000 7.72 310 14:18 23.03.2021
1140 Clouds 7 1022 57 10000 9.77 310 13:43 23.03.2021
1141 Clouds 7 1022 49 10000 7.72 320 13:21 23.03.2021
1142 Clouds 7 1022 46 10000 9.26 320 12:43 23.03.2021
1143 Clouds 7 1022 53 10000 6.69 310 12:23 23.03.2021
1144 Clouds 8 1022 53 10000 6.69 320 11:47 23.03.2021
1145 Clouds 8 1022 61 10000 6.69 290 10:59 23.03.2021
1146 Clouds 7 1022 61 10000 6.69 290 10:41 23.03.2021
1147 Clouds 5 1022 61 10000 7.72 310 10:20 23.03.2021
1148 Clouds 5 1022 61 10000 6.17 310 09:47 23.03.2021
1149 Clouds 5 1023 61 10000 6.69 300 09:22 23.03.2021
1150 Clouds 5 1022 65 10000 6.17 300 08:54 23.03.2021
1151 Clouds 4 1022 65 10000 6.17 300 08:36 23.03.2021
1152 Clear 4 1022 70 10000 7.2 300 08:18 23.03.2021
1153 Clear 3 1022 75 10000 5.14 300 07:26 23.03.2021
1154 Clear 3 1022 70 10000 4.12 300 06:52 23.03.2021
1155 Clear 2 1021 64 10000 4.63 320 03:24 23.03.2021
1156 Clouds 2 1021 69 10000 4.12 310 02:22 23.03.2021
1157 Clear 2 1021 75 10000 4.12 320 23:46 22.03.2021
1158 Clouds 3 1021 75 10000 4.12 330 22:59 22.03.2021
1159 Clouds 3 1021 75 10000 4.12 330 22:40 22.03.2021
1160 Clouds 3 1021 75 10000 4.12 330 22:20 22.03.2021
1161 Clouds 3 1020 75 10000 4.12 330 21:46 22.03.2021
1162 Clouds 3 1020 75 10000 4.63 340 21:25 22.03.2021
1163 Clouds 3 1020 75 10000 4.12 330 20:42 22.03.2021
1164 Clouds 3 1019 80 10000 5.14 310 20:24 22.03.2021
1165 Clouds 3 1019 80 10000 3.6 330 19:58 22.03.2021
1166 Rain 2 1019 80 10000 3.6 330 19:38 22.03.2021
1167 Clouds 2 1018 80 10000 4.12 340 19:19 22.03.2021
1168 Rain 3 1018 80 10000 5.14 330 18:40 22.03.2021
1169 Clouds 3 1017 87 10000 4.63 350 18:22 22.03.2021
1170 Rain 4 1017 87 10000 4.64 350 17:49 22.03.2021
1171 Clouds 4 1016 75 10000 5.66 330 17:22 22.03.2021
1172 Clouds 4 1016 75 10000 10.29 350 16:48 22.03.2021
1173 Rain 5 1017 87 10000 6.44 351 16:22 22.03.2021
1174 Clouds 6 1015 49 10000 9.26 330 15:42 22.03.2021
1175 Clouds 7 1015 42 10000 7.72 340 15:22 22.03.2021
1176 Rain 6 1015 45 10000 9.26 340 14:57 22.03.2021
1177 Rain 7 1016 70 10000 3.6 310 14:34 22.03.2021
1178 Clouds 7 1016 45 10000 8.23 340 13:50 22.03.2021
1179 Clouds 6 1016 45 10000 8.23 340 13:29 22.03.2021
1180 Clouds 6 1016 45 10000 8.75 330 12:57 22.03.2021
1181 Clouds 7 1016 45 10000 8.75 330 12:26 22.03.2021
1182 Clouds 6 1015 42 10000 9.77 330 11:51 22.03.2021
1183 Clouds 6 1015 42 10000 9.77 330 11:29 22.03.2021
1184 Clouds 6 1016 49 10000 9.26 340 10:46 22.03.2021
1185 Clouds 6 1015 52 10000 8.23 340 10:26 22.03.2021
1186 Clouds 5 1015 52 10000 8.23 330 09:56 22.03.2021
1187 Clouds 5 1015 52 10000 8.23 340 09:34 22.03.2021
1188 Clouds 4 1015 60 10000 8.23 330 08:47 22.03.2021
1189 Clouds 4 1015 60 10000 8.23 330 08:47 22.03.2021
1190 Clouds 3 1015 65 10000 7.72 330 08:28 22.03.2021
1191 Clouds 3 1014 65 10000 8.23 320 07:54 22.03.2021
1192 Clouds 3 1014 69 10000 7.72 310 07:34 22.03.2021
1193 Clouds 2 1014 69 10000 7.2 310 06:51 22.03.2021
1194 Clouds 3 1012 81 10000 7.2 310 02:51 22.03.2021
1195 Clouds 2 1012 81 10000 7.72 300 00:53 22.03.2021
1196 Clouds 2 1012 81 10000 9.26 300 00:19 22.03.2021
1197 Clouds 2 1012 75 10000 7.2 290 23:40 21.03.2021
1198 Clouds 2 1012 75 10000 7.2 290 23:18 21.03.2021
1199 Clouds 2 1012 75 10000 5.14 290 22:53 21.03.2021
1200 Clouds 2 1012 75 10000 5.14 290 22:53 21.03.2021
1201 Clouds 2 1013 80 10000 5.14 280 21:43 21.03.2021
1202 Rain 2 1013 80 10000 7.2 290 21:25 21.03.2021
1203 Clouds 1 1013 80 10000 8.23 280 20:57 21.03.2021
1204 Clouds 1 1013 75 10000 8.23 280 20:39 21.03.2021
1205 Clouds 1 1013 75 10000 8.23 280 20:21 21.03.2021
1206 Clouds 1 1013 75 10000 7.72 280 19:46 21.03.2021
1207 Clouds 2 1013 75 10000 8.23 280 19:20 21.03.2021
1208 Clouds 1 1013 75 10000 7.72 280 18:44 21.03.2021
1209 Clouds 2 1013 75 10000 7.72 280 18:25 21.03.2021
1210 Rain 2 1013 75 10000 6.69 280 17:43 21.03.2021
1211 Snow 2 1013 69 10000 7.72 280 17:18 21.03.2021
1212 Rain 2 1013 69 10000 9.26 280 16:51 21.03.2021
1213 Clouds 2 1014 69 10000 7.72 280 16:26 21.03.2021
1214 Snow 3 1014 75 10000 7.2 270 15:48 21.03.2021
1215 Snow 3 1015 75 10000 4.63 270 15:22 21.03.2021
1216 Snow 3 1015 80 9000 3.09 250 14:56 21.03.2021
1217 Snow 3 1015 80 9000 3.09 250 14:38 21.03.2021
1218 Rain 2 1014 66 10000 3.58 229 14:19 21.03.2021
1219 Rain 2 1015 65 10000 4.02 302 13:51 21.03.2021
1220 Snow 1 1017 86 4800 4.63 270 12:46 21.03.2021
1221 Snow 1 1017 86 3300 7.2 280 12:25 21.03.2021
1222 Snow 1 1018 80 5000 6.69 270 11:44 21.03.2021
1223 Snow 1 1018 80 5000 6.69 270 11:44 21.03.2021
1224 Snow 1 1018 75 6000 7.72 290 11:26 21.03.2021
1225 Snow 1 1018 60 10000 8.23 280 10:50 21.03.2021
1226 Snow 1 1018 60 10000 8.23 280 10:32 21.03.2021
1227 Clouds 1 1019 64 10000 3.09 250 09:55 21.03.2021
1228 Clouds 0 1019 64 10000 3.09 250 09:37 21.03.2021
1229 Clear 0 1019 64 10000 2.06 240 09:18 21.03.2021
1230 Clouds 0 1018 64 10000 3.58 275 08:38 21.03.2021
1231 Clouds -1 1016 71 10000 0.89 205 08:19 21.03.2021
1232 Clouds -2 1020 86 10000 3.09 190 07:30 21.03.2021
1233 Clear -4 1021 80 10000 3.09 240 06:21 21.03.2021
1234 Clear -4 1022 80 10000 3.6 280 04:57 21.03.2021
1235 Clear -4 1024 63 10000 3.09 260 00:58 21.03.2021
1236 Clear -4 1024 63 10000 3.09 260 00:39 21.03.2021
1237 Clear -3 1024 59 10000 3.09 260 00:20 21.03.2021
1238 Clear -3 1024 59 10000 2.57 300 23:46 20.03.2021
1239 Clear -3 1024 59 10000 3.09 320 23:20 20.03.2021
1240 Clear -3 1025 59 10000 3.6 320 22:36 20.03.2021
1241 Clear -2 1025 54 10000 3.09 320 22:18 20.03.2021
1242 Clear -2 1024 54 10000 3.6 320 21:42 20.03.2021
1243 Clear -2 1025 54 10000 4.12 330 21:24 20.03.2021
1244 Clear -1 1024 50 10000 3.09 320 20:42 20.03.2021
1245 Clear -1 1024 50 10000 3.6 320 20:21 20.03.2021
1246 Clear -1 1024 50 10000 3.6 320 19:44 20.03.2021
1247 Clouds -1 1024 46 10000 4.12 330 19:25 20.03.2021
1248 Clouds -1 1024 43 10000 4.63 330 18:46 20.03.2021
1249 Clouds -1 1024 40 10000 5.14 340 18:24 20.03.2021
1250 Clouds 0 1024 43 10000 5.66 360 17:51 20.03.2021
1251 Clear 1 1024 47 10000 6.69 350 17:27 20.03.2021
1252 Clear 2 1024 32 10000 6.69 320 16:44 20.03.2021
1253 Clear 1 1024 40 10000 5.14 330 16:21 20.03.2021
1254 Clouds 2 1024 41 10000 7.2 10 15:57 20.03.2021
1255 Clouds 2 1024 41 10000 7.2 10 15:39 20.03.2021
1256 Clouds 3 1024 51 10000 7.2 320 14:46 20.03.2021
1257 Clouds 2 1024 51 10000 7.2 320 14:28 20.03.2021
1258 Clouds 2 1024 55 10000 6.69 330 13:40 20.03.2021
1259 Clouds 2 1024 55 10000 5.66 340 12:52 20.03.2021
1260 Clouds 2 1024 60 10000 6.17 330 12:26 20.03.2021
1261 Clouds 2 1024 69 10000 5.66 340 11:46 20.03.2021
1262 Clouds 1 1024 74 10000 6.17 350 11:28 20.03.2021
1263 Clouds 1 1024 67 10000 2.68 319 10:55 20.03.2021
1264 Snow 0 1024 80 10000 6.69 350 10:32 20.03.2021
1265 Clouds 0 1024 74 10000 3.13 313 09:58 20.03.2021
1266 Snow -1 1023 80 10000 7.2 360 09:27 20.03.2021
1267 Clouds -2 1023 74 10000 7.2 360 08:57 20.03.2021
1268 Clouds -2 1023 74 10000 7.2 350 08:30 20.03.2021
1269 Clouds -2 1022 80 10000 6.17 350 07:53 20.03.2021
1270 Clouds -2 1022 86 10000 6.17 10 07:32 20.03.2021
1271 Snow -2 1021 86 10000 5.14 350 06:54 20.03.2021
1272 Snow -1 1021 86 10000 5.14 350 06:19 20.03.2021
1273 Snow 0 1020 86 10000 3.09 330 04:00 20.03.2021
1274 Snow 0 1020 86 10000 3.09 330 03:41 20.03.2021
1275 Clouds 0 1019 86 10000 3.09 320 00:18 20.03.2021
1276 Clouds 0 1019 86 10000 3.09 320 23:31 19.03.2021
1277 Clouds 1 1019 86 10000 3.6 330 22:50 19.03.2021
1278 Clouds 1 1018 86 10000 4.12 300 22:29 19.03.2021
1279 Clouds 1 1018 86 10000 2.57 290 21:58 19.03.2021
1280 Snow 1 1018 93 10000 3.6 300 21:22 19.03.2021
1281 Snow 1 1018 93 10000 0.51 0 20:59 19.03.2021
1282 Rain 1 1018 93 10000 0.51 0 20:40 19.03.2021
1283 Snow 1 1018 93 10000 3.6 360 20:21 19.03.2021
1284 Clouds 1 1018 86 10000 3.6 10 19:46 19.03.2021
1285 Clouds 1 1017 93 10000 2.06 330 19:20 19.03.2021
1286 Clouds 1 1017 93 10000 3.6 270 18:40 19.03.2021
1287 Clouds 1 1017 93 10000 3.6 270 18:20 19.03.2021
1288 Clouds 2 1016 93 10000 3.6 260 17:55 19.03.2021
1289 Clouds 2 1016 93 10000 4.12 260 17:31 19.03.2021
1290 Clouds 3 1016 93 10000 3.09 270 16:55 19.03.2021
1291 Clouds 3 1016 87 10000 3.6 290 16:29 19.03.2021
1292 Clouds 3 1013 79 10000 0.45 247 15:56 19.03.2021
1293 Snow 3 1016 87 6000 4.63 360 15:27 19.03.2021
1294 Snow 4 1016 81 10000 5.66 30 14:47 19.03.2021
1295 Rain 4 1016 70 10000 2.57 300 14:28 19.03.2021
1296 Clouds 6 1016 70 10000 2.57 310 13:42 19.03.2021
1297 Clouds 5 1016 87 10000 2.57 350 12:57 19.03.2021
1298 Clouds 5 1016 92 10000 3.28 321 12:37 19.03.2021
1299 Clouds 3 1017 87 4000 2.06 350 11:48 19.03.2021
1300 Clouds 3 1017 86 3200 4.12 320 10:57 19.03.2021
1301 Snow 3 1017 86 3200 4.12 320 10:39 19.03.2021
1302 Clouds 2 1017 87 10000 1.54 360 10:18 19.03.2021
1303 Clouds 2 1017 86 10000 1.03 0 09:41 19.03.2021
1304 Clouds 2 1017 86 10000 1.54 10 09:22 19.03.2021
1305 Clouds 2 1016 93 9000 2.06 10 08:41 19.03.2021
1306 Snow 2 1016 86 6000 2.06 340 08:22 19.03.2021
1307 Clouds 1 1016 86 10000 1.54 310 07:42 19.03.2021
1308 Clouds 0 1016 80 10000 0.89 302 06:56 19.03.2021
1309 Clear 0 1016 80 10000 2.57 300 03:57 19.03.2021
1310 Clear 0 1017 74 10000 3.09 320 00:58 19.03.2021
1311 Clear 1 1017 75 10000 3.6 280 23:50 18.03.2021
1312 Clear 1 1017 74 10000 3.09 290 23:26 18.03.2021
1313 Clear 0 1017 69 10000 3.09 280 22:43 18.03.2021
1314 Clear 1 1017 60 10000 2.06 300 22:25 18.03.2021
1315 Clear 1 1017 60 10000 3.09 310 21:40 18.03.2021
1316 Clear 1 1017 60 10000 3.09 330 21:20 18.03.2021
1317 Clear 1 1017 60 10000 3.09 320 20:36 18.03.2021
1318 Clear 2 1017 55 10000 2.57 340 19:59 18.03.2021
1319 Clear 2 1017 55 10000 2.57 340 19:59 18.03.2021
1320 Clear 2 1017 55 10000 2.57 340 19:41 18.03.2021
1321 Clear 3 1017 55 10000 3.6 360 19:21 18.03.2021
1322 Clear 4 1017 48 10000 4.63 350 18:39 18.03.2021
1323 Clear 5 1017 45 10000 5.14 340 17:51 18.03.2021
1324 Clear 6 1017 45 10000 4.12 360 17:26 18.03.2021
1325 Clouds 7 1017 42 10000 5.14 350 16:51 18.03.2021
1326 Clouds 6 1017 42 10000 5.14 350 16:32 18.03.2021
1327 Clouds 6 1017 52 10000 6.69 360 15:56 18.03.2021
1328 Clouds 5 1017 52 10000 6.69 360 15:37 18.03.2021
1329 Clouds 6 1017 45 10000 6.69 340 15:18 18.03.2021
1330 Clouds 6 1018 42 10000 6.17 360 14:41 18.03.2021
1331 Clouds 6 1018 48 10000 6.69 350 13:57 18.03.2021
1332 Clouds 7 1018 48 10000 6.69 350 13:37 18.03.2021
1333 Clouds 6 1018 45 10000 6.17 360 13:19 18.03.2021
1334 Clouds 6 1018 42 10000 6.69 10 12:37 18.03.2021
1335 Clouds 6 1018 45 10000 7.72 340 12:18 18.03.2021
1336 Clouds 5 1019 45 10000 7.72 340 11:43 18.03.2021
1337 Clouds 5 1019 52 10000 7.2 350 10:58 18.03.2021
1338 Clouds 5 1019 52 10000 7.2 350 10:39 18.03.2021
1339 Clouds 5 1019 56 10000 6.69 360 10:20 18.03.2021
1340 Clouds 4 1019 56 10000 6.69 350 09:38 18.03.2021
1341 Clouds 4 1019 65 10000 6.69 340 09:20 18.03.2021
1342 Clouds 4 1019 65 10000 7.2 340 08:43 18.03.2021
1343 Clouds 3 1019 70 10000 5.66 320 08:23 18.03.2021
1344 Clear 2 1020 69 10000 5.14 320 07:45 18.03.2021
1345 Clouds 1 1019 75 10000 5.14 320 06:44 18.03.2021
1346 Clouds 1 1019 75 10000 5.66 320 06:25 18.03.2021
1347 Clouds 1 1019 75 10000 5.14 320 05:26 18.03.2021
1348 Clear 2 1019 75 10000 5.14 330 00:44 18.03.2021
1349 Clear 3 1019 75 10000 4.63 330 23:37 17.03.2021
1350 Rain 4 1019 70 10000 5.14 320 22:42 17.03.2021
1351 Clouds 3 1019 70 10000 4.63 330 22:23 17.03.2021
1352 Clouds 4 1019 65 10000 5.66 330 21:51 17.03.2021
1353 Clouds 4 1019 65 10000 5.66 330 21:32 17.03.2021
1354 Clouds 4 1018 70 10000 4.63 320 20:54 17.03.2021
1355 Clouds 4 1018 70 10000 4.63 320 20:54 17.03.2021
1356 Clouds 4 1018 81 10000 4.63 310 20:36 17.03.2021
1357 Clouds 4 1018 81 10000 4.63 310 20:18 17.03.2021
1358 Clouds 4 1018 81 10000 3.6 310 19:40 17.03.2021
1359 Clouds 4 1018 80 10000 3.09 320 19:19 17.03.2021
1360 Clear 4 1018 81 10000 4.12 30 18:50 17.03.2021
1361 Clouds 5 1018 81 10000 6.17 30 18:32 17.03.2021
1362 Clouds 6 1017 75 10000 7.72 30 17:42 17.03.2021
1363 Clear 7 1016 49 10000 7.72 320 17:23 17.03.2021
1364 Clouds 7 1016 49 10000 8.23 320 16:43 17.03.2021
1365 Clouds 7 1016 49 10000 8.23 320 16:21 17.03.2021
1366 Clouds 7 1016 49 10000 8.23 320 15:49 17.03.2021
1367 Clouds 7 1016 45 10000 7.72 320 15:29 17.03.2021
1368 Clouds 7 1016 49 10000 8.23 320 14:40 17.03.2021
1369 Clouds 7 1016 49 10000 8.23 330 14:20 17.03.2021
1370 Clouds 7 1016 45 10000 7.2 340 13:55 17.03.2021
1371 Clouds 6 1016 49 10000 7.72 330 13:26 17.03.2021
1372 Clouds 7 1016 49 10000 8.23 320 12:50 17.03.2021
1373 Clouds 7 1016 42 10000 8.23 310 12:29 17.03.2021
1374 Clouds 7 1016 45 10000 8.75 320 11:43 17.03.2021
1375 Clouds 7 1016 49 10000 9.26 330 11:23 17.03.2021
1376 Clouds 6 1016 49 10000 8.23 330 10:53 17.03.2021
1377 Clouds 5 1017 52 10000 8.75 320 10:24 17.03.2021
1378 Clouds 5 1017 60 10000 8.23 330 09:47 17.03.2021
1379 Clouds 5 1017 60 10000 7.72 320 09:21 17.03.2021
1380 Clouds 4 1017 65 10000 7.72 320 08:56 17.03.2021
1381 Clouds 4 1017 65 10000 7.72 320 08:36 17.03.2021
1382 Clear 3 1016 75 10000 6.69 320 07:48 17.03.2021
1383 Clouds 2 1016 75 10000 6.69 310 07:30 17.03.2021
1384 Clear 2 1016 75 10000 7.2 320 06:39 17.03.2021
1385 Clouds 2 1016 75 10000 6.69 320 04:20 17.03.2021
1386 Clouds 3 1016 70 10000 7.2 320 02:50 17.03.2021
1387 Clouds 3 1017 70 10000 7.2 300 00:40 17.03.2021
1388 Clouds 3 1017 65 10000 7.72 310 23:29 16.03.2021
1389 Clouds 3 1016 65 10000 7.72 300 22:51 16.03.2021
1390 Clouds 3 1016 65 10000 7.72 300 22:33 16.03.2021
1391 Clouds 4 1017 70 10000 5.66 320 21:49 16.03.2021
1392 Clouds 4 1017 65 10000 7.72 320 21:31 16.03.2021
1393 Clouds 4 1017 65 10000 7.72 310 20:59 16.03.2021
1394 Clouds 4 1017 65 10000 7.72 310 20:59 16.03.2021
1395 Clouds 4 1017 65 10000 7.72 310 20:38 16.03.2021
1396 Clouds 4 1017 60 10000 8.23 320 20:18 16.03.2021
1397 Clouds 5 1016 60 10000 9.26 310 19:42 16.03.2021
1398 Clouds 4 1016 65 10000 6.69 320 19:23 16.03.2021
1399 Clouds 5 1016 65 10000 6.69 310 18:44 16.03.2021
1400 Clouds 5 1016 70 10000 8.23 310 18:26 16.03.2021
1401 Clouds 5 1015 65 10000 9.77 310 17:48 16.03.2021
1402 Clouds 4 1015 70 10000 11.83 310 17:30 16.03.2021
1403 Rain 5 1014 45 10000 9.77 320 16:53 16.03.2021
1404 Rain 6 1014 45 10000 10.8 320 16:30 16.03.2021
1405 Clouds 7 1014 52 10000 8.75 310 15:47 16.03.2021
1406 Clouds 7 1014 45 10000 11.83 310 15:22 16.03.2021
1407 Clouds 6 1014 57 10000 10.8 330 14:58 16.03.2021
1408 Clouds 6 1014 57 10000 10.8 330 14:40 16.03.2021
1409 Clouds 7 1014 61 10000 9.77 320 14:21 16.03.2021
1410 Clouds 7 1014 57 10000 8.75 310 13:54 16.03.2021
1411 Clouds 6 1014 57 10000 9.77 310 13:27 16.03.2021
1412 Clouds 7 1013 57 10000 11.32 310 12:54 16.03.2021
1413 Clouds 6 1013 57 10000 11.32 310 12:35 16.03.2021
1414 Clouds 7 1013 57 10000 11.32 310 11:54 16.03.2021
1415 Clouds 7 1013 57 10000 12.35 310 11:28 16.03.2021
1416 Clouds 7 1013 61 10000 10.8 310 10:45 16.03.2021
1417 Clouds 6 1013 61 10000 10.29 300 10:20 16.03.2021
1418 Clouds 6 1013 65 10000 11.32 310 09:39 16.03.2021
1419 Clouds 5 1012 61 10000 10.29 310 09:19 16.03.2021
1420 Clouds 5 1012 61 10000 11.83 300 08:49 16.03.2021
1421 Clouds 5 1012 65 10000 8.23 310 08:31 16.03.2021
1422 Clouds 4 1012 65 10000 9.26 310 07:50 16.03.2021
1423 Clouds 4 1011 75 10000 8.23 300 06:57 16.03.2021
1424 Clouds 4 1011 75 10000 8.23 300 06:37 16.03.2021
1425 Clouds 4 1010 70 10000 8.75 310 05:35 16.03.2021
1426 Clouds 4 1010 75 10000 6.69 300 02:46 16.03.2021
1427 Clouds 4 1010 75 10000 6.17 310 02:25 16.03.2021
1428 Clouds 5 1009 75 10000 9.26 300 00:25 16.03.2021
1429 Clouds 5 1009 75 10000 7.72 300 23:37 15.03.2021
1430 Rain 4 1009 75 10000 8.75 300 23:18 15.03.2021
1431 Clouds 4 1009 75 10000 8.23 300 22:42 15.03.2021
1432 Clear 5 1009 75 10000 7.72 300 22:23 15.03.2021
1433 Clear 4 1009 75 10000 5.66 290 21:47 15.03.2021
1434 Clear 4 1008 75 10000 5.14 280 21:27 15.03.2021
1435 Clear 5 1008 65 10000 3.6 290 20:47 15.03.2021
1436 Clear 5 1008 65 10000 3.6 290 20:27 15.03.2021
1437 Clear 5 1008 61 10000 4.12 280 19:57 15.03.2021
1438 Clear 6 1008 61 10000 4.12 280 19:39 15.03.2021
1439 Clear 6 1008 61 10000 3.6 300 19:21 15.03.2021
1440 Clear 6 1008 61 10000 3.09 300 18:41 15.03.2021
1441 Clear 7 1007 57 10000 5.14 310 18:22 15.03.2021
1442 Clear 7 1007 53 10000 7.2 300 17:49 15.03.2021
1443 Clear 8 1007 43 10000 7.2 310 17:22 15.03.2021
1444 Clear 8 1007 43 10000 5.66 320 16:44 15.03.2021
1445 Clear 9 1007 37 10000 6.17 300 15:56 15.03.2021
1446 Clear 10 1007 37 10000 6.69 330 15:28 15.03.2021
1447 Clouds 9 1008 43 10000 6.69 310 14:56 15.03.2021
1448 Clouds 9 1008 43 10000 6.69 310 14:38 15.03.2021
1449 Clouds 9 1008 46 10000 6.69 310 14:19 15.03.2021
1450 Clouds 9 1008 43 10000 7.2 320 13:44 15.03.2021
1451 Clouds 9 1008 46 10000 6.69 320 13:23 15.03.2021
1452 Clouds 9 1008 46 10000 7.2 310 12:46 15.03.2021
1453 Clouds 9 1008 46 10000 8.23 320 12:18 15.03.2021
1454 Clouds 8 1009 46 10000 8.75 310 11:45 15.03.2021
1455 Clouds 8 1009 49 10000 8.75 330 11:26 15.03.2021
1456 Clouds 8 1010 53 10000 8.75 320 10:44 15.03.2021
1457 Clouds 7 1010 57 10000 8.23 310 10:24 15.03.2021
1458 Clear 6 1010 57 10000 7.72 320 09:48 15.03.2021
1459 Clear 6 1010 61 10000 8.23 300 09:29 15.03.2021
1460 Clear 5 1010 61 10000 7.2 310 08:46 15.03.2021
1461 Clear 4 1010 70 10000 6.69 300 08:25 15.03.2021
1462 Clear 4 1010 75 10000 7.2 300 07:42 15.03.2021
1463 Clear 3 1010 70 10000 7.72 300 07:22 15.03.2021
1464 Clear 2 1010 75 10000 7.2 300 06:21 15.03.2021
1465 Clouds 3 1010 75 10000 5.66 300 03:36 15.03.2021
1466 Clear 3 1010 75 10000 8.23 310 00:50 15.03.2021
1467 Clear 3 1010 70 10000 9.26 300 23:24 14.03.2021
1468 Clear 3 1010 70 10000 8.75 300 22:59 14.03.2021
1469 Clear 4 1010 70 10000 8.75 300 22:38 14.03.2021
1470 Clear 4 1011 75 10000 6.17 290 22:18 14.03.2021
1471 Clear 4 1011 75 10000 7.72 290 21:39 14.03.2021
1472 Clear 4 1010 70 10000 7.72 280 21:18 14.03.2021
1473 Clear 5 1010 70 10000 6.69 300 20:42 14.03.2021
1474 Clear 5 1010 70 10000 5.66 300 20:23 14.03.2021
1475 Clear 5 1010 70 10000 6.69 280 19:42 14.03.2021
1476 Clouds 5 1010 75 10000 5.66 290 19:19 14.03.2021
1477 Clouds 5 1010 70 10000 6.17 290 18:41 14.03.2021
1478 Clouds 6 1009 70 10000 5.66 280 17:56 14.03.2021
1479 Clouds 6 1009 70 10000 5.66 280 17:37 14.03.2021
1480 Clouds 6 1009 61 10000 7.2 300 17:19 14.03.2021
1481 Clouds 7 1008 65 10000 7.2 300 16:41 14.03.2021
1482 Clouds 7 1008 65 10000 7.2 300 16:21 14.03.2021
1483 Clouds 7 1008 65 10000 7.2 300 15:48 14.03.2021
1484 Clouds 7 1009 81 10000 5.14 270 14:59 14.03.2021
1485 Clouds 7 1009 81 10000 5.14 270 14:40 14.03.2021
1486 Clouds 7 1009 81 10000 4.12 300 14:20 14.03.2021
1487 Rain 6 1009 87 10000 5.66 300 13:43 14.03.2021
1488 Snow 6 1010 75 10000 11.83 320 13:24 14.03.2021
1489 Rain 7 1008 66 10000 7.72 280 12:42 14.03.2021
1490 Clouds 7 1008 81 10000 4.63 280 12:23 14.03.2021
1491 Clouds 7 1008 81 10000 7.2 280 11:41 14.03.2021
1492 Rain 7 1008 70 10000 8.23 290 11:22 14.03.2021
1493 Rain 7 1007 66 10000 9.26 280 10:38 14.03.2021
1494 Rain 7 1007 61 10000 9.26 270 10:20 14.03.2021
1495 Rain 7 1007 61 10000 9.26 270 09:59 14.03.2021
1496 Clouds 7 1007 61 10000 9.26 270 09:40 14.03.2021
1497 Clouds 7 1007 61 10000 7.72 280 09:20 14.03.2021
1498 Rain 8 1006 57 10000 5.66 280 08:39 14.03.2021
1499 Rain 8 1005 57 10000 3.09 260 07:59 14.03.2021
1500 Rain 8 1005 57 10000 3.6 280 07:33 14.03.2021
1501 Clear 8 1005 61 10000 2.06 270 05:38 14.03.2021
1502 Clear 7 1005 65 10000 2.57 210 05:38 14.03.2021
1503 Clear 8 1005 61 10000 7.72 290 01:34 14.03.2021
1504 Clouds 8 1006 57 10000 7.2 290 00:49 14.03.2021
1505 Clouds 9 1006 57 10000 3.09 320 00:18 14.03.2021
1506 Clear 9 1005 61 10000 3.09 290 23:42 13.03.2021
1507 Clear 9 1005 57 10000 2.57 250 23:19 13.03.2021
1508 Clear 9 1005 57 10000 2.57 250 23:19 13.03.2021
1509 Clear 8 1005 66 10000 3.09 230 22:47 13.03.2021
1510 Clear 8 1005 66 10000 3.09 230 22:47 13.03.2021
1511 Clear 8 1005 61 10000 3.09 230 22:24 13.03.2021
1512 Clear 8 1004 70 10000 5.66 190 21:36 13.03.2021
1513 Clouds 9 1001 65 10000 1.79 236 21:18 13.03.2021
1514 Clear 9 1004 66 10000 5.14 190 20:47 13.03.2021
1515 Clear 9 1004 66 10000 4.63 180 20:26 13.03.2021
1516 Clear 10 1004 62 10000 6.17 180 19:45 13.03.2021
1517 Clear 11 1004 58 10000 7.2 180 19:24 13.03.2021
1518 Clear 11 1004 58 10000 8.23 170 18:43 13.03.2021
1519 Clear 11 1004 54 10000 9.26 170 18:21 13.03.2021
1520 Clear 12 1004 50 10000 10.8 180 17:52 13.03.2021
1521 Clear 13 1004 50 10000 10.29 170 17:32 13.03.2021
1522 Clear 13 1005 47 10000 9.26 180 16:57 13.03.2021
1523 Clear 13 1005 47 10000 9.26 180 16:38 13.03.2021
1524 Clear 14 1006 44 10000 12.35 180 15:57 13.03.2021
1525 Clear 14 1006 44 10000 11.83 180 15:22 13.03.2021
1526 Clear 15 1007 44 10000 12.35 170 14:43 13.03.2021
1527 Clear 14 1007 41 10000 11.32 180 14:24 13.03.2021
1528 Clear 14 1008 35 10000 9.77 180 13:30 13.03.2021
1529 Clear 13 1009 38 10000 8.23 190 12:56 13.03.2021
1530 Clear 13 1009 38 10000 8.23 190 12:38 13.03.2021
1531 Clear 12 1011 43 10000 6.69 190 11:59 13.03.2021
1532 Clear 12 1011 43 10000 6.69 190 11:40 13.03.2021
1533 Clear 12 1011 43 10000 6.69 190 11:22 13.03.2021
1534 Clear 11 1012 46 10000 8.23 200 10:46 13.03.2021
1535 Clear 10 1012 50 10000 7.72 200 10:24 13.03.2021
1536 Clear 10 1012 53 10000 7.2 200 09:38 13.03.2021
1537 Clear 8 1012 57 10000 7.2 210 08:58 13.03.2021
1538 Clear 7 1012 61 10000 6.69 210 08:38 13.03.2021
1539 Clear 7 1012 61 10000 6.69 210 08:18 13.03.2021
1540 Clear 6 1011 65 10000 6.17 210 07:39 13.03.2021
1541 Clear 4 1012 70 10000 7.2 200 05:31 13.03.2021
1542 Clear 3 1012 86 10000 4.12 180 02:42 13.03.2021
1543 Clear 4 1012 81 10000 6.69 210 00:44 13.03.2021
1544 Clear 5 1012 75 10000 5.66 200 23:49 12.03.2021
1545 Clear 5 1012 75 10000 6.17 210 23:30 12.03.2021
1546 Clear 5 1012 75 10000 4.63 210 22:42 12.03.2021
1547 Clear 5 1012 70 10000 5.14 200 22:22 12.03.2021
1548 Clear 6 1012 65 10000 5.66 210 21:42 12.03.2021
1549 Clear 6 1012 53 10000 1.54 250 21:21 12.03.2021
1550 Clear 6 1012 56 10000 2.57 230 20:55 12.03.2021
1551 Clear 7 1012 56 10000 2.57 230 20:32 12.03.2021
1552 Clear 8 1012 46 10000 4.12 240 19:55 12.03.2021
1553 Clear 8 1012 46 10000 3.09 260 19:36 12.03.2021
1554 Clear 9 1012 43 10000 4.12 280 18:55 12.03.2021
1555 Clear 9 1012 43 10000 4.12 280 18:34 12.03.2021
1556 Clear 10 1011 37 10000 6.69 270 17:49 12.03.2021
1557 Clear 11 1011 32 10000 7.72 300 17:30 12.03.2021
1558 Clear 11 1011 35 10000 8.75 270 16:55 12.03.2021
1559 Clear 11 1011 35 10000 8.75 270 16:34 12.03.2021
1560 Clouds 12 1012 30 10000 11.32 290 15:51 12.03.2021
1561 Clouds 12 1012 37 10000 11.83 270 15:27 12.03.2021
1562 Clouds 12 1012 40 10000 9.26 270 14:48 12.03.2021
1563 Clouds 12 1013 40 10000 11.32 270 14:20 12.03.2021
1564 Clouds 12 1013 38 10000 10.29 270 13:43 12.03.2021
1565 Clouds 12 1013 43 10000 9.77 270 13:21 12.03.2021
1566 Clouds 12 1013 46 10000 9.77 270 12:56 12.03.2021
1567 Clouds 11 1013 46 10000 9.77 270 12:37 12.03.2021
1568 Clouds 11 1013 46 10000 10.29 270 12:19 12.03.2021
1569 Clouds 11 1013 43 10000 10.29 270 11:48 12.03.2021
1570 Clouds 10 1013 46 10000 9.26 280 11:20 12.03.2021
1571 Clouds 10 1013 50 10000 9.77 290 10:48 12.03.2021
1572 Clouds 10 1013 50 10000 10.8 280 10:23 12.03.2021
1573 Clouds 10 1013 53 10000 11.83 280 09:49 12.03.2021
1574 Clouds 10 1012 50 10000 11.83 280 09:19 12.03.2021
1575 Clouds 9 1012 53 10000 11.32 270 08:43 12.03.2021
1576 Clouds 8 1011 57 10000 10.8 260 07:54 12.03.2021
1577 Clouds 8 1010 66 10000 9.26 250 07:31 12.03.2021
1578 Clouds 8 1010 66 10000 8.75 260 06:45 12.03.2021
1579 Clouds 8 1009 66 10000 7.72 280 05:57 12.03.2021
1580 Rain 9 1007 71 10000 7.2 240 01:42 12.03.2021
1581 Rain 7 1007 65 10000 4.12 350 23:59 11.03.2021
1582 Rain 7 1007 61 10000 3.09 330 23:19 11.03.2021
1583 Clear 7 1006 61 10000 2.06 130 22:42 11.03.2021
1584 Clear 7 1006 61 10000 1.03 0 22:22 11.03.2021
1585 Clear 7 1006 65 10000 2.57 140 21:46 11.03.2021
1586 Clear 6 1006 65 10000 2.06 150 21:26 11.03.2021
1587 Clear 7 1007 61 10000 2.06 130 20:49 11.03.2021
1588 Clear 7 1007 61 10000 3.6 140 20:27 11.03.2021
1589 Clear 7 1007 61 10000 4.12 140 19:58 11.03.2021
1590 Clear 7 1008 61 10000 3.6 140 19:39 11.03.2021
1591 Clear 7 1008 61 10000 4.12 140 18:56 11.03.2021
1592 Rain 7 1008 57 10000 4.63 140 18:37 11.03.2021
1593 Rain 8 1008 57 10000 4.63 140 18:18 11.03.2021
1594 Clear 8 1008 53 10000 3.6 130 17:41 11.03.2021
1595 Clear 8 1010 53 10000 4.63 160 16:43 11.03.2021
1596 Clear 8 1010 53 10000 6.17 160 16:25 11.03.2021
1597 Clear 8 1010 53 10000 8.23 160 15:45 11.03.2021
1598 Clouds 8 1010 53 10000 9.26 160 15:21 11.03.2021
1599 Clouds 8 1011 53 10000 7.2 150 14:46 11.03.2021
1600 Clouds 7 1012 61 10000 7.72 150 14:19 11.03.2021
1601 Clouds 8 1012 57 10000 7.2 140 13:46 11.03.2021
1602 Clouds 8 1013 57 10000 6.69 150 13:24 11.03.2021
1603 Rain 8 1013 57 10000 6.17 150 12:57 11.03.2021
1604 Clear 7 1013 61 10000 7.72 150 12:36 11.03.2021
1605 Clear 7 1013 61 10000 7.72 150 12:18 11.03.2021
1606 Clouds 6 1014 65 10000 6.69 130 11:42 11.03.2021
1607 Clouds 6 1014 65 10000 6.69 130 11:20 11.03.2021
1608 Clear 5 1015 70 10000 5.66 140 10:28 11.03.2021
1609 Rain 4 1015 75 10000 6.17 140 09:57 11.03.2021
1610 Clear 4 1016 75 10000 6.17 150 09:37 11.03.2021
1611 Clear 4 1016 75 10000 6.17 150 09:18 11.03.2021
1612 Clear 3 1016 80 10000 6.69 130 08:44 11.03.2021
1613 Clear 1 1016 86 10000 5.66 140 08:18 11.03.2021
1614 Clear 0 1016 80 10000 5.14 140 07:28 11.03.2021
1615 Clear 0 1017 80 10000 4.12 140 06:49 11.03.2021
1616 Clear -1 1017 80 10000 4.63 130 06:24 11.03.2021
1617 Clouds -1 1019 93 8000 4.63 160 02:49 11.03.2021
1618 -273 0 0 0 0 0 00:53 11.03.2021
1619 Clouds 1 1021 86 10000 3.09 210 23:27 10.03.2021
1620 -273 0 0 0 0 0 22:51 10.03.2021
1621 Clouds 1 1021 80 10000 2.06 240 22:28 10.03.2021
1622 Clouds 1 1021 80 10000 2.06 240 22:27 10.03.2021
1623 Clouds 1 1021 80 10000 2.06 240 22:26 10.03.2021
1624 Clouds 1 1021 80 10000 2.57 250 21:45 10.03.2021
1625 Clouds 1 1021 80 10000 2.57 260 21:23 10.03.2021
1626 Clouds 2 1021 75 10000 2.57 270 20:46 10.03.2021
1627 Clouds 2 1020 75 10000 3.6 280 20:28 10.03.2021
1628 Clouds 2 1020 70 10000 3.09 270 19:50 10.03.2021
1629 Clouds 2 1020 70 10000 3.09 270 19:50 10.03.2021
1630 Clouds 2 1020 70 10000 3.6 300 19:28 10.03.2021
1631 Clouds 3 1020 56 10000 2.57 310 18:47 10.03.2021
1632 Clouds 4 1019 52 10000 3.09 320 18:28 10.03.2021
1633 Clouds 4 1019 48 10000 3.6 320 17:57 10.03.2021
1634 Clouds 5 1019 48 10000 3.6 320 17:37 10.03.2021
1635 Clouds 5 1019 45 10000 4.12 320 17:19 10.03.2021
1636 Clouds 6 1019 45 10000 5.14 320 16:44 10.03.2021
1637 Clouds 6 1019 45 10000 5.66 310 16:24 10.03.2021
1638 Clouds 6 1019 45 10000 4.12 330 15:47 10.03.2021
1639 Clouds 6 1019 45 10000 3.09 330 15:23 10.03.2021
1640 Clouds 6 1019 45 10000 3.6 330 14:56 10.03.2021
1641 Clouds 6 1019 42 10000 4.63 350 14:20 10.03.2021
1642 Clouds 6 1019 42 10000 4.63 350 14:20 10.03.2021
1643 Clouds 6 1019 42 10000 3.09 330 13:52 10.03.2021
1644 Clouds 6 1019 45 10000 2.06 0 13:30 10.03.2021
1645 Clouds 6 1020 45 10000 3.6 30 12:46 10.03.2021
1646 Clouds 6 1020 45 10000 3.6 30 12:46 10.03.2021
1647 Clouds 6 1020 45 10000 4.12 20 12:21 10.03.2021
1648 Clouds 5 1020 48 10000 2.06 40 11:47 10.03.2021
1649 Clouds 5 1020 48 10000 1.54 0 11:21 10.03.2021
1650 Clear 5 1020 52 10000 2.57 10 10:50 10.03.2021
1651 Clear 4 1020 52 10000 1.54 20 10:31 10.03.2021
1652 Clear 3 1020 60 10000 1.03 0 09:52 10.03.2021
1653 Clear 3 1020 60 10000 1.03 0 09:32 10.03.2021
1654 Clear 2 1020 60 10000 1.03 0 08:59 10.03.2021
1655 Clear 2 1020 60 10000 1.03 0 08:40 10.03.2021
1656 Clear 1 1019 69 10000 0.51 0 08:21 10.03.2021
1657 Clouds 0 1019 74 10000 0.51 0 07:41 10.03.2021
1658 Clouds 0 1019 74 10000 0.51 0 07:19 10.03.2021
1659 Clouds 0 1019 64 10000 1.03 0 06:46 10.03.2021
1660 Clear 0 1019 69 10000 1.03 340 02:42 10.03.2021
1661 Clear 1 1019 64 10000 1.54 330 23:59 09.03.2021
1662 Clear 1 1019 74 10000 1.03 20 23:27 09.03.2021
1663 Clouds 1 1019 69 10000 1.54 350 22:49 09.03.2021
1664 Clouds 1 1019 60 10000 1.03 350 22:28 09.03.2021
1665 Clouds 1 1019 60 10000 0.51 0 21:57 09.03.2021
1666 Clouds 1 1019 60 10000 0.51 0 21:37 09.03.2021
1667 Clouds 1 1019 60 10000 0.51 0 21:18 09.03.2021
1668 Clouds 1 1019 55 10000 1.03 110 20:43 09.03.2021
1669 Clouds 2 1019 55 10000 1.03 110 20:43 09.03.2021
1670 Clouds 2 1019 55 10000 1.03 80 20:22 09.03.2021
1671 Clouds 2 1019 51 10000 1.03 60 19:56 09.03.2021
1672 Clouds 2 1018 51 10000 1.54 60 19:29 09.03.2021
1673 Clouds 3 1018 51 10000 2.06 70 18:54 09.03.2021
1674 Clouds 3 1018 48 10000 2.06 80 18:29 09.03.2021
1675 Clouds 4 1018 48 10000 2.57 100 17:57 09.03.2021
1676 Clouds 4 1018 48 10000 2.57 110 17:35 09.03.2021
1677 Clouds 4 1018 44 10000 3.6 120 16:57 09.03.2021
1678 Clouds 4 1018 41 10000 3.6 120 16:39 09.03.2021
1679 Clouds 5 1018 41 10000 3.6 120 16:19 09.03.2021
1680 Clouds 4 1018 44 10000 3.6 130 15:44 09.03.2021
1681 Clouds 4 1018 44 10000 3.6 140 15:23 09.03.2021
1682 Clouds 4 1019 44 10000 4.12 140 14:40 09.03.2021
1683 Clouds 4 1019 44 10000 4.12 140 14:22 09.03.2021
1684 Clouds 4 1019 44 10000 4.12 150 13:39 09.03.2021
1685 Clouds 4 1020 41 10000 4.63 150 13:21 09.03.2021
1686 Clouds 4 1020 44 10000 4.63 140 12:44 09.03.2021
1687 Clouds 4 1020 48 10000 4.12 130 12:25 09.03.2021
1688 Clouds 4 1020 51 10000 4.63 130 11:42 09.03.2021
1689 Clouds 3 1021 51 10000 4.12 130 11:21 09.03.2021
1690 Clouds 3 1021 51 10000 4.12 120 10:57 09.03.2021
1691 Clouds 3 1021 55 10000 4.63 140 10:38 09.03.2021
1692 Clouds 2 1021 55 10000 4.63 140 10:20 09.03.2021
1693 Clouds 2 1021 55 10000 4.63 140 10:20 09.03.2021
1694 Clouds 2 1021 55 10000 4.63 140 10:20 09.03.2021
1695 Clouds 2 1021 55 10000 4.63 110 09:44 09.03.2021
1696 Clouds 1 1021 64 10000 3.09 120 09:26 09.03.2021
1697 Clouds 0 1021 74 10000 1.54 140 08:48 09.03.2021
1698 Clouds 0 1021 80 10000 1.03 0 08:29 09.03.2021
1699 Clouds -1 1021 86 10000 2.06 50 07:40 09.03.2021
1700 Clear -1 1021 86 10000 1.03 50 07:21 09.03.2021
1701 Clouds -1 1021 86 10000 1.54 60 06:18 09.03.2021
1702 Clouds -1 1021 80 10000 1.54 60 05:46 09.03.2021
1703 Clear 1 1022 80 10000 2.06 340 00:38 09.03.2021
1704 Clouds 1 1022 75 10000 2.06 360 23:45 08.03.2021
1705 Clouds 2 1022 75 10000 2.06 350 23:27 08.03.2021
1706 Snow 2 1022 75 10000 1.54 350 22:55 08.03.2021
1707 Rain 2 1022 75 10000 1.54 350 22:36 08.03.2021
1708 Rain 2 1022 75 10000 1.03 360 22:18 08.03.2021
1709 Rain 2 1022 75 10000 1.03 20 21:40 08.03.2021
1710 Rain 2 1022 75 10000 1.03 360 21:20 08.03.2021
1711 Clouds 2 1022 75 10000 1.03 360 20:38 08.03.2021
1712 Rain 3 1021 75 10000 2.57 20 20:18 08.03.2021
1713 Rain 4 1021 70 10000 4.63 30 19:38 08.03.2021
1714 Clouds 4 1020 60 10000 4.12 350 18:48 08.03.2021
1715 Clouds 4 1020 60 10000 4.63 340 18:23 08.03.2021
1716 Clouds 4 1019 65 10000 5.66 350 17:57 08.03.2021
1717 Clouds 4 1019 65 10000 5.66 350 17:39 08.03.2021
1718 Clouds 5 1019 56 10000 5.66 340 16:59 08.03.2021
1719 Clouds 5 1019 56 10000 5.66 340 16:40 08.03.2021
1720 Clouds 5 1019 52 10000 7.2 360 16:21 08.03.2021
1721 Clouds 6 1019 56 10000 7.72 350 15:38 08.03.2021
1722 Clouds 6 1019 56 10000 7.72 340 15:20 08.03.2021
1723 Clouds 6 1019 56 10000 6.17 320 14:21 08.03.2021
1724 Clouds 6 1019 56 10000 5.66 330 13:48 08.03.2021
1725 Clouds 6 1019 56 10000 4.63 330 13:23 08.03.2021
1726 Clouds 6 1020 56 10000 5.66 350 12:56 08.03.2021
1727 Clouds 6 1020 56 10000 6.17 330 12:29 08.03.2021
1728 Clouds 6 1019 57 10000 1.79 262 11:45 08.03.2021
1729 Clouds 5 1019 56 10000 6.17 320 11:22 08.03.2021
1730 Clear 5 1019 52 10000 5.66 350 10:55 08.03.2021
1731 Clear 4 1019 56 10000 5.66 330 10:37 08.03.2021
1732 Clear 4 1019 56 10000 5.66 330 10:18 08.03.2021
1733 Clear 3 1019 60 10000 5.14 320 09:26 08.03.2021
1734 Clear 3 1019 60 10000 5.14 320 09:26 08.03.2021
1735 Clear 3 1019 64 10000 5.66 320 08:50 08.03.2021
1736 Clear 2 1019 69 10000 4.63 320 08:23 08.03.2021
1737 Clear 0 1018 69 10000 5.14 310 07:21 08.03.2021
1738 Clear 0 1017 74 10000 3.09 320 05:23 08.03.2021
1739 Clear 1 1017 69 10000 1.54 270 02:24 08.03.2021
1740 Clear 1 1017 74 10000 1.03 0 00:42 08.03.2021
1741 Clear 1 1017 69 10000 1.03 0 23:53 07.03.2021
1742 Clear 1 1017 60 10000 2.06 240 23:21 07.03.2021
1743 Clear 2 1017 60 10000 2.06 260 22:47 07.03.2021
1744 Clear 2 1018 64 10000 1.54 270 22:28 07.03.2021
1745 Clear 2 1018 55 10000 1.03 0 21:53 07.03.2021
1746 Clear 2 1018 64 10000 1.54 110 21:33 07.03.2021
1747 Clear 2 1018 64 10000 1.54 100 20:58 07.03.2021
1748 Clear 2 1018 64 10000 1.54 100 20:58 07.03.2021
1749 Clear 3 1018 64 10000 1.54 100 20:40 07.03.2021
1750 Clear 3 1018 56 10000 1.54 50 20:18 07.03.2021
1751 Clear 4 1018 56 10000 1.54 30 19:40 07.03.2021
1752 Clear 4 1018 56 10000 2.06 30 19:22 07.03.2021
1753 Clear 5 1018 52 10000 2.06 30 18:54 07.03.2021
1754 Clear 5 1018 48 10000 2.57 20 18:21 07.03.2021
1755 Clear 6 1018 45 10000 3.09 30 17:59 07.03.2021
1756 Clear 6 1018 45 10000 3.09 30 17:39 07.03.2021
1757 Clear 8 1019 42 10000 2.57 30 17:19 07.03.2021
1758 Clear 8 1019 39 10000 2.06 10 16:43 07.03.2021
1759 Clear 8 1019 39 10000 2.06 30 16:21 07.03.2021
1760 Clear 8 1019 39 10000 2.06 30 15:51 07.03.2021
1761 Clear 8 1020 36 10000 1.54 0 15:31 07.03.2021
1762 Clear 8 1020 36 10000 1.54 0 14:56 07.03.2021
1763 Clear 8 1021 39 10000 1.03 0 14:29 07.03.2021
1764 Clear 8 1021 41 10000 0.89 134 13:51 07.03.2021
1765 Clear 8 1021 43 10000 0.45 129 13:29 07.03.2021
1766 Clear 7 1023 45 10000 1.03 0 12:56 07.03.2021
1767 Clear 7 1024 45 10000 1.03 0 12:37 07.03.2021
1768 Clear 6 1024 45 10000 1.03 0 12:18 07.03.2021
1769 Clear 5 1017 87 10000 0.3 223 11:24 07.03.2021
1770 Clear 4 1017 87 10000 0.29 223 10:55 07.03.2021
1771 Clear 4 1025 55 10000 1.03 0 10:37 07.03.2021
1772 Clear 3 1026 60 10000 1.03 0 09:54 07.03.2021
1773 Clear 2 1026 69 10000 1.03 0 09:29 07.03.2021
1774 Clear 2 1023 63 10000 0.45 90 08:59 07.03.2021
1775 Clear 1 1026 69 10000 0.51 0 08:39 07.03.2021
1776 Clear 1 1026 69 10000 0.51 0 08:39 07.03.2021
1777 Clear 0 1023 66 10000 0.45 239 08:21 07.03.2021
1778 Clear -2 1023 69 10000 0.77 297 06:25 07.03.2021
1779 Clear -1 1028 74 10000 1.54 100 02:39 07.03.2021
1780 Clear -1 1029 68 10000 3.09 170 00:34 07.03.2021
1781 Clear 0 1030 74 10000 3.09 170 23:40 06.03.2021
1782 Clear 0 1030 74 10000 3.09 170 23:20 06.03.2021
1783 Clear 0 1030 68 10000 3.09 180 22:45 06.03.2021
1784 Clear 0 1030 69 10000 3.09 170 22:21 06.03.2021
1785 Clear 0 1031 74 10000 3.6 180 21:47 06.03.2021
1786 Clear 0 1031 64 10000 2.57 170 21:20 06.03.2021
1787 Clear 0 1031 59 10000 2.06 170 20:43 06.03.2021
1788 Clear 1 1031 51 10000 1.54 150 20:18 06.03.2021
1789 Clear 2 1031 51 10000 1.54 140 19:38 06.03.2021
1790 Clear 2 1031 55 10000 1.03 110 19:18 06.03.2021
1791 Clear 3 1031 48 10000 1.54 60 18:41 06.03.2021
1792 Clear 3 1031 48 10000 1.54 60 18:21 06.03.2021
1793 Clear 4 1030 48 10000 3.09 50 17:54 06.03.2021
1794 Clear 4 1030 45 10000 3.09 30 17:32 06.03.2021
1795 Clear 5 1031 38 10000 2.57 350 16:58 06.03.2021
1796 Clear 5 1031 36 10000 1.54 360 16:37 06.03.2021
1797 Clear 5 1031 36 10000 1.54 360 16:18 06.03.2021
1798 Clear 6 1031 36 10000 3.09 320 15:39 06.03.2021
1799 Clear 5 1031 36 10000 3.09 320 15:21 06.03.2021
1800 Clear 6 1032 36 10000 4.12 360 14:33 06.03.2021
1801 Clouds 6 1032 39 10000 2.06 0 13:56 06.03.2021
1802 Clouds 5 1033 38 10000 3.09 350 13:37 06.03.2021
1803 Clouds 5 1033 38 10000 3.09 350 13:19 06.03.2021
1804 Clouds 5 1033 38 10000 1.03 0 12:42 06.03.2021
1805 Clouds 5 1033 48 10000 2.06 350 12:18 06.03.2021
1806 Clouds 4 1033 48 10000 1.54 0 11:44 06.03.2021
1807 Clouds 4 1034 48 10000 1.54 0 11:20 06.03.2021
1808 Clouds 4 1034 56 10000 2.06 320 10:44 06.03.2021
1809 Clouds 3 1033 60 10000 1.03 0 09:58 06.03.2021
1810 Clear 2 1033 64 10000 1.03 0 09:26 06.03.2021
1811 Clear 1 1033 74 10000 0.51 0 08:58 06.03.2021
1812 Clear 0 1032 67 10000 0.89 279 08:32 06.03.2021
1813 Clear 0 1032 72 10000 0.89 337 07:56 06.03.2021
1814 Clear -1 1029 77 10000 1.34 224 07:22 06.03.2021
1815 Clear -2 1032 80 10000 1.03 0 06:44 06.03.2021
1816 Clear -1 1031 69 10000 4.63 320 03:49 06.03.2021
1817 Clear -1 1031 69 10000 4.63 320 03:49 06.03.2021
1818 Clear -1 1031 69 10000 4.12 310 02:24 06.03.2021
1819 Clouds -1 1030 69 10000 4.63 320 00:47 06.03.2021
1820 Clouds -1 1029 69 10000 4.63 320 23:51 05.03.2021
1821 Clouds -1 1029 64 10000 5.14 330 23:24 05.03.2021
1822 Clouds 0 1028 64 10000 5.14 320 22:45 05.03.2021
1823 Clouds 0 1028 64 10000 4.63 340 22:22 05.03.2021
1824 Clouds 0 1028 69 10000 5.66 340 21:52 05.03.2021
1825 Clouds 0 1027 69 10000 5.66 330 21:33 05.03.2021
1826 Clouds 0 1027 69 10000 5.14 330 20:54 05.03.2021
1827 Clouds 1 1026 69 10000 5.14 340 20:27 05.03.2021
1828 Clouds 1 1025 75 10000 5.66 340 19:56 05.03.2021
1829 Clouds 2 1025 80 10000 6.17 340 19:26 05.03.2021
1830 Clouds 2 1024 86 10000 4.12 350 18:58 05.03.2021
1831 Clouds 2 1024 86 10000 4.12 350 18:40 05.03.2021
1832 Clouds 2 1024 86 10000 4.12 350 18:19 05.03.2021
1833 Snow 2 1022 87 7000 6.69 340 17:36 05.03.2021
1834 Snow 3 1022 87 10000 5.14 350 16:50 05.03.2021
1835 Snow 3 1021 93 8000 7.2 340 16:25 05.03.2021
1836 Rain 3 1021 93 10000 5.14 310 15:59 05.03.2021
1837 Rain 4 1017 87 9533 5.03 335 15:40 05.03.2021
1838 Clouds 4 1017 87 6523 5.12 338 15:21 05.03.2021
1839 Rain 4 1020 87 10000 5.14 340 14:38 05.03.2021
1840 Rain 5 1019 75 10000 6.69 340 13:59 05.03.2021
1841 Rain 5 1019 75 10000 6.69 340 13:59 05.03.2021
1842 Clouds 4 1019 75 10000 6.69 330 13:22 05.03.2021
1843 Rain 4 1019 75 10000 6.69 340 12:55 05.03.2021
1844 Clouds 4 1019 81 10000 7.2 330 12:23 05.03.2021
1845 Rain 3 1018 87 10000 8.23 330 11:37 05.03.2021
1846 Clouds 3 1018 87 10000 6.17 330 11:18 05.03.2021
1847 Rain 3 1017 87 10000 6.69 320 10:41 05.03.2021
1848 Rain 3 1017 93 10000 7.72 330 10:23 05.03.2021
1849 Rain 3 1016 93 6000 6.17 330 09:49 05.03.2021
1850 Clouds 4 1015 93 9000 7.2 340 09:27 05.03.2021
1851 Clouds 5 1014 87 10000 5.14 340 08:43 05.03.2021
1852 Clouds 6 1013 87 10000 5.14 320 08:24 05.03.2021
1853 Clouds 7 1013 81 10000 7.72 300 07:44 05.03.2021
1854 Rain 7 1013 76 10000 9.77 290 07:24 05.03.2021
1855 Clouds 8 1012 76 10000 10.29 280 06:32 05.03.2021
1856 Rain 7 1012 61 10000 3.6 360 02:51 05.03.2021
1857 Clear 8 1013 61 10000 1.54 230 00:46 05.03.2021
1858 Clear 8 1013 46 10000 2.57 280 23:37 04.03.2021
1859 Clear 9 1013 43 10000 3.6 270 22:47 04.03.2021
1860 Clouds 9 1014 46 10000 3.6 280 22:25 04.03.2021
1861 Clear 10 1014 43 10000 4.12 280 21:47 04.03.2021
1862 Clear 10 1014 53 10000 2.57 240 21:28 04.03.2021
1863 Clear 10 1014 50 10000 5.14 200 20:41 04.03.2021
1864 Clear 10 1014 50 10000 5.14 200 20:23 04.03.2021
1865 Clear 11 1014 50 10000 5.66 180 19:58 04.03.2021
1866 Clear 10 1014 50 10000 5.66 180 19:39 04.03.2021
1867 Clear 11 1014 46 10000 3.6 220 19:19 04.03.2021
1868 Clear 11 1015 43 10000 4.12 230 18:41 04.03.2021
1869 Clear 11 1015 43 10000 3.6 220 18:23 04.03.2021
1870 Clear 12 1015 43 10000 2.57 240 17:46 04.03.2021
1871 Clear 12 1015 38 10000 4.12 270 17:27 04.03.2021
1872 Clear 13 1015 41 10000 3.6 270 16:46 04.03.2021
1873 Clear 13 1016 38 10000 4.63 280 16:25 04.03.2021
1874 Clear 13 1016 38 10000 4.12 280 15:50 04.03.2021
1875 Clear 14 1017 38 10000 4.63 280 15:31 04.03.2021
1876 Clear 14 1017 41 10000 4.63 290 14:48 04.03.2021
1877 Clear 13 1017 47 10000 5.14 300 14:26 04.03.2021
1878 Clear 13 1017 44 10000 5.66 300 13:47 04.03.2021
1879 Clear 13 1018 41 10000 6.17 310 13:29 04.03.2021
1880 Clear 13 1018 41 10000 6.69 300 12:49 04.03.2021
1881 Clear 13 1019 41 10000 6.69 290 12:31 04.03.2021
1882 Clear 12 1019 58 10000 2.06 360 11:43 04.03.2021
1883 Clear 12 1019 47 10000 4.63 270 11:23 04.03.2021
1884 Clear 10 1019 66 10000 1.54 170 10:47 04.03.2021
1885 Clouds 11 1019 44 10000 4.02 282 10:26 04.03.2021
1886 Clear 9 1020 81 10000 0.51 0 09:39 04.03.2021
1887 Clouds 9 1019 67 10000 2.19 281 08:59 04.03.2021
1888 Clear 7 1020 87 10000 2.06 160 08:35 04.03.2021
1889 Mist 6 1020 87 10000 1.54 230 07:53 04.03.2021
1890 Mist 5 1020 87 10000 0.51 0 07:28 04.03.2021
1891 Clear 5 1021 87 10000 1.54 190 06:24 04.03.2021
1892 Mist 5 1022 93 4500 2.06 180 03:25 04.03.2021
1893 Mist 5 1023 93 4600 1.03 220 01:40 04.03.2021
1894 Clear 6 1025 93 6000 2.06 160 22:44 03.03.2021
1895 Clear 6 1025 87 6000 1.03 160 22:26 03.03.2021
1896 Clear 6 1025 87 7000 1.03 0 21:44 03.03.2021
1897 Clear 7 1026 81 7000 0.51 0 21:24 03.03.2021
1898 Clear 7 1026 87 8000 1.54 250 20:59 03.03.2021
1899 Clear 7 1026 87 8000 1.54 250 20:41 03.03.2021
1900 Clear 8 1026 81 10000 0.51 0 19:59 03.03.2021
1901 Clear 8 1026 81 10000 0.51 0 19:40 03.03.2021
1902 Clear 8 1026 81 9000 0.51 0 19:21 03.03.2021
1903 Clear 8 1027 76 9000 1.03 0 18:47 03.03.2021
1904 Clear 9 1027 81 9000 1.03 0 18:25 03.03.2021
1905 Clear 9 1026 68 10000 1.04 167 17:50 03.03.2021
1906 Clear 9 1027 76 8000 1.03 10 17:19 03.03.2021
1907 Clear 10 1027 76 9000 2.06 360 16:44 03.03.2021
1908 Clear 11 1028 76 9000 2.06 20 16:24 03.03.2021
1909 Clear 11 1028 76 9000 2.06 10 15:35 03.03.2021
1910 Clear 11 1029 81 8000 2.06 40 14:59 03.03.2021
1911 Clouds 11 1029 81 8000 2.57 10 14:31 03.03.2021
1912 Clouds 11 1029 81 6000 2.57 30 13:53 03.03.2021
1913 Mist 9 1030 93 5000 2.06 40 13:33 03.03.2021
1914 Mist 7 1030 100 3000 2.57 30 12:58 03.03.2021
1915 Mist 6 1030 100 3000 2.57 30 12:39 03.03.2021
1916 Fog 8 1031 100 2000 1.54 40 12:19 03.03.2021
1917 Fog 4 1031 100 700 1.54 20 11:42 03.03.2021
1918 Fog 3 1031 100 250 1.54 50 11:21 03.03.2021
1919 Fog 2 1031 100 200 1.03 0 10:41 03.03.2021
1920 Fog 5 1031 100 200 1.03 0 10:19 03.03.2021
1921 Fog 3 1032 100 200 0.51 0 09:40 03.03.2021
1922 Fog 0 1032 93 150 0.51 0 08:46 03.03.2021
1923 Fog 1 1032 100 150 0.51 0 08:23 03.03.2021
1924 Fog -1 1032 100 150 0.51 0 07:52 03.03.2021
1925 Fog 1 1032 93 300 0.51 0 06:52 03.03.2021
1926 Fog 1 1032 100 200 0.51 0 06:18 03.03.2021
1927 Fog 1 1032 100 300 1.03 0 05:29 03.03.2021
1928 Fog 1 1032 100 300 2.06 340 04:35 03.03.2021
1929 Fog 1 1032 93 500 1.03 260 03:52 03.03.2021
1930 Fog 2 1033 93 3700 0.51 0 00:18 03.03.2021
1931 Fog 3 1033 100 3700 0.51 0 23:32 02.03.2021
1932 Fog 3 1033 87 5000 0.51 0 22:44 02.03.2021
1933 Fog 3 1033 93 4900 0.51 0 22:21 02.03.2021
1934 Clear 4 1033 93 6000 0.51 0 21:43 02.03.2021
1935 Clear 5 1033 81 7000 2.06 340 21:23 02.03.2021
1936 Clear 5 1033 93 7000 1.03 300 20:54 02.03.2021
1937 Clear 5 1033 87 7000 1.54 30 20:36 02.03.2021
1938 Clear 5 1033 87 7000 1.54 30 20:18 02.03.2021
1939 Clear 6 1033 87 9000 2.06 360 19:42 02.03.2021
1940 Clear 7 1033 81 10000 1.03 0 19:23 02.03.2021
1941 Clear 7 1033 76 10000 1.03 340 18:41 02.03.2021
1942 Clear 8 1033 76 10000 1.54 340 18:21 02.03.2021
1943 Clear 9 1033 71 9000 2.06 330 17:50 02.03.2021
1944 Clear 10 1033 71 10000 2.06 350 17:31 02.03.2021
1945 Clear 11 1033 71 9000 2.57 360 16:58 02.03.2021
1946 Clear 11 1033 71 9000 2.57 360 16:38 02.03.2021
1947 Clear 10 1033 76 8000 2.57 20 15:52 02.03.2021
1948 Clear 10 1034 76 8000 2.06 30 15:25 02.03.2021
1949 Clear 10 1034 81 8000 1.54 0 14:29 02.03.2021
1950 Clouds 9 1034 87 6000 2.06 20 13:59 02.03.2021
1951 Clouds 7 1034 87 6000 2.06 20 13:39 02.03.2021
1952 Mist 6 1035 87 5000 2.06 10 13:21 02.03.2021
1953 Mist 4 1035 93 4400 1.03 0 12:43 02.03.2021
1954 Mist 5 1036 93 2800 0.51 0 12:24 02.03.2021
1955 Fog 0 1036 93 1500 1.54 20 11:41 02.03.2021
1956 Fog 0 1036 93 1100 1.54 10 11:20 02.03.2021
1957 Fog 0 1036 100 1500 2.06 10 10:43 02.03.2021
1958 Fog 2 1036 100 450 1.03 0 10:24 02.03.2021
1959 Fog 0 1036 100 300 0.51 0 09:41 02.03.2021
1960 Fog 3 1036 93 250 0.51 0 09:21 02.03.2021
1961 Fog 0 1035 100 150 0.51 0 08:40 02.03.2021
1962 Fog 0 1035 100 250 0.51 0 08:22 02.03.2021
1963 Fog -1 1035 93 250 1.03 40 07:40 02.03.2021
1964 Fog -1 1035 100 400 0.94 82 06:36 02.03.2021
1965 Fog 0 1035 100 4500 1.03 170 05:46 02.03.2021
1966 Fog 0 1035 100 4500 1.03 170 05:46 02.03.2021
1967 Fog 0 1035 100 2700 1.03 170 05:28 02.03.2021
1968 Clear 1 1032 89 10000 0.8 71 02:35 02.03.2021
1969 Fog 1 1035 100 8000 0.51 0 01:41 02.03.2021
1970 Clear 1 1035 100 7000 1.54 350 01:18 02.03.2021
1971 Clear 2 1035 93 10000 1.03 20 23:29 01.03.2021
1972 Clear 3 1035 86 9000 1.54 350 22:43 01.03.2021
1973 Clear 4 1035 87 10000 2.06 330 22:24 01.03.2021
1974 Clear 3 1035 87 10000 2.06 340 21:52 01.03.2021
1975 Clear 3 1035 87 10000 2.06 340 21:24 01.03.2021
1976 Clear 3 1035 87 10000 2.06 340 20:55 01.03.2021
1977 Clear 3 1035 87 10000 2.06 340 20:37 01.03.2021
1978 Clear 4 1034 87 10000 2.57 320 20:18 01.03.2021
1979 Clear 4 1034 87 10000 2.57 330 19:41 01.03.2021
1980 Clear 5 1034 81 10000 3.09 320 19:18 01.03.2021
1981 Clear 7 1034 75 10000 3.09 310 18:37 01.03.2021
1982 Clear 6 1034 75 10000 3.09 310 18:19 01.03.2021
1983 Clear 8 1033 70 10000 2.57 300 17:42 01.03.2021
1984 Clear 8 1033 66 10000 3.09 320 17:19 01.03.2021
1985 Clear 9 1033 66 10000 3.6 330 16:44 01.03.2021
1986 Clouds 9 1033 66 10000 3.6 330 16:26 01.03.2021
1987 Clouds 9 1034 66 10000 3.6 340 15:42 01.03.2021
1988 Clouds 8 1034 70 10000 3.6 330 15:21 01.03.2021
1989 Clouds 8 1034 70 10000 3.6 330 14:49 01.03.2021
1990 Clouds 8 1034 70 10000 4.12 340 14:30 01.03.2021
1991 Clouds 7 1034 75 10000 3.6 350 13:43 01.03.2021
1992 Clear 7 1034 65 10000 1.34 229 13:25 01.03.2021
1993 Clear 7 1034 65 10000 1.34 229 13:24 01.03.2021
1994 Clear 8 1034 62 10000 1.79 87 12:58 01.03.2021
1995 Clouds 7 1035 75 10000 5.14 340 12:38 01.03.2021
1996 Clouds 6 1035 75 10000 4.63 360 12:19 01.03.2021
1997 Clouds 6 1035 75 10000 5.66 360 11:42 01.03.2021
1998 Clouds 6 1035 81 10000 6.17 340 10:45 01.03.2021
1999 Clouds 5 1034 81 10000 5.14 350 10:23 01.03.2021
2000 Clouds 5 1035 75 10000 5.14 360 09:59 01.03.2021
2001 Clouds 5 1035 75 10000 5.14 360 09:40 01.03.2021
2002 Clouds 4 1034 81 10000 4.12 340 09:21 01.03.2021
2003 Clouds 4 1034 81 10000 4.12 340 09:21 01.03.2021
2004 Clouds 4 1034 81 10000 3.6 340 08:51 01.03.2021
2005 Clouds 4 1034 75 10000 4.63 330 08:20 01.03.2021
2006 Clear 2 1033 80 10000 3.6 330 06:53 01.03.2021
2007 Clear 2 1032 80 10000 3.6 340 04:45 01.03.2021
2008 Clear 3 1033 80 10000 1.03 0 00:56 01.03.2021
2009 Clear 3 1032 75 10000 3.09 280 23:39 28.02.2021
2010 Clear 3 1033 80 10000 3.6 260 22:52 28.02.2021
2011 Clear 3 1033 75 10000 3.09 270 22:23 28.02.2021
2012 Clear 4 1033 70 10000 3.09 260 21:54 28.02.2021
2013 Clear 4 1033 70 10000 2.57 280 21:32 28.02.2021
2014 Clear 4 1033 70 10000 2.57 320 20:58 28.02.2021
2015 Clear 4 1033 70 10000 2.57 320 20:37 28.02.2021
2016 Clear 4 1033 70 10000 2.57 320 20:37 28.02.2021
2017 Clear 4 1033 65 10000 2.06 310 19:56 28.02.2021
2018 Clear 4 1033 65 10000 2.06 310 19:37 28.02.2021
2019 Clear 4 1033 65 10000 3.09 290 19:19 28.02.2021
2020 Clear 5 1033 61 10000 2.57 300 18:38 28.02.2021
2021 Clear 5 1033 61 10000 2.57 300 18:20 28.02.2021
2022 Clear 6 1033 61 10000 3.09 330 17:48 28.02.2021
2023 Clear 8 1033 57 10000 3.6 320 17:27 28.02.2021
2024 Clear 7 1034 53 10000 4.12 340 16:54 28.02.2021
2025 Clear 7 1034 53 10000 4.12 340 16:36 28.02.2021
2026 Clear 7 1034 49 10000 4.63 340 15:57 28.02.2021
2027 Clear 7 1034 49 10000 4.63 340 15:37 28.02.2021
2028 Clear 8 1034 57 10000 4.63 330 15:18 28.02.2021
2029 Clear 8 1034 53 10000 4.12 310 14:48 28.02.2021
2030 Clear 7 1034 53 10000 4.12 330 14:25 28.02.2021
2031 Clouds 7 1035 53 10000 4.63 350 13:52 28.02.2021
2032 Clouds 8 1035 57 10000 3.09 10 13:20 28.02.2021
2033 Clouds 8 1036 57 10000 4.12 360 12:56 28.02.2021
2034 Clouds 8 1036 61 10000 4.12 360 12:37 28.02.2021
2035 Clouds 7 1036 61 10000 4.12 360 12:19 28.02.2021
2036 Clouds 7 1036 65 10000 4.63 350 11:44 28.02.2021
2037 Clouds 6 1036 61 10000 4.63 350 11:25 28.02.2021
2038 Clouds 6 1036 61 10000 4.12 360 10:55 28.02.2021
2039 Clouds 6 1036 61 10000 3.09 340 10:29 28.02.2021
2040 Clouds 5 1036 65 10000 3.09 330 09:52 28.02.2021
2041 Clouds 5 1036 65 10000 2.57 310 09:33 28.02.2021
2042 Clouds 4 1037 75 10000 2.06 280 08:50 28.02.2021
2043 Clouds 4 1037 75 10000 2.57 280 08:31 28.02.2021
2044 Clouds 2 1036 80 10000 2.06 270 07:57 28.02.2021
2045 Clouds 2 1036 86 10000 0.51 0 07:37 28.02.2021
2046 Clouds 1 1037 80 10000 1.03 340 06:55 28.02.2021
2047 Clouds 2 1037 86 10000 1.54 340 05:52 28.02.2021
2048 Clouds 2 1037 80 10000 2.06 310 03:45 28.02.2021
2049 Clouds 2 1037 80 10000 2.06 330 02:19 28.02.2021
2050 Clouds 3 1037 75 10000 4.63 310 00:58 28.02.2021
2051 Clouds 3 1037 75 10000 4.63 310 00:35 28.02.2021
2052 Clouds 3 1037 75 10000 5.14 320 23:48 27.02.2021
2053 Clear 3 1037 75 10000 5.14 320 23:20 27.02.2021
2054 Clouds 3 1037 75 10000 6.17 320 22:49 27.02.2021
2055 Clouds 4 1036 70 10000 6.17 320 22:22 27.02.2021
2056 Clouds 4 1036 70 10000 6.17 320 21:51 27.02.2021
2057 Clouds 4 1036 70 10000 7.2 320 21:33 27.02.2021
2058 Clouds 4 1036 70 10000 8.23 320 20:54 27.02.2021
2059 Clouds 4 1036 70 10000 7.72 320 20:34 27.02.2021
2060 Clouds 4 1036 70 10000 6.17 320 19:55 27.02.2021
2061 Clouds 5 1036 70 10000 6.17 320 19:37 27.02.2021
2062 Clouds 5 1036 65 10000 5.14 330 19:19 27.02.2021
2063 Clouds 5 1035 65 10000 5.66 320 18:37 27.02.2021
2064 Clouds 5 1035 65 10000 6.17 330 18:18 27.02.2021
2065 Clouds 5 1035 65 10000 6.17 330 17:42 27.02.2021
2066 Clouds 6 1035 65 10000 6.69 330 17:19 27.02.2021
2067 Clouds 6 1034 65 10000 7.2 320 16:50 27.02.2021
2068 Clouds 7 1034 61 10000 6.69 330 16:30 27.02.2021
2069 Clouds 7 1034 61 10000 8.23 320 15:49 27.02.2021
2070 Clouds 7 1034 61 10000 9.26 320 15:30 27.02.2021
2071 Clouds 8 1034 61 10000 8.23 320 14:41 27.02.2021
2072 Clouds 7 1034 61 10000 8.75 330 14:23 27.02.2021
2073 Clouds 8 1034 61 10000 8.23 320 13:47 27.02.2021
2074 Clouds 7 1034 61 10000 8.23 330 13:25 27.02.2021
2075 Clouds 7 1034 61 10000 7.72 320 12:49 27.02.2021
2076 Clouds 7 1034 61 10000 8.23 310 12:27 27.02.2021
2077 Clouds 7 1034 65 10000 6.17 330 11:55 27.02.2021
2078 Clouds 7 1034 61 10000 8.75 330 11:31 27.02.2021
2079 Clouds 7 1033 65 10000 7.72 320 10:59 27.02.2021
2080 Clouds 7 1033 65 10000 7.72 320 10:41 27.02.2021
2081 Clouds 6 1033 70 10000 8.23 320 10:18 27.02.2021
2082 Clouds 6 1033 70 10000 8.23 310 09:37 27.02.2021
2083 Clouds 5 1033 81 10000 7.2 300 08:58 27.02.2021
2084 Clouds 5 1033 81 10000 7.2 300 08:39 27.02.2021
2085 Clouds 5 1032 81 10000 7.72 310 08:18 27.02.2021
2086 Clouds 4 1032 81 10000 6.17 310 07:32 27.02.2021
2087 Rain 5 1029 87 10000 7.72 340 02:31 27.02.2021
2088 Rain 7 1028 81 10000 8.23 330 00:35 27.02.2021
2089 Rain 9 1027 76 9000 5.66 340 23:48 26.02.2021
2090 Rain 10 1027 71 10000 6.17 330 23:25 26.02.2021
2091 Rain 11 1026 62 10000 6.69 330 22:42 26.02.2021
2092 Rain 12 1025 58 10000 5.14 320 22:23 26.02.2021
2093 Clear 12 1025 54 10000 3.09 10 21:37 26.02.2021
2094 Clear 13 1025 50 10000 4.63 290 20:59 26.02.2021
2095 Clear 13 1025 50 10000 4.63 290 20:41 26.02.2021
2096 Clear 13 1025 47 10000 5.66 300 20:20 26.02.2021
2097 Clear 12 1025 47 10000 5.66 300 19:40 26.02.2021
2098 Clear 13 1025 44 10000 4.12 300 19:18 26.02.2021
2099 Clear 14 1024 44 10000 4.12 310 18:41 26.02.2021
2100 Clear 14 1024 41 10000 2.06 330 18:21 26.02.2021
2101 Clear 16 1024 36 10000 0.51 0 17:39 26.02.2021
2102 Clear 16 1024 29 10000 4.12 290 17:21 26.02.2021
2103 Clear 19 1024 26 10000 4.63 280 16:50 26.02.2021
2104 Clear 18 1025 26 10000 6.17 270 16:31 26.02.2021
2105 Clear 19 1025 26 10000 7.2 280 15:56 26.02.2021
2106 Clear 18 1025 26 10000 5.14 290 15:36 26.02.2021
2107 Clear 19 1025 26 10000 5.14 290 15:18 26.02.2021
2108 Clear 19 1025 48 10000 3.09 10 14:42 26.02.2021
2109 Clear 18 1026 51 10000 1.54 40 14:24 26.02.2021
2110 Clear 17 1026 55 10000 1.03 0 13:39 26.02.2021
2111 Clear 17 1026 63 10000 1.54 50 13:20 26.02.2021
2112 Clear 17 1027 55 10000 1.03 0 12:34 26.02.2021
2113 Clear 16 1028 71 10000 1.54 110 11:51 26.02.2021
2114 Clear 14 1028 81 10000 1.54 130 11:33 26.02.2021
2115 Clear 12 1028 87 9000 1.54 120 10:46 26.02.2021
2116 Mist 10 1029 93 4100 1.03 0 09:55 26.02.2021
2117 Fog 8 1029 100 1500 1.03 0 09:31 26.02.2021
2118 Fog 7 1029 100 200 1.54 250 08:54 26.02.2021
2119 Fog 4 1029 100 300 0.51 0 08:25 26.02.2021
2120 Fog 3 1028 100 300 1.03 240 07:49 26.02.2021
2121 Fog 4 1028 100 300 0.51 0 06:36 26.02.2021
2122 Fog 4 1028 93 3200 1.03 330 05:27 26.02.2021
2123 Mist 5 1028 100 3400 0.51 0 03:46 26.02.2021
2124 Fog 6 1029 93 2500 1.03 0 02:35 26.02.2021
2125 Mist 7 1029 93 7000 1.03 180 23:56 25.02.2021
2126 Clear 7 1029 93 7000 2.06 170 23:28 25.02.2021
2127 Clear 8 1029 93 7000 1.03 190 22:49 25.02.2021
2128 Clear 8 1029 87 7000 1.54 250 22:19 25.02.2021
2129 Clear 8 1029 81 8000 2.06 260 21:38 25.02.2021
2130 Clear 8 1029 81 9000 2.57 260 21:19 25.02.2021
2131 Clear 8 1029 87 9000 1.03 0 20:41 25.02.2021
2132 Clear 9 1029 81 10000 1.03 0 20:22 25.02.2021
2133 Clear 9 1029 81 10000 1.54 300 19:52 25.02.2021
2134 Clear 10 1029 81 10000 0.51 0 19:22 25.02.2021
2135 Clear 10 1029 76 10000 1.03 0 18:57 25.02.2021
2136 Clear 11 1029 76 10000 1.54 340 18:24 25.02.2021
2137 Clear 12 1029 76 10000 2.06 360 17:49 25.02.2021
2138 Clear 13 1029 72 10000 1.54 30 17:26 25.02.2021
2139 Clear 15 1029 63 10000 2.06 20 16:43 25.02.2021
2140 Clear 15 1029 63 10000 2.06 20 16:25 25.02.2021
2141 Clear 14 1030 58 10000 2.57 10 15:30 25.02.2021
2142 Clear 14 1030 58 10000 2.57 20 14:57 25.02.2021
2143 Clear 13 1030 58 10000 2.57 30 14:22 25.02.2021
2144 Clear 13 1030 58 10000 1.03 0 13:51 25.02.2021
2145 Clear 13 1031 58 10000 0.51 0 13:25 25.02.2021
2146 Clear 12 1031 62 10000 1.03 0 12:53 25.02.2021
2147 Haze 12 1031 62 10000 1.54 0 12:21 25.02.2021
2148 Clear 11 1032 71 10000 1.03 0 11:45 25.02.2021
2149 Clear 11 1032 71 10000 0.51 0 11:19 25.02.2021
2150 Clear 9 1032 76 10000 1.03 0 10:45 25.02.2021
2151 Clear 9 1032 81 10000 1.03 0 10:23 25.02.2021
2152 Clear 8 1032 87 8000 1.03 0 09:42 25.02.2021
2153 Mist 6 1032 100 2700 1.03 0 08:55 25.02.2021
2154 Fog 5 1032 100 1500 0.51 0 08:25 25.02.2021
2155 Fog 5 1032 100 2000 1.03 20 07:53 25.02.2021
2156 Clear 5 1017 87 10000 0.56 339 07:31 25.02.2021
2157 Clear 4 1017 87 10000 0.56 339 06:51 25.02.2021
2158 Mist 6 1032 93 5000 2.06 140 01:59 25.02.2021
2159 Mist 6 1032 93 5000 2.06 140 01:37 25.02.2021
2160 Clear 6 1033 87 6000 1.03 0 00:41 25.02.2021
2161 Clear 6 1033 93 7000 2.06 180 23:52 24.02.2021
2162 Clear 7 1033 87 7000 1.54 140 23:27 24.02.2021
2163 Clear 7 1033 87 7000 0.51 0 22:44 24.02.2021
2164 Clear 7 1033 87 7000 1.03 0 22:25 24.02.2021
2165 Clear 8 1033 87 8000 0.51 0 21:45 24.02.2021
2166 Clear 8 1033 81 10000 0.8 100 20:59 24.02.2021
2167 Clear 8 1033 81 10000 0.8 100 20:40 24.02.2021
2168 Clear 8 1033 81 10000 1.03 210 20:20 24.02.2021
2169 Clear 9 1034 81 10000 1.54 170 19:29 24.02.2021
2170 Clear 10 1034 76 10000 1.54 180 18:59 24.02.2021
2171 Clear 10 1034 76 10000 1.54 180 18:39 24.02.2021
2172 Clear 11 1034 76 10000 1.54 170 18:21 24.02.2021
2173 Clear 12 1034 71 10000 2.06 160 17:37 24.02.2021
2174 Clear 13 1034 62 10000 2.06 130 17:18 24.02.2021
2175 Clear 14 1034 54 10000 3.09 140 16:43 24.02.2021
2176 Clear 15 1034 55 10000 2.06 130 16:19 24.02.2021
2177 Clear 15 1034 51 10000 2.06 140 15:40 24.02.2021
2178 Clear 15 1035 51 10000 1.54 130 14:55 24.02.2021
2179 Clear 14 1035 51 10000 1.54 130 14:35 24.02.2021
2180 Clear 14 1035 54 10000 1.54 80 13:58 24.02.2021
2181 Clear 13 1035 54 10000 1.54 80 13:39 24.02.2021
2182 Clear 13 1036 58 10000 1.03 0 13:21 24.02.2021
2183 Clear 12 1036 66 10000 1.03 0 12:44 24.02.2021
2184 Clear 11 1037 66 10000 2.06 50 12:23 24.02.2021
2185 Clear 11 1037 71 10000 1.54 50 11:46 24.02.2021
2186 Clear 10 1037 81 7000 1.03 0 10:52 24.02.2021
2187 Mist 9 1037 87 5000 2.06 70 10:30 24.02.2021
2188 Mist 6 1037 93 4100 1.03 0 09:44 24.02.2021
2189 Mist 7 1037 100 3000 1.03 120 09:20 24.02.2021
2190 Fog 5 1037 93 1200 1.03 260 08:34 24.02.2021
2191 Fog 3 1037 100 550 0.51 0 07:57 24.02.2021
2192 Fog 3 1037 93 550 1.54 260 07:20 24.02.2021
2193 Fog 3 1037 100 250 0.51 0 06:23 24.02.2021
2194 Mist 4 1036 100 2000 1.03 30 03:28 24.02.2021
2195 Fog 6 1037 93 4000 1.54 240 00:22 24.02.2021
2196 Mist 5 1037 93 5000 1.03 0 23:21 23.02.2021
2197 Mist 5 1037 93 5000 1.54 290 22:37 23.02.2021
2198 Clouds 5 1037 93 6000 1.03 0 22:19 23.02.2021
2199 Clouds 6 1037 93 7000 0.51 0 21:42 23.02.2021
2200 Clouds 6 1036 87 7000 2.06 270 21:22 23.02.2021
2201 Clouds 6 1036 87 7000 1.54 270 20:48 23.02.2021
2202 Clouds 7 1036 87 7000 2.06 250 20:29 23.02.2021
2203 Clouds 6 1036 93 9000 1.03 0 19:48 23.02.2021
2204 Clear 7 1036 87 9000 1.03 340 19:27 23.02.2021
2205 Clear 7 1036 87 9000 1.03 30 18:55 23.02.2021
2206 Clear 8 1036 87 10000 1.03 80 18:32 23.02.2021
2207 Clear 9 1036 87 10000 1.03 0 17:54 23.02.2021
2208 Clear 10 1035 81 10000 2.57 50 17:33 23.02.2021
2209 Clear 11 1035 73 10000 0.81 345 16:56 23.02.2021
2210 Clear 11 1035 81 10000 3.09 40 16:27 23.02.2021
2211 Clear 12 1035 81 10000 3.6 40 15:58 23.02.2021
2212 Clear 13 1034 64 10000 0.45 0 15:38 23.02.2021
2213 Clear 14 1035 81 10000 3.6 40 15:18 23.02.2021
2214 Clear 14 1035 81 10000 3.09 50 14:43 23.02.2021
2215 Clear 13 1035 81 10000 3.6 50 14:25 23.02.2021
2216 Clear 12 1034 81 10000 2.57 40 13:44 23.02.2021
2217 Clear 12 1035 81 10000 3.6 30 13:24 23.02.2021
2218 Clouds 11 1035 81 10000 4.12 40 12:51 23.02.2021
2219 Clouds 10 1035 87 10000 4.12 30 12:20 23.02.2021
2220 Clouds 10 1035 93 10000 4.12 30 11:48 23.02.2021
2221 Mist 10 1035 93 5000 4.12 20 11:21 23.02.2021
2222 Mist 9 1035 100 3400 4.63 10 10:51 23.02.2021
2223 Fog 7 1035 100 700 4.12 10 10:32 23.02.2021
2224 Fog 8 1035 100 350 3.6 360 09:45 23.02.2021
2225 Fog 5 1035 93 300 3.6 350 09:25 23.02.2021
2226 Fog 5 1034 100 300 3.09 350 08:50 23.02.2021
2227 Fog 4 1034 100 300 4.12 360 08:24 23.02.2021
2228 Fog 3 1034 100 300 3.6 360 07:53 23.02.2021
2229 Fog 3 1032 100 350 2.06 10 05:32 23.02.2021
2230 Fog 2 1032 100 350 1.03 40 04:46 23.02.2021
2231 Fog 3 1031 100 250 2.06 20 02:34 23.02.2021
2232 Fog 3 1030 100 300 1.03 30 00:20 23.02.2021
2233 Fog 2 1030 100 350 1.03 10 23:52 22.02.2021
2234 Fog 3 1029 100 2300 1.03 340 23:20 22.02.2021
2235 Fog 3 1029 100 1500 2.06 320 22:41 22.02.2021
2236 Fog 4 1029 100 2400 1.03 330 22:20 22.02.2021
2237 Fog 2 1028 93 3800 0.51 0 21:45 22.02.2021
2238 Fog 3 1028 93 3800 0.51 0 21:45 22.02.2021
2239 Mist 3 1028 100 4200 1.03 340 21:23 22.02.2021
2240 Mist 3 1028 93 3700 1.03 330 20:51 22.02.2021
2241 Mist 3 1028 93 5000 1.54 310 20:28 22.02.2021
2242 Mist 3 1028 93 4300 1.54 30 19:51 22.02.2021
2243 Mist 3 1028 93 5000 1.54 340 19:33 22.02.2021
2244 Mist 4 1027 93 5000 0.51 0 18:56 22.02.2021
2245 Mist 4 1027 93 5000 0.51 0 18:37 22.02.2021
2246 Clouds 5 1027 87 6000 1.03 260 18:19 22.02.2021
2247 Clouds 7 1027 76 8000 1.54 240 17:25 22.02.2021
2248 Clouds 7 1027 81 10000 1.54 240 16:54 22.02.2021
2249 Clouds 7 1027 81 10000 1.54 200 16:32 22.02.2021
2250 Clouds 8 1027 81 10000 1.03 0 15:46 22.02.2021
2251 Clouds 8 1027 81 8000 1.54 270 15:27 22.02.2021
2252 Clouds 7 1027 81 7000 1.54 260 14:47 22.02.2021
2253 Clouds 7 1026 87 7000 1.03 0 14:28 22.02.2021
2254 Clouds 6 1027 87 6000 0.51 0 13:46 22.02.2021
2255 Mist 5 1026 93 5000 1.54 0 12:56 22.02.2021
2256 Mist 5 1026 93 5000 1.54 0 12:36 22.02.2021
2257 Mist 6 1026 93 5000 0.51 0 12:18 22.02.2021
2258 Mist 5 1026 87 5000 1.03 0 11:41 22.02.2021
2259 Mist 5 1026 87 5000 2.06 140 11:22 22.02.2021
2260 Mist 5 1026 87 4900 2.57 120 10:46 22.02.2021
2261 Mist 4 1025 87 4400 3.09 120 10:22 22.02.2021
2262 Mist 4 1025 93 4200 3.09 120 09:42 22.02.2021
2263 Mist 4 1025 93 4100 3.6 120 09:24 22.02.2021
2264 Mist 4 1025 93 4300 3.6 130 08:49 22.02.2021
2265 Mist 4 1024 93 4600 4.12 120 08:24 22.02.2021
2266 Mist 4 1024 93 4400 4.12 120 07:56 22.02.2021
2267 Mist 4 1024 93 4800 3.09 120 07:26 22.02.2021
2268 Clouds 4 1024 87 6000 4.12 110 06:32 22.02.2021
2269 Clouds 4 1023 87 7000 3.6 110 05:38 22.02.2021
2270 Clouds 4 1023 93 7000 5.14 110 03:27 22.02.2021
2271 Clouds 5 1023 87 7000 7.2 120 02:49 22.02.2021
2272 Clouds 5 1017 87 10000 6.68 136 00:45 22.02.2021
2273 Mist 4 1023 93 5000 6.69 110 00:22 22.02.2021
2274 Mist 5 1023 93 5000 7.2 100 23:30 21.02.2021
2275 Mist 4 1024 93 5000 7.72 110 22:51 21.02.2021
2276 Clouds 5 1020 95 10000 0.45 341 22:22 21.02.2021
2277 Mist 5 1024 93 3900 7.2 110 21:43 21.02.2021
2278 Mist 5 1024 93 3800 6.69 110 21:24 21.02.2021
2279 Mist 5 1024 87 5000 6.69 120 20:43 21.02.2021
2280 Mist 5 1024 87 5000 6.69 120 20:20 21.02.2021
2281 Mist 5 1024 87 5000 6.17 110 19:51 21.02.2021
2282 Mist 5 1024 87 5000 6.17 110 19:32 21.02.2021
2283 Mist 5 1024 93 4500 5.14 100 18:49 21.02.2021
2284 Mist 6 1024 93 4600 5.14 100 18:25 21.02.2021
2285 Mist 6 1024 93 3700 5.14 120 17:30 21.02.2021
2286 Mist 6 1024 93 3500 4.63 120 16:58 21.02.2021
2287 Mist 6 1024 93 3500 4.63 120 16:35 21.02.2021
2288 Mist 6 1025 93 3300 6.17 100 15:57 21.02.2021
2289 Mist 5 1025 93 3100 5.66 120 15:23 21.02.2021
2290 Mist 5 1025 93 3100 6.17 110 14:54 21.02.2021
2291 Mist 5 1025 93 3000 6.17 110 14:35 21.02.2021
2292 Mist 5 1025 93 2700 5.66 110 13:49 21.02.2021
2293 Mist 6 1025 93 2600 5.14 110 13:28 21.02.2021
2294 Mist 5 1026 93 2200 5.14 120 12:32 21.02.2021
2295 Mist 5 1026 93 1800 6.17 120 11:59 21.02.2021
2296 Mist 5 1026 93 1800 6.17 120 11:40 21.02.2021
2297 Drizzle 4 1025 100 1900 5.14 120 10:40 21.02.2021
2298 Drizzle 4 1025 100 1400 7.2 130 10:21 21.02.2021
2299 Mist 4 1025 93 1100 4.63 120 09:43 21.02.2021
2300 Drizzle 4 1025 100 1000 4.63 120 09:24 21.02.2021
2301 Drizzle 3 1025 100 1200 5.66 120 08:34 21.02.2021
2302 Drizzle 3 1025 100 1600 6.69 130 07:57 21.02.2021
2303 Drizzle 3 1025 100 1900 6.17 120 07:22 21.02.2021
2304 Drizzle 3 1024 100 2000 6.69 130 06:24 21.02.2021
2305 Mist 3 1025 100 1800 8.23 130 02:42 21.02.2021
2306 Clouds 4 1017 87 10000 6.31 137 01:20 21.02.2021
2307 Mist 4 1025 100 1100 7.2 130 00:21 21.02.2021
2308 Clouds 4 1017 87 10000 5.95 137 23:48 20.02.2021
2309 Clouds 4 1017 87 10000 5.76 137 22:58 20.02.2021
2310 Mist 4 1026 100 3200 6.69 120 22:33 20.02.2021
2311 Clouds 4 1017 87 10000 5.41 139 21:59 20.02.2021
2312 Clouds 4 1017 87 10000 5.33 139 21:41 20.02.2021
2313 Clouds 4 1017 87 10000 5.05 142 21:18 20.02.2021
2314 Fog 4 1025 100 750 5.14 120 20:40 20.02.2021
2315 Fog 4 1025 100 550 5.66 120 20:19 20.02.2021
2316 Fog 4 1025 100 450 4.63 130 19:42 20.02.2021
2317 Fog 4 1025 100 550 4.12 130 18:58 20.02.2021
2318 Fog 4 1025 100 550 4.12 130 18:37 20.02.2021
2319 Fog 4 1025 93 650 5.14 120 18:18 20.02.2021
2320 Clouds 4 1017 87 10000 4.09 130 17:36 20.02.2021
2321 Mist 4 1025 93 1500 4.12 120 16:50 20.02.2021
2322 Mist 4 1025 93 1600 4.63 120 16:27 20.02.2021
2323 Drizzle 4 1025 100 1900 4.63 120 15:44 20.02.2021
2324 Fog 4 1025 100 1900 5.66 120 15:18 20.02.2021
2325 Mist 4 1025 93 3500 4.63 110 14:43 20.02.2021
2326 Mist 4 1026 93 3500 4.63 120 14:22 20.02.2021
2327 Mist 4 1026 87 4400 3.09 100 13:40 20.02.2021
2328 Mist 4 1026 93 2900 2.57 60 13:22 20.02.2021
2329 Clouds 4 1017 87 10000 2.76 125 12:47 20.02.2021
2330 Fog 4 1026 100 900 1.54 40 12:22 20.02.2021
2331 Clouds 4 1017 87 10000 2.31 126 11:42 20.02.2021
2332 Clouds 4 1017 87 10000 1.93 130 11:23 20.02.2021
2333 Fog 3 1026 93 250 0.51 0 10:43 20.02.2021
2334 Fog 2 1026 93 150 1.03 0 09:50 20.02.2021
2335 Fog 3 1025 93 150 1.03 0 09:20 20.02.2021
2336 Clouds 3 1017 87 10000 1.23 117 08:34 20.02.2021
2337 Clouds 3 1017 87 10000 1.17 110 07:55 20.02.2021
2338 Mist 3 1023 93 3300 1.54 160 02:46 20.02.2021
2339 Mist 4 1023 93 3900 1.54 160 02:22 20.02.2021
2340 Mist 4 1023 93 4300 1.54 120 01:47 20.02.2021
2341 Mist 4 1022 93 4500 1.54 100 00:45 20.02.2021
2342 Mist 4 1022 93 4600 1.54 70 23:46 19.02.2021
2343 Mist 4 1022 87 5000 3.09 190 22:56 19.02.2021
2344 Mist 4 1022 93 5000 2.57 180 22:27 19.02.2021
2345 Mist 4 1022 93 4800 2.57 160 21:50 19.02.2021
2346 Mist 5 1022 87 5000 1.03 0 21:30 19.02.2021
2347 Mist 5 1022 93 5000 1.54 80 20:48 19.02.2021
2348 Mist 5 1022 93 5000 2.06 70 20:28 19.02.2021
2349 Mist 5 1022 87 5000 0.51 0 19:55 19.02.2021
2350 Rain 5 1022 87 5000 1.03 0 19:27 19.02.2021
2351 Clouds 5 1022 87 6000 1.03 0 18:56 19.02.2021
2352 Rain 6 1022 87 6000 1.54 130 18:33 19.02.2021
2353 Clouds 6 1022 87 6000 1.03 0 17:51 19.02.2021
2354 Clouds 6 1022 87 8000 2.57 140 16:53 19.02.2021
2355 Clouds 6 1021 81 8000 2.06 110 16:28 19.02.2021
2356 Clouds 6 1022 75 9000 1.54 100 15:58 19.02.2021
2357 Clouds 6 1021 81 9000 1.54 80 15:31 19.02.2021
2358 Clouds 6 1022 81 10000 1.03 0 14:59 19.02.2021
2359 Clouds 6 1021 81 10000 1.54 120 14:38 19.02.2021
2360 Rain 6 1021 81 10000 1.54 120 14:18 19.02.2021
2361 Rain 6 1022 81 10000 1.03 0 13:42 19.02.2021
2362 Clouds 6 1022 81 10000 1.54 140 13:24 19.02.2021
2363 Clouds 7 1022 75 10000 2.06 130 12:41 19.02.2021
2364 Clouds 6 1022 81 10000 1.54 150 12:22 19.02.2021
2365 Clouds 6 1022 81 9000 2.06 140 11:50 19.02.2021
2366 Clouds 5 1022 87 8000 3.09 140 11:22 19.02.2021
2367 Clouds 4 1022 87 6000 3.09 140 10:47 19.02.2021
2368 Clouds 4 1022 87 6000 2.57 120 10:21 19.02.2021
2369 Clouds 4 1021 87 6000 3.6 120 09:40 19.02.2021
2370 Clouds 3 1021 87 6000 3.6 140 09:22 19.02.2021
2371 Mist 3 1021 93 5000 3.6 120 08:50 19.02.2021
2372 Mist 2 1021 93 5000 2.06 130 08:23 19.02.2021
2373 Mist 2 1020 93 5000 2.57 120 07:48 19.02.2021
2374 Clouds 2 1020 86 6000 4.12 120 07:27 19.02.2021
2375 Clouds 2 1019 86 7000 6.17 120 06:49 19.02.2021
2376 Clouds 2 1018 80 10000 6.17 110 05:21 19.02.2021
2377 Clear 2 1018 87 10000 5.14 120 04:41 19.02.2021
2378 Clear 3 1018 81 10000 5.66 130 01:47 19.02.2021
2379 Clear 3 1019 81 10000 5.14 130 00:37 19.02.2021
2380 Clear 3 1019 75 10000 4.63 120 23:54 18.02.2021
2381 Clear 4 1019 75 10000 4.63 120 23:34 18.02.2021
2382 Clear 4 1019 70 10000 3.09 130 22:47 18.02.2021
2383 Clear 4 1019 75 10000 1.03 0 22:28 18.02.2021
2384 Clear 4 1020 70 10000 1.54 110 21:48 18.02.2021
2385 Clear 4 1020 75 10000 2.57 110 21:25 18.02.2021
2386 Clear 5 1020 70 10000 4.63 120 20:43 18.02.2021
2387 Clear 5 1020 70 10000 4.63 120 20:23 18.02.2021
2388 Clear 5 1020 70 10000 3.6 120 19:47 18.02.2021
2389 Clear 6 1020 75 10000 3.09 120 19:26 18.02.2021
2390 Clear 6 1020 65 10000 3.6 100 18:53 18.02.2021
2391 Clear 6 1020 70 10000 3.09 110 18:30 18.02.2021
2392 Clear 8 1020 66 10000 3.09 100 17:53 18.02.2021
2393 Clear 8 1020 57 10000 3.09 110 17:26 18.02.2021
2394 Clear 11 1020 50 10000 3.6 80 16:59 18.02.2021
2395 Clear 10 1020 50 10000 3.6 80 16:40 18.02.2021
2396 Clouds 11 1020 53 10000 3.6 90 16:19 18.02.2021
2397 Clouds 12 1020 50 10000 3.6 70 15:38 18.02.2021
2398 Clouds 11 1020 50 10000 3.6 50 15:20 18.02.2021
2399 Clouds 11 1020 50 10000 2.57 50 14:48 18.02.2021
2400 Clouds 11 1020 54 10000 3.09 50 14:29 18.02.2021
2401 Clouds 10 1021 54 10000 2.06 140 13:46 18.02.2021
2402 Clouds 10 1021 54 10000 1.54 0 13:20 18.02.2021
2403 Clouds 10 1021 57 10000 1.54 0 12:47 18.02.2021
2404 Clouds 10 1022 62 10000 1.03 0 12:23 18.02.2021
2405 Clouds 9 1022 61 10000 1.54 50 11:46 18.02.2021
2406 Clouds 9 1022 61 10000 1.03 0 11:27 18.02.2021
2407 Clear 8 1022 66 10000 1.54 50 10:48 18.02.2021
2408 Clear 6 1022 70 10000 1.03 0 10:29 18.02.2021
2409 Clear 7 1022 75 10000 0.51 0 09:50 18.02.2021
2410 Clear 5 1022 75 10000 1.03 270 09:24 18.02.2021
2411 Clear 5 1022 87 10000 1.54 260 08:48 18.02.2021
2412 Clear 4 1022 87 10000 2.06 180 08:25 18.02.2021
2413 Clear 4 1021 81 10000 1.03 160 07:35 18.02.2021
2414 Clear 4 1021 81 10000 1.54 110 06:54 18.02.2021
2415 Clear 4 1020 70 10000 3.09 280 03:31 18.02.2021
2416 Clear 5 1021 65 10000 5.14 280 23:56 17.02.2021
2417 Clear 6 1021 70 10000 4.63 280 23:30 17.02.2021
2418 Clear 6 1021 70 10000 4.12 280 22:54 17.02.2021
2419 Clear 6 1021 65 10000 1.54 240 22:27 17.02.2021
2420 Clear 5 1021 65 10000 3.09 360 21:57 17.02.2021
2421 Clear 6 1020 70 10000 3.6 330 21:22 17.02.2021
2422 Clear 7 1020 70 10000 3.09 290 20:53 17.02.2021
2423 Clear 6 1020 70 10000 3.09 290 20:33 17.02.2021
2424 Clear 6 1020 70 10000 3.09 250 19:52 17.02.2021
2425 Clear 6 1020 70 10000 3.09 250 19:34 17.02.2021
2426 Clear 7 1020 66 10000 4.12 270 18:50 17.02.2021
2427 Clear 9 1019 66 10000 4.12 270 18:31 17.02.2021
2428 Clear 9 1019 53 10000 6.69 300 17:46 17.02.2021
2429 Clear 10 1018 53 10000 7.2 300 17:21 17.02.2021
2430 Clouds 10 1018 66 10000 5.14 290 16:50 17.02.2021
2431 Clouds 9 1018 71 10000 3.6 290 16:29 17.02.2021
2432 Clouds 9 1018 62 10000 5.66 310 15:46 17.02.2021
2433 Clouds 10 1018 66 10000 5.14 300 15:27 17.02.2021
2434 Clouds 9 1018 76 10000 6.69 310 14:51 17.02.2021
2435 Clouds 9 1017 66 10000 8.23 300 14:29 17.02.2021
2436 Clouds 9 1017 71 10000 7.2 300 13:52 17.02.2021
2437 Clouds 9 1017 71 10000 7.2 300 13:33 17.02.2021
2438 Clouds 9 1017 71 10000 6.69 300 12:58 17.02.2021
2439 Clouds 9 1017 71 10000 4.63 290 12:26 17.02.2021
2440 Clouds 8 1018 81 10000 2.57 300 11:48 17.02.2021
2441 Clouds 8 1018 76 10000 3.6 270 11:29 17.02.2021
2442 Clouds 7 1018 87 10000 3.6 300 10:56 17.02.2021
2443 Clouds 7 1017 78 10000 5.36 318 10:38 17.02.2021
2444 Clouds 7 1016 79 10000 5.81 287 10:19 17.02.2021
2445 Rain 4 1017 93 6000 1.54 80 09:38 17.02.2021
2446 Rain 3 1017 93 7000 3.09 160 08:56 17.02.2021
2447 Rain 3 1017 93 7000 3.09 160 08:36 17.02.2021
2448 Rain 1 1017 93 6000 3.09 160 08:18 17.02.2021
2449 Rain -1 1017 86 9000 2.57 210 06:37 17.02.2021
2450 Rain -1 1017 86 9000 2.57 210 06:37 17.02.2021
2451 Snow -1 1017 80 10000 3.09 120 03:53 17.02.2021
2452 Clear -1 1017 80 10000 3.6 130 02:32 17.02.2021
2453 Clouds -1 1018 80 10000 3.09 120 01:36 17.02.2021
2454 Clouds 0 1019 80 10000 3.6 120 00:28 17.02.2021
2455 Clouds 0 1019 86 10000 3.6 130 23:39 16.02.2021
2456 Clouds 0 1019 86 10000 3.09 120 22:58 16.02.2021
2457 Clouds 0 1019 86 10000 3.09 120 22:39 16.02.2021
2458 Clouds 0 1020 86 10000 3.09 130 22:21 16.02.2021
2459 Drizzle -1 1021 80 10000 3.09 120 21:39 16.02.2021
2460 Drizzle 0 1021 80 10000 3.09 120 21:21 16.02.2021
2461 Clouds 0 1021 80 10000 4.12 120 20:56 16.02.2021
2462 Clouds 0 1021 80 10000 4.12 120 20:37 16.02.2021
2463 Clouds 0 1021 80 10000 4.12 120 20:18 16.02.2021
2464 Clouds 0 1022 80 10000 4.63 120 19:39 16.02.2021
2465 Clouds 0 1022 80 10000 4.63 120 19:19 16.02.2021
2466 Clouds 0 1022 80 10000 3.09 120 18:37 16.02.2021
2467 Clouds 0 1022 80 10000 3.09 120 18:18 16.02.2021
2468 Clouds 0 1022 80 10000 3.09 110 17:47 16.02.2021
2469 Clouds 0 1022 80 10000 3.09 120 17:23 16.02.2021
2470 Clouds 0 1023 80 10000 4.12 120 16:45 16.02.2021
2471 Clouds 0 1023 80 10000 4.12 120 16:22 16.02.2021
2472 Clouds 0 1023 80 10000 4.63 130 15:44 16.02.2021
2473 Clouds 0 1024 80 10000 4.12 130 15:26 16.02.2021
2474 Clouds 0 1024 80 10000 3.6 130 14:47 16.02.2021
2475 Clouds 0 1024 80 10000 3.6 120 14:28 16.02.2021
2476 Snow 0 1024 80 10000 4.12 130 13:53 16.02.2021
2477 Clouds 0 1024 80 10000 3.6 130 13:30 16.02.2021
2478 Clouds 0 1024 86 10000 4.63 130 12:44 16.02.2021
2479 Clouds 0 1025 86 9000 4.63 130 12:22 16.02.2021
2480 Clouds 0 1025 86 9000 3.09 130 11:48 16.02.2021
2481 Snow 0 1025 86 8000 2.57 130 11:23 16.02.2021
2482 Snow -1 1025 86 8000 3.09 120 10:51 16.02.2021
2483 Snow -1 1025 86 8000 4.12 120 10:32 16.02.2021
2484 Snow -1 1025 86 8000 2.57 120 09:56 16.02.2021
2485 Snow -2 1025 93 8000 2.57 130 09:36 16.02.2021
2486 Snow -2 1025 93 8000 2.57 130 09:18 16.02.2021
2487 Snow -2 1025 93 7000 2.06 130 08:39 16.02.2021
2488 Snow -3 1025 93 7000 2.57 140 08:18 16.02.2021
2489 Mist -3 1025 93 2100 2.06 170 07:21 16.02.2021
2490 Snow -3 1027 93 3000 3.09 150 04:39 16.02.2021
2491 Clear -2 1029 80 10000 1.54 140 00:45 16.02.2021
2492 Snow -2 1030 68 10000 1.03 230 23:39 15.02.2021
2493 Snow -2 1030 68 10000 1.03 230 23:20 15.02.2021
2494 Clear -2 1031 63 10000 0.51 0 22:43 15.02.2021
2495 Clear -2 1031 63 10000 0.51 0 22:20 15.02.2021
2496 Clear -2 1031 63 10000 1.54 110 21:38 15.02.2021
2497 Clear -2 1031 63 10000 1.54 110 21:20 15.02.2021
2498 Clear -2 1031 63 10000 1.54 120 20:45 15.02.2021
2499 Clear -2 1031 63 10000 1.54 120 20:45 15.02.2021
2500 Clear -2 1032 68 10000 2.06 150 20:26 15.02.2021
2501 Clear -2 1032 63 10000 1.03 0 19:44 15.02.2021
2502 Clear -1 1032 63 10000 2.06 70 19:23 15.02.2021
2503 Clear -1 1033 59 10000 2.57 60 18:46 15.02.2021
2504 Clear -1 1033 64 10000 2.57 70 18:26 15.02.2021
2505 Clear 0 1033 59 10000 2.57 70 17:42 15.02.2021
2506 Clear 0 1033 55 10000 2.06 60 17:24 15.02.2021
2507 Clear 2 1034 47 10000 2.57 50 16:55 15.02.2021
2508 Clear 2 1034 44 10000 2.06 40 16:27 15.02.2021
2509 Clear 2 1034 40 10000 1.54 60 15:51 15.02.2021
2510 Clear 2 1035 40 10000 1.54 70 15:23 15.02.2021
2511 Clear 2 1035 47 10000 1.54 10 14:55 15.02.2021
2512 Clear 2 1035 47 10000 1.54 10 14:36 15.02.2021
2513 Clear 2 1035 51 10000 1.54 30 14:18 15.02.2021
2514 Clear 1 1036 55 10000 2.06 50 13:44 15.02.2021
2515 Clear 0 1036 55 10000 2.06 20 13:18 15.02.2021
2516 Clear 1 1036 59 10000 2.06 0 12:43 15.02.2021
2517 Clear 1 1037 55 10000 3.09 10 12:19 15.02.2021
2518 Clear 0 1037 64 10000 3.6 10 11:42 15.02.2021
2519 Clear -1 1037 64 10000 3.09 20 11:19 15.02.2021
2520 Clear -2 1037 68 10000 2.57 360 10:46 15.02.2021
2521 Clear -3 1037 74 10000 2.06 360 10:23 15.02.2021
2522 Clear -3 1037 74 10000 2.06 30 09:54 15.02.2021
2523 Clear -3 1037 74 10000 2.06 30 09:33 15.02.2021
2524 Clear -5 1037 86 10000 1.54 20 08:44 15.02.2021
2525 Clear -7 1037 86 10000 0.51 0 07:39 15.02.2021
2526 Clear -6 1037 79 10000 1.54 310 06:53 15.02.2021
2527 Clear -7 1037 79 10000 2.06 300 06:34 15.02.2021
2528 Clear -5 1039 68 10000 3.09 280 02:29 15.02.2021
2529 Clear -4 1039 68 10000 4.12 320 00:41 15.02.2021
2530 Clear -4 1039 68 10000 4.12 300 23:33 14.02.2021
2531 Clear -4 1039 68 10000 3.6 300 22:55 14.02.2021
2532 Clear -4 1039 68 10000 4.12 320 22:36 14.02.2021
2533 Clear -3 1039 68 10000 4.12 320 22:18 14.02.2021
2534 Clear -3 1040 68 10000 3.6 320 21:43 14.02.2021
2535 Clear -3 1039 63 10000 4.12 320 21:23 14.02.2021
2536 Clear -3 1039 63 10000 4.12 320 21:23 14.02.2021
2537 Clear -2 1039 59 10000 4.63 320 20:39 14.02.2021
2538 Clear -2 1039 59 10000 4.63 320 20:20 14.02.2021
2539 Clear -2 1039 59 10000 4.63 320 19:40 14.02.2021
2540 Clear -1 1039 59 10000 3.6 340 18:51 14.02.2021
2541 Clear -1 1039 54 10000 3.6 320 18:29 14.02.2021
2542 Clear -1 1038 54 10000 3.6 330 17:51 14.02.2021
2543 Clear -1 1038 54 10000 3.6 330 17:33 14.02.2021
2544 Clear 0 1038 47 10000 5.14 330 16:48 14.02.2021
2545 Clear 0 1038 43 10000 6.17 330 16:25 14.02.2021
2546 Clear 1 1038 47 10000 5.66 340 15:49 14.02.2021
2547 Clear 0 1038 51 10000 4.63 330 15:29 14.02.2021
2548 Clear 1 1038 51 10000 4.63 320 14:47 14.02.2021
2549 Clear 1 1038 51 10000 6.17 320 14:26 14.02.2021
2550 Clouds 0 1039 55 10000 6.17 340 13:44 14.02.2021
2551 Clouds -1 1039 55 10000 6.69 340 13:26 14.02.2021
2552 Clouds -1 1039 59 10000 7.72 340 12:37 14.02.2021
2553 Clouds -1 1039 59 10000 7.72 340 12:18 14.02.2021
2554 Clouds -2 1040 63 10000 7.2 330 11:43 14.02.2021
2555 Clouds -2 1040 63 10000 6.17 330 11:20 14.02.2021
2556 Clouds -3 1039 59 10000 6.17 330 10:31 14.02.2021
2557 Clouds -4 1039 68 10000 6.17 320 09:54 14.02.2021
2558 Clouds -4 1039 74 10000 6.69 320 09:36 14.02.2021
2559 Clouds -4 1039 74 10000 6.69 320 09:18 14.02.2021
2560 Clouds -5 1039 79 10000 4.63 320 08:21 14.02.2021
2561 Clouds -6 1038 73 10000 3.6 320 07:47 14.02.2021
2562 Clear -6 1038 79 10000 4.63 320 06:26 14.02.2021
2563 Clear -6 1038 79 10000 5.14 340 04:35 14.02.2021
2564 Clear -5 1038 74 10000 5.66 320 02:50 14.02.2021
2565 Clouds -5 1038 74 10000 5.14 310 01:29 14.02.2021
2566 Clouds -4 1038 74 10000 5.66 320 00:42 14.02.2021
2567 Clouds -4 1038 68 10000 6.17 310 23:58 13.02.2021
2568 Clouds -4 1037 68 10000 6.17 320 23:25 13.02.2021
2569 Clouds -4 1037 68 10000 6.69 320 22:59 13.02.2021
2570 Clouds -4 1037 68 10000 7.72 320 22:26 13.02.2021
2571 Clouds -3 1037 68 10000 6.17 330 21:49 13.02.2021
2572 Clouds -3 1037 64 10000 7.2 320 21:27 13.02.2021
2573 Clouds -3 1037 64 10000 7.2 330 20:45 13.02.2021
2574 Clouds -3 1036 69 10000 5.66 320 20:27 13.02.2021
2575 Snow -3 1036 69 10000 7.72 320 19:48 13.02.2021
2576 Snow -3 1036 69 10000 5.14 310 19:24 13.02.2021
2577 Clouds -3 1036 74 10000 4.63 300 18:50 13.02.2021
2578 Snow -3 1036 74 10000 6.17 320 18:27 13.02.2021
2579 Clouds -3 1035 74 10000 6.17 320 17:44 13.02.2021
2580 Clouds -3 1035 74 10000 6.69 310 17:25 13.02.2021
2581 Clouds -3 1035 64 10000 7.2 320 16:53 13.02.2021
2582 Clouds -2 1035 64 10000 6.69 320 16:35 13.02.2021
2583 Snow -2 1035 64 10000 6.69 320 15:45 13.02.2021
2584 Snow -2 1035 64 10000 6.17 330 15:26 13.02.2021
2585 Snow -2 1035 64 10000 6.17 330 15:26 13.02.2021
2586 Clouds -2 1035 63 10000 6.69 330 14:41 13.02.2021
2587 Clouds -2 1035 54 10000 6.17 320 13:50 13.02.2021
2588 Clouds -2 1035 54 10000 6.69 300 13:28 13.02.2021
2589 Clouds -3 1036 54 10000 7.2 310 12:53 13.02.2021
2590 Clouds -3 1036 58 10000 6.69 330 12:21 13.02.2021
2591 Clouds -4 1036 58 10000 5.14 320 11:55 13.02.2021
2592 Clouds -4 1036 63 10000 5.14 320 11:23 13.02.2021
2593 Clouds -4 1036 63 10000 5.14 320 11:23 13.02.2021
2594 Clouds -5 1036 68 10000 5.14 310 10:59 13.02.2021
2595 Clouds -5 1036 68 10000 5.14 310 10:41 13.02.2021
2596 Clouds -5 1036 68 10000 5.66 330 10:22 13.02.2021
2597 Clouds -6 1036 73 10000 5.14 330 09:46 13.02.2021
2598 Clouds -7 1036 73 10000 5.14 330 09:25 13.02.2021
2599 Clouds -8 1036 73 10000 5.14 330 08:47 13.02.2021
2600 Clouds -8 1035 79 10000 6.17 320 08:18 13.02.2021
2601 Clouds -9 1034 73 10000 4.63 330 06:59 13.02.2021
2602 Clouds -8 1034 73 10000 5.14 320 06:24 13.02.2021
2603 Snow -7 1034 68 10000 4.12 320 04:31 13.02.2021
2604 Clouds -8 1034 73 10000 3.09 300 02:37 13.02.2021
2605 Clouds -8 1034 73 10000 4.12 320 00:54 13.02.2021
2606 Clouds -8 1034 79 10000 4.12 320 00:18 13.02.2021
2607 Clouds -8 1033 73 10000 4.12 330 23:44 12.02.2021
2608 Clouds -7 1033 73 10000 4.12 330 23:18 12.02.2021
2609 Clouds -7 1033 73 10000 5.66 330 22:32 12.02.2021
2610 Clouds -7 1033 68 10000 6.17 330 21:58 12.02.2021
2611 Clouds -6 1033 68 10000 6.17 330 21:38 12.02.2021
2612 Clouds -6 1032 68 10000 6.17 330 21:20 12.02.2021
2613 Clouds -6 1032 63 10000 5.66 320 20:40 12.02.2021
2614 Clouds -6 1032 68 10000 5.14 320 20:21 12.02.2021
2615 Clouds -6 1032 68 10000 4.63 310 19:49 12.02.2021
2616 Clouds -6 1031 73 10000 4.63 300 19:27 12.02.2021
2617 Clouds -5 1031 58 10000 4.63 330 18:32 12.02.2021
2618 Snow -5 1031 63 10000 3.6 340 17:53 12.02.2021
2619 Clouds -5 1031 63 10000 3.6 340 17:35 12.02.2021
2620 Clouds -4 1031 58 10000 4.12 330 16:44 12.02.2021
2621 Clouds -4 1031 58 10000 6.17 340 15:49 12.02.2021
2622 Clouds -4 1031 54 10000 5.14 340 15:24 12.02.2021
2623 Clouds -3 1031 54 10000 4.63 360 14:59 12.02.2021
2624 Clouds -3 1031 58 10000 5.14 340 14:34 12.02.2021
2625 Clouds -3 1031 54 10000 5.66 340 13:47 12.02.2021
2626 Clouds -4 1031 58 10000 5.66 330 13:28 12.02.2021
2627 Clouds -4 1031 54 10000 5.66 340 12:53 12.02.2021
2628 Clouds -3 1031 58 10000 4.63 350 12:35 12.02.2021
2629 Clear -4 1030 56 10000 1.34 51 11:47 12.02.2021
2630 Clouds -4 1031 58 10000 5.66 350 11:20 12.02.2021
2631 Clouds -5 1031 58 10000 5.14 340 10:47 12.02.2021
2632 Clouds -5 1030 58 10000 5.66 340 09:57 12.02.2021
2633 Clouds -5 1030 58 10000 5.66 340 09:39 12.02.2021
2634 Clouds -6 1030 58 10000 5.66 320 09:19 12.02.2021
2635 Clouds -6 1030 58 10000 5.66 320 08:40 12.02.2021
2636 Clouds -7 1030 63 10000 6.17 320 08:20 12.02.2021
2637 Clouds -7 1030 58 10000 5.66 320 07:51 12.02.2021
2638 Clouds -7 1029 58 10000 5.14 330 07:21 12.02.2021
2639 Clouds -8 1029 58 10000 5.14 320 06:18 12.02.2021
2640 Clouds -8 1029 62 10000 5.14 310 05:27 12.02.2021
2641 Clouds -8 1029 62 10000 6.17 330 01:59 12.02.2021
2642 Clouds -7 1028 63 10000 8.23 340 00:28 12.02.2021
2643 Clouds -5 1028 68 10000 6.69 340 23:23 11.02.2021
2644 Clouds -5 1027 68 10000 7.2 340 22:59 11.02.2021
2645 Clouds -5 1027 68 10000 7.2 340 22:41 11.02.2021
2646 Clouds -5 1027 73 10000 7.72 340 22:21 11.02.2021
2647 Clouds -5 1026 68 10000 6.69 350 21:42 11.02.2021
2648 Clouds -4 1026 68 10000 6.69 350 21:42 11.02.2021
2649 Clouds -5 1026 63 10000 7.2 330 21:23 11.02.2021
2650 Clouds -5 1026 68 10000 7.72 330 20:47 11.02.2021
2651 Clouds -5 1025 74 10000 8.23 330 20:23 11.02.2021
2652 Clouds -4 1025 63 10000 10.29 330 19:52 11.02.2021
2653 Clouds -4 1025 63 10000 10.29 330 19:34 11.02.2021
2654 Clouds -5 1024 68 10000 7.72 320 18:59 11.02.2021
2655 Clouds -4 1024 68 10000 7.72 320 18:37 11.02.2021
2656 Snow -4 1024 58 10000 8.75 320 18:18 11.02.2021
2657 Clouds -4 1023 63 10000 9.77 330 17:39 11.02.2021
2658 Snow -4 1023 74 10000 8.75 320 17:19 11.02.2021
2659 Snow -4 1022 74 8000 10.8 330 16:42 11.02.2021
2660 Snow -4 1022 74 8000 10.8 330 16:24 11.02.2021
2661 Snow -4 1022 63 10000 10.29 320 15:45 11.02.2021
2662 Snow -4 1021 63 10000 8.23 320 15:26 11.02.2021
2663 Snow -3 1021 58 10000 10.29 320 14:53 11.02.2021
2664 Clouds -4 1021 58 10000 11.83 320 14:30 11.02.2021
2665 Clouds -3 1021 54 10000 10.29 310 13:42 11.02.2021
2666 Clouds -3 1020 58 10000 11.32 310 13:19 11.02.2021
2667 Clouds -4 1020 58 10000 11.32 310 12:53 11.02.2021
2668 Clouds -4 1020 63 10000 12.35 320 12:32 11.02.2021
2669 Clouds -5 1020 68 10000 10.8 320 11:47 11.02.2021
2670 Snow -5 1020 68 10000 11.83 310 11:27 11.02.2021
2671 Clouds -6 1020 63 10000 10.8 310 10:45 11.02.2021
2672 Snow -6 1019 68 10000 11.32 310 10:26 11.02.2021
2673 Clouds -6 1019 63 10000 10.8 320 09:56 11.02.2021
2674 Clouds -7 1019 68 10000 11.32 320 09:26 11.02.2021
2675 Snow -7 1018 73 10000 11.32 310 08:55 11.02.2021
2676 Snow -7 1018 73 9000 10.29 320 08:31 11.02.2021
2677 Snow -7 1017 73 8000 10.8 320 07:39 11.02.2021
2678 Snow -7 1016 79 5000 10.29 320 06:42 11.02.2021
2679 Snow -7 1015 79 4000 9.26 320 05:54 11.02.2021
2680 Clouds -6 1012 79 10000 8.75 330 02:49 11.02.2021
2681 Clouds -6 1011 79 10000 7.2 330 02:21 11.02.2021
2682 Clouds -4 1010 80 10000 9.26 330 00:23 11.02.2021
2683 Clouds -4 1009 86 9000 8.23 320 23:47 10.02.2021
2684 Clouds -4 1009 86 8000 8.23 330 23:18 10.02.2021
2685 Clouds -3 1008 86 7000 7.72 330 22:42 10.02.2021
2686 Clouds -3 1008 86 6000 7.72 330 22:19 10.02.2021
2687 Mist -3 1007 93 5000 7.2 350 21:39 10.02.2021
2688 Mist -2 1007 93 5000 7.2 350 21:20 10.02.2021
2689 Snow -2 1007 86 4800 7.72 340 20:47 10.02.2021
2690 Snow -2 1006 93 4300 8.75 330 20:24 10.02.2021
2691 Mist -1 1006 93 3300 6.69 320 19:48 10.02.2021
2692 Snow -1 1005 93 3000 6.69 330 19:27 10.02.2021
2693 Snow -1 1005 100 3900 5.14 320 18:47 10.02.2021
2694 Mist 0 1005 93 4000 5.14 330 18:26 10.02.2021
2695 Snow 0 1004 93 3400 4.12 330 17:57 10.02.2021
2696 Snow 0 1003 93 2000 4.63 330 17:26 10.02.2021
2697 Mist 0 1003 93 3100 4.12 330 16:57 10.02.2021
2698 Snow 0 1003 93 3100 4.12 330 16:38 10.02.2021
2699 Snow 0 1003 93 1900 4.12 340 16:19 10.02.2021
2700 Snow 0 1002 93 1600 2.06 20 15:24 10.02.2021
2701 Mist 0 1001 93 2000 2.06 20 14:52 10.02.2021
2702 Snow 0 1001 93 2500 2.06 70 14:34 10.02.2021
2703 Snow 0 1001 93 5000 2.06 80 13:54 10.02.2021
2704 Snow 0 1001 93 3900 1.54 90 13:30 10.02.2021
2705 Snow 0 1002 93 5000 2.06 110 12:53 10.02.2021
2706 Snow 0 1002 93 5000 2.57 110 12:30 10.02.2021
2707 Snow 0 1002 93 5000 3.09 100 11:58 10.02.2021
2708 Snow 0 1002 93 5000 3.09 100 11:39 10.02.2021
2709 Snow 0 1002 93 6000 4.12 100 11:21 10.02.2021
2710 Snow 0 1002 93 3700 4.12 90 10:25 10.02.2021
2711 Snow 1 1002 86 6000 3.6 80 09:57 10.02.2021
2712 Snow 1 1002 86 6000 3.6 80 09:56 10.02.2021
2713 Clouds 0 1002 86 6000 4.12 90 09:32 10.02.2021
2714 Clouds 0 1002 86 6000 4.63 100 08:56 10.02.2021
2715 Clouds 0 1003 93 6000 4.63 100 08:33 10.02.2021
2716 Clouds 0 1003 86 8000 3.09 100 07:39 10.02.2021
2717 Clouds 0 1003 80 10000 4.12 120 06:22 10.02.2021
2718 Mist 0 1005 93 4200 1.54 100 01:37 10.02.2021
2719 Mist 0 1006 93 4700 1.54 30 00:22 10.02.2021
2720 Clouds 0 1006 93 6000 1.54 140 23:33 09.02.2021
2721 Clouds 0 1005 93 7000 1.54 40 22:49 09.02.2021
2722 Clouds 1 1005 86 10000 1.54 330 22:24 09.02.2021
2723 Clouds 1 1005 86 10000 2.06 340 21:52 09.02.2021
2724 Clouds 1 1005 93 7000 2.06 320 21:25 09.02.2021
2725 Clouds 1 1005 93 6000 0.51 0 20:45 09.02.2021
2726 Mist 1 1005 93 5000 1.54 310 20:25 09.02.2021
2727 Clouds 1 1004 93 6000 1.54 10 19:53 09.02.2021
2728 Mist 1 1004 93 5000 2.06 10 19:30 09.02.2021
2729 Clouds 1 1004 93 6000 3.09 10 18:58 09.02.2021
2730 Clouds 1 1004 93 6000 3.09 10 18:36 09.02.2021
2731 Drizzle 1 1003 86 6000 2.57 10 17:56 09.02.2021
2732 Snow 1 1003 86 7000 2.57 360 17:36 09.02.2021
2733 Clouds 2 1003 86 7000 2.57 360 17:18 09.02.2021
2734 Clouds 2 1002 86 7000 3.09 10 16:39 09.02.2021
2735 Clouds 2 1002 93 7000 3.09 350 16:18 09.02.2021
2736 Mist 2 1002 86 5000 3.09 10 15:47 09.02.2021
2737 Mist 2 1002 93 4800 3.09 20 15:24 09.02.2021
2738 Mist 2 1002 93 4000 3.09 30 14:49 09.02.2021
2739 Mist 3 1002 93 5000 2.57 10 14:26 09.02.2021
2740 Mist 3 1001 93 5000 2.06 10 13:45 09.02.2021
2741 Snow 2 1002 87 4000 2.57 10 13:21 09.02.2021
2742 Rain 2 1001 87 8000 2.06 20 12:48 09.02.2021
2743 Rain 2 1001 87 8000 1.54 20 12:30 09.02.2021
2744 Clouds 2 1002 86 8000 1.54 40 11:45 09.02.2021
2745 Clouds 2 1002 86 6000 1.54 70 11:24 09.02.2021
2746 Clouds 2 1001 86 6000 3.09 50 10:58 09.02.2021
2747 Mist 2 1001 86 5000 3.09 60 10:38 09.02.2021
2748 Mist 2 1001 86 5000 3.09 60 10:18 09.02.2021
2749 Mist 1 1001 93 5000 2.57 50 09:41 09.02.2021
2750 Clouds 1 1001 93 6000 2.06 40 09:21 09.02.2021
2751 Clouds 1 1001 93 7000 1.54 330 08:37 09.02.2021
2752 Clouds 1 1001 93 7000 1.54 330 08:18 09.02.2021
2753 Mist 0 999 100 4700 4.12 130 05:55 09.02.2021
2754 Clouds 0 999 93 7000 3.09 120 03:50 09.02.2021
2755 Clouds -1 1000 86 10000 2.06 110 02:27 09.02.2021
2756 Clouds -1 1000 86 10000 2.06 120 00:32 09.02.2021
2757 Clouds -1 999 86 10000 1.54 90 23:54 08.02.2021
2758 Clouds -1 999 86 10000 2.57 80 23:20 08.02.2021
2759 Clouds -1 1000 86 10000 1.03 0 22:43 08.02.2021
2760 Clouds -1 999 93 10000 1.03 0 22:23 08.02.2021
2761 Clouds -1 999 93 10000 1.54 360 21:53 08.02.2021
2762 Clouds -1 999 93 10000 1.03 0 21:31 08.02.2021
2763 Clouds -1 999 89 10000 0.45 121 20:57 08.02.2021
2764 Clouds -1 999 86 9000 3.09 40 20:36 08.02.2021
2765 Clouds -1 999 86 9000 3.09 40 20:18 08.02.2021
2766 Clouds 0 999 86 7000 1.54 30 19:41 08.02.2021
2767 Clouds 0 999 93 7000 2.57 10 19:22 08.02.2021
2768 Clouds 0 998 93 7000 2.57 10 18:46 08.02.2021
2769 Snow 0 998 93 6000 3.09 30 18:19 08.02.2021
2770 Snow 0 998 93 6000 2.57 10 17:43 08.02.2021
2771 Snow 0 997 93 4200 2.57 20 17:24 08.02.2021
2772 Snow 0 997 93 2800 2.57 10 16:43 08.02.2021
2773 Snow 1 997 93 7000 3.09 10 16:21 08.02.2021
2774 Snow 1 997 86 10000 3.6 350 15:43 08.02.2021
2775 Snow 1 997 86 10000 3.6 350 15:20 08.02.2021
2776 Snow 1 996 86 10000 4.12 360 14:52 08.02.2021
2777 Rain 1 996 86 10000 4.63 10 14:31 08.02.2021
2778 Clouds 1 996 86 10000 4.63 10 13:57 08.02.2021
2779 Clouds 1 996 86 10000 4.63 10 13:33 08.02.2021
2780 Clouds 1 996 93 10000 4.63 40 12:55 08.02.2021
2781 Clouds 1 996 93 10000 4.63 40 12:36 08.02.2021
2782 Clouds 1 996 86 10000 4.63 20 11:48 08.02.2021
2783 Clouds 2 996 93 10000 4.63 20 11:22 08.02.2021
2784 Clouds 2 996 86 10000 4.63 10 10:45 08.02.2021
2785 Clouds 1 996 93 10000 4.63 360 10:24 08.02.2021
2786 Clouds 1 996 86 10000 4.12 10 09:53 08.02.2021
2787 Clouds 1 996 93 10000 4.12 10 09:35 08.02.2021
2788 Clouds 1 996 93 10000 4.12 20 08:46 08.02.2021
2789 Clouds 1 995 93 10000 4.12 10 08:20 08.02.2021
2790 Clouds 0 995 93 10000 3.6 360 07:34 08.02.2021
2791 Clouds 0 995 93 10000 3.6 350 06:25 08.02.2021
2792 Mist -1 994 93 4600 4.63 320 02:29 08.02.2021
2793 Mist 0 994 93 3900 3.6 310 01:47 08.02.2021
2794 Mist 0 995 93 3400 2.57 330 00:21 08.02.2021
2795 Rain 0 994 93 3300 2.06 30 23:49 07.02.2021
2796 Rain 0 995 93 3800 3.09 50 23:20 07.02.2021
2797 Rain 0 995 100 3600 3.09 20 22:45 07.02.2021
2798 Rain 0 996 100 4300 3.6 10 22:26 07.02.2021
2799 Rain -1 996 93 5000 3.6 10 21:53 07.02.2021
2800 Rain 0 997 93 4400 3.6 340 21:28 07.02.2021
2801 Rain 0 997 100 4900 3.09 360 20:56 07.02.2021
2802 Rain 0 997 100 4900 3.09 360 20:35 07.02.2021
2803 Rain 0 997 100 4300 2.57 360 19:55 07.02.2021
2804 Snow 1 997 100 3500 2.57 10 19:31 07.02.2021
2805 Rain 1 998 93 3700 2.57 350 18:57 07.02.2021
2806 Mist 2 998 93 4800 2.57 340 18:37 07.02.2021
2807 Mist 2 998 93 4800 2.57 340 18:18 07.02.2021
2808 Clouds 2 998 93 6000 2.57 80 17:44 07.02.2021
2809 Rain 2 997 93 4700 3.6 70 17:20 07.02.2021
2810 Rain 2 998 93 4500 2.06 50 16:48 07.02.2021
2811 Snow 1 998 94 10000 0.89 86 16:27 07.02.2021
2812 Rain 2 999 93 4800 2.57 90 15:58 07.02.2021
2813 Rain 2 999 93 4800 2.57 90 15:40 07.02.2021
2814 Rain 2 999 93 4500 2.57 80 15:21 07.02.2021
2815 Rain 2 1000 93 4600 2.57 60 14:39 07.02.2021
2816 Mist 2 1000 93 4600 2.57 60 14:21 07.02.2021
2817 Rain 2 1000 93 4100 4.12 80 13:36 07.02.2021
2818 Mist 3 1000 93 4700 3.6 80 12:59 07.02.2021
2819 Mist 3 1001 93 3700 2.57 60 12:38 07.02.2021
2820 Mist 3 1001 93 3700 2.57 60 12:19 07.02.2021
2821 Mist 3 1002 93 4100 4.12 80 11:39 07.02.2021
2822 Mist 3 1002 93 4100 4.12 80 11:18 07.02.2021
2823 Mist 3 1002 93 3100 4.12 80 10:29 07.02.2021
2824 Mist 3 1002 93 3100 4.12 80 09:51 07.02.2021
2825 Drizzle 3 1002 100 1600 4.63 100 09:25 07.02.2021
2826 Mist 3 1002 100 1900 4.12 100 08:50 07.02.2021
2827 Mist 3 1002 93 2700 4.63 100 07:56 07.02.2021
2828 Mist 2 1003 100 1600 3.6 100 06:21 07.02.2021
2829 Mist 2 1005 93 1500 4.12 80 04:34 07.02.2021
2830 Drizzle 2 1007 100 3500 3.6 60 02:26 07.02.2021
2831 Drizzle 2 1008 100 1800 2.57 20 00:37 07.02.2021
2832 Drizzle 2 1008 100 1400 2.57 20 23:51 06.02.2021
2833 Drizzle 2 1009 93 1600 2.06 30 22:54 06.02.2021
2834 Drizzle 2 1009 100 2000 2.57 10 22:19 06.02.2021
2835 Drizzle 2 1009 100 2100 2.57 30 21:37 06.02.2021
2836 Drizzle 2 1010 93 2000 3.09 20 21:19 06.02.2021
2837 Drizzle 2 1010 93 2100 3.6 20 20:43 06.02.2021
2838 Drizzle 2 1010 93 2000 3.09 20 20:22 06.02.2021
2839 Drizzle 2 1011 93 2100 3.09 20 19:45 06.02.2021
2840 Drizzle 2 1011 93 2600 3.6 20 19:23 06.02.2021
2841 Drizzle 2 1011 100 2300 3.6 30 18:44 06.02.2021
2842 Drizzle 2 1011 93 2600 3.09 20 18:24 06.02.2021
2843 Drizzle 3 1011 93 2400 2.57 20 17:41 06.02.2021
2844 Drizzle 3 1011 100 2200 3.09 20 17:21 06.02.2021
2845 Drizzle 3 1011 100 1800 3.6 20 16:52 06.02.2021
2846 Drizzle 4 1011 93 1500 4.12 10 16:30 06.02.2021
2847 Drizzle 4 1011 93 1600 3.09 20 15:53 06.02.2021
2848 Drizzle 4 1011 100 1700 3.09 20 15:34 06.02.2021
2849 Drizzle 4 1011 100 2200 3.09 30 14:59 06.02.2021
2850 Drizzle 4 1011 100 2200 3.09 30 14:39 06.02.2021
2851 Drizzle 5 1011 93 1900 2.57 20 14:21 06.02.2021
2852 Drizzle 5 1011 93 1400 2.06 40 13:44 06.02.2021
2853 Mist 5 1012 100 1100 1.03 0 12:41 06.02.2021
2854 Mist 4 1012 93 1300 2.06 40 12:20 06.02.2021
2855 Mist 4 1012 93 2300 2.06 60 11:40 06.02.2021
2856 Mist 4 1012 93 2400 2.57 40 11:20 06.02.2021
2857 Mist 4 1013 93 3800 3.09 20 10:52 06.02.2021
2858 Mist 4 1013 93 5000 2.06 20 10:26 06.02.2021
2859 Mist 4 1012 87 4900 1.54 40 09:38 06.02.2021
2860 Mist 4 1013 87 5000 1.54 40 09:19 06.02.2021
2861 Mist 4 1013 87 4300 1.54 50 08:59 06.02.2021
2862 Mist 4 1013 87 4400 1.03 320 08:29 06.02.2021
2863 Clouds 4 1013 93 6000 1.03 350 07:20 06.02.2021
2864 Clouds 4 1013 87 6000 0.51 0 05:42 06.02.2021
2865 Clouds 4 1013 93 6000 1.54 20 02:52 06.02.2021
2866 Clouds 5 1014 93 8000 1.54 30 00:59 06.02.2021
2867 Clouds 5 1014 93 8000 1.54 30 00:41 06.02.2021
2868 Clouds 5 1014 93 9000 1.03 20 00:18 06.02.2021
2869 Rain 5 1014 93 10000 0.51 0 23:35 05.02.2021
2870 Rain 5 1014 93 10000 0.51 0 23:35 05.02.2021
2871 Rain 5 1014 93 10000 0.51 0 23:35 05.02.2021
2872 Clouds 5 1014 93 10000 0.51 0 22:56 05.02.2021
2873 Clouds 5 1014 87 10000 0.51 0 22:29 05.02.2021
2874 Clouds 5 1014 87 10000 0.51 0 21:59 05.02.2021
2875 Clouds 5 1014 87 10000 0.51 0 21:40 05.02.2021
2876 Clouds 6 1014 87 10000 0.51 0 20:58 05.02.2021
2877 Clear 6 1014 81 10000 2.06 60 20:37 05.02.2021
2878 Clear 6 1014 81 10000 1.54 40 19:47 05.02.2021
2879 Clear 6 1015 87 10000 1.03 110 19:19 05.02.2021
2880 Clear 7 1015 81 10000 1.03 140 18:43 05.02.2021
2881 Clear 7 1015 81 10000 1.03 140 18:43 05.02.2021
2882 Clear 7 1015 81 10000 1.54 90 18:19 05.02.2021
2883 Clear 7 1015 81 10000 1.54 90 18:19 05.02.2021
2884 Clouds 7 1015 75 10000 1.54 150 17:42 05.02.2021
2885 Clouds 7 1015 76 10000 1.54 170 17:21 05.02.2021
2886 Clouds 8 1014 71 10000 1.03 170 16:44 05.02.2021
2887 Clouds 8 1015 71 10000 1.03 150 16:23 05.02.2021
2888 Clouds 9 1015 71 10000 1.03 150 15:53 05.02.2021
2889 Clouds 9 1015 71 10000 1.54 110 15:26 05.02.2021
2890 Clouds 9 1015 71 10000 1.54 30 14:40 05.02.2021
2891 Clear 9 1015 76 10000 2.57 20 14:22 05.02.2021
2892 Clear 9 1015 70 10000 1.54 30 13:57 05.02.2021
2893 Clear 9 1015 70 10000 1.54 30 13:33 05.02.2021
2894 Clear 9 1016 66 10000 1.54 70 12:47 05.02.2021
2895 Clear 8 1016 70 10000 2.06 10 12:25 05.02.2021
2896 Clear 7 1016 70 10000 1.54 300 11:40 05.02.2021
2897 Clear 7 1016 70 10000 1.03 0 11:21 05.02.2021
2898 Clear 6 1016 81 10000 0.51 0 10:54 05.02.2021
2899 Clear 6 1016 81 10000 1.54 40 10:26 05.02.2021
2900 Clear 5 1016 87 10000 1.54 360 09:45 05.02.2021
2901 Clear 4 1016 87 10000 2.06 350 09:26 05.02.2021
2902 Clear 4 1016 81 10000 0.51 0 08:51 05.02.2021
2903 Clear 3 1015 87 10000 1.03 0 07:53 05.02.2021
2904 Clear 4 1015 87 10000 1.54 50 07:34 05.02.2021
2905 Clear 3 1016 87 10000 2.06 50 06:48 05.02.2021
2906 Rain 4 1016 87 10000 2.06 20 05:36 05.02.2021
2907 Clear 4 1017 87 10000 2.06 170 02:52 05.02.2021
2908 Clear 4 1017 87 10000 2.06 160 02:24 05.02.2021
2909 Clear 4 1017 81 10000 0.51 0 00:39 05.02.2021
2910 Clear 4 1017 81 10000 0.51 0 00:19 05.02.2021
2911 Clear 4 1017 75 10000 0.51 0 23:55 04.02.2021
2912 Clear 4 1017 75 10000 0.51 0 23:36 04.02.2021
2913 Clear 5 1017 75 10000 1.03 210 23:18 04.02.2021
2914 Clear 5 1017 70 10000 0.51 0 22:46 04.02.2021
2915 Clouds 5 1017 87 10000 0.94 342 22:25 04.02.2021
2916 Clear 5 1017 70 10000 2.06 150 21:42 04.02.2021
2917 Clear 5 1017 75 10000 2.06 0 21:19 04.02.2021
2918 Clear 5 1017 75 10000 2.06 0 21:19 04.02.2021
2919 Clear 5 1017 65 10000 3.09 340 20:46 04.02.2021
2920 Clear 5 1017 70 10000 3.09 320 20:28 04.02.2021
2921 Clear 6 1017 65 10000 2.57 320 19:43 04.02.2021
2922 Clear 6 1017 65 10000 1.54 300 18:57 04.02.2021
2923 Clear 8 1017 61 10000 2.06 270 18:26 04.02.2021
2924 Clear 9 1017 57 10000 2.57 300 17:53 04.02.2021
2925 Clear 9 1016 53 10000 4.12 310 17:27 04.02.2021
2926 Clouds 10 1016 50 10000 6.69 270 16:56 04.02.2021
2927 Clouds 10 1016 50 10000 6.69 270 16:38 04.02.2021
2928 Clouds 11 1016 50 10000 7.2 270 16:18 04.02.2021
2929 Clouds 11 1016 47 10000 7.2 280 15:39 04.02.2021
2930 Clouds 12 1016 44 10000 7.2 290 15:20 04.02.2021
2931 Clouds 12 1015 41 10000 9.77 280 14:47 04.02.2021
2932 Clear 12 1015 41 10000 9.77 290 14:20 04.02.2021
2933 Clear 13 1015 41 10000 10.29 290 13:45 04.02.2021
2934 Clear 12 1015 44 10000 7.2 290 13:25 04.02.2021
2935 Clear 11 1015 47 10000 6.69 280 12:54 04.02.2021
2936 Clouds 11 1015 47 10000 7.2 280 11:57 04.02.2021
2937 Clouds 11 1015 47 10000 7.2 280 11:37 04.02.2021
2938 Clouds 11 1014 47 10000 7.2 280 11:18 04.02.2021
2939 Clouds 11 1013 54 10000 11.83 280 10:34 04.02.2021
2940 Clear 10 1012 54 10000 12.35 280 09:45 04.02.2021
2941 Clear 10 1011 54 10000 11.83 280 09:22 04.02.2021
2942 Clear 10 1010 54 10000 11.32 280 08:51 04.02.2021
2943 Clear 10 1010 54 10000 11.32 280 08:26 04.02.2021
2944 Clear 10 1009 50 10000 12.86 280 07:56 04.02.2021
2945 Clear 10 1009 50 10000 12.86 280 07:33 04.02.2021
2946 Clear 10 1007 50 10000 12.86 270 06:45 04.02.2021
2947 Clear 11 1007 50 10000 12.86 270 05:52 04.02.2021
2948 Clear 11 1006 54 10000 7.72 250 02:40 04.02.2021
2949 Clear 11 1006 54 10000 7.72 250 02:21 04.02.2021
2950 Clear 10 1005 62 10000 11.32 250 00:24 04.02.2021
2951 Clear 10 1006 71 10000 7.72 250 23:34 03.02.2021
2952 Clear 9 1006 81 10000 3.6 260 22:40 03.02.2021
2953 Clouds 8 1002 92 10000 0.45 233 22:21 03.02.2021
2954 Clouds 8 1005 91 10000 3.13 266 21:55 03.02.2021
2955 Mist 5 1006 100 3100 1.54 200 21:25 03.02.2021
2956 Clouds 5 1017 87 10000 2.18 232 20:57 03.02.2021
2957 Clouds 5 1017 87 10000 2.18 232 20:36 03.02.2021
2958 Mist 4 1005 93 3500 1.54 310 19:57 03.02.2021
2959 Fog 4 1005 93 3000 0.51 0 19:28 03.02.2021
2960 Mist 5 1004 93 5000 1.54 120 18:59 03.02.2021
2961 Mist 5 1004 93 5000 1.54 120 18:39 03.02.2021
2962 Mist 5 1004 93 5000 0.51 0 18:19 03.02.2021
2963 Mist 5 1004 93 5000 0.51 0 18:19 03.02.2021
2964 Clouds 5 1004 87 8000 1.03 0 17:48 03.02.2021
2965 Clouds 5 1004 87 8000 1.03 0 17:48 03.02.2021
2966 Clouds 5 1004 93 10000 3.6 120 17:27 03.02.2021
2967 Clouds 5 1004 93 10000 4.12 110 16:51 03.02.2021
2968 Clouds 5 1004 93 10000 5.14 120 16:26 03.02.2021
2969 Clouds 5 1005 93 10000 4.63 100 15:41 03.02.2021
2970 Rain 6 1005 93 10000 4.63 120 15:23 03.02.2021
2971 Rain 6 1005 87 10000 5.66 120 14:53 03.02.2021
2972 Rain 6 1006 93 9000 5.14 130 14:25 03.02.2021
2973 Rain 5 1006 93 8000 4.63 110 13:53 03.02.2021
2974 Rain 7 1007 93 7000 4.63 130 13:21 03.02.2021
2975 Rain 6 1008 93 6000 6.17 130 12:47 03.02.2021
2976 Rain 6 1008 93 6000 5.14 120 12:24 03.02.2021
2977 Rain 6 1009 93 6000 3.6 120 11:47 03.02.2021
2978 Rain 5 1009 93 6000 5.14 140 11:28 03.02.2021
2979 Clouds 5 1009 93 6000 5.14 130 10:52 03.02.2021
2980 Clouds 5 1009 93 6000 3.09 130 10:21 03.02.2021
2981 Clouds 4 1010 93 6000 4.63 140 09:47 03.02.2021
2982 Clouds 4 1010 93 6000 1.03 0 09:27 03.02.2021
2983 Clouds 4 1009 93 6000 0.51 0 08:52 03.02.2021
2984 Mist 4 1009 93 5000 3.6 150 08:24 03.02.2021
2985 Clouds 3 1009 93 6000 3.6 150 07:39 03.02.2021
2986 Mist 3 1009 93 5000 4.63 160 06:40 03.02.2021
2987 Rain 4 1008 100 6000 4.63 150 04:52 03.02.2021
2988 Clouds 3 1008 93 6000 4.12 150 04:29 03.02.2021
2989 Rain 3 1009 93 5000 3.6 170 03:18 03.02.2021
2990 Rain 3 1009 93 5000 4.12 140 02:26 03.02.2021
2991 Rain 2 1008 93 5000 4.12 140 00:30 03.02.2021
2992 Rain 2 1008 93 4800 3.6 130 23:53 02.02.2021
2993 Mist 2 1008 93 5000 4.63 140 23:29 02.02.2021
2994 Snow 2 1008 93 4500 5.14 140 22:59 02.02.2021
2995 Rain 2 1008 93 5000 5.14 140 22:22 02.02.2021
2996 Mist 2 1008 93 5000 5.66 130 21:57 02.02.2021
2997 Rain 2 1008 93 5000 5.66 130 21:30 02.02.2021
2998 Clouds 2 1008 86 6000 6.17 130 20:59 02.02.2021
2999 Clouds 2 1008 86 6000 6.17 130 20:41 02.02.2021
3000 Rain 2 1008 86 7000 6.17 130 20:19 02.02.2021
3001 Rain 3 1008 93 8000 6.17 130 19:47 02.02.2021
3002 Rain 3 1008 86 8000 6.69 130 19:29 02.02.2021
3003 Rain 3 1008 87 9000 6.17 130 18:44 02.02.2021
3004 Rain 3 1008 87 10000 8.23 140 18:25 02.02.2021
3005 Clear 4 1008 87 10000 4.63 130 17:50 02.02.2021
3006 Clear 4 1008 87 10000 5.14 130 17:23 02.02.2021
3007 Clear 4 1008 81 10000 5.66 130 16:57 02.02.2021
3008 Clear 5 1008 81 10000 5.66 130 16:37 02.02.2021
3009 Clouds 5 1009 81 10000 4.63 120 15:59 02.02.2021
3010 Clouds 5 1009 81 10000 4.63 120 15:40 02.02.2021
3011 Clouds 5 1009 75 10000 5.14 120 15:21 02.02.2021
3012 Clouds 6 1008 74 10000 0.89 135 14:40 02.02.2021
3013 Clouds 6 1008 75 10000 1.79 157 14:18 02.02.2021
3014 Clouds 6 1008 74 10000 1.34 127 13:44 02.02.2021
3015 Clouds 6 1009 76 10000 0.89 125 13:26 02.02.2021
3016 Clouds 6 1010 81 10000 4.63 140 12:55 02.02.2021
3017 Clouds 5 1017 87 10000 2.02 208 12:27 02.02.2021
3018 Clouds 3 1010 86 9000 3.6 140 11:41 02.02.2021
3019 Clouds 3 1010 86 8000 4.12 140 11:20 02.02.2021
3020 Clouds 3 1010 93 7000 3.6 130 10:49 02.02.2021
3021 Drizzle 2 1010 86 7000 3.6 140 10:26 02.02.2021
3022 Snow 1 1010 93 8000 4.12 150 09:46 02.02.2021
3023 Clouds 1 1009 93 8000 3.09 150 09:25 02.02.2021
3024 Drizzle 1 1009 93 7000 3.6 140 08:45 02.02.2021
3025 Rain 0 1009 86 7000 3.6 140 08:21 02.02.2021
3026 Clouds 0 1008 86 8000 4.12 140 07:28 02.02.2021
3027 Snow 0 1008 86 8000 2.57 140 06:41 02.02.2021
3028 Clouds 0 1007 86 9000 3.09 150 05:51 02.02.2021
3029 Clouds 0 1007 86 9000 3.6 130 04:36 02.02.2021
3030 Clear 0 1006 86 10000 2.57 120 02:25 02.02.2021
3031 Clear -1 1005 80 10000 3.09 140 01:23 02.02.2021
3032 Clear -1 1005 80 10000 4.63 140 00:18 02.02.2021
3033 Clear -1 1004 86 10000 3.09 140 23:18 01.02.2021
3034 Clear -1 1003 80 10000 3.09 130 22:39 01.02.2021
3035 Clear -1 1003 80 10000 3.6 130 22:21 01.02.2021
3036 Clear -1 1003 80 10000 3.6 120 21:48 01.02.2021
3037 Clear -1 1003 80 10000 3.6 120 21:48 01.02.2021
3038 Clear -1 1003 74 10000 4.12 130 21:24 01.02.2021
3039 Clear 0 1002 74 10000 4.63 140 20:45 01.02.2021
3040 Clear 0 1002 69 10000 5.14 130 20:25 01.02.2021
3041 Clear 0 1002 64 10000 5.66 140 19:49 01.02.2021
3042 Clear 0 1001 64 10000 5.14 140 19:22 01.02.2021
3043 Clear 0 1001 64 10000 6.17 140 18:59 01.02.2021
3044 Clear 1 1001 64 10000 6.17 140 18:40 01.02.2021
3045 Clear 1 1001 69 10000 5.66 140 18:22 01.02.2021
3046 Clear 1 1000 75 10000 5.14 120 17:44 01.02.2021
3047 Clear 1 1000 75 10000 5.14 120 17:21 01.02.2021
3048 Clear 2 1000 69 10000 5.14 120 16:41 01.02.2021
3049 Clear 3 1000 69 10000 5.14 120 16:22 01.02.2021
3050 Clear 3 999 65 10000 5.14 120 15:40 01.02.2021
3051 Clear 4 999 65 10000 5.14 120 15:19 01.02.2021
3052 Clear 4 999 65 10000 5.14 120 14:51 01.02.2021
3053 Clear 3 999 69 10000 5.66 120 14:23 01.02.2021
3054 Clear 3 999 69 10000 6.17 130 13:42 01.02.2021
3055 Clear 3 1000 69 10000 5.66 110 13:24 01.02.2021
3056 Clear 3 1000 75 10000 5.66 110 12:44 01.02.2021
3057 Clear 3 1000 69 10000 6.17 110 12:24 01.02.2021
3058 Clear 2 1000 69 10000 6.69 110 11:43 01.02.2021
3059 Clouds 2 999 72 10000 2.24 142 11:20 01.02.2021
3060 Clouds 1 1000 73 10000 2.24 93 10:47 01.02.2021
3061 Clear 0 1000 74 10000 5.66 110 10:21 01.02.2021
3062 Clear -1 1000 80 10000 3.6 100 09:49 01.02.2021
3063 Clear -2 1000 80 10000 3.09 100 09:25 01.02.2021
3064 Clear -3 1000 80 10000 3.6 110 08:56 01.02.2021
3065 Clear -2 1000 80 10000 3.6 110 08:56 01.02.2021
3066 Clear -3 1000 80 10000 3.6 110 08:22 01.02.2021
3067 Clear -4 1000 80 10000 3.09 110 06:51 01.02.2021
3068 Clear -4 1001 86 10000 3.09 130 04:32 01.02.2021
3069 Clear -3 1002 86 10000 1.54 120 02:38 01.02.2021
3070 Clear -2 1003 86 10000 1.54 120 23:52 31.01.2021
3071 Clear -2 1003 86 10000 1.03 110 22:56 31.01.2021
3072 Clear -2 1004 86 10000 2.06 90 22:37 31.01.2021
3073 Clear -2 1004 86 10000 2.06 90 22:37 31.01.2021
3074 Clear -1 1004 86 10000 2.06 90 22:18 31.01.2021
3075 Clear -1 1004 86 10000 2.06 100 21:42 31.01.2021
3076 Clouds -1 1004 86 10000 2.06 60 21:19 31.01.2021
3077 Clouds -1 1004 80 10000 1.54 60 20:42 31.01.2021
3078 Clouds -1 1004 80 10000 2.06 50 20:20 31.01.2021
3079 Clouds -1 1005 80 10000 1.03 0 19:38 31.01.2021
3080 Clouds 0 1005 80 10000 1.03 0 19:19 31.01.2021
3081 Clouds 0 1005 74 10000 1.54 50 18:55 31.01.2021
3082 Clouds 0 1005 74 10000 1.54 50 18:37 31.01.2021
3083 Clouds 0 1005 74 10000 1.54 50 18:18 31.01.2021
3084 Clouds 1 1005 75 10000 1.54 50 17:39 31.01.2021
3085 Clouds 1 1005 75 10000 1.54 50 17:19 31.01.2021
3086 Clear 1 1004 64 10000 1.03 0 16:41 31.01.2021
3087 Clear 2 1005 60 10000 0.51 0 16:20 31.01.2021
3088 Clear 2 1005 60 10000 1.03 0 15:49 31.01.2021
3089 Clear 2 1005 55 10000 1.03 0 15:21 31.01.2021
3090 Clear 3 1005 55 10000 0.51 0 14:36 31.01.2021
3091 Clear 2 1005 55 10000 0.51 0 14:18 31.01.2021
3092 Clouds 3 1005 60 10000 1.03 0 13:44 31.01.2021
3093 Clear 2 1005 64 10000 1.54 50 13:19 31.01.2021
3094 Clear 2 1006 69 10000 1.54 10 12:46 31.01.2021
3095 Clear 1 1006 69 10000 1.54 10 12:20 31.01.2021
3096 Clouds 1 1006 69 10000 2.57 30 11:40 31.01.2021
3097 Clouds 1 1006 69 10000 3.09 10 11:20 31.01.2021
3098 Clouds 1 1006 74 10000 3.09 10 10:46 31.01.2021
3099 Clouds 0 1005 74 10000 3.09 360 10:27 31.01.2021
3100 Clear 0 1005 74 10000 3.09 350 09:41 31.01.2021
3101 Clear -1 1005 74 10000 1.54 10 08:53 31.01.2021
3102 Clear -1 1005 74 10000 2.06 10 08:31 31.01.2021
3103 Clear -1 1004 74 10000 2.57 360 06:51 31.01.2021
3104 Clear -1 1003 74 10000 3.6 340 04:55 31.01.2021
3105 Snow -1 1003 74 10000 3.6 10 00:38 31.01.2021
3106 Snow -1 1003 80 10000 4.12 10 00:38 31.01.2021
3107 Snow 0 1003 80 10000 4.12 10 00:20 31.01.2021
3108 Clouds 0 1002 80 10000 3.6 10 23:28 30.01.2021
3109 Clouds 0 1002 74 10000 4.63 10 22:45 30.01.2021
3110 Clouds 0 1002 86 10000 4.63 360 22:23 30.01.2021
3111 Clouds 0 1002 86 10000 3.6 330 21:39 30.01.2021
3112 Clouds 0 1002 86 10000 4.12 340 21:20 30.01.2021
3113 Clouds 0 1002 86 10000 4.12 320 20:43 30.01.2021
3114 Clouds 0 1002 86 10000 4.63 310 20:24 30.01.2021
3115 Clouds 0 1002 86 10000 5.66 340 19:42 30.01.2021
3116 Snow 0 1001 93 10000 7.2 340 19:24 30.01.2021
3117 Snow 0 1002 93 9000 4.63 330 18:40 30.01.2021
3118 Snow 1 1002 93 5000 4.63 330 18:21 30.01.2021
3119 Snow 1 1001 86 5000 4.63 330 17:54 30.01.2021
3120 Snow 2 1001 86 8000 5.66 340 17:19 30.01.2021
3121 Rain 2 1001 75 8000 6.69 340 16:44 30.01.2021
3122 Rain 3 1000 87 10000 4.63 350 16:24 30.01.2021
3123 Rain 4 1000 87 10000 4.12 360 15:51 30.01.2021
3124 Clouds 5 999 81 10000 5.66 10 15:25 30.01.2021
3125 Rain 5 999 75 10000 8.75 360 14:59 30.01.2021
3126 Clouds 7 998 57 10000 11.32 280 14:40 30.01.2021
3127 Clouds 8 998 57 10000 11.32 280 14:19 30.01.2021
3128 Clouds 10 997 54 10000 10.8 270 13:25 30.01.2021
3129 Clouds 10 997 54 10000 10.29 270 12:48 30.01.2021
3130 Clouds 10 997 54 10000 10.8 270 12:28 30.01.2021
3131 Clouds 10 997 54 10000 11.83 280 11:55 30.01.2021
3132 Clouds 10 997 50 10000 12.86 280 11:25 30.01.2021
3133 Clouds 10 996 57 10000 12.35 280 10:46 30.01.2021
3134 Clouds 9 997 61 10000 11.32 290 09:44 30.01.2021
3135 Clouds 9 998 57 10000 10.29 280 09:26 30.01.2021
3136 Clouds 8 998 61 10000 8.75 280 08:47 30.01.2021
3137 Clouds 8 998 61 10000 11.32 280 07:48 30.01.2021
3138 Clouds 7 998 66 10000 8.75 280 06:48 30.01.2021
3139 Clouds 7 998 70 10000 7.2 280 04:29 30.01.2021
3140 Clouds 7 998 76 10000 8.23 280 03:34 30.01.2021
3141 Clouds 7 998 71 10000 7.2 280 02:23 30.01.2021
3142 Clouds 7 998 71 10000 7.2 280 01:28 30.01.2021
3143 Clear 7 998 71 10000 7.2 280 00:35 30.01.2021
3144 Clear 7 998 71 10000 8.23 280 23:58 29.01.2021
3145 Clear 7 998 71 10000 8.23 280 23:40 29.01.2021
3146 Clear 7 998 71 10000 8.23 280 23:20 29.01.2021
3147 Clouds 7 997 71 10000 7.72 280 22:40 29.01.2021
3148 Clouds 7 997 71 10000 10.29 290 22:18 29.01.2021
3149 Clouds 8 997 71 10000 8.23 280 21:28 29.01.2021
3150 Clouds 8 997 71 10000 8.75 270 20:45 29.01.2021
3151 Clouds 8 997 71 10000 9.26 270 20:25 29.01.2021
3152 Clouds 8 997 71 10000 8.75 270 19:57 29.01.2021
3153 Clouds 8 993 84 10000 1.79 265 19:38 29.01.2021
3154 Clouds 8 996 71 10000 6.69 280 19:18 29.01.2021
3155 Clouds 8 996 71 10000 7.2 270 18:21 29.01.2021
3156 Clouds 9 996 62 10000 8.75 280 17:38 29.01.2021
3157 Clouds 8 996 71 10000 8.75 270 17:20 29.01.2021
3158 Clouds 8 996 76 10000 6.69 270 16:45 29.01.2021
3159 Clouds 8 995 87 10000 4.12 160 16:23 29.01.2021
3160 Clouds 7 996 93 10000 3.6 160 15:42 29.01.2021
3161 Clouds 6 996 93 10000 3.09 150 15:24 29.01.2021
3162 Clouds 5 997 93 10000 3.09 150 14:32 29.01.2021
3163 Clouds 4 998 93 10000 3.6 180 13:59 29.01.2021
3164 Clouds 4 998 93 10000 3.6 180 13:59 29.01.2021
3165 Clouds 4 998 93 10000 3.6 180 13:37 29.01.2021
3166 Clouds 4 998 93 10000 2.57 170 13:18 29.01.2021
3167 Rain 4 999 93 10000 5.14 160 12:24 29.01.2021
3168 Rain 4 999 93 9000 4.63 170 11:47 29.01.2021
3169 Rain 4 1000 93 7000 3.09 160 11:19 29.01.2021
3170 Rain 4 1000 93 3400 3.6 120 10:51 29.01.2021
3171 Rain 4 1001 93 4000 2.57 0 10:27 29.01.2021
3172 Clouds 4 1001 93 10000 2.06 100 09:49 29.01.2021
3173 Rain 4 1002 93 10000 3.6 150 08:58 29.01.2021
3174 Clouds 4 1001 93 10000 3.09 130 08:38 29.01.2021
3175 Clouds 4 1001 93 10000 3.09 130 08:19 29.01.2021
3176 Clouds 4 1001 93 10000 3.09 130 07:41 29.01.2021
3177 Clouds 4 1001 93 10000 2.06 350 07:20 29.01.2021
3178 Clouds 4 1002 87 10000 5.14 330 05:23 29.01.2021
3179 Rain 4 1002 87 10000 4.12 320 03:50 29.01.2021
3180 Rain 5 1017 87 10000 4.55 311 00:44 29.01.2021
3181 Rain 4 1017 87 10000 3.72 302 00:22 29.01.2021
3182 Rain 4 1001 100 6000 1.03 180 23:44 28.01.2021
3183 Rain 3 1001 93 6000 1.03 170 23:25 28.01.2021
3184 Rain 3 1000 100 9000 1.54 200 22:49 28.01.2021
3185 Rain 3 1000 100 7000 2.06 160 22:27 28.01.2021
3186 Rain 2 1000 93 10000 2.06 180 21:58 28.01.2021
3187 Rain 2 1000 93 8000 2.06 160 21:38 28.01.2021
3188 Rain 2 1000 93 8000 2.06 160 21:20 28.01.2021
3189 Rain 2 1000 93 6000 3.09 140 20:39 28.01.2021
3190 Rain 2 1001 93 9000 4.12 170 20:18 28.01.2021
3191 Rain 2 1001 93 9000 2.06 170 19:46 28.01.2021
3192 Rain 2 1001 93 10000 3.09 150 19:23 28.01.2021
3193 Rain 2 1002 93 10000 2.57 140 18:45 28.01.2021
3194 Rain 2 1002 93 10000 3.09 150 18:27 28.01.2021
3195 Rain 3 1003 87 10000 3.6 150 17:47 28.01.2021
3196 Rain 3 1003 81 10000 4.12 140 17:28 28.01.2021
3197 Rain 4 1004 70 10000 2.57 140 16:45 28.01.2021
3198 Rain 4 1004 70 10000 4.12 140 16:25 28.01.2021
3199 Rain 4 1004 65 10000 3.6 140 15:51 28.01.2021
3200 Rain 4 1005 70 10000 3.09 140 15:20 28.01.2021
3201 Clouds 5 1006 70 10000 3.6 150 14:42 28.01.2021
3202 Clouds 5 1006 70 10000 4.63 160 14:23 28.01.2021
3203 Clouds 5 1007 75 10000 3.6 140 13:49 28.01.2021
3204 Clear 5 1007 65 10000 4.12 170 13:19 28.01.2021
3205 Clear 5 1008 70 10000 3.6 170 12:45 28.01.2021
3206 Clear 4 1009 75 10000 3.09 190 12:21 28.01.2021
3207 Clouds 4 1010 81 10000 3.6 180 11:44 28.01.2021
3208 Clouds 4 1010 81 10000 3.6 180 11:20 28.01.2021
3209 Clouds 3 1010 87 10000 3.09 180 10:54 28.01.2021
3210 Clouds 3 1010 87 10000 3.09 180 10:35 28.01.2021
3211 Clouds 3 1011 93 10000 3.09 170 09:59 28.01.2021
3212 Clouds 2 1011 86 10000 3.09 180 09:31 28.01.2021
3213 Clouds 2 1011 86 10000 2.06 190 08:57 28.01.2021
3214 Snow 2 1011 86 10000 2.06 190 08:39 28.01.2021
3215 Clouds 1 1011 93 10000 3.6 170 07:46 28.01.2021
3216 Snow 1 1012 100 7000 3.09 180 06:51 28.01.2021
3217 Snow 1 1012 93 3000 2.57 190 06:31 28.01.2021
3218 Snow 0 1013 86 6000 2.57 190 04:30 28.01.2021
3219 Snow -1 1013 80 10000 1.03 0 01:41 28.01.2021
3220 Snow -1 1014 86 10000 0.51 0 01:41 28.01.2021
3221 Clear -1 1013 84 10000 1.71 280 23:56 27.01.2021
3222 Clear -1 1014 74 10000 2.57 270 23:24 27.01.2021
3223 Clear -1 1014 74 10000 1.54 280 22:44 27.01.2021
3224 Clear 0 1014 74 10000 1.54 300 22:25 27.01.2021
3225 Clear -1 1014 74 10000 2.06 300 21:44 27.01.2021
3226 Clear -1 1014 74 10000 2.06 280 21:26 27.01.2021
3227 Clouds 0 1014 69 10000 3.6 290 20:55 27.01.2021
3228 Clouds 0 1014 74 10000 3.09 290 20:31 27.01.2021
3229 Clouds -1 1014 74 10000 1.54 250 19:57 27.01.2021
3230 Clouds 0 1014 74 10000 1.54 250 19:37 27.01.2021
3231 Clouds 0 1014 69 10000 3.09 300 19:18 27.01.2021
3232 Clouds 1 1015 64 10000 2.57 310 18:41 27.01.2021
3233 Clouds 1 1015 64 10000 2.57 310 18:22 27.01.2021
3234 Clouds 2 1015 65 10000 2.57 310 17:44 27.01.2021
3235 Clouds 2 1015 60 10000 4.12 310 17:21 27.01.2021
3236 Clouds 3 1015 60 10000 5.14 300 16:47 27.01.2021
3237 Clouds 3 1015 60 10000 3.09 340 16:28 27.01.2021
3238 Clouds 3 1015 60 10000 3.09 340 16:28 27.01.2021
3239 Clouds 4 1015 65 10000 3.6 320 15:50 27.01.2021
3240 Clouds 4 1015 60 10000 3.6 320 15:30 27.01.2021
3241 Clouds 4 1015 60 10000 3.6 330 14:43 27.01.2021
3242 Clouds 4 1015 60 10000 5.66 330 14:22 27.01.2021
3243 Clouds 4 1015 65 10000 4.12 330 13:45 27.01.2021
3244 Clouds 4 1016 60 10000 5.66 330 12:58 27.01.2021
3245 Clouds 4 1016 60 10000 5.66 330 12:38 27.01.2021
3246 Clouds 3 1016 60 10000 6.69 310 12:18 27.01.2021
3247 Clouds 3 1016 60 10000 5.66 310 11:41 27.01.2021
3248 Clouds 3 1017 60 10000 6.17 300 11:21 27.01.2021
3249 Snow 1 1016 64 10000 6.17 310 10:38 27.01.2021
3250 Clouds 2 1016 64 10000 6.17 310 10:19 27.01.2021
3251 Snow 1 1016 64 10000 8.23 310 09:40 27.01.2021
3252 Snow 1 1016 69 10000 7.72 300 08:56 27.01.2021
3253 Snow 0 1016 69 10000 7.2 300 07:59 27.01.2021
3254 Clouds 0 1016 75 10000 7.72 300 07:40 27.01.2021
3255 Snow 0 1016 86 8000 6.17 310 06:50 27.01.2021
3256 Snow 1 1016 75 10000 7.2 300 06:18 27.01.2021
3257 Snow 1 1016 75 10000 4.63 310 05:36 27.01.2021
3258 Snow 1 1016 75 10000 6.17 310 03:29 27.01.2021
3259 Snow 1 1015 80 10000 6.17 310 02:23 27.01.2021
3260 Snow 1 1015 80 10000 6.17 300 01:48 27.01.2021
3261 Snow 1 1015 86 10000 5.66 310 00:33 27.01.2021
3262 Snow 0 1015 86 10000 4.63 280 23:48 26.01.2021
3263 Snow 0 1015 86 10000 4.63 280 23:48 26.01.2021
3264 Snow 1 1015 86 10000 4.63 290 23:28 26.01.2021
3265 Snow 1 1015 86 10000 5.14 300 22:48 26.01.2021
3266 Snow 1 1014 86 10000 5.66 300 22:23 26.01.2021
3267 Snow 1 1014 86 10000 5.66 280 21:53 26.01.2021
3268 Snow 1 1014 86 10000 5.66 280 21:53 26.01.2021
3269 Snow 1 1014 86 10000 6.17 290 21:32 26.01.2021
3270 Snow 1 1014 86 10000 5.66 300 20:58 26.01.2021
3271 Snow 1 1014 86 10000 5.66 300 20:39 26.01.2021
3272 Snow 1 1013 86 10000 7.72 290 20:21 26.01.2021
3273 Snow 1 1013 75 10000 8.23 290 19:45 26.01.2021
3274 Snow 1 1013 80 10000 8.75 290 19:20 26.01.2021
3275 Snow 1 1013 75 10000 9.77 290 18:47 26.01.2021
3276 Clouds 1 1013 69 10000 7.72 280 18:27 26.01.2021
3277 Snow 1 1013 69 10000 7.72 280 17:52 26.01.2021
3278 Snow 2 1013 69 10000 7.72 280 17:33 26.01.2021
3279 Snow 2 1013 69 10000 8.23 280 16:56 26.01.2021
3280 Snow 2 1013 64 10000 7.72 280 16:37 26.01.2021
3281 Clouds 2 1013 64 10000 7.72 280 16:18 26.01.2021
3282 Clouds 3 1013 60 10000 8.75 280 15:44 26.01.2021
3283 Clouds 3 1013 60 10000 8.23 280 15:24 26.01.2021
3284 Clouds 3 1013 60 10000 8.23 280 14:43 26.01.2021
3285 Clouds 3 1013 60 10000 9.26 280 14:25 26.01.2021
3286 Clouds 3 1013 60 10000 8.75 290 13:34 26.01.2021
3287 Clouds 3 1013 56 10000 7.72 300 12:59 26.01.2021
3288 Clouds 3 1013 56 10000 8.23 300 12:40 26.01.2021
3289 Clouds 3 1013 56 10000 8.23 300 12:22 26.01.2021
3290 Clouds 3 1014 56 10000 7.72 300 11:51 26.01.2021
3291 Clouds 2 1014 60 10000 6.17 300 11:25 26.01.2021
3292 Clouds 2 1014 75 10000 4.63 300 10:44 26.01.2021
3293 Clouds 2 1014 69 10000 7.72 300 10:25 26.01.2021
3294 Clouds 1 1013 74 10000 7.2 310 09:40 26.01.2021
3295 Clouds 0 1013 74 10000 7.2 310 09:22 26.01.2021
3296 Clouds 0 1013 74 10000 8.23 300 08:50 26.01.2021
3297 Clouds -1 1012 74 10000 6.69 300 08:20 26.01.2021
3298 Clear -1 1011 74 10000 6.69 300 07:25 26.01.2021
3299 Clear -1 1010 74 10000 4.63 310 05:58 26.01.2021
3300 Clouds -1 1010 74 10000 4.63 310 05:38 26.01.2021
3301 Snow 0 1010 86 10000 5.14 310 03:51 26.01.2021
3302 Snow 0 1009 75 10000 6.17 310 01:46 26.01.2021
3303 Snow 0 1008 69 10000 6.17 300 00:36 26.01.2021
3304 Clear 0 1007 69 10000 3.6 280 23:34 25.01.2021
3305 Clear 0 1006 69 10000 4.63 300 22:52 25.01.2021
3306 Clear 0 1006 69 10000 4.12 310 22:33 25.01.2021
3307 Clear 0 1006 69 10000 4.12 300 21:48 25.01.2021
3308 Clear 1 1005 69 10000 3.6 310 21:22 25.01.2021
3309 Clear 1 1005 69 10000 3.09 310 20:47 25.01.2021
3310 Clear 1 1005 60 10000 3.09 290 20:28 25.01.2021
3311 Clear 1 1005 64 10000 3.09 300 19:50 25.01.2021
3312 Clear 1 1005 64 10000 1.54 310 19:28 25.01.2021
3313 Clear 1 1004 64 10000 2.06 330 18:48 25.01.2021
3314 Clouds 1 1004 64 10000 2.57 350 18:27 25.01.2021
3315 Clouds 2 1004 60 10000 2.06 350 17:56 25.01.2021
3316 Clouds 3 1003 60 10000 3.09 340 17:38 25.01.2021
3317 Clouds 3 1003 60 10000 3.09 340 17:19 25.01.2021
3318 Clouds 3 1003 60 10000 3.6 350 16:41 25.01.2021
3319 Clouds 4 1003 56 10000 5.14 360 16:21 25.01.2021
3320 Clouds 4 1002 60 10000 3.6 10 15:43 25.01.2021
3321 Clouds 4 1002 48 10000 4.63 330 15:24 25.01.2021
3322 Clouds 4 1002 45 10000 5.14 320 14:40 25.01.2021
3323 Clouds 5 1002 45 10000 5.66 310 14:19 25.01.2021
3324 Clouds 4 1001 48 10000 4.12 300 13:47 25.01.2021
3325 Clouds 5 1002 52 10000 4.12 310 13:26 25.01.2021
3326 Clouds 5 1001 52 10000 5.14 300 12:45 25.01.2021
3327 Clouds 5 1001 56 10000 4.63 320 12:20 25.01.2021
3328 Clouds 4 1001 60 10000 4.63 310 11:47 25.01.2021
3329 Clouds 4 1001 60 10000 6.17 320 11:18 25.01.2021
3330 Clouds 4 1001 56 10000 5.66 310 10:40 25.01.2021
3331 Clouds 3 1001 56 10000 4.63 290 10:18 25.01.2021
3332 Clouds 3 1001 64 10000 5.14 280 09:43 25.01.2021
3333 Clouds 2 1001 64 10000 5.14 280 09:25 25.01.2021
3334 Clouds 2 1001 64 10000 5.14 270 08:28 25.01.2021
3335 Clouds 2 1000 69 10000 4.63 280 07:32 25.01.2021
3336 Clouds 2 1000 69 10000 4.63 280 06:55 25.01.2021
3337 Clouds 2 999 69 10000 5.66 300 04:18 25.01.2021
3338 Clouds 2 999 64 10000 7.2 290 01:32 25.01.2021
3339 Clouds 2 999 60 10000 7.2 290 23:44 24.01.2021
3340 Clear 2 1000 60 10000 6.69 300 23:19 24.01.2021
3341 Clear 2 999 52 10000 8.23 290 22:43 24.01.2021
3342 Clear 2 999 52 10000 9.26 280 22:21 24.01.2021
3343 Clear 2 1000 52 10000 7.2 300 21:49 24.01.2021
3344 Clear 3 1000 52 10000 5.66 300 21:24 24.01.2021
3345 Clear 3 1000 52 10000 5.66 300 21:24 24.01.2021
3346 Clear 3 1000 48 10000 5.66 300 20:46 24.01.2021
3347 Clear 3 1000 48 10000 5.66 300 20:22 24.01.2021
3348 Clear 3 1000 48 10000 6.69 300 19:53 24.01.2021
3349 Clear 3 1000 48 10000 6.69 300 19:53 24.01.2021
3350 Clear 3 1000 48 10000 6.69 300 19:27 24.01.2021
3351 Clear 3 1000 45 10000 6.17 290 18:58 24.01.2021
3352 Clear 3 1000 45 10000 6.17 290 18:39 24.01.2021
3353 Clear 3 1000 48 10000 5.14 300 18:21 24.01.2021
3354 Clear 3 1000 48 10000 6.17 290 17:51 24.01.2021
3355 Clear 3 1000 48 10000 7.2 280 17:30 24.01.2021
3356 Clear 4 1000 48 10000 7.2 290 16:59 24.01.2021
3357 Clear 4 1000 56 10000 7.72 290 16:39 24.01.2021
3358 Clear 4 1000 56 10000 7.72 290 16:19 24.01.2021
3359 Clear 4 999 56 10000 7.2 290 15:44 24.01.2021
3360 Clear 4 999 52 10000 8.23 300 15:19 24.01.2021
3361 Clouds 4 999 48 10000 8.23 290 14:43 24.01.2021
3362 Clouds 5 999 56 10000 8.75 280 13:52 24.01.2021
3363 Clouds 5 999 56 10000 8.75 280 13:34 24.01.2021
3364 Clouds 5 999 56 10000 9.26 280 12:51 24.01.2021
3365 Clouds 5 999 65 10000 10.8 280 12:22 24.01.2021
3366 Clouds 5 999 65 10000 10.29 270 11:54 24.01.2021
3367 Clouds 5 999 75 10000 5.14 250 11:25 24.01.2021
3368 Clear 4 999 81 10000 2.57 230 10:54 24.01.2021
3369 Clear 4 998 87 10000 2.06 220 10:30 24.01.2021
3370 Clear 4 998 87 10000 2.06 220 10:30 24.01.2021
3371 Clear 4 998 87 10000 2.06 220 10:30 24.01.2021
3372 Clear 3 998 93 10000 1.54 250 09:46 24.01.2021
3373 Mist 1 997 100 10000 1.54 190 09:19 24.01.2021
3374 Fog 1 997 93 500 2.57 190 08:31 24.01.2021
3375 Snow 2 995 93 10000 1.54 360 03:48 24.01.2021
3376 Snow 2 996 93 10000 3.09 280 02:18 24.01.2021
3377 Rain 2 997 81 10000 2.57 260 00:28 24.01.2021
3378 Rain 2 997 81 10000 2.57 260 00:28 24.01.2021
3379 Clouds 3 997 81 10000 2.06 250 23:59 23.01.2021
3380 Clouds 3 997 81 10000 2.06 250 23:59 23.01.2021
3381 Clouds 3 997 81 10000 3.09 280 23:33 23.01.2021
3382 Clouds 3 997 81 10000 3.6 270 22:58 23.01.2021
3383 Clouds 3 997 81 10000 3.6 270 22:40 23.01.2021
3384 Clouds 3 997 81 10000 2.57 270 21:59 23.01.2021
3385 Clouds 3 998 81 10000 2.06 290 21:23 23.01.2021
3386 Clouds 3 998 75 10000 3.6 280 20:51 23.01.2021
3387 Clouds 4 998 75 10000 3.09 290 20:33 23.01.2021
3388 Clouds 4 998 75 10000 3.09 290 19:56 23.01.2021
3389 Clouds 4 998 75 10000 3.09 290 19:38 23.01.2021
3390 Clouds 3 998 87 10000 3.6 300 19:20 23.01.2021
3391 Clouds 4 999 75 10000 6.17 280 18:42 23.01.2021
3392 Rain 4 998 65 10000 5.14 270 18:20 23.01.2021
3393 Rain 4 998 65 10000 4.63 320 17:29 23.01.2021
3394 Clouds 5 998 61 10000 5.66 300 16:52 23.01.2021
3395 Clouds 5 998 61 10000 6.69 290 16:32 23.01.2021
3396 Clouds 5 998 61 10000 5.14 300 15:53 23.01.2021
3397 Clouds 6 998 61 10000 4.63 300 15:28 23.01.2021
3398 Rain 6 998 61 10000 6.69 290 14:40 23.01.2021
3399 Rain 6 998 61 10000 6.69 280 14:19 23.01.2021
3400 Rain 5 998 61 10000 5.66 270 13:43 23.01.2021
3401 Clouds 6 998 65 10000 8.23 280 13:24 23.01.2021
3402 Clouds 5 998 65 10000 8.75 270 12:44 23.01.2021
3403 Rain 5 999 65 10000 8.23 280 12:24 23.01.2021
3404 Clouds 5 998 70 10000 9.77 280 11:40 23.01.2021
3405 Rain 5 998 75 10000 6.69 290 10:58 23.01.2021
3406 Rain 6 997 76 10000 6.69 290 10:26 23.01.2021
3407 Clouds 6 997 71 10000 6.69 280 09:53 23.01.2021
3408 Rain 7 996 76 10000 6.69 150 09:28 23.01.2021
3409 Clouds 8 995 76 10000 7.72 150 08:43 23.01.2021
3410 Clouds 8 994 76 10000 7.2 140 07:48 23.01.2021
3411 Clouds 9 994 76 10000 7.72 140 06:50 23.01.2021
3412 Rain 9 995 76 10000 8.75 140 02:30 23.01.2021
3413 Rain 9 996 76 10000 9.26 150 00:33 23.01.2021
3414 Clear 9 997 71 10000 9.77 150 23:36 22.01.2021
3415 Clear 9 997 76 10000 7.72 170 22:45 22.01.2021
3416 Rain 9 997 76 10000 10.29 160 22:21 22.01.2021
3417 Clear 9 997 76 10000 9.77 160 21:42 22.01.2021
3418 Clear 10 997 76 10000 7.2 150 21:23 22.01.2021
3419 Clear 10 998 76 10000 8.23 170 20:46 22.01.2021
3420 Clear 10 998 76 10000 9.26 170 20:26 22.01.2021
3421 Clouds 7 998 76 10000 8.23 170 19:47 22.01.2021
3422 Clouds 6 998 76 10000 8.23 170 19:19 22.01.2021
3423 Clouds 6 998 76 10000 8.75 170 18:47 22.01.2021
3424 Clouds 6 998 76 10000 7.2 160 18:26 22.01.2021
3425 Clouds 5 999 71 10000 6.69 170 17:50 22.01.2021
3426 Clouds 6 999 71 10000 5.14 150 17:32 22.01.2021
3427 Clear 7 998 71 10000 5.66 160 16:54 22.01.2021
3428 Clear 8 999 62 10000 5.14 160 16:30 22.01.2021
3429 Clear 11 999 58 10000 6.17 160 15:45 22.01.2021
3430 Clear 12 999 54 10000 6.69 180 15:23 22.01.2021
3431 Clear 10 999 58 10000 7.2 180 14:33 22.01.2021
3432 Clouds 10 999 62 10000 8.23 170 13:54 22.01.2021
3433 Clouds 9 999 62 10000 8.23 170 13:35 22.01.2021
3434 Clouds 8 1000 62 10000 7.72 170 12:59 22.01.2021
3435 Clouds 7 1000 62 10000 7.72 180 12:28 22.01.2021
3436 Clouds 5 1000 66 10000 8.23 170 11:51 22.01.2021
3437 Rain 4 1017 87 10000 1.84 215 11:32 22.01.2021
3438 Rain 5 1000 76 10000 6.69 160 10:48 22.01.2021
3439 Rain 5 1000 76 10000 6.69 160 10:48 22.01.2021
3440 Rain 5 1000 76 10000 6.69 150 10:24 22.01.2021
3441 Rain 4 1000 76 10000 9.26 150 09:44 22.01.2021
3442 Rain 4 1000 76 10000 9.26 150 08:57 22.01.2021
3443 Clouds 4 1000 71 10000 11.32 170 08:32 22.01.2021
3444 Snow 1 1000 90 10000 2.19 289 07:48 22.01.2021
3445 Clouds 1 1000 94 10000 0.45 331 05:22 22.01.2021
3446 Clouds 0 1002 94 10000 0.91 238 01:54 22.01.2021
3447 Fog 0 1004 93 350 2.06 310 00:30 22.01.2021
3448 Fog 0 1004 100 450 2.06 290 23:49 21.01.2021
3449 Clear 0 1002 89 10000 0.54 359 23:20 21.01.2021
3450 Fog 0 1005 100 800 0.51 0 22:48 21.01.2021
3451 Fog 0 1006 100 500 0.51 0 21:59 21.01.2021
3452 Fog 0 1006 100 500 0.51 0 21:40 21.01.2021
3453 Fog 0 1006 100 500 0.51 0 21:19 21.01.2021
3454 Fog 0 1006 100 350 0.51 0 20:46 21.01.2021
3455 Fog 0 1007 100 350 0.51 0 20:21 21.01.2021
3456 Fog 1 1007 93 400 1.54 360 19:50 21.01.2021
3457 Fog 1 1007 100 300 1.03 0 19:26 21.01.2021
3458 Fog 1 1007 100 250 1.03 0 18:54 21.01.2021
3459 Fog 1 1007 100 300 1.03 0 18:36 21.01.2021
3460 Fog 1 1007 100 300 1.03 0 18:18 21.01.2021
3461 Clouds 1 1007 91 10000 0.45 148 17:41 21.01.2021
3462 Fog 1 1007 93 1800 1.54 360 17:18 21.01.2021
3463 Mist 2 1008 93 1800 0.51 0 16:41 21.01.2021
3464 Mist 2 1008 93 3200 1.54 50 16:23 21.01.2021
3465 Mist 3 1008 93 4600 0.51 0 15:49 21.01.2021
3466 Clear 4 1017 87 10000 1.3 123 15:28 21.01.2021
3467 Mist 3 1007 93 4600 0.51 0 14:50 21.01.2021
3468 Clear 3 1017 87 10000 1.3 123 14:31 21.01.2021
3469 Mist 3 1008 93 4400 1.54 330 13:47 21.01.2021
3470 Fog 3 1008 93 2500 1.54 290 13:26 21.01.2021
3471 Clouds 3 1017 87 10000 1.63 167 12:46 21.01.2021
3472 Fog 3 1008 100 500 2.06 360 12:26 21.01.2021
3473 Fog 3 1008 93 400 1.54 320 11:59 21.01.2021
3474 Fog 2 1008 93 400 1.03 0 11:41 21.01.2021
3475 Fog 2 1008 100 350 1.54 350 10:57 21.01.2021
3476 Fog 1 1008 100 300 2.06 300 10:39 21.01.2021
3477 Fog 1 1008 100 300 2.06 300 10:20 21.01.2021
3478 Fog 0 1008 100 350 1.03 0 09:39 21.01.2021
3479 Fog 0 1007 100 300 1.54 210 09:18 21.01.2021
3480 Fog 0 1007 93 1600 1.54 170 08:35 21.01.2021
3481 Mist 0 1007 93 5000 1.54 210 07:48 21.01.2021
3482 Clouds 0 1007 93 6000 2.57 260 07:26 21.01.2021
3483 Mist -1 1007 93 5000 1.03 0 06:31 21.01.2021
3484 Clouds 0 1003 91 8994 1.13 317 04:55 21.01.2021
3485 Mist 0 1007 93 10000 1.54 170 02:19 21.01.2021
3486 Clear 1 1008 87 10000 3.09 140 00:42 21.01.2021
3487 Clear 1 1008 87 10000 5.14 130 23:50 20.01.2021
3488 Clear 1 1008 87 10000 4.63 130 23:27 20.01.2021
3489 Clear 1 1008 87 10000 5.66 130 22:53 20.01.2021
3490 Clear 1 1009 87 10000 5.66 130 22:30 20.01.2021
3491 Clear 2 1009 81 10000 5.66 140 21:55 20.01.2021
3492 Clear 2 1009 81 10000 5.66 130 21:23 20.01.2021
3493 Clear 2 1010 75 10000 3.6 120 20:52 20.01.2021
3494 Clear 2 1010 75 10000 3.6 120 20:52 20.01.2021
3495 Clear 3 1010 75 10000 4.12 120 20:24 20.01.2021
3496 Clear 3 1010 75 10000 2.57 120 19:50 20.01.2021
3497 Clear 3 1010 75 10000 4.63 110 19:31 20.01.2021
3498 Clear 3 1011 75 10000 4.12 110 18:52 20.01.2021
3499 Clear 4 1011 75 10000 3.09 110 18:33 20.01.2021
3500 Clear 3 1011 75 10000 3.6 120 17:53 20.01.2021
3501 Clear 4 1011 75 10000 3.6 120 17:35 20.01.2021
3502 Clear 7 1011 61 10000 5.14 120 16:52 20.01.2021
3503 Clear 8 1011 61 10000 5.14 130 16:24 20.01.2021
3504 Clear 9 1012 61 10000 4.63 130 15:45 20.01.2021
3505 Clear 9 1012 61 10000 7.2 130 15:19 20.01.2021
3506 Clear 9 1012 61 10000 4.63 130 14:44 20.01.2021
3507 Clear 10 1012 61 10000 4.63 120 14:21 20.01.2021
3508 Clear 9 1013 70 10000 3.6 120 13:40 20.01.2021
3509 Clear 9 1013 70 10000 3.6 120 13:18 20.01.2021
3510 Clear 8 1014 70 10000 3.09 100 12:35 20.01.2021
3511 Clear 7 1014 75 10000 3.09 110 11:53 20.01.2021
3512 Clear 7 1014 75 10000 2.06 120 11:34 20.01.2021
3513 Clear 6 1014 81 10000 2.06 130 10:51 20.01.2021
3514 Clear 5 1014 81 10000 2.06 0 10:28 20.01.2021
3515 Clear 4 1014 87 10000 2.57 160 09:48 20.01.2021
3516 Clear 4 1014 87 10000 2.57 200 09:24 20.01.2021
3517 Clear 3 1014 93 10000 2.57 230 08:47 20.01.2021
3518 Clear 3 1014 93 10000 2.57 160 08:26 20.01.2021
3519 Clear 3 1013 100 10000 1.03 0 07:56 20.01.2021
3520 Clear 3 1013 93 10000 2.57 160 07:25 20.01.2021
3521 Clear 5 1013 93 10000 3.09 170 05:38 20.01.2021
3522 Rain 5 1014 81 10000 5.14 270 03:22 20.01.2021
3523 Rain 5 1013 75 10000 7.2 270 00:59 20.01.2021
3524 Clouds 5 1013 75 10000 5.66 270 00:31 20.01.2021
3525 Clouds 5 1013 81 10000 4.63 260 23:42 19.01.2021
3526 Rain 4 1013 81 10000 5.14 250 23:19 19.01.2021
3527 Rain 4 1013 81 10000 6.17 260 22:42 19.01.2021
3528 Rain 4 1014 81 10000 6.69 260 22:22 19.01.2021
3529 Rain 4 1014 75 10000 3.6 270 21:59 19.01.2021
3530 Rain 4 1014 75 10000 3.6 270 21:40 19.01.2021
3531 Rain 4 1014 70 10000 5.66 250 21:19 19.01.2021
3532 Rain 4 1013 60 10000 3.09 260 20:42 19.01.2021
3533 Rain 3 1013 42 10000 4.12 270 20:22 19.01.2021
3534 Rain 5 1013 39 10000 3.6 240 19:42 19.01.2021
3535 Rain 5 1013 39 10000 3.6 240 19:42 19.01.2021
3536 Rain 4 1013 52 10000 4.12 180 19:23 19.01.2021
3537 Rain 4 1013 52 10000 4.63 210 18:43 19.01.2021
3538 Rain 2 1014 69 10000 5.14 160 18:25 19.01.2021
3539 Snow 2 1014 75 10000 3.09 160 17:45 19.01.2021
3540 Rain 2 1014 69 10000 3.6 150 17:25 19.01.2021
3541 Clear 3 1015 65 10000 1.54 130 16:48 19.01.2021
3542 Clear 3 1015 65 10000 3.6 150 16:26 19.01.2021
3543 Clear 3 1015 70 10000 1.54 120 15:57 19.01.2021
3544 Clear 4 1015 70 10000 1.54 120 15:37 19.01.2021
3545 Rain 5 1016 56 10000 2.57 130 14:57 19.01.2021
3546 Clear 5 1016 49 10000 2.06 220 14:37 19.01.2021
3547 Clear 5 1016 49 10000 2.06 220 14:18 19.01.2021
3548 Clear 4 1017 52 10000 2.06 210 13:39 19.01.2021
3549 Clear 5 1018 56 10000 3.09 170 13:20 19.01.2021
3550 Clear 5 1018 60 10000 4.12 170 12:42 19.01.2021
3551 Clear 5 1019 60 10000 3.6 170 12:21 19.01.2021
3552 Clear 5 1019 56 10000 3.09 230 11:43 19.01.2021
3553 Clouds 4 1017 87 10000 2.98 252 11:23 19.01.2021
3554 Clear 4 1020 60 10000 3.09 260 10:50 19.01.2021
3555 Clear 4 1020 65 10000 4.12 240 10:31 19.01.2021
3556 Clear 3 1020 65 10000 4.12 270 09:52 19.01.2021
3557 Clear 3 1020 60 10000 4.63 270 09:24 19.01.2021
3558 Clouds 3 1020 60 10000 5.66 290 08:51 19.01.2021
3559 Clouds 2 1020 64 10000 5.14 290 08:19 19.01.2021
3560 Clear 2 1020 65 10000 8.23 270 07:36 19.01.2021
3561 Clear 2 1020 69 10000 7.2 280 05:59 19.01.2021
3562 Clouds 2 1021 75 10000 7.72 280 02:29 19.01.2021
3563 Clouds 2 1022 70 10000 7.72 290 00:48 19.01.2021
3564 Clear 2 1022 70 10000 6.69 280 23:58 18.01.2021
3565 Clear 2 1022 75 10000 5.66 280 23:31 18.01.2021
3566 Clear 2 1022 75 10000 5.14 280 22:51 18.01.2021
3567 Clear 2 1022 70 10000 6.17 290 22:25 18.01.2021
3568 Clouds 2 1022 75 10000 6.69 280 21:51 18.01.2021
3569 Clouds 2 1022 75 10000 6.17 280 21:24 18.01.2021
3570 Clouds 1 1022 86 10000 2.06 300 20:59 18.01.2021
3571 Clouds 1 1022 86 10000 2.06 300 20:39 18.01.2021
3572 Clouds 1 1022 93 10000 2.06 160 20:20 18.01.2021
3573 Clouds 0 1022 93 10000 3.09 180 19:48 18.01.2021
3574 Clouds 0 1022 86 8000 1.03 0 19:29 18.01.2021
3575 Clouds -1 1022 93 8000 2.06 210 18:44 18.01.2021
3576 Snow -1 1022 86 10000 1.54 190 18:22 18.01.2021
3577 Snow -1 1022 86 10000 2.06 180 17:41 18.01.2021
3578 Snow -1 1022 93 10000 2.06 200 17:19 18.01.2021
3579 Snow -2 1022 86 7000 2.06 190 16:46 18.01.2021
3580 Snow -2 1022 86 10000 2.06 180 16:20 18.01.2021
3581 Snow -2 1022 86 10000 2.06 180 15:42 18.01.2021
3582 Snow -2 1022 86 6000 2.06 180 15:20 18.01.2021
3583 Snow -2 1022 86 7000 1.54 170 14:43 18.01.2021
3584 Snow -2 1022 86 7000 1.03 0 14:25 18.01.2021
3585 Snow -2 1022 86 7000 1.03 160 13:46 18.01.2021
3586 Snow -2 1022 80 5000 1.03 0 13:26 18.01.2021
3587 Snow -3 1022 80 6000 1.54 210 12:52 18.01.2021
3588 Snow -2 1022 80 6000 2.06 210 12:20 18.01.2021
3589 Snow -2 1022 80 6000 2.06 210 12:20 18.01.2021
3590 Snow -3 1022 74 4000 2.06 200 11:56 18.01.2021
3591 Snow -3 1022 68 10000 2.06 160 11:37 18.01.2021
3592 Snow -3 1022 68 10000 2.06 160 11:18 18.01.2021
3593 Snow -3 1022 74 10000 2.57 170 10:39 18.01.2021
3594 Snow -3 1022 80 10000 2.57 160 09:44 18.01.2021
3595 Clouds -3 1022 74 10000 1.54 140 09:24 18.01.2021
3596 Clouds -3 1022 68 10000 1.03 10 08:52 18.01.2021
3597 Clouds -3 1022 68 10000 1.54 10 08:18 18.01.2021
3598 Clouds -4 1022 74 10000 2.57 330 07:33 18.01.2021
3599 Clouds -5 1022 79 10000 1.03 0 05:32 18.01.2021
3600 Clouds -6 1022 73 10000 1.54 10 04:37 18.01.2021
3601 Clouds -6 1022 73 10000 1.54 10 04:18 18.01.2021
3602 Clouds -6 1022 73 10000 1.54 60 03:41 18.01.2021
3603 Clouds -7 1022 79 10000 1.54 140 03:20 18.01.2021
3604 Clouds -6 1022 73 10000 1.54 70 02:37 18.01.2021
3605 Clouds -5 1022 73 10000 1.54 130 01:36 18.01.2021
3606 Clouds -6 1022 73 10000 1.03 60 00:32 18.01.2021
3607 Clouds -5 1022 73 10000 1.54 20 23:48 17.01.2021
3608 Clouds -5 1022 73 10000 1.54 30 23:21 17.01.2021
3609 Clouds -4 1022 63 10000 3.09 20 22:41 17.01.2021
3610 Clouds -4 1022 63 10000 3.09 20 22:22 17.01.2021
3611 Snow -4 1022 74 10000 2.57 30 21:40 17.01.2021
3612 Snow -3 1022 74 10000 2.57 30 21:22 17.01.2021
3613 Snow -4 1021 80 10000 2.57 40 20:49 17.01.2021
3614 Snow -3 1021 80 10000 3.09 20 20:29 17.01.2021
3615 Clouds -3 1020 86 10000 2.06 40 19:43 17.01.2021
3616 Clouds -3 1020 86 10000 2.06 40 19:25 17.01.2021
3617 Clouds -3 1020 86 10000 2.06 40 19:25 17.01.2021
3618 Clouds -3 1020 86 10000 2.06 20 18:49 17.01.2021
3619 Clouds -3 1020 86 10000 2.06 30 18:27 17.01.2021
3620 Clouds -2 1019 80 10000 2.57 350 17:49 17.01.2021
3621 Clouds -2 1019 86 10000 2.06 20 17:28 17.01.2021
3622 Clouds -2 1019 86 10000 2.06 350 16:44 17.01.2021
3623 Clouds -2 1018 68 10000 1.34 340 16:24 17.01.2021
3624 Snow -2 1018 86 2900 3.09 340 15:44 17.01.2021
3625 Clouds -2 1015 67 10000 0.89 38 15:25 17.01.2021
3626 Snow -2 1017 69 10000 4.12 320 14:50 17.01.2021
3627 Clouds -2 1017 69 10000 4.63 310 14:27 17.01.2021
3628 Clouds -1 1017 69 10000 5.14 320 13:58 17.01.2021
3629 Clouds -2 1017 69 10000 4.12 320 13:36 17.01.2021
3630 Clouds -2 1017 69 10000 4.12 320 13:18 17.01.2021
3631 Clouds -2 1017 64 10000 6.69 320 12:37 17.01.2021
3632 Clouds -2 1017 66 10000 3.13 309 12:18 17.01.2021
3633 Clouds -2 1017 64 10000 6.69 310 11:25 17.01.2021
3634 Clouds -2 1017 64 10000 8.23 310 10:50 17.01.2021
3635 Clouds -2 1017 64 10000 6.69 300 10:24 17.01.2021
3636 Clouds -3 1017 68 10000 6.69 300 09:46 17.01.2021
3637 Clouds -3 1016 63 10000 6.69 310 08:48 17.01.2021
3638 Clouds -3 1016 63 10000 5.14 310 08:26 17.01.2021
3639 Clouds -3 1016 68 10000 6.17 310 04:29 17.01.2021
3640 Clouds -3 1017 63 10000 6.17 310 02:50 17.01.2021
3641 Snow -3 1017 68 10000 7.72 320 00:54 17.01.2021
3642 Snow -3 1018 74 10000 6.69 320 00:21 17.01.2021
3643 Snow -4 1018 86 10000 5.66 330 23:52 16.01.2021
3644 Snow -3 1018 86 5000 3.6 330 23:21 16.01.2021
3645 Snow -3 1019 86 6000 3.09 330 22:52 16.01.2021
3646 Snow -4 1019 86 5000 4.63 330 22:18 16.01.2021
3647 Snow -4 1019 86 4000 5.66 330 21:43 16.01.2021
3648 Snow -4 1019 80 4900 6.17 330 21:22 16.01.2021
3649 Snow -4 1019 68 10000 7.72 320 20:47 16.01.2021
3650 Snow -3 1019 63 10000 5.66 320 20:23 16.01.2021
3651 Snow -3 1020 63 10000 7.2 320 19:48 16.01.2021
3652 Clouds -2 1020 59 10000 4.12 320 19:29 16.01.2021
3653 Clouds -3 1020 63 10000 4.12 310 18:45 16.01.2021
3654 Clouds -3 1020 63 10000 5.14 330 18:26 16.01.2021
3655 Clouds -3 1020 63 10000 5.66 330 17:50 16.01.2021
3656 Clouds -3 1020 59 10000 8.75 330 17:30 16.01.2021
3657 Clouds -2 1020 54 10000 8.23 310 16:51 16.01.2021
3658 Clouds -2 1020 59 10000 8.75 320 16:33 16.01.2021
3659 Clouds -2 1020 59 10000 7.2 330 15:55 16.01.2021
3660 Clouds -1 1020 59 10000 7.2 330 15:36 16.01.2021
3661 Clouds -1 1021 55 10000 7.2 320 14:31 16.01.2021
3662 Clouds -2 1021 59 10000 6.69 320 13:52 16.01.2021
3663 Clouds -2 1022 64 10000 7.2 320 13:30 16.01.2021
3664 Clouds -2 1022 68 10000 6.69 320 12:47 16.01.2021
3665 Clouds -2 1022 74 10000 6.69 320 12:22 16.01.2021
3666 Snow -3 1023 74 10000 7.72 310 11:55 16.01.2021
3667 Snow -3 1023 80 8000 6.17 310 11:26 16.01.2021
3668 Snow -3 1023 80 3000 7.2 320 10:51 16.01.2021
3669 Snow -3 1022 80 6000 7.72 330 10:33 16.01.2021
3670 Snow -3 1022 86 3600 7.2 330 09:50 16.01.2021
3671 Snow -2 1022 74 6000 8.75 340 09:19 16.01.2021
3672 Snow -1 1022 74 10000 6.69 320 08:18 16.01.2021
3673 Snow -1 1021 80 6000 5.66 330 06:44 16.01.2021
3674 Clouds -1 1021 69 10000 7.72 300 04:53 16.01.2021
3675 Clouds -1 1021 74 10000 7.2 320 02:59 16.01.2021
3676 Clouds -1 1021 74 10000 7.2 320 02:37 16.01.2021
3677 Snow -1 1021 93 8000 6.69 20 00:45 16.01.2021
3678 Snow -1 1021 80 10000 5.14 340 00:20 16.01.2021
3679 Snow -1 1021 80 10000 5.66 340 23:36 15.01.2021
3680 Snow -1 1021 86 3800 6.69 320 22:38 15.01.2021
3681 Snow -1 1021 86 4700 7.2 320 22:18 15.01.2021
3682 Snow 0 1020 80 9000 6.17 320 21:42 15.01.2021
3683 Snow 0 1020 86 3600 4.63 320 20:48 15.01.2021
3684 Snow 0 1019 86 9000 4.12 300 20:23 15.01.2021
3685 Snow 0 1019 93 8000 5.14 300 19:48 15.01.2021
3686 Snow 0 1019 86 3200 5.66 310 19:28 15.01.2021
3687 Snow 0 1019 75 10000 4.63 310 18:47 15.01.2021
3688 Snow 0 1019 80 10000 3.6 310 18:20 15.01.2021
3689 Snow 0 1019 86 10000 3.09 300 17:58 15.01.2021
3690 Snow 0 1019 86 10000 3.09 300 17:58 15.01.2021
3691 Snow 1 1019 80 10000 3.6 310 17:40 15.01.2021
3692 Snow 1 1019 80 10000 3.6 310 17:21 15.01.2021
3693 Snow 1 1019 80 10000 4.63 310 16:44 15.01.2021
3694 Snow 0 1019 86 10000 3.6 310 16:23 15.01.2021
3695 Snow 1 1018 69 10000 6.17 320 15:41 15.01.2021
3696 Snow 1 1018 69 10000 6.17 320 15:21 15.01.2021
3697 Snow 1 1018 69 10000 6.17 320 14:43 15.01.2021
3698 Clouds 2 1018 75 10000 5.66 320 14:24 15.01.2021
3699 Clouds 2 1018 69 10000 5.66 310 13:41 15.01.2021
3700 Clouds 2 1018 69 10000 6.69 300 13:21 15.01.2021
3701 Clouds 2 1019 75 10000 5.66 310 12:49 15.01.2021
3702 Clouds 1 1019 75 10000 5.66 320 12:31 15.01.2021
3703 Clouds 2 1019 69 10000 5.66 310 11:46 15.01.2021
3704 Clouds 1 1019 75 10000 4.63 320 11:27 15.01.2021
3705 Clouds 1 1019 86 10000 2.57 330 10:54 15.01.2021
3706 Clouds 1 1019 86 10000 2.57 330 10:34 15.01.2021
3707 Snow 0 1018 80 8000 4.12 320 09:54 15.01.2021
3708 Clouds 0 1018 80 10000 4.63 320 09:34 15.01.2021
3709 Clouds 0 1018 74 10000 5.14 320 08:42 15.01.2021
3710 Clouds 0 1018 74 10000 5.66 320 08:19 15.01.2021
3711 Snow 0 1017 74 10000 5.14 320 07:41 15.01.2021
3712 Clouds 0 1017 74 10000 5.14 320 07:19 15.01.2021
3713 Clouds 0 1016 74 10000 6.17 310 04:33 15.01.2021
3714 Clouds 1 1016 69 10000 8.23 300 01:48 15.01.2021
3715 Clouds 1 1017 69 10000 6.69 300 23:55 14.01.2021
3716 Clouds 1 1017 69 10000 7.2 300 23:23 14.01.2021
3717 Clouds 1 1017 69 10000 5.66 300 22:44 14.01.2021
3718 Clouds 1 1017 69 10000 5.14 310 22:25 14.01.2021
3719 Clouds 1 1016 69 10000 7.72 310 21:48 14.01.2021
3720 Clouds 1 1016 75 10000 5.14 320 21:21 14.01.2021
3721 Clouds 1 1016 69 10000 7.72 320 20:51 14.01.2021
3722 Clouds 1 1016 69 10000 7.72 310 20:26 14.01.2021
3723 Clouds 1 1016 69 10000 6.69 310 19:48 14.01.2021
3724 Clouds 1 1015 69 10000 8.23 310 19:29 14.01.2021
3725 Clouds 1 1015 69 10000 8.75 310 18:55 14.01.2021
3726 Rain 1 1015 69 10000 8.75 310 18:31 14.01.2021
3727 Clouds 1 1015 69 10000 7.72 310 17:53 14.01.2021
3728 Clouds 1 1014 64 10000 7.2 300 17:27 14.01.2021
3729 Clouds 1 1014 64 10000 7.2 310 16:46 14.01.2021
3730 Clouds 1 1013 69 10000 7.72 320 16:26 14.01.2021
3731 Clouds 1 1013 69 10000 9.77 320 15:46 14.01.2021
3732 Clouds 2 1012 69 10000 8.23 320 15:23 14.01.2021
3733 Clouds 1 1012 75 10000 6.69 320 14:39 14.01.2021
3734 Clouds 1 1012 75 10000 6.69 320 14:20 14.01.2021
3735 Clouds 1 1011 75 10000 6.69 320 13:54 14.01.2021
3736 Snow 1 1011 86 10000 7.2 300 13:22 14.01.2021
3737 Snow 1 1011 86 1600 8.23 300 12:54 14.01.2021
3738 Snow 0 1010 93 1300 6.69 300 12:21 14.01.2021
3739 Snow 0 1010 93 1000 5.66 300 11:53 14.01.2021
3740 Snow 0 1010 93 1300 8.75 300 11:21 14.01.2021
3741 Snow 0 1009 64 8000 9.77 300 10:57 14.01.2021
3742 Snow 1 1009 69 10000 8.75 290 10:38 14.01.2021
3743 Snow 1 1009 69 10000 8.75 290 10:18 14.01.2021
3744 Snow 1 1008 64 10000 6.17 300 09:41 14.01.2021
3745 Snow 1 1008 64 10000 6.17 300 09:19 14.01.2021
3746 Clouds 0 1007 69 10000 6.69 310 08:28 14.01.2021
3747 Clouds 0 1007 74 10000 5.14 310 07:51 14.01.2021
3748 Clouds 0 1007 74 10000 5.14 330 07:28 14.01.2021
3749 Snow 1 1006 75 4700 7.72 310 06:24 14.01.2021
3750 Clouds 2 1006 56 10000 6.69 280 02:51 14.01.2021
3751 Clouds 3 1008 56 10000 11.32 280 23:57 13.01.2021
3752 Clouds 2 1009 52 10000 9.77 280 23:24 13.01.2021
3753 Rain 2 1009 56 10000 7.72 290 22:43 13.01.2021
3754 Clouds 2 1010 60 10000 8.23 280 22:20 13.01.2021
3755 Clouds 2 1010 56 10000 9.77 270 21:42 13.01.2021
3756 Clouds 2 1011 56 10000 8.75 280 21:20 13.01.2021
3757 Clear 2 1011 56 10000 10.29 280 20:48 13.01.2021
3758 Clear 2 1011 56 10000 10.29 280 20:22 13.01.2021
3759 Clear 3 1011 56 10000 9.77 280 19:47 13.01.2021
3760 Clear 2 1012 56 10000 11.32 280 19:23 13.01.2021
3761 Clear 2 1012 56 10000 10.8 290 18:45 13.01.2021
3762 Clouds 2 1012 56 10000 8.75 280 18:25 13.01.2021
3763 Clouds 2 1012 64 10000 9.26 290 17:42 13.01.2021
3764 Rain 2 1012 64 10000 10.29 290 17:18 13.01.2021
3765 Clouds 2 1013 64 10000 7.72 280 16:42 13.01.2021
3766 Clouds 2 1013 60 10000 8.23 280 16:21 13.01.2021
3767 Clouds 3 1013 60 10000 8.23 280 15:41 13.01.2021
3768 Clouds 3 1013 60 10000 10.29 280 15:20 13.01.2021
3769 Clouds 3 1013 56 10000 11.32 290 14:28 13.01.2021
3770 Clouds 4 1013 60 10000 8.75 290 13:47 13.01.2021
3771 Clouds 4 1013 52 10000 11.32 290 13:25 13.01.2021
3772 Rain 4 1013 52 10000 11.83 290 12:46 13.01.2021
3773 Clouds 4 1013 52 10000 10.8 280 12:25 13.01.2021
3774 Clouds 4 1013 52 10000 10.29 290 11:51 13.01.2021
3775 Clouds 3 1014 56 10000 7.72 280 11:33 13.01.2021
3776 Clouds 3 1014 56 10000 8.75 290 10:49 13.01.2021
3777 Clouds 3 1014 64 10000 6.69 280 10:29 13.01.2021
3778 Clouds 3 1014 64 10000 6.69 280 09:49 13.01.2021
3779 Clouds 3 1013 64 10000 8.23 280 09:26 13.01.2021
3780 Clouds 2 1013 60 10000 7.2 280 08:45 13.01.2021
3781 Clouds 2 1013 64 10000 6.69 280 08:23 13.01.2021
3782 Clear 2 1012 64 10000 7.72 300 07:29 13.01.2021
3783 Clouds 2 1011 64 10000 7.72 310 06:21 13.01.2021
3784 Clouds 2 1010 80 10000 4.63 290 04:19 13.01.2021
3785 Clouds 2 1010 75 10000 5.14 290 03:44 13.01.2021
3786 Clouds 3 1010 75 10000 6.17 300 03:22 13.01.2021
3787 Clouds 3 1008 81 10000 5.66 300 00:51 13.01.2021
3788 Rain 3 1008 81 10000 7.2 270 23:44 12.01.2021
3789 Rain 3 1008 81 10000 7.72 270 23:19 12.01.2021
3790 Rain 3 1008 81 10000 7.2 270 22:39 12.01.2021
3791 Rain 3 1008 87 10000 4.12 260 22:20 12.01.2021
3792 Rain 2 1008 80 10000 3.09 240 21:44 12.01.2021
3793 Rain 2 1008 86 10000 2.57 210 21:26 12.01.2021
3794 Rain 1 1008 93 10000 1.54 180 20:48 12.01.2021
3795 Snow 1 1008 93 10000 3.09 140 20:27 12.01.2021
3796 Snow 1 1008 100 10000 2.57 170 19:47 12.01.2021
3797 Snow 0 1008 93 9000 2.06 180 19:26 12.01.2021
3798 Snow 1 1008 93 8000 2.57 160 18:41 12.01.2021
3799 Snow 0 1009 93 6000 2.06 170 18:22 12.01.2021
3800 Snow 0 1009 93 5000 3.09 150 17:37 12.01.2021
3801 Snow 0 1009 93 5000 3.09 150 17:19 12.01.2021
3802 Snow -1 1010 80 10000 2.57 180 16:43 12.01.2021
3803 Snow -1 1010 80 10000 3.6 170 16:22 12.01.2021
3804 Clouds 0 1011 86 10000 3.09 180 15:29 12.01.2021
3805 Snow 0 1011 80 10000 3.09 170 14:58 12.01.2021
3806 Snow 0 1011 80 10000 3.09 170 14:40 12.01.2021
3807 Snow -1 1011 93 10000 4.12 150 14:19 12.01.2021
3808 Clouds -1 1012 86 9000 3.6 150 13:47 12.01.2021
3809 Clear -2 1013 86 10000 3.09 170 12:50 12.01.2021
3810 Clouds -1 1014 86 9000 2.06 170 12:21 12.01.2021
3811 Clouds -2 1015 93 10000 2.06 150 11:40 12.01.2021
3812 Clear -2 1015 86 10000 4.12 150 10:50 12.01.2021
3813 Clear -2 1016 86 10000 2.57 170 10:21 12.01.2021
3814 Clear -3 1016 86 10000 3.09 170 09:57 12.01.2021
3815 Clear -3 1016 86 10000 3.09 160 09:27 12.01.2021
3816 Clear -2 1016 86 10000 2.06 160 08:46 12.01.2021
3817 Clear -3 1016 93 10000 1.54 180 08:23 12.01.2021
3818 Clear -4 1016 92 10000 2.06 180 07:35 12.01.2021
3819 Clear -4 1017 93 10000 2.06 150 06:35 12.01.2021
3820 Clear -5 1018 93 9000 0.51 0 05:33 12.01.2021
3821 Clear -5 1019 86 10000 0.51 0 03:26 12.01.2021
3822 Clear -6 1019 93 10000 0.51 0 02:19 12.01.2021
3823 Clear -6 1019 93 10000 1.54 180 01:28 12.01.2021
3824 Clear -5 1020 93 10000 1.54 160 23:57 11.01.2021
3825 Clear -4 1020 93 10000 1.54 160 23:36 11.01.2021
3826 Clear -4 1020 79 10000 1.03 190 23:18 11.01.2021
3827 Clear -4 1020 86 10000 1.54 160 22:44 11.01.2021
3828 Clear -4 1021 86 10000 0.51 0 22:26 11.01.2021
3829 Clear -4 1021 80 10000 1.03 0 21:39 11.01.2021
3830 Clear -4 1021 80 10000 1.03 0 21:21 11.01.2021
3831 Clear -4 1021 80 10000 1.54 250 20:41 11.01.2021
3832 Clear -3 1021 80 10000 1.54 260 20:23 11.01.2021
3833 Clear -3 1021 80 10000 1.54 260 19:56 11.01.2021
3834 Clear -3 1021 86 10000 1.54 340 19:30 11.01.2021
3835 Clear -3 1021 86 10000 2.06 10 18:46 11.01.2021
3836 Clear -2 1021 86 10000 2.06 10 18:27 11.01.2021
3837 Clear -2 1021 86 10000 2.57 360 17:56 11.01.2021
3838 Clear -2 1021 86 10000 2.57 360 17:37 11.01.2021
3839 Clear -1 1021 80 10000 2.06 360 17:19 11.01.2021
3840 Clouds -1 1021 80 10000 3.09 10 16:39 11.01.2021
3841 Clouds 0 1021 74 10000 3.6 360 16:21 11.01.2021
3842 Clouds 0 1021 69 10000 3.09 350 15:49 11.01.2021
3843 Clouds 1 1021 69 10000 4.12 340 15:27 11.01.2021
3844 Clouds 1 1022 64 10000 4.12 330 14:40 11.01.2021
3845 Clouds 1 1022 69 10000 5.66 320 13:58 11.01.2021
3846 Clouds 1 1022 69 10000 5.66 320 13:38 11.01.2021
3847 Clouds 1 1022 69 10000 6.17 330 13:18 11.01.2021
3848 Clouds 0 1022 74 10000 5.66 320 12:36 11.01.2021
3849 Clouds 0 1023 74 10000 4.63 320 11:57 11.01.2021
3850 Clouds 0 1023 74 10000 4.63 320 11:36 11.01.2021
3851 Clouds -1 1023 80 10000 4.63 320 10:53 11.01.2021
3852 Clear -1 1023 86 10000 4.63 310 10:27 11.01.2021
3853 Clear -2 1023 86 10000 3.09 310 09:45 11.01.2021
3854 Clouds -3 1022 86 10000 2.57 320 09:23 11.01.2021
3855 Clear -3 1019 83 10000 2.68 237 08:46 11.01.2021
3856 Clouds -4 1022 93 10000 2.06 320 08:21 11.01.2021
3857 Clouds -4 1022 93 10000 1.54 310 07:40 11.01.2021
3858 Clouds -4 1022 86 10000 1.54 320 07:19 11.01.2021
3859 Clouds -4 1022 86 10000 3.09 320 06:46 11.01.2021
3860 Clear -3 1019 83 10000 1.79 242 01:53 11.01.2021
3861 Clear -3 1020 83 10000 1.34 254 00:40 11.01.2021
3862 Clear -3 1023 86 10000 0.51 0 23:45 10.01.2021
3863 Clear -3 1023 93 10000 1.54 320 22:49 10.01.2021
3864 Clear -3 1022 93 10000 2.57 320 22:28 10.01.2021
3865 Clear -3 1022 86 10000 2.57 320 21:57 10.01.2021
3866 Clear -2 1022 86 10000 2.57 320 21:37 10.01.2021
3867 Clear -3 1023 93 10000 2.06 340 21:18 10.01.2021
3868 Clear -2 1023 86 10000 2.06 340 20:39 10.01.2021
3869 Clear -2 1023 86 10000 2.57 330 20:21 10.01.2021
3870 Mist -2 1023 93 10000 1.54 340 19:38 10.01.2021
3871 Fog -2 1023 100 5000 1.54 350 19:20 10.01.2021
3872 Mist -2 1023 100 5000 1.03 10 18:43 10.01.2021
3873 Mist -2 1023 100 5000 1.03 20 18:20 10.01.2021
3874 Mist -1 1023 93 5000 1.54 30 17:23 10.01.2021
3875 Clouds -1 1023 93 6000 2.06 40 16:49 10.01.2021
3876 Clouds 0 1023 86 10000 1.54 30 16:28 10.01.2021
3877 Clouds 0 1022 86 10000 2.06 20 15:39 10.01.2021
3878 Clouds 0 1022 86 10000 1.54 40 15:21 10.01.2021
3879 Clouds 0 1023 86 10000 1.54 40 14:40 10.01.2021
3880 Clouds 1 1023 80 10000 1.54 30 14:22 10.01.2021
3881 Clouds 1 1023 80 10000 2.06 10 13:42 10.01.2021
3882 Clouds 1 1023 86 10000 2.57 360 13:24 10.01.2021
3883 Clouds 1 1023 86 10000 1.54 40 12:56 10.01.2021
3884 Clouds 1 1024 86 10000 1.54 20 12:38 10.01.2021
3885 Clouds 0 1024 80 10000 1.54 300 11:56 10.01.2021
3886 Clouds -1 1024 86 10000 1.54 350 11:20 10.01.2021
3887 Clouds -1 1024 80 10000 2.06 340 10:51 10.01.2021
3888 Clouds -1 1024 80 10000 2.57 350 10:24 10.01.2021
3889 Clouds -1 1024 80 10000 2.06 340 09:45 10.01.2021
3890 Clouds -2 1024 86 10000 1.03 0 08:38 10.01.2021
3891 Clouds -3 1023 86 10000 3.09 320 07:47 10.01.2021
3892 Clouds -3 1023 86 10000 2.57 330 06:50 10.01.2021
3893 Clouds -3 1023 86 10000 2.06 340 06:18 10.01.2021
3894 Clear -2 1023 86 10000 1.03 0 05:27 10.01.2021
3895 Clouds -1 1022 86 10000 1.54 300 01:58 10.01.2021
3896 Clouds -1 1022 86 10000 3.09 300 00:23 10.01.2021
3897 Clouds -1 1022 80 10000 3.09 320 23:41 09.01.2021
3898 Clouds -1 1022 80 10000 2.06 310 23:22 09.01.2021
3899 Clouds 0 1022 75 10000 4.12 290 22:25 09.01.2021
3900 Clouds 0 1022 75 10000 4.12 280 21:59 09.01.2021
3901 Clouds 0 1022 75 10000 4.12 280 21:39 09.01.2021
3902 Clouds 1 1022 75 10000 3.6 300 21:21 09.01.2021
3903 Clouds 1 1022 75 10000 4.12 290 20:58 09.01.2021
3904 Clouds 1 1022 75 10000 4.12 290 20:37 09.01.2021
3905 Clouds 1 1022 75 10000 2.57 270 19:42 09.01.2021
3906 Clouds 1 1021 75 10000 2.06 240 19:21 09.01.2021
3907 Clouds 1 1021 69 10000 2.06 300 18:39 09.01.2021
3908 Clouds 1 1021 75 10000 2.57 310 18:19 09.01.2021
3909 Clouds 1 1021 75 10000 3.09 330 17:43 09.01.2021
3910 Clouds 2 1021 69 10000 2.06 310 17:23 09.01.2021
3911 Clouds 2 1020 65 10000 4.12 300 16:31 09.01.2021
3912 Clouds 3 1020 65 10000 4.63 300 15:47 09.01.2021
3913 Clouds 3 1020 65 10000 3.6 320 15:27 09.01.2021
3914 Clouds 3 1020 60 10000 4.12 320 14:38 09.01.2021
3915 Clouds 4 1020 60 10000 4.63 250 14:20 09.01.2021
3916 Clouds 3 1020 65 10000 3.6 240 13:47 09.01.2021
3917 Clouds 3 1020 70 10000 3.6 260 13:28 09.01.2021
3918 Clouds 3 1020 70 10000 3.6 280 12:47 09.01.2021
3919 Clouds 3 1020 70 10000 4.12 260 12:21 09.01.2021
3920 Clouds 3 1020 70 10000 5.14 280 11:50 09.01.2021
3921 Clouds 3 1020 70 10000 4.63 280 11:27 09.01.2021
3922 Clouds 2 1020 75 10000 3.6 250 10:52 09.01.2021
3923 Clouds 2 1020 80 10000 3.09 240 10:27 09.01.2021
3924 Clouds 1 1020 75 10000 2.06 240 09:46 09.01.2021
3925 Clouds 1 1020 80 10000 2.57 240 09:21 09.01.2021
3926 Clouds 1 1019 80 10000 4.12 270 08:26 09.01.2021
3927 Clear 1 1018 75 10000 3.6 270 06:56 09.01.2021
3928 Snow 1 1018 75 10000 3.6 270 06:38 09.01.2021
3929 Clouds 1 1018 80 10000 2.57 240 04:47 09.01.2021
3930 Clouds 1 1018 86 10000 2.06 260 03:20 09.01.2021
3931 Clear 1 1018 93 10000 3.6 170 02:29 09.01.2021
3932 Clouds 1 1018 86 10000 2.57 180 01:44 09.01.2021
3933 Clouds 1 1018 80 10000 3.09 210 00:34 09.01.2021
3934 Clouds 1 1017 80 10000 3.09 210 23:50 08.01.2021
3935 Clouds 1 1017 80 10000 3.09 210 23:50 08.01.2021
3936 Clear 1 1017 80 10000 4.12 230 22:56 08.01.2021
3937 Clear 0 1017 86 10000 2.06 250 21:59 08.01.2021
3938 Clear 1 1017 80 10000 2.57 260 21:34 08.01.2021
3939 Clouds 0 1017 75 10000 4.12 260 20:42 08.01.2021
3940 Clear 0 1017 75 10000 3.6 260 20:23 08.01.2021
3941 Clear 1 1016 75 10000 3.6 260 19:44 08.01.2021
3942 Clear 1 1016 75 10000 3.09 260 19:21 08.01.2021
3943 Clouds 1 1016 75 10000 4.12 260 18:34 08.01.2021
3944 Clouds 1 1016 69 10000 4.12 250 17:56 08.01.2021
3945 Clouds 1 1015 69 10000 5.66 270 17:35 08.01.2021
3946 Clouds 2 1015 65 10000 6.69 290 16:51 08.01.2021
3947 Clouds 2 1015 65 10000 6.69 290 16:51 08.01.2021
3948 Clouds 2 1015 75 10000 1.54 0 16:26 08.01.2021
3949 Clouds 2 1015 70 10000 2.57 310 15:40 08.01.2021
3950 Clouds 4 1014 75 10000 2.06 0 14:45 08.01.2021
3951 Clouds 4 1014 75 10000 1.54 110 14:26 08.01.2021
3952 Clouds 4 1014 75 10000 2.06 120 13:23 08.01.2021
3953 Clouds 4 1014 70 10000 2.57 160 12:57 08.01.2021
3954 Clouds 4 1015 87 10000 2.57 140 12:39 08.01.2021
3955 Clouds 4 1015 87 10000 2.57 140 12:19 08.01.2021
3956 Clear 4 1017 87 10000 2.84 284 11:42 08.01.2021
3957 Clouds 4 1015 86 10000 3.09 140 11:22 08.01.2021
3958 Clouds 2 1015 87 10000 1.03 0 10:48 08.01.2021
3959 Clear 2 1015 93 10000 1.54 190 10:24 08.01.2021
3960 Clouds 0 1015 93 10000 1.54 170 09:44 08.01.2021
3961 Clouds 0 1015 93 10000 1.54 170 09:21 08.01.2021
3962 Clear 0 1014 93 10000 1.03 0 08:19 08.01.2021
3963 Clouds 0 1014 93 10000 2.57 160 07:25 08.01.2021
3964 Fog 0 1014 93 7000 1.03 220 04:26 08.01.2021
3965 Mist 0 1015 93 5000 2.57 160 23:46 07.01.2021
3966 Mist 0 1015 93 5000 2.57 160 23:46 07.01.2021
3967 Clouds 0 1015 93 10000 2.57 190 23:28 07.01.2021
3968 Clouds 1 1015 93 10000 2.06 170 22:42 07.01.2021
3969 Clouds 1 1015 93 10000 1.54 160 22:21 07.01.2021
3970 Clouds 0 1015 93 10000 1.03 150 21:41 07.01.2021
3971 Clouds 0 1015 93 10000 1.03 150 21:22 07.01.2021
3972 Clouds 0 1015 93 10000 1.54 130 20:45 07.01.2021
3973 Clouds 0 1015 86 10000 1.54 170 20:26 07.01.2021
3974 Clouds 1 1015 80 10000 1.54 240 19:42 07.01.2021
3975 Clouds 0 1015 75 10000 2.06 230 19:20 07.01.2021
3976 Clear 1 1014 80 10000 2.06 230 18:30 07.01.2021
3977 Clear 2 1014 75 10000 1.54 200 17:42 07.01.2021
3978 Clouds 2 1014 70 10000 2.06 270 17:22 07.01.2021
3979 Clouds 2 1014 70 10000 2.06 320 16:53 07.01.2021
3980 Clouds 3 1014 65 10000 4.63 280 16:27 07.01.2021
3981 Clouds 4 1014 70 10000 3.6 270 15:40 07.01.2021
3982 Clouds 4 1014 70 10000 4.63 270 14:55 07.01.2021
3983 Clouds 4 1014 70 10000 5.66 270 14:27 07.01.2021
3984 Clouds 4 1014 65 10000 6.17 270 13:43 07.01.2021
3985 Clouds 4 1014 70 10000 5.14 270 13:18 07.01.2021
3986 Clouds 4 1014 69 10000 4.6 280 12:42 07.01.2021
3987 Clouds 4 1014 69 10000 4.6 280 11:55 07.01.2021
3988 Clouds 3 1014 74 10000 5.1 280 11:36 07.01.2021
3989 Clouds 3 1014 74 10000 5.7 280 10:50 07.01.2021
3990 Clouds 3 1014 74 10000 5.7 280 10:27 07.01.2021
3991 Clouds 2 1014 80 10000 4.6 290 09:48 07.01.2021
3992 Clouds 1 1014 86 10000 4.1 280 09:19 07.01.2021
3993 Clouds 1 1013 86 10000 4.6 270 08:29 07.01.2021
3994 Clouds 1 1013 86 10000 5.1 270 07:51 07.01.2021
3995 Clouds 1 1013 86 10000 5.1 270 07:30 07.01.2021
3996 Clouds 1 1012 86 10000 4.6 280 05:26 07.01.2021
3997 Clear 1 1011 80 10000 5.7 270 00:31 07.01.2021
3998 Clear 1 1011 74 10000 3.6 280 23:49 06.01.2021
3999 Clear 1 1011 74 10000 5.1 280 22:47 06.01.2021
4000 Clear 1 1011 86 10000 2.1 240 21:56 06.01.2021
4001 Clear 1 1011 86 10000 2.1 240 21:38 06.01.2021
4002 Clear 1 1011 86 10000 3.1 250 21:19 06.01.2021
4003 Clear 1 1011 86 10000 3.1 250 20:39 06.01.2021
4004 Clouds 1 1010 86 9000 4.1 210 20:18 06.01.2021
4005 Fog 1 1010 86 6000 3.6 210 19:38 06.01.2021
4006 Clouds 1 1010 85 4300 3.1 210 19:19 06.01.2021
4007 Clouds 1 1010 85 4300 3.1 210 18:42 06.01.2021
4008 Clouds 1 1010 83 10000 3.6 190 18:24 06.01.2021
4009 Clouds 2 1010 83 10000 2.1 230 17:43 06.01.2021
4010 Clouds 2 1010 82 10000 2.1 230 17:24 06.01.2021
4011 Clouds 2 1009 82 10000 1 0 16:42 06.01.2021
4012 Clouds 3 1009 79 10000 1.5 260 16:20 06.01.2021
4013 Clouds 2 1009 79 10000 1.5 260 16:20 06.01.2021
4014 Clouds 3 1009 79 10000 2.6 230 15:53 06.01.2021
4015 Clouds 3 1009 76 10000 2.6 230 15:32 06.01.2021
4016 Clouds 3 1008 86 10000 1.5 0 14:52 06.01.2021
4017 Clouds 3 1008 93 10000 1.5 200 14:21 06.01.2021
4018 Clouds 3 1008 93 10000 2.1 220 13:47 06.01.2021
4019 Clouds 3 1008 93 10000 2.1 220 13:24 06.01.2021
4020 Mist 3 1009 93 3000 3.1 150 12:49 06.01.2021
4021 Mist 3 1009 100 4000 3.1 140 12:26 06.01.2021
4022 Drizzle 2 1009 89 3300 3.1 140 11:39 06.01.2021
4023 Drizzle 2 1009 93 2600 4.1 120 11:20 06.01.2021
4024 Drizzle 2 1009 93 3700 4.6 140 10:31 06.01.2021
4025 Mist 1 1009 94 4100 3.6 130 09:52 06.01.2021
4026 Rain 1 1009 94 6000 2.1 120 09:22 06.01.2021
4027 Mist 1 1009 94 2900 1 120 08:41 06.01.2021
4028 Snow 1 1009 94 3400 1 100 08:18 06.01.2021
4029 Snow 1 1009 94 6000 2.1 100 07:27 06.01.2021
4030 Snow 2 1009 93 7000 3.1 110 05:52 06.01.2021
4031 Rain 3 1010 93 6000 2.1 80 04:43 06.01.2021
4032 Rain 3 1011 93 5000 1.5 70 02:47 06.01.2021
4033 Clouds 3 1011 93 5000 1.5 70 02:26 06.01.2021
4034 Rain 3 1011 93 7000 1 100 01:35 06.01.2021
4035 Mist 3 1011 93 5000 1 70 23:39 05.01.2021
4036 Mist 3 1011 93 5000 1 0 22:51 05.01.2021
4037 Clouds 3 1011 93 6000 2.1 170 22:32 05.01.2021
4038 Clouds 3 1011 93 6000 1 170 21:59 05.01.2021
4039 Clouds 3 1011 93 8000 1.5 170 21:18 05.01.2021
4040 Clouds 3 1011 93 7000 0.5 0 20:30 05.01.2021
4041 Clouds 4 1011 93 10000 2.1 260 19:45 05.01.2021
4042 Clouds 4 1011 93 10000 2.1 260 19:24 05.01.2021
4043 Clouds 4 1011 93 8000 2.1 230 18:49 05.01.2021
4044 Clouds 4 1011 93 7000 2.1 240 18:28 05.01.2021
4045 Clouds 4 1011 86 7000 2.1 280 17:54 05.01.2021
4046 Clouds 4 1011 86 7000 2.1 280 17:32 05.01.2021
4047 Clouds 4 1011 86 10000 2.6 310 16:54 05.01.2021
4048 Clouds 4 1011 86 10000 2.6 310 16:24 05.01.2021
4049 Clouds 4 1010 80 10000 2.6 300 15:59 05.01.2021
4050 Clouds 4 1010 80 10000 2.6 300 15:40 05.01.2021
4051 Clouds 4 1010 80 10000 3.1 330 14:48 05.01.2021
4052 Clouds 4 1010 80 10000 4.1 330 14:18 05.01.2021
4053 Clouds 4 1010 86 9000 3.1 350 13:44 05.01.2021
4054 Clouds 4 1010 86 9000 3.1 340 13:20 05.01.2021
4055 Clouds 4 1010 86 9000 2.6 350 12:46 05.01.2021
4056 Clouds 4 1010 86 9000 2.6 340 12:20 05.01.2021
4057 Clouds 4 1010 93 7000 3.1 340 11:34 05.01.2021
4058 -273 0 0 0 0 0 11:34 05.01.2021
4059 -273 0 0 0 0 0 11:33 05.01.2021
4060 -273 0 0 0 0 0 11:33 05.01.2021
4061 Clouds 4 1010 93 7000 3.1 340 11:33 05.01.2021
4062 Clouds 4 1010 93 7000 3.1 340 11:33 05.01.2021
4063 Mist 4 1010 93 4800 2.6 350 10:46 05.01.2021
4064 Mist 4 1010 93 4400 2.6 330 10:25 05.01.2021
4065 Mist 3 1010 93 3200 3.1 350 09:48 05.01.2021
4066 Mist 3 1010 93 3200 3.1 350 09:27 05.01.2021
4067 Rain 3 1010 93 3000 2.6 340 08:23 05.01.2021
4068 Mist 3 1010 93 1500 3.1 360 06:46 05.01.2021
4069 Mist 3 1010 100 4300 2.6 270 03:56 05.01.2021
4070 Fog 3 1011 93 700 2.1 240 00:48 05.01.2021
4071 Mist 3 1011 93 1200 2.1 220 23:45 04.01.2021
4072 Drizzle 3 1011 100 1100 0.5 0 23:25 04.01.2021
4073 Drizzle 3 1011 100 1100 0.5 0 22:51 04.01.2021
4074 Mist 3 1011 100 1600 1.5 210 22:32 04.01.2021
4075 Mist 3 1011 100 1800 1 0 21:49 04.01.2021
4076 Fog 3 1012 100 1000 1.5 360 21:31 04.01.2021
4077 Mist 3 1012 100 1300 1.5 280 20:44 04.01.2021
4078 Fog 3 1012 100 1600 1.5 280 20:25 04.01.2021
4079 Mist 3 1012 100 2800 1.5 270 19:52 04.01.2021
4080 Mist 3 1012 93 3200 0.5 0 19:25 04.01.2021
4081 Mist 3 1012 93 3200 0.5 0 18:55 04.01.2021
4082 Mist 3 1012 93 3200 1.5 10 18:24 04.01.2021
4083 Drizzle 3 1012 93 3500 1 0 17:44 04.01.2021
4084 Mist 3 1012 93 3500 1 0 17:25 04.01.2021
4085 Mist 3 1012 93 3600 2.1 340 16:47 04.01.2021
4086 Mist 3 1012 93 3600 2.1 340 16:27 04.01.2021
4087 Mist 3 1012 93 3600 2.1 330 15:49 04.01.2021
4088 Mist 3 1012 93 2600 2.1 330 15:28 04.01.2021
4089 Mist 3 1012 93 2600 2.1 330 14:42 04.01.2021
4090 Mist 3 1012 93 4500 2.1 330 13:47 04.01.2021
4091 Mist 3 1013 93 3500 3.1 350 13:24 04.01.2021
4092 Mist 3 1013 100 1800 3.1 320 12:42 04.01.2021
4093 Rain 3 1013 100 1200 2.1 10 11:58 04.01.2021
4094 Drizzle 2 1014 85 2100 2.1 360 11:22 04.01.2021
4095 Rain 2 1014 85 3500 2.1 10 10:49 04.01.2021
4096 Mist 2 1014 86 3500 2.1 10 10:28 04.01.2021
4097 Mist 2 1013 86 3900 2.1 360 09:53 04.01.2021
4098 Mist 2 1013 87 4500 1.5 10 09:22 04.01.2021
4099 Mist 2 1013 87 5000 1.5 340 08:46 04.01.2021
4100 Clouds 1 1013 87 6000 1.5 10 07:58 04.01.2021
4101 Clouds 2 1013 87 9000 2.1 330 07:37 04.01.2021
4102 Clouds 2 1012 80 10000 2.6 340 05:33 04.01.2021
4103 Clouds 2 1012 80 10000 2.1 350 04:30 04.01.2021
4104 Clouds 3 1012 86 10000 2.1 330 00:47 04.01.2021
4105 Clouds 3 1012 86 10000 2.6 30 23:49 03.01.2021
4106 Clouds 3 1012 86 10000 2.6 10 23:24 03.01.2021
4107 Clouds 3 1012 86 10000 2.6 10 22:56 03.01.2021
4108 Clouds 3 1012 86 10000 2.1 350 22:33 03.01.2021
4109 Clouds 3 1012 86 10000 2.1 360 21:56 03.01.2021
4110 Clouds 3 1012 93 10000 2.6 350 21:29 03.01.2021
4111 Clouds 3 1012 93 10000 1 0 20:50 03.01.2021
4112 Clouds 3 1011 86 10000 1 0 20:32 03.01.2021
4113 Clouds 3 1011 93 10000 1 0 19:57 03.01.2021
4114 Clouds 3 1011 93 10000 1 0 19:35 03.01.2021
4115 Clouds 5 1011 86 10000 4.1 140 18:58 03.01.2021
4116 Clouds 5 1011 86 10000 4.1 140 18:39 03.01.2021
4117 Clouds 5 1011 93 10000 3.1 140 18:19 03.01.2021
4118 Clouds 4 1011 93 10000 3.1 140 18:19 03.01.2021
4119 Clouds 4 1010 93 10000 3.6 130 17:48 03.01.2021
4120 Clouds 4 1010 93 10000 3.6 130 17:23 03.01.2021
4121 Clouds 5 1010 87 10000 4.1 120 16:43 03.01.2021
4122 Clouds 6 1010 87 10000 3.1 110 16:20 03.01.2021
4123 Clouds 5 1009 93 10000 4.1 120 15:47 03.01.2021
4124 Clouds 5 1009 93 10000 4.1 120 15:28 03.01.2021
4125 Clouds 5 1009 86 10000 5.1 120 14:57 03.01.2021
4126 Clouds 6 1009 93 10000 6.2 130 14:29 03.01.2021
4127 Clouds 5 1009 86 10000 5.1 120 13:42 03.01.2021
4128 Clouds 5 1009 86 10000 5.1 120 13:23 03.01.2021
4129 Clouds 5 1009 86 10000 6.7 120 12:33 03.01.2021
4130 Clouds 5 1010 80 10000 6.7 130 11:42 03.01.2021
4131 Clouds 5 1010 80 10000 7.2 120 11:24 03.01.2021
4132 Clouds 5 1010 86 10000 4.6 120 10:36 03.01.2021
4133 Clouds 5 1010 86 10000 4.6 120 10:36 03.01.2021
4134 Clouds 5 1010 86 10000 4.6 120 10:36 03.01.2021
4135 Clouds 4 1010 86 10000 6.7 120 10:18 03.01.2021
4136 Clouds 4 1010 86 10000 6.2 120 09:41 03.01.2021
4137 Clouds 4 1009 86 10000 5.7 120 09:22 03.01.2021
4138 Clouds 4 1010 86 10000 6.2 120 07:42 03.01.2021
4139 Rain 4 1009 86 10000 5.1 120 05:58 03.01.2021
4140 Clouds 4 1010 93 10000 5.1 130 02:27 03.01.2021
4141 Clouds 4 1010 93 10000 5.1 120 01:45 03.01.2021
4142 Clouds 4 1011 86 10000 4.6 120 00:19 03.01.2021
4143 Rain 4 1012 93 10000 3.6 120 23:30 02.01.2021
4144 Rain 4 1012 93 10000 4.6 110 22:55 02.01.2021
4145 Clouds 4 1012 93 10000 5.7 130 22:32 02.01.2021
4146 Rain 4 1012 80 10000 4.1 100 21:52 02.01.2021
4147 Rain 4 1012 80 10000 4.1 100 21:32 02.01.2021
4148 Clouds 4 1012 80 10000 4.1 110 20:55 02.01.2021
4149 Clear 4 1012 80 10000 3.6 110 20:36 02.01.2021
4150 Clear 4 1012 80 10000 3.1 120 20:18 02.01.2021
4151 Clear 4 1012 75 10000 4.6 110 19:20 02.01.2021
4152 Clear 4 1012 75 10000 4.6 110 18:58 02.01.2021
4153 Clear 4 1012 80 10000 6.2 120 18:39 02.01.2021
4154 Clouds 4 1019 83 10000 4.86 126 18:19 02.01.2021
4155 Clear 4 1012 86 10000 4.1 120 17:43 02.01.2021
4156 Clear 4 1012 86 10000 3.6 110 16:58 02.01.2021
4157 Clear 4 1012 86 10000 3.6 110 16:23 02.01.2021
4158 Clear 4 1012 86 10000 4.1 110 15:54 02.01.2021
4159 Clear 4 1012 86 10000 4.1 110 15:32 02.01.2021
4160 Clear 4 1012 86 10000 3.6 110 14:55 02.01.2021
4161 Clear 4 1012 86 10000 4.6 120 14:35 02.01.2021
4162 Clear 4 1012 80 10000 5.7 140 13:51 02.01.2021
4163 Clear 4 1012 80 10000 5.7 140 13:22 02.01.2021
4164 Clear 4 1012 80 10000 8.2 140 12:48 02.01.2021
4165 Clear 4 1012 80 10000 8.2 140 12:28 02.01.2021
4166 Clear 3 1013 86 10000 5.7 120 11:44 02.01.2021
4167 Clear 2 1013 80 10000 5.1 130 11:21 02.01.2021
4168 Rain 2 1013 80 10000 5.7 120 10:46 02.01.2021
4169 Snow 2 1013 84 10000 5.7 120 10:28 02.01.2021
4170 Snow 1 1012 84 10000 3.1 120 09:43 02.01.2021
4171 Clear 1 1012 88 10000 6.7 140 09:23 02.01.2021
4172 Clear 0 1012 88 10000 6.7 140 08:49 02.01.2021
4173 Clear 0 1012 100 10000 4.1 130 08:24 02.01.2021
4174 Snow 0 1012 100 10000 5.7 140 07:43 02.01.2021
4175 Clear 0 1012 100 10000 5.7 140 07:20 02.01.2021
4176 Snow 0 1012 92 7000 4.6 120 06:25 02.01.2021
4177 Snow 0 1012 100 5000 2.1 100 04:44 02.01.2021
4178 Snow 0 1012 100 900 1 200 00:55 02.01.2021
4179 Fog 0 1012 100 800 1 190 00:35 02.01.2021
4180 Fog 0 1012 100 750 1.5 240 23:49 01.01.2021
4181 Fog -1 1012 100 800 1.5 240 23:20 01.01.2021
4182 Fog 0 1012 92 900 1.5 270 22:47 01.01.2021
4183 Fog 0 1012 92 900 1.5 270 22:22 01.01.2021
4184 Mist 0 1011 92 4600 1.5 250 21:43 01.01.2021
4185 Mist 0 1011 92 3600 2.1 250 21:22 01.01.2021
4186 Mist 0 1011 92 3600 2.1 250 20:52 01.01.2021
4187 Mist 0 1011 100 5000 2.1 260 20:20 01.01.2021
4188 Clouds -1 1011 100 6000 2.1 210 19:43 01.01.2021
4189 Mist 0 1011 100 4800 3.1 200 19:24 01.01.2021
4190 Mist -1 1011 100 3600 3.6 160 18:57 01.01.2021
4191 Mist -1 1011 100 3600 3.6 160 18:39 01.01.2021
4192 Mist -1 1011 100 1400 2.1 170 18:19 01.01.2021
4193 Mist 0 1011 92 2200 2.6 140 17:41 01.01.2021
4194 Mist 0 1011 100 3400 3.6 130 17:18 01.01.2021
4195 Mist 0 1010 92 3300 4.1 130 16:38 01.01.2021
4196 Mist 0 1010 92 3700 3.6 100 15:56 01.01.2021
4197 Mist 0 1010 92 3600 3.1 100 15:36 01.01.2021
4198 Mist 0 1010 92 5000 2.6 80 14:41 01.01.2021
4199 Clouds 0 1010 100 6000 2.1 100 13:54 01.01.2021
4200 Clouds 0 1009 100 6000 2.1 90 13:54 01.01.2021
4201 Clouds 0 1009 100 6000 2.1 90 13:36 01.01.2021
4202 Mist 0 1010 100 5000 2.1 120 12:47 01.01.2021
4203 Mist 0 1010 100 5000 2.1 120 12:25 01.01.2021
4204 Mist 0 1010 100 1900 1.5 80 11:39 01.01.2021
4205 Mist 0 1010 100 2500 1.5 140 11:18 01.01.2021
4206 Clouds 0 1010 100 1200 1.5 120 10:50 01.01.2021
4207 Fog -1 1009 92 450 1.5 30 09:51 01.01.2021
4208 Fog -1 1009 92 450 1.5 20 09:24 01.01.2021
4209 Fog -1 1009 92 500 1.5 350 08:30 01.01.2021
4210 Fog -2 1008 100 400 2.6 350 06:24 01.01.2021
4211 Fog -2 1008 100 450 1.5 40 04:49 01.01.2021
4212 Fog -2 1007 100 450 2.1 30 01:40 01.01.2021
4213 Fog -1 1007 100 400 2.1 60 00:32 01.01.2021
4214 Fog -1 1008 100 350 1.5 20 23:38 31.12.2020
4215 Fog -1 1008 100 400 1.5 30 23:20 31.12.2020
4216 Fog -1 1008 100 350 1 0 22:42 31.12.2020
4217 Fog -1 1008 100 350 1 0 22:21 31.12.2020
4218 Fog -1 1008 100 350 1 0 21:55 31.12.2020
4219 Fog -1 1008 100 350 2.1 30 21:33 31.12.2020
4220 Fog -1 1008 100 400 2.1 20 20:58 31.12.2020
4221 Clouds 0 1008 100 4900 1 350 20:27 31.12.2020
4222 Clear 1 1004 84 10000 1.01 113 19:50 31.12.2020
4223 Clouds 1 1008 92 7000 0.5 0 19:32 31.12.2020
4224 Mist 1 1008 100 10000 1.5 40 18:53 31.12.2020
4225 Fog 1 1008 83 10000 2.1 80 18:25 31.12.2020
4226 Clear 3 1008 83 10000 2.1 50 17:46 31.12.2020
4227 Clear 3 1008 81 10000 2.1 50 17:28 31.12.2020
4228 Clear 3 1008 81 10000 1.5 60 16:55 31.12.2020
4229 Clear 3 1008 69 10000 1.5 10 16:37 31.12.2020
4230 Clouds 4 1008 65 10000 2.6 350 16:18 31.12.2020
4231 Clouds 6 1008 78 10000 3.1 360 15:42 31.12.2020
4232 Clouds 5 1008 65 10000 3.1 10 15:19 31.12.2020
4233 Clouds 6 1008 72 10000 4.1 340 14:41 31.12.2020
4234 Clouds 6 1008 60 10000 4.1 340 14:22 31.12.2020
4235 Clouds 6 1008 60 10000 4.6 330 13:57 31.12.2020
4236 Clouds 6 1008 60 10000 4.6 330 13:36 31.12.2020
4237 Clouds 6 1008 75 10000 4.6 330 13:18 31.12.2020
4238 Clouds 6 1009 75 10000 3.6 330 12:45 31.12.2020
4239 Clouds 6 1009 75 10000 3.6 330 12:27 31.12.2020
4240 Clear 5 1009 72 10000 2.6 360 11:47 31.12.2020
4241 Clear 5 1009 72 10000 2.6 360 11:47 31.12.2020
4242 Clear 4 1009 93 10000 2.6 10 11:28 31.12.2020
4243 Clear 4 1009 93 10000 2.6 10 11:28 31.12.2020
4244 Clear 4 1009 93 10000 2.6 10 11:28 31.12.2020
4245 Clear 4 1009 93 10000 2.6 10 11:28 31.12.2020
4246 Clear 4 1009 93 10000 2.6 10 11:28 31.12.2020
4247 Clear 4 1009 93 10000 2.6 10 11:28 31.12.2020
4248 Clear 4 1009 93 10000 2.6 10 11:28 31.12.2020
4249 Clear 4 1009 93 10000 2.6 10 11:28 31.12.2020
4250 Clear 4 1009 93 10000 1.5 350 10:41 31.12.2020
4251 Clear 3 1009 80 10000 1.5 30 10:23 31.12.2020
4252 Clouds 3 1005 83 10000 1.34 275 09:48 31.12.2020
4253 Clear 2 1009 86 10000 2.6 340 09:24 31.12.2020
4254 Clear 2 1009 86 10000 1.5 320 08:47 31.12.2020
4255 Clear 2 1009 100 10000 1 350 08:29 31.12.2020
4256 Clear 1 1009 100 10000 1.5 360 07:54 31.12.2020
4257 Clear 1 1009 100 10000 1.5 360 07:24 31.12.2020
4258 Clear 2 1009 100 10000 1 350 05:30 31.12.2020
4259 Clear 1 1009 92 10000 0.5 0 03:36 31.12.2020
4260 Clear 2 1008 90 10000 1.5 350 02:36 31.12.2020
4261 Clear 1 1008 88 10000 3.6 310 01:56 31.12.2020
4262 Clear 2 1008 88 10000 1 320 01:37 31.12.2020
4263 Clear 2 1008 86 10000 0.5 0 00:59 31.12.2020
4264 Clear 2 1008 92 10000 1.5 360 00:39 31.12.2020
4265 Clear 2 1008 87 10000 1 0 23:41 30.12.2020
4266 Clear 2 1008 86 10000 1 50 23:18 30.12.2020
4267 Clear 3 1008 86 10000 0.5 0 22:36 30.12.2020
4268 Clear 3 1007 85 10000 1 90 21:55 30.12.2020
4269 Clear 3 1007 83 10000 1 40 21:28 30.12.2020
4270 Clear 3 1007 83 10000 2.6 80 20:57 30.12.2020
4271 Clear 3 1007 83 10000 2.6 80 20:39 30.12.2020
4272 Clear 3 1007 86 10000 2.1 60 20:19 30.12.2020
4273 Clear 3 1006 82 10000 2.1 310 19:38 30.12.2020
4274 Clear 4 1006 80 10000 3.1 300 19:19 30.12.2020
4275 Clear 4 1006 80 10000 4.1 300 18:41 30.12.2020
4276 Clear 3 1006 86 10000 3.1 280 18:22 30.12.2020
4277 Clear 3 1006 86 10000 3.1 280 17:50 30.12.2020
4278 Clouds 4 1006 80 10000 1.5 210 17:30 30.12.2020
4279 Clouds 4 1006 80 10000 1.5 210 16:52 30.12.2020
4280 Clouds 4 1005 86 10000 0.5 0 16:25 30.12.2020
4281 Clouds 5 1004 93 10000 2.1 110 15:45 30.12.2020
4282 Clouds 5 1004 93 10000 1 0 15:24 30.12.2020
4283 Rain 5 1004 93 10000 2.1 10 14:43 30.12.2020
4284 Rain 5 1004 93 10000 2.1 10 14:22 30.12.2020
4285 Rain 4 1003 86 10000 1 0 13:20 30.12.2020
4286 Rain 4 1004 86 10000 1 0 12:27 30.12.2020
4287 Rain 4 1003 86 10000 2.6 10 11:49 30.12.2020
4288 Rain 4 1003 86 10000 2.6 10 11:23 30.12.2020
4289 Clouds 4 1003 86 10000 3.1 360 10:59 30.12.2020
4290 Clouds 4 1003 86 10000 3.1 360 10:39 30.12.2020
4291 Clouds 3 1003 93 10000 3.1 10 10:20 30.12.2020
4292 Clouds 3 1003 77 10000 3.1 350 09:46 30.12.2020
4293 Clouds 2 1003 81 10000 2.1 360 09:18 30.12.2020
4294 Clouds 2 1002 82 10000 1.5 90 08:23 30.12.2020
4295 Clouds 2 1002 82 10000 2.6 310 07:28 30.12.2020
4296 Clouds 2 1001 93 10000 2.6 320 06:43 30.12.2020
4297 Clouds 2 1001 93 10000 2.1 10 05:50 30.12.2020
4298 Clouds 2 1001 93 10000 2.1 10 05:31 30.12.2020
4299 Clear 3 1000 93 10000 2.6 190 03:45 30.12.2020
4300 Clear 4 1000 86 10000 3.1 160 03:25 30.12.2020
4301 Clouds 4 1000 86 10000 4.6 140 02:36 30.12.2020
4302 Rain 4 1000 86 10000 4.1 160 01:50 30.12.2020
4303 Rain 4 1000 86 10000 4.1 160 01:31 30.12.2020
4304 Clear 4 1000 86 10000 4.1 160 00:47 30.12.2020
4305 Rain 4 1000 86 10000 4.1 160 00:27 30.12.2020
4306 Rain 4 1000 81 10000 5.1 160 23:52 29.12.2020
4307 Clear 4 1000 81 10000 5.1 160 23:34 29.12.2020
4308 Rain 4 1000 81 10000 6.7 160 22:50 29.12.2020
4309 Rain 5 1000 81 10000 6.7 160 22:32 29.12.2020
4310 Rain 5 1000 75 10000 5.7 170 21:59 29.12.2020
4311 Rain 4 1000 81 10000 6.2 150 21:39 29.12.2020
4312 Rain 5 1000 75 10000 5.7 160 21:21 29.12.2020
4313 Clear 4 1000 80 10000 4.6 170 20:44 29.12.2020
4314 Clear 4 1000 80 10000 4.6 160 20:25 29.12.2020
4315 Clear 4 1000 80 10000 3.6 160 19:46 29.12.2020
4316 Clear 5 999 75 10000 5.1 170 19:23 29.12.2020
4317 Clear 5 999 75 10000 5.1 170 19:23 29.12.2020
4318 Clear 5 999 75 10000 5.7 170 18:54 29.12.2020
4319 Clear 4 998 75 10000 5.7 170 18:29 29.12.2020
4320 Clear 5 998 75 10000 5.7 170 17:55 29.12.2020
4321 Clear 5 998 75 10000 6.2 170 17:36 29.12.2020
4322 Clear 5 997 75 10000 6.7 170 17:18 29.12.2020
4323 Clear 5 997 75 10000 5.1 160 16:34 29.12.2020
4324 Clear 7 996 65 10000 6.2 170 15:52 29.12.2020
4325 Clear 7 996 61 10000 6.2 170 15:33 29.12.2020
4326 Clear 10 995 53 10000 5.7 180 14:55 29.12.2020
4327 Clear 10 995 53 10000 5.7 180 14:36 29.12.2020
4328 Clear 8 995 53 10000 8.2 190 14:18 29.12.2020
4329 Clear 7 995 61 10000 5.1 160 13:26 29.12.2020
4330 Clear 7 994 65 10000 4.6 170 12:59 29.12.2020
4331 Clear 7 994 65 10000 4.6 170 12:36 29.12.2020
4332 Clear 7 994 75 10000 4.6 150 12:18 29.12.2020
4333 Clear 6 994 80 10000 4.1 140 11:49 29.12.2020
4334 Clear 5 994 75 10000 2.6 140 11:27 29.12.2020
4335 Clear 4 994 79 10000 2.6 160 10:22 29.12.2020
4336 Clear 3 993 79 10000 1.5 130 09:41 29.12.2020
4337 Clouds 2 1000 86 10000 1.99 141 09:19 29.12.2020
4338 Clouds 3 1000 86 10000 1.99 141 09:19 29.12.2020
4339 Clear 2 992 86 10000 4.1 170 08:49 29.12.2020
4340 Clear 1 992 92 10000 4.1 160 07:44 29.12.2020
4341 Clouds 1 1000 83 10000 0.45 307 07:26 29.12.2020
4342 Clear 2 989 93 10000 3.6 120 05:54 29.12.2020
4343 Rain 3 985 86 10000 2.1 260 02:41 29.12.2020
4344 Rain 4 985 86 10000 3.6 150 00:44 29.12.2020
4345 Rain 5 986 80 10000 2.1 180 23:39 28.12.2020
4346 Clouds 5 985 80 10000 3.1 160 22:56 28.12.2020
4347 Clouds 5 985 80 10000 3.1 160 22:22 28.12.2020
4348 Clouds 5 986 80 10000 4.6 150 21:42 28.12.2020
4349 Clouds 5 993 82 10000 0.89 136 21:21 28.12.2020
4350 Clouds 4 985 80 10000 9.3 140 20:40 28.12.2020
4351 Clouds 4 985 80 10000 7.7 130 20:21 28.12.2020
4352 Clouds 4 986 80 10000 7.2 140 19:42 28.12.2020
4353 Clouds 4 987 86 10000 4.1 130 19:23 28.12.2020
4354 Clouds 4 987 76 10000 6.2 110 18:50 28.12.2020
4355 Clouds 3 987 78 10000 6.2 110 18:28 28.12.2020
4356 Clouds 3 988 78 10000 6.2 130 17:43 28.12.2020
4357 Clouds 3 989 75 10000 7.2 130 17:25 28.12.2020
4358 Clouds 3 989 80 10000 8.7 150 16:43 28.12.2020
4359 Clouds 4 989 80 10000 8.7 150 16:23 28.12.2020
4360 Clouds 3 990 80 10000 9.3 140 15:46 28.12.2020
4361 Clear 3 989 74 10000 11.3 140 14:57 28.12.2020
4362 Rain 4 989 74 10000 10.3 150 13:59 28.12.2020
4363 Rain 4 989 69 10000 11.8 150 13:35 28.12.2020
4364 Clouds 5 985 72 10000 0.89 264 12:55 28.12.2020
4365 Clear 4 988 64 10000 12.9 150 12:24 28.12.2020
4366 Rain 4 989 69 10000 9.8 150 11:47 28.12.2020
4367 Clear 3 989 69 10000 9.8 150 11:25 28.12.2020
4368 Clear 2 989 74 10000 6.7 130 10:49 28.12.2020
4369 Clear 1 989 74 10000 6.7 130 10:28 28.12.2020
4370 Rain 1 989 78 10000 9.8 150 09:49 28.12.2020
4371 Clouds 0 989 85 10000 10.3 150 09:21 28.12.2020
4372 Snow 0 989 85 10000 10.3 150 08:52 28.12.2020
4373 Snow 0 991 90 10000 13.9 160 06:51 28.12.2020
4374 Clouds 0 993 86 10000 9.3 140 04:41 28.12.2020
4375 Clouds 0 995 90 10000 9.8 140 02:59 28.12.2020
4376 Clouds 0 997 92 10000 9.3 140 01:46 28.12.2020
4377 Clouds 0 1000 92 10000 6.7 150 23:50 27.12.2020
4378 Clouds 0 1000 92 10000 8.2 150 23:20 27.12.2020
4379 Clouds 0 1002 92 10000 7.7 140 21:59 27.12.2020
4380 Clouds 0 1002 92 10000 7.7 140 21:27 27.12.2020
4381 Clouds 0 1002 89 10000 9.8 150 20:53 27.12.2020
4382 Clouds 0 1003 80 10000 8.7 160 19:49 27.12.2020
4383 Clouds 0 1004 89 10000 7.2 150 19:23 27.12.2020
4384 Clouds 0 1004 80 10000 9.3 140 18:47 27.12.2020
4385 Clouds 0 1005 80 10000 9.8 140 18:20 27.12.2020
4386 Clouds 0 1005 80 10000 9.8 140 17:52 27.12.2020
4387 Clouds 0 1005 74 10000 10.8 140 17:34 27.12.2020
4388 Clouds 0 1006 85 10000 9.3 140 16:54 27.12.2020
4389 Clouds 0 1007 83 10000 8.7 140 16:21 27.12.2020
4390 Clouds 1 1008 64 10000 7.2 140 15:22 27.12.2020
4391 Clouds 2 1008 64 10000 7.7 140 14:45 27.12.2020
4392 Clouds 2 1008 64 10000 7.7 140 14:27 27.12.2020
4393 Clear 2 1011 64 10000 7.7 130 13:30 27.12.2020
4394 Clear 2 1011 64 10000 7.7 130 12:52 27.12.2020
4395 Clear 2 1012 64 10000 7.2 130 12:24 27.12.2020
4396 Clear 1 1013 71 10000 8.2 140 11:41 27.12.2020
4397 Clear 1 1015 68 10000 7.2 140 10:58 27.12.2020
4398 Clear 0 1021 61 10000 1.79 83 10:39 27.12.2020
4399 Clear 0 1016 74 10000 5.1 140 10:19 27.12.2020
4400 Clear -2 1016 79 10000 5.7 140 08:53 27.12.2020
4401 Clear -2 1016 73 10000 5.7 140 08:28 27.12.2020
4402 Clear -3 1017 79 10000 3.6 150 07:28 27.12.2020
4403 Clear -4 1019 85 10000 2.1 170 05:47 27.12.2020
4404 Clear -3 1019 85 10000 2.1 170 05:21 27.12.2020
4405 Clear -3 1017 77 10000 1.87 149 03:24 27.12.2020
4406 Clear -3 1021 79 10000 2.6 160 01:52 27.12.2020
4407 Clear -2 1023 68 10000 2.6 250 00:26 27.12.2020
4408 Clear -2 1023 68 10000 4.1 290 23:42 26.12.2020
4409 Clear -2 1023 68 10000 3.6 260 23:22 26.12.2020
4410 Clear -2 1024 74 10000 2.6 260 22:41 26.12.2020
4411 Clear -1 1024 63 10000 4.6 280 22:19 26.12.2020
4412 Clear -1 1024 63 10000 4.6 280 21:53 26.12.2020
4413 Clear -1 1024 68 10000 4.1 280 21:24 26.12.2020
4414 Clear 0 1024 89 10000 4.1 290 20:44 26.12.2020
4415 Clear 0 1024 89 10000 4.1 290 20:22 26.12.2020
4416 Clouds 0 1024 88 10000 4.1 290 19:31 26.12.2020
4417 Clouds 0 1024 55 10000 5.1 300 18:57 26.12.2020
4418 Clouds 0 1024 55 10000 5.7 300 18:33 26.12.2020
4419 Clouds 1 1024 51 10000 5.1 320 17:47 26.12.2020
4420 Clouds 1 1024 51 10000 5.1 310 17:28 26.12.2020
4421 Clouds 1 1024 51 10000 5.7 310 16:38 26.12.2020
4422 Clouds 1 1024 51 10000 6.2 320 16:18 26.12.2020
4423 Clouds 2 1024 47 10000 6.7 320 15:21 26.12.2020
4424 Clouds 2 1024 47 10000 7.2 330 14:38 26.12.2020
4425 Clouds 3 1024 44 10000 6.7 320 14:20 26.12.2020
4426 Clouds 3 1024 47 10000 8.2 300 13:38 26.12.2020
4427 Clouds 3 1024 47 10000 8.2 310 13:18 26.12.2020
4428 Clouds 3 1024 47 10000 8.2 310 12:40 26.12.2020
4429 Clouds 3 1024 55 10000 8.2 320 12:19 26.12.2020
4430 Clouds 3 1024 55 10000 8.2 310 11:42 26.12.2020
4431 Clouds 2 1024 55 10000 8.2 310 11:20 26.12.2020
4432 Clouds 2 1024 64 10000 6.2 320 10:47 26.12.2020
4433 Clouds 2 1024 64 10000 6.2 340 10:26 26.12.2020
4434 Clouds 2 1023 69 10000 5.7 320 09:47 26.12.2020
4435 Clouds 1 1023 74 10000 5.7 330 08:55 26.12.2020
4436 Clouds 2 1022 69 10000 7.2 310 08:20 26.12.2020
4437 Clouds 1 1021 74 10000 6.2 310 07:21 26.12.2020
4438 Clouds 1 1021 64 10000 5.7 310 05:52 26.12.2020
4439 Clouds 1 1019 64 10000 6.2 320 02:48 26.12.2020
4440 Clouds 2 1019 74 10000 6.2 330 00:41 26.12.2020
4441 Clouds 2 1019 74 10000 7.2 320 23:58 25.12.2020
4442 Clouds 2 1019 74 10000 6.2 330 23:38 25.12.2020
4443 Clouds 2 1019 86 10000 6.7 330 23:20 25.12.2020
4444 Clouds 2 1018 80 10000 5.7 330 22:37 25.12.2020
4445 Clouds 2 1018 82 10000 6.7 320 21:49 25.12.2020
4446 Clouds 3 1018 81 10000 5.7 320 21:31 25.12.2020
4447 Clouds 3 1017 86 10000 5.7 320 20:48 25.12.2020
4448 Clouds 3 1017 86 10000 5.7 320 20:28 25.12.2020
4449 Clouds 3 1016 86 10000 4.6 310 19:44 25.12.2020
4450 Clouds 3 1016 86 10000 4.1 310 18:58 25.12.2020
4451 Clouds 3 1016 86 10000 5.1 310 18:38 25.12.2020
4452 Clouds 3 1015 86 10000 4.1 310 17:35 25.12.2020
4453 Clouds 3 1015 86 10000 4.1 300 16:58 25.12.2020
4454 Rain 4 1015 86 10000 4.1 300 16:32 25.12.2020
4455 Clouds 4 1015 86 10000 4.6 300 15:57 25.12.2020
4456 Clouds 4 1014 86 10000 5.1 300 15:35 25.12.2020
4457 Rain 4 1014 86 10000 4.6 320 14:46 25.12.2020
4458 Rain 4 1014 80 10000 4.6 310 14:25 25.12.2020
4459 Rain 5 1014 80 10000 5.1 310 13:44 25.12.2020
4460 Rain 5 1014 80 10000 5.1 310 13:25 25.12.2020
4461 Clouds 5 1014 81 10000 4.6 320 12:34 25.12.2020
4462 Clouds 5 1013 75 10000 5.1 330 11:52 25.12.2020
4463 Clouds 5 1013 75 10000 4.6 330 11:29 25.12.2020
4464 Clouds 5 1013 75 10000 4.6 330 10:53 25.12.2020
4465 Clouds 5 1013 73 10000 4.1 320 10:23 25.12.2020
4466 Clear 4 1012 73 10000 3.1 330 09:32 25.12.2020
4467 Clouds 4 1012 74 10000 3.1 310 08:48 25.12.2020
4468 Clouds 3 1012 74 10000 2.1 320 07:58 25.12.2020
4469 Clouds 4 1011 72 10000 2.6 340 06:46 25.12.2020
4470 Clouds 6 1010 75 10000 4.6 330 02:51 25.12.2020
4471 Clouds 7 1009 81 10000 3.1 280 01:41 25.12.2020
4472 Clouds 7 1009 70 10000 5.1 270 00:18 25.12.2020
4473 Clear 7 1009 70 10000 6.2 280 23:23 24.12.2020
4474 Clear 8 1009 66 10000 6.7 290 22:41 24.12.2020
4475 Clear 8 1009 66 10000 6.7 290 22:20 24.12.2020
4476 Clear 8 1009 75 10000 6.7 280 21:34 24.12.2020
4477 Clouds 8 1009 66 10000 5.7 270 20:36 24.12.2020
4478 Clear 8 1009 70 10000 3.6 230 18:51 24.12.2020
4479 Rain 9 1009 66 10000 3.6 260 18:18 24.12.2020
4480 Clouds 9 1009 66 10000 4.6 280 17:37 24.12.2020
4481 Rain 9 1009 66 10000 3.1 280 16:45 24.12.2020
4482 Clouds 9 1009 66 10000 2.1 270 16:22 24.12.2020
4483 Clear 9 1009 70 10000 3.1 280 15:42 24.12.2020
4484 Rain 9 1009 70 10000 4.6 290 15:19 24.12.2020
4485 Clear 9 1010 76 10000 8.2 270 14:49 24.12.2020
4486 Rain 9 1010 76 10000 8.2 270 14:24 24.12.2020
4487 Clouds 9 1010 81 10000 6.2 280 13:43 24.12.2020
4488 Rain 9 1010 93 10000 3.1 270 13:25 24.12.2020
4489 Rain 9 1011 93 10000 2.6 280 12:44 24.12.2020
4490 Rain 9 1011 100 5000 1.5 230 12:21 24.12.2020
4491 Rain 9 1011 93 4300 1 0 11:47 24.12.2020
4492 Rain 8 1011 93 3500 1.5 190 11:20 24.12.2020
4493 Rain 8 1011 93 3500 1.5 190 10:53 24.12.2020
4494 Rain 8 1011 100 3900 1 0 10:34 24.12.2020
4495 Rain 8 1011 93 7000 2.1 170 09:52 24.12.2020
4496 Rain 8 1011 93 7000 2.1 170 09:52 24.12.2020
4497 Rain 8 1011 93 7000 2.1 140 09:25 24.12.2020
4498 Clouds 7 1010 93 6000 3.1 150 08:39 24.12.2020
4499 Clear 6 1011 93 10000 1.5 160 07:42 24.12.2020
4500 Clear 7 1011 93 10000 1.5 160 07:20 24.12.2020
4501 Rain 7 1011 93 10000 1 0 05:40 24.12.2020
4502 Rain 8 1012 93 10000 3.1 150 01:57 24.12.2020
4503 Rain 8 1012 93 10000 2.1 0 01:37 24.12.2020
4504 Rain 8 1013 93 10000 3.1 130 01:18 24.12.2020
4505 Rain 8 1013 93 9000 4.1 100 00:21 24.12.2020
4506 Rain 8 1013 93 10000 1.5 160 23:49 23.12.2020
4507 Rain 8 1013 93 10000 2.1 0 23:30 23.12.2020
4508 Rain 8 1013 93 10000 2.1 0 22:57 23.12.2020
4509 Rain 8 1014 93 10000 3.6 170 22:31 23.12.2020
4510 Rain 8 1014 93 10000 3.6 170 21:57 23.12.2020
4511 Rain 8 1014 93 10000 2.1 200 21:28 23.12.2020
4512 Rain 8 1014 93 10000 4.6 160 20:56 23.12.2020
4513 Rain 8 1014 93 10000 2.6 150 20:37 23.12.2020
4514 Rain 8 1014 93 10000 2.1 160 20:19 23.12.2020
4515 Rain 8 1014 93 10000 4.1 150 19:39 23.12.2020
4516 Rain 9 1014 93 10000 3.6 160 19:20 23.12.2020
4517 Rain 9 1015 93 10000 4.1 160 18:49 23.12.2020
4518 Clear 8 1015 93 10000 2.6 160 18:30 23.12.2020
4519 Clear 9 1015 93 10000 2.6 160 17:42 23.12.2020
4520 Clear 9 1015 93 10000 1.5 150 17:22 23.12.2020
4521 Clear 9 1015 93 10000 3.1 160 16:49 23.12.2020
4522 Clear 9 1016 93 10000 2.6 160 16:30 23.12.2020
4523 Clear 9 1016 93 10000 2.6 160 15:58 23.12.2020
4524 Clear 9 1016 93 10000 0.5 0 15:39 23.12.2020
4525 Clear 9 1016 93 10000 0.5 0 15:20 23.12.2020
4526 Clear 10 1016 93 10000 1.5 160 14:42 23.12.2020
4527 Clear 10 1016 93 10000 2.1 150 14:21 23.12.2020
4528 Clear 10 1016 93 10000 2.1 150 13:45 23.12.2020
4529 Clear 10 1016 93 10000 1.5 170 13:20 23.12.2020
4530 Clear 11 1016 93 10000 3.1 160 12:55 23.12.2020
4531 Clear 10 1016 93 10000 3.1 160 12:31 23.12.2020
4532 Clear 10 1017 87 10000 2.6 0 11:56 23.12.2020
4533 Clear 9 1017 93 10000 4.6 170 11:36 23.12.2020
4534 Clear 9 1018 93 10000 3.6 170 10:56 23.12.2020
4535 Clear 9 1018 93 10000 3.6 170 10:38 23.12.2020
4536 Clear 9 1018 93 10000 2.6 170 09:38 23.12.2020
4537 Clouds 10 1024 87 10000 1.05 208 08:58 23.12.2020
4538 Clouds 9 1018 93 10000 3.1 190 08:33 23.12.2020
4539 Clear 9 1018 93 10000 3.6 170 07:49 23.12.2020
4540 Clouds 10 1015 93 10000 2.65 206 06:53 23.12.2020
4541 Clouds 11 1015 93 10000 3.41 239 06:35 23.12.2020
4542 Clouds 11 1019 93 10000 3.6 200 05:25 23.12.2020
4543 Clouds 10 1019 100 10000 4.1 180 03:56 23.12.2020
4544 Clouds 12 1019 87 10000 5.1 260 00:33 23.12.2020
4545 Clouds 11 1017 95 10000 0.45 256 23:45 22.12.2020
4546 Clouds 11 1017 95 10000 1.34 231 23:26 22.12.2020
4547 Clouds 11 1020 87 10000 2.1 250 22:43 22.12.2020
4548 Clouds 11 1020 87 10000 2.1 250 22:25 22.12.2020
4549 Clouds 11 1020 87 10000 3.6 250 21:54 22.12.2020
4550 Clouds 10 1020 93 10000 4.1 250 21:22 22.12.2020
4551 Clouds 10 1017 95 10000 0.89 246 20:57 22.12.2020
4552 Clouds 10 1017 96 10000 0.45 255 20:38 22.12.2020
4553 Clouds 9 1020 93 8000 4.6 190 20:20 22.12.2020
4554 Clear 9 1020 93 10000 3.1 180 19:42 22.12.2020
4555 Clouds 9 1020 93 9000 2.6 160 19:20 22.12.2020
4556 Clouds 7 1020 93 6000 3.1 170 18:47 22.12.2020
4557 Rain 6 1020 93 6000 3.1 170 18:27 22.12.2020
4558 Rain 7 1020 100 7000 3.6 140 17:50 22.12.2020
4559 Rain 5 1020 100 9000 3.6 140 17:23 22.12.2020
4560 Clouds 5 1020 100 6000 3.6 150 16:54 22.12.2020
4561 Rain 6 1020 100 6000 3.6 150 16:36 22.12.2020
4562 Rain 6 1019 93 7000 4.1 150 16:18 22.12.2020
4563 Clouds 5 1019 93 9000 3.6 150 15:41 22.12.2020
4564 Clouds 5 1019 93 9000 3.6 150 15:18 22.12.2020
4565 Rain 5 1019 93 10000 4.1 150 14:43 22.12.2020
4566 Rain 5 1020 93 6000 4.1 140 14:25 22.12.2020
4567 Clouds 5 1020 93 6000 4.1 140 13:47 22.12.2020
4568 Clouds 4 1020 93 10000 3.6 140 13:19 22.12.2020
4569 Clouds 4 1021 93 10000 3.1 130 12:55 22.12.2020
4570 Clouds 4 1021 93 10000 3.1 130 12:37 22.12.2020
4571 Clouds 4 1021 100 7000 3.1 160 12:18 22.12.2020
4572 Clouds 4 1021 100 7000 4.1 170 11:40 22.12.2020
4573 Clouds 4 1021 93 10000 4.1 190 11:21 22.12.2020
4574 Mist 3 1022 100 2600 4.6 190 10:54 22.12.2020
4575 Clouds 3 1022 93 10000 3.6 190 10:26 22.12.2020
4576 Clouds 3 1022 93 10000 4.6 140 09:58 22.12.2020
4577 Clouds 3 1022 93 10000 2.6 160 09:29 22.12.2020
4578 Rain 3 1022 93 10000 2.6 160 08:53 22.12.2020
4579 Drizzle 3 1022 93 10000 2.6 150 08:34 22.12.2020
4580 Rain 3 1022 93 10000 3.1 170 07:57 22.12.2020
4581 Rain 3 1022 93 10000 4.1 150 07:26 22.12.2020
4582 Clouds 3 1022 93 10000 4.1 150 05:54 22.12.2020
4583 Clouds 3 1023 93 10000 4.6 150 05:25 22.12.2020
4584 Clouds 3 1023 93 10000 7.7 150 02:19 22.12.2020
4585 Clouds 3 1024 93 10000 7.7 140 00:23 22.12.2020
4586 Clouds 3 1025 93 10000 6.2 140 23:43 21.12.2020
4587 Clouds 3 1025 93 10000 6.2 140 23:19 21.12.2020
4588 Clouds 3 1025 93 10000 6.2 140 22:36 21.12.2020
4589 Clouds 3 1025 93 8000 5.7 150 22:18 21.12.2020
4590 Clouds 3 1025 93 8000 6.2 140 21:47 21.12.2020
4591 Clouds 3 1025 93 8000 6.2 140 21:28 21.12.2020
4592 Clouds 3 1026 93 9000 5.7 140 20:45 21.12.2020
4593 Clouds 3 1026 93 10000 4.6 140 20:21 21.12.2020
4594 Clouds 3 1026 93 10000 2.6 130 19:47 21.12.2020
4595 Clouds 3 1026 93 10000 2.6 130 19:47 21.12.2020
4596 Clouds 3 1026 93 10000 2.6 130 19:22 21.12.2020
4597 Clouds 3 1026 93 10000 3.1 130 18:59 21.12.2020
4598 Clouds 3 1026 93 10000 2.6 130 18:41 21.12.2020
4599 Clouds 3 1027 93 10000 2.1 130 18:23 21.12.2020
4600 Clouds 3 1027 93 10000 3.1 150 17:42 21.12.2020
4601 Clouds 3 1027 93 10000 2.6 140 17:23 21.12.2020
4602 Clouds 3 1027 93 10000 2.6 140 16:45 21.12.2020
4603 Clouds 3 1027 93 10000 2.1 120 16:21 21.12.2020
4604 Clouds 4 1027 86 10000 2.1 110 15:43 21.12.2020
4605 Clouds 4 1027 86 10000 2.1 130 14:58 21.12.2020
4606 Clouds 4 1027 86 10000 2.1 130 14:36 21.12.2020
4607 Clouds 4 1027 86 10000 1 0 14:18 21.12.2020
4608 Clouds 4 1027 72 10000 1 0 13:41 21.12.2020
4609 Clouds 4 1027 72 10000 1 0 13:22 21.12.2020
4610 Clouds 4 1028 72 10000 2.6 200 12:42 21.12.2020
4611 Clouds 4 1028 74 10000 2.6 200 12:22 21.12.2020
4612 Clouds 3 1028 74 10000 2.1 200 11:43 21.12.2020
4613 Clouds 3 1028 78 10000 2.1 220 11:23 21.12.2020
4614 Clouds 3 1028 78 10000 2.1 220 11:23 21.12.2020
4615 Clouds 3 1028 78 10000 2.6 210 10:58 21.12.2020
4616 Clouds 3 1028 78 10000 2.6 210 10:40 21.12.2020
4617 Clouds 2 1028 84 10000 2.6 220 09:59 21.12.2020
4618 Clouds 2 1028 84 10000 2.6 220 09:40 21.12.2020
4619 Clouds 2 1028 89 10000 3.1 200 09:22 21.12.2020
4620 Clouds 2 1028 93 10000 3.6 220 08:30 21.12.2020
4621 Clouds 2 1027 94 10000 2.1 240 07:31 21.12.2020
4622 Clouds 2 1027 93 10000 2.6 260 05:50 21.12.2020
4623 Clouds 2 1027 93 10000 2.1 220 04:31 21.12.2020
4624 Drizzle 3 1026 93 6000 3.6 150 00:38 21.12.2020
4625 Drizzle 3 1026 93 5000 4.1 140 23:52 20.12.2020
4626 Drizzle 3 1026 93 4500 4.6 140 23:21 20.12.2020
4627 Drizzle 3 1026 93 5000 5.1 140 22:55 20.12.2020
4628 Drizzle 3 1026 93 5000 5.1 140 22:37 20.12.2020
4629 Drizzle 3 1026 93 4300 5.1 140 22:19 20.12.2020
4630 Drizzle 3 1026 100 4000 5.1 140 21:38 20.12.2020
4631 Drizzle 3 1026 100 3800 5.1 140 21:19 20.12.2020
4632 Drizzle 3 1026 100 4000 5.7 140 20:45 20.12.2020
4633 Drizzle 3 1026 100 4100 6.2 140 20:22 20.12.2020
4634 Drizzle 3 1026 100 4500 5.7 140 19:44 20.12.2020
4635 Drizzle 3 1026 100 4500 5.7 140 19:24 20.12.2020
4636 Drizzle 3 1026 93 4800 6.2 140 18:56 20.12.2020
4637 Drizzle 3 1026 93 4800 6.2 140 18:37 20.12.2020
4638 Drizzle 3 1026 100 4500 5.7 140 17:57 20.12.2020
4639 Drizzle 3 1026 100 4100 5.1 140 17:39 20.12.2020
4640 Drizzle 3 1026 93 4800 5.7 130 17:18 20.12.2020
4641 Drizzle 3 1026 93 4800 5.7 130 16:44 20.12.2020
4642 Drizzle 3 1026 93 4600 5.7 140 16:24 20.12.2020
4643 Drizzle 3 1026 93 4000 4.6 130 15:41 20.12.2020
4644 Drizzle 3 1025 93 4300 5.7 130 15:22 20.12.2020
4645 Drizzle 3 1025 93 4000 5.7 130 14:49 20.12.2020
4646 Drizzle 3 1025 93 10000 4.6 140 14:29 20.12.2020
4647 Drizzle 3 1026 93 5000 5.1 140 13:46 20.12.2020
4648 Drizzle 3 1026 93 9000 5.1 130 13:23 20.12.2020
4649 Drizzle 3 1026 93 9000 5.1 130 12:54 20.12.2020
4650 Drizzle 3 1026 93 10000 4.6 140 12:27 20.12.2020
4651 Drizzle 3 1026 93 9000 4.6 140 11:57 20.12.2020
4652 Drizzle 3 1026 93 9000 4.6 140 11:38 20.12.2020
4653 Drizzle 3 1026 100 9000 5.1 140 10:50 20.12.2020
4654 Drizzle 2 1026 100 5000 5.1 130 10:23 20.12.2020
4655 Drizzle 3 1026 100 5000 5.1 130 09:57 20.12.2020
4656 Drizzle 2 1026 93 6000 4.6 140 09:39 20.12.2020
4657 Drizzle 2 1026 93 6000 4.6 130 09:20 20.12.2020
4658 Drizzle 3 1026 93 10000 4.6 140 08:48 20.12.2020
4659 Drizzle 3 1026 93 10000 4.1 140 08:30 20.12.2020
4660 Drizzle 2 1026 93 6000 4.6 140 07:22 20.12.2020
4661 Drizzle 2 1026 93 7000 4.1 140 05:44 20.12.2020
4662 Drizzle 2 1026 93 4400 3.6 130 01:32 20.12.2020
4663 Drizzle 2 1027 93 3600 5.1 130 00:22 20.12.2020
4664 Drizzle 2 1027 93 3700 4.6 130 23:19 19.12.2020
4665 Drizzle 2 1026 93 3900 4.1 130 22:46 19.12.2020
4666 Drizzle 2 1026 93 4400 4.6 130 22:25 19.12.2020
4667 Drizzle 2 1026 93 4400 4.6 130 21:59 19.12.2020
4668 Drizzle 2 1026 93 4200 4.1 130 21:41 19.12.2020
4669 Drizzle 2 1026 93 4200 4.1 130 21:22 19.12.2020
4670 Drizzle 2 1026 93 6000 4.6 140 20:41 19.12.2020
4671 Drizzle 2 1026 93 4700 5.1 140 20:18 19.12.2020
4672 Drizzle 2 1026 93 4000 5.7 130 19:50 19.12.2020
4673 Drizzle 2 1026 93 4800 5.7 130 19:29 19.12.2020
4674 Drizzle 2 1026 93 5000 6.2 140 18:41 19.12.2020
4675 Clouds 2 1025 93 8000 6.7 140 18:20 19.12.2020
4676 Clouds 2 1025 93 7000 6.7 130 17:46 19.12.2020
4677 Clouds 2 1025 93 7000 6.7 130 17:24 19.12.2020
4678 Clouds 2 1025 93 8000 6.7 130 16:45 19.12.2020
4679 Clouds 2 1025 93 9000 7.2 130 16:26 19.12.2020
4680 Clouds 2 1025 93 8000 7.7 130 15:58 19.12.2020
4681 Clouds 2 1025 93 8000 7.7 130 15:39 19.12.2020
4682 Clouds 2 1025 100 8000 7.7 130 14:43 19.12.2020
4683 Clouds 2 1025 100 10000 7.2 130 14:22 19.12.2020
4684 Clouds 2 1025 93 10000 7.7 140 13:41 19.12.2020
4685 Clouds 2 1025 78 10000 8.7 140 13:20 19.12.2020
4686 Clouds 2 1025 78 10000 8.7 130 12:44 19.12.2020
4687 Clouds 2 1025 80 10000 8.7 130 12:26 19.12.2020
4688 Clouds 2 1026 80 10000 8.2 140 11:58 19.12.2020
4689 Clouds 2 1026 80 10000 8.2 140 11:40 19.12.2020
4690 Clouds 2 1026 81 8000 7.7 140 10:45 19.12.2020
4691 Clouds 2 1026 83 8000 7.7 140 10:27 19.12.2020
4692 Clouds 2 1026 83 7000 7.2 140 09:58 19.12.2020
4693 Clouds 2 1027 83 9000 7.2 130 09:38 19.12.2020
4694 Drizzle 2 1026 86 9000 6.2 130 08:52 19.12.2020
4695 Drizzle 2 1026 88 6000 6.2 130 07:55 19.12.2020
4696 Drizzle 1 1026 90 6000 6.7 130 07:18 19.12.2020
4697 Drizzle 2 1026 90 7000 6.7 140 06:39 19.12.2020
4698 Drizzle 1 1027 91 8000 6.7 150 05:19 19.12.2020
4699 Drizzle 1 1027 90 7000 7.2 140 03:29 19.12.2020
4700 Drizzle 1 1028 89 2900 5.1 130 00:41 19.12.2020
4701 Drizzle 1 1028 88 2100 4.1 130 00:19 19.12.2020
4702 Drizzle 1 1029 88 2500 4.6 150 23:48 18.12.2020
4703 Drizzle 1 1029 89 2500 4.6 150 23:24 18.12.2020
4704 Drizzle 1 1028 89 2700 5.7 140 22:48 18.12.2020
4705 Drizzle 1 1028 89 2700 5.7 140 22:24 18.12.2020
4706 Drizzle 1 1029 89 1800 5.1 130 21:51 18.12.2020
4707 Drizzle 1 1029 90 1800 5.1 130 21:31 18.12.2020
4708 Drizzle 2 1029 100 2300 4.6 140 20:44 18.12.2020
4709 Drizzle 2 1029 100 2200 4.6 150 20:23 18.12.2020
4710 Drizzle 2 1029 100 1600 3.6 150 19:47 18.12.2020
4711 Drizzle 1 1029 100 2200 4.1 150 19:23 18.12.2020
4712 Drizzle 2 1029 100 2100 4.1 140 18:45 18.12.2020
4713 Drizzle 2 1029 100 2100 4.1 140 18:26 18.12.2020
4714 Mist 2 1029 93 1100 3.1 160 17:50 18.12.2020
4715 Mist 2 1029 93 1800 3.1 150 17:20 18.12.2020
4716 Mist 3 1029 93 1500 3.1 150 16:45 18.12.2020
4717 Mist 3 1029 100 1800 3.6 150 16:21 18.12.2020
4718 Mist 3 1029 100 2600 1.5 110 15:52 18.12.2020
4719 Mist 3 1029 100 2600 1.5 110 15:34 18.12.2020
4720 Mist 3 1029 100 5000 1.5 110 14:57 18.12.2020
4721 Clouds 3 1029 93 6000 1 0 14:26 18.12.2020
4722 Clouds 3 1029 93 6000 1 0 13:53 18.12.2020
4723 Clouds 4 1029 93 6000 1 0 13:33 18.12.2020
4724 Clouds 4 1029 93 8000 0.5 0 12:58 18.12.2020
4725 Clouds 3 1029 93 10000 0.5 0 12:38 18.12.2020
4726 Clouds 3 1030 93 9000 1.5 140 11:29 18.12.2020
4727 Clouds 3 1029 93 6000 1 0 10:45 18.12.2020
4728 Clouds 3 1029 93 6000 1 0 10:24 18.12.2020
4729 Clouds 3 1029 93 6000 1 0 10:00 18.12.2020
4730 Mist 3 1029 100 6000 1.5 200 09:37 18.12.2020
4731 Mist 2 1029 100 5000 2.1 240 09:19 18.12.2020
4732 Mist 2 1029 100 2500 2.6 230 08:46 18.12.2020
4733 Mist 2 1029 93 2400 2.1 230 08:20 18.12.2020
4734 Mist 3 1029 93 1900 2.1 230 07:20 18.12.2020
4735 Mist 3 1029 93 1900 2.1 230 06:59 18.12.2020
4736 Mist 2 1028 100 2500 2.1 220 05:45 18.12.2020
4737 Mist 2 1028 100 2500 2.1 220 05:23 18.12.2020
4738 Mist 2 1028 93 3100 2.1 230 04:42 18.12.2020
4739 Clouds 2 1028 93 7000 1 150 01:47 18.12.2020
4740 Clouds 3 1028 93 6000 1 140 00:31 18.12.2020
4741 Clouds 3 1028 93 7000 1.5 160 23:53 17.12.2020
4742 Clouds 3 1028 93 6000 1 190 23:25 17.12.2020
4743 Clouds 2 1028 93 6000 1.5 180 22:49 17.12.2020
4744 Clouds 2 1028 93 6000 1.5 180 22:28 17.12.2020
4745 Clouds 2 1028 93 6000 1.5 180 21:46 17.12.2020
4746 Clouds 2 1028 93 6000 1 140 21:22 17.12.2020
4747 Clouds 2 1028 93 6000 1 140 20:55 17.12.2020
4748 Clouds 3 1027 93 8000 1.5 160 20:36 17.12.2020
4749 Clouds 3 1027 93 8000 1.5 160 20:18 17.12.2020
4750 Clouds 3 1027 93 9000 1.5 160 19:41 17.12.2020
4751 Clouds 3 1027 93 9000 0.5 0 19:22 17.12.2020
4752 Clouds 3 1027 93 10000 0.5 0 18:41 17.12.2020
4753 Clouds 3 1027 93 10000 0.5 0 18:21 17.12.2020
4754 Clouds 3 1026 93 10000 1 160 17:49 17.12.2020
4755 Clouds 3 1026 93 10000 1 160 17:31 17.12.2020
4756 Clouds 3 1026 93 10000 0.5 0 16:42 17.12.2020
4757 Clouds 3 1026 93 10000 0.5 0 16:23 17.12.2020
4758 Clouds 3 1026 93 10000 0.5 0 15:52 17.12.2020
4759 Clouds 3 1026 93 10000 0.5 0 15:30 17.12.2020
4760 Clouds 3 1026 93 10000 0.5 0 14:54 17.12.2020
4761 Clouds 3 1026 71 10000 1 0 14:30 17.12.2020
4762 Clouds 4 1026 71 10000 1 0 13:51 17.12.2020
4763 Clouds 3 1026 71 10000 1 0 13:28 17.12.2020
4764 Clouds 3 1026 73 10000 1 0 12:44 17.12.2020
4765 Clouds 3 1026 75 10000 2.1 180 12:25 17.12.2020
4766 Clouds 3 1026 75 10000 1 0 11:45 17.12.2020
4767 Clouds 3 1026 77 10000 2.1 160 11:24 17.12.2020
4768 Clouds 3 1026 77 10000 2.1 160 10:55 17.12.2020
4769 Clouds 3 1025 81 10000 2.6 140 10:18 17.12.2020
4770 Clouds 2 1025 93 10000 1.5 140 09:26 17.12.2020
4771 Clouds 3 1025 93 10000 1 0 07:54 17.12.2020
4772 Clouds 2 1024 86 10000 1.5 140 07:35 17.12.2020
4773 Clouds 2 1024 87 10000 1.5 120 06:54 17.12.2020
4774 Clouds 2 1024 93 8000 1 140 06:32 17.12.2020
4775 Clouds 2 1024 93 8000 1.5 130 05:58 17.12.2020
4776 Mist 2 1024 93 3900 1 90 00:38 17.12.2020
4777 Clouds 2 1024 93 6000 1 70 23:54 16.12.2020
4778 Clouds 2 1024 93 7000 1.5 60 23:21 16.12.2020
4779 Clouds 3 1024 93 7000 1.5 60 22:56 16.12.2020
4780 Clouds 3 1024 93 8000 1.5 70 22:35 16.12.2020
4781 Clouds 2 1024 93 10000 1.5 120 21:52 16.12.2020
4782 Clouds 2 1024 93 10000 1.5 120 21:34 16.12.2020
4783 Clouds 3 1024 93 9000 2.1 110 20:56 16.12.2020
4784 Clouds 3 1024 93 9000 2.1 110 20:37 16.12.2020
4785 Clouds 3 1024 93 8000 1.5 110 20:18 16.12.2020
4786 Rain 3 1024 93 9000 2.1 120 19:20 16.12.2020
4787 Rain 3 1024 93 9000 2.1 120 18:54 16.12.2020
4788 Rain 3 1024 93 8000 1.5 130 18:29 16.12.2020
4789 Rain 3 1023 93 9000 1.5 120 17:47 16.12.2020
4790 Clouds 3 1023 93 9000 1.5 120 17:28 16.12.2020
4791 Clouds 3 1023 86 10000 2.1 110 16:40 16.12.2020
4792 Clouds 3 1023 86 10000 2.1 110 16:21 16.12.2020
4793 Clouds 3 1023 86 10000 2.6 100 15:51 16.12.2020
4794 Clouds 3 1023 86 10000 2.6 100 15:28 16.12.2020
4795 Clouds 3 1023 86 10000 2.6 100 14:47 16.12.2020
4796 Clouds 3 1023 86 10000 2.6 100 14:28 16.12.2020
4797 Clouds 3 1023 93 9000 2.6 80 13:49 16.12.2020
4798 Clouds 3 1023 93 9000 2.6 90 13:30 16.12.2020
4799 Clouds 3 1023 93 9000 2.6 90 12:56 16.12.2020
4800 Clouds 3 1023 93 9000 2.6 90 12:35 16.12.2020
4801 Drizzle 3 1023 93 5000 2.1 100 11:40 16.12.2020
4802 Clouds 3 1023 93 7000 2.6 110 11:22 16.12.2020
4803 Mist 3 1023 93 4900 3.1 120 10:49 16.12.2020
4804 Mist 2 1023 93 4900 3.1 120 10:25 16.12.2020
4805 Mist 3 1023 93 4100 3.1 130 09:42 16.12.2020
4806 Mist 3 1022 93 4000 3.6 130 08:36 16.12.2020
4807 Mist 3 1022 93 3900 3.1 130 07:57 16.12.2020
4808 Mist 3 1022 93 4300 3.6 120 07:38 16.12.2020
4809 Mist 2 1022 93 4400 2.6 120 06:52 16.12.2020
4810 Clouds 3 1021 93 7000 3.6 140 02:26 16.12.2020
4811 Clouds 3 1021 93 8000 4.6 140 00:26 16.12.2020
4812 Clouds 3 1021 86 8000 4.6 140 23:44 15.12.2020
4813 Clouds 3 1020 86 8000 5.7 130 22:47 15.12.2020
4814 Clouds 3 1020 86 10000 6.2 140 22:25 15.12.2020
4815 Clouds 3 1020 86 10000 6.2 140 21:57 15.12.2020
4816 Clouds 3 1020 86 10000 6.2 140 21:37 15.12.2020
4817 Clouds 3 1020 86 10000 5.7 150 21:19 15.12.2020
4818 Clouds 3 1020 86 10000 7.2 140 20:44 15.12.2020
4819 Clouds 3 1020 86 10000 8.2 140 20:25 15.12.2020
4820 Clouds 3 1019 86 10000 9.3 140 19:51 15.12.2020
4821 Clouds 3 1019 81 10000 9.8 140 19:26 15.12.2020
4822 Clouds 3 1019 81 10000 9.8 140 18:39 15.12.2020
4823 Clouds 3 1019 80 10000 9.3 140 18:21 15.12.2020
4824 Clouds 3 1019 80 10000 9.3 140 18:21 15.12.2020
4825 Clouds 3 1019 80 10000 8.7 140 17:44 15.12.2020
4826 Clouds 3 1019 78 10000 8.7 140 17:23 15.12.2020
4827 Clouds 3 1018 78 10000 9.8 140 16:39 15.12.2020
4828 Clouds 3 1018 86 10000 10.3 140 16:21 15.12.2020
4829 Clouds 4 1018 86 10000 10.8 130 15:37 15.12.2020
4830 Clouds 4 1018 86 10000 10.3 140 15:18 15.12.2020
4831 Clouds 4 1018 86 10000 9.8 140 14:41 15.12.2020
4832 Clouds 4 1018 86 10000 9.8 140 14:41 15.12.2020
4833 Clouds 4 1018 86 10000 9.3 130 14:19 15.12.2020
4834 Clouds 4 1018 86 10000 10.3 140 13:49 15.12.2020
4835 Clouds 4 1018 86 10000 10.3 140 13:24 15.12.2020
4836 Clouds 4 1019 80 10000 9.3 140 12:46 15.12.2020
4837 Clouds 4 1019 67 10000 10.3 140 12:19 15.12.2020
4838 Clouds 4 1019 86 10000 10.3 140 11:52 15.12.2020
4839 Clouds 4 1019 86 10000 9.8 140 11:23 15.12.2020
4840 Clouds 4 1019 86 10000 10.3 140 10:49 15.12.2020
4841 Clouds 3 1019 86 10000 9.8 140 10:20 15.12.2020
4842 Clouds 3 1018 86 10000 10.8 140 09:44 15.12.2020
4843 Clouds 3 1018 86 10000 10.8 140 09:26 15.12.2020
4844 Clouds 3 1018 86 10000 9.8 140 08:46 15.12.2020
4845 Clouds 3 1018 86 10000 9.8 140 08:24 15.12.2020
4846 Clouds 3 1018 86 10000 9.8 140 07:47 15.12.2020
4847 Clouds 3 1018 93 10000 9.3 140 07:18 15.12.2020
4848 Clouds 2 1018 93 7000 9.8 140 05:55 15.12.2020
4849 Clouds 2 1019 93 6000 9.3 130 00:54 15.12.2020
4850 Clouds 2 1019 93 8000 6.7 130 23:54 14.12.2020
4851 Clouds 3 1019 93 8000 6.7 130 23:21 14.12.2020
4852 Clouds 3 1019 86 9000 7.2 130 22:44 14.12.2020
4853 Clouds 3 1019 86 9000 7.2 130 22:26 14.12.2020
4854 Clouds 3 1019 86 8000 4.6 110 21:42 14.12.2020
4855 Clouds 3 1019 86 8000 4.6 120 21:19 14.12.2020
4856 Clouds 3 1019 93 7000 4.6 110 20:48 14.12.2020
4857 Clouds 3 1019 93 7000 4.6 110 20:28 14.12.2020
4858 Clouds 2 1019 93 6000 3.6 120 19:49 14.12.2020
4859 Clouds 3 1019 93 6000 3.6 120 19:28 14.12.2020
4860 Clouds 3 1019 86 8000 4.6 110 18:44 14.12.2020
4861 Clouds 3 1019 86 8000 4.6 110 18:24 14.12.2020
4862 Clouds 4 1019 86 10000 4.1 110 17:45 14.12.2020
4863 Clouds 4 1019 80 10000 3.6 110 17:22 14.12.2020
4864 Clouds 5 1019 80 10000 3.6 110 16:50 14.12.2020
4865 Clouds 5 1018 75 10000 3.6 130 16:28 14.12.2020
4866 Clouds 7 1018 75 10000 2.6 120 15:33 14.12.2020
4867 Clouds 7 1018 75 10000 2.6 140 14:54 14.12.2020
4868 Clouds 7 1018 75 10000 2.6 140 14:36 14.12.2020
4869 Clouds 7 1018 65 10000 3.1 160 14:18 14.12.2020
4870 Clouds 7 1018 70 10000 2.1 150 13:39 14.12.2020
4871 Clouds 7 1019 75 10000 2.1 170 13:18 14.12.2020
4872 Clouds 7 1019 81 10000 2.1 170 12:44 14.12.2020
4873 Clouds 7 1019 81 10000 2.6 190 12:23 14.12.2020
4874 Clouds 6 1019 81 10000 3.1 200 11:31 14.12.2020
4875 Clouds 6 1019 93 10000 2.6 170 10:37 14.12.2020
4876 Clouds 5 1019 93 10000 2.1 170 10:19 14.12.2020
4877 Clouds 4 1019 93 9000 2.1 170 09:29 14.12.2020
4878 Clouds 2 1018 91 10000 1 140 08:46 14.12.2020
4879 Clouds 2 1018 92 10000 1 140 08:27 14.12.2020
4880 Clouds 3 1018 93 10000 0.5 0 07:27 14.12.2020
4881 Clouds 3 1018 93 10000 0.5 0 06:44 14.12.2020
4882 Clouds 5 1017 86 10000 2.6 320 04:28 14.12.2020
4883 Clouds 4 1016 86 10000 2.6 340 02:26 14.12.2020
4884 Clouds 5 1016 86 10000 3.1 330 00:54 14.12.2020
4885 Clouds 5 1016 86 10000 2.6 330 00:31 14.12.2020
4886 Clouds 5 1016 86 10000 2.6 320 23:46 13.12.2020
4887 Clouds 5 1016 86 10000 2.6 320 23:46 13.12.2020
4888 Clouds 5 1016 86 10000 2.6 320 23:24 13.12.2020
4889 Clouds 5 1016 86 10000 2.6 330 22:45 13.12.2020
4890 Clouds 5 1015 86 10000 3.1 340 22:18 13.12.2020
4891 Clouds 5 1015 86 10000 2.6 360 21:42 13.12.2020
4892 Clouds 4 1015 86 10000 2.6 10 21:23 13.12.2020
4893 Clouds 4 1015 80 10000 2.1 10 20:35 13.12.2020
4894 Clouds 5 1015 86 10000 2.6 20 19:53 13.12.2020
4895 Clouds 5 1014 86 10000 1.5 360 19:32 13.12.2020
4896 Clouds 5 1014 86 10000 2.1 350 18:58 13.12.2020
4897 Clouds 5 1014 86 10000 2.1 360 18:39 13.12.2020
4898 Clouds 4 1014 86 10000 1.5 10 18:19 13.12.2020
4899 Clouds 5 1014 86 10000 2.1 10 17:46 13.12.2020
4900 Clouds 4 1013 86 10000 2.1 20 17:21 13.12.2020
4901 Clouds 4 1013 86 10000 3.6 360 16:54 13.12.2020
4902 Clouds 5 1013 86 10000 3.6 360 16:36 13.12.2020
4903 Clouds 5 1013 86 10000 3.1 10 15:57 13.12.2020
4904 Clouds 5 1013 80 10000 3.6 360 15:38 13.12.2020
4905 Clouds 5 1012 80 10000 3.6 360 15:18 13.12.2020
4906 Clouds 5 1012 75 10000 3.6 350 14:42 13.12.2020
4907 Clouds 5 1012 75 10000 3.6 350 14:19 13.12.2020
4908 Clouds 6 1012 75 10000 3.6 360 13:42 13.12.2020
4909 Clouds 6 1012 80 10000 3.6 360 13:22 13.12.2020
4910 Clouds 6 1012 75 10000 3.6 360 13:22 13.12.2020
4911 Clouds 5 1012 80 10000 3.1 360 12:42 13.12.2020
4912 Clouds 5 1012 75 10000 3.1 360 12:22 13.12.2020
4913 Clouds 4 1012 75 10000 2.6 350 11:36 13.12.2020
4914 Clouds 4 1012 86 10000 2.6 340 10:52 13.12.2020
4915 Clouds 4 1012 86 10000 2.6 340 10:34 13.12.2020
4916 Clouds 3 1011 86 10000 2.1 340 09:54 13.12.2020
4917 Clouds 2 1011 93 10000 1 360 08:58 13.12.2020
4918 Clouds 2 1010 93 10000 1 330 08:33 13.12.2020
4919 Clouds 2 1010 93 10000 0.5 0 07:35 13.12.2020
4920 Clouds 2 1008 93 10000 0.5 0 04:29 13.12.2020
4921 Clouds 2 1008 93 10000 0.5 0 02:41 13.12.2020
4922 Clouds 2 1008 93 10000 1.5 140 01:57 13.12.2020
4923 Clouds 2 1008 93 10000 1.5 130 00:49 13.12.2020
4924 Clouds 2 1008 93 10000 1.5 160 23:55 12.12.2020
4925 Clouds 2 1007 93 10000 2.6 140 23:31 12.12.2020
4926 Clouds 2 1007 93 10000 2.6 140 22:49 12.12.2020
4927 Clouds 2 1007 93 10000 2.6 140 21:59 12.12.2020
4928 Clouds 2 1007 93 10000 3.1 140 21:34 12.12.2020
4929 Clouds 2 1006 93 10000 2.6 140 20:55 12.12.2020
4930 Clouds 2 1006 93 10000 3.6 140 20:29 12.12.2020
4931 Clouds 2 1006 93 10000 3.6 140 19:57 12.12.2020
4932 Clouds 2 1006 93 10000 3.6 140 19:39 12.12.2020
4933 Clouds 2 1005 93 10000 4.1 140 19:20 12.12.2020
4934 Clouds 2 1005 93 10000 4.1 140 18:42 12.12.2020
4935 Clouds 3 1004 93 10000 5.1 130 18:23 12.12.2020
4936 Clouds 3 1004 93 7000 5.7 130 17:47 12.12.2020
4937 Clouds 3 1004 93 10000 5.1 130 16:56 12.12.2020
4938 Clouds 3 1003 86 10000 6.7 130 16:21 12.12.2020
4939 Clouds 3 1003 86 10000 6.2 130 15:45 12.12.2020
4940 Clouds 4 1002 93 10000 7.2 140 15:27 12.12.2020
4941 Clouds 3 1002 93 10000 6.7 130 14:48 12.12.2020
4942 Clouds 4 1002 86 10000 6.7 130 13:56 12.12.2020
4943 Clouds 3 1002 93 10000 6.7 130 13:37 12.12.2020
4944 Clouds 4 1002 93 10000 6.2 140 12:58 12.12.2020
4945 Clouds 3 1002 93 10000 6.7 140 11:48 12.12.2020
4946 Clouds 4 1002 86 10000 7.7 140 10:53 12.12.2020
4947 Clouds 3 1001 100 8000 7.2 140 09:46 12.12.2020
4948 Clouds 3 1001 100 7000 7.2 140 08:54 12.12.2020
4949 Clouds 3 1001 93 10000 8.2 140 02:56 12.12.2020
4950 Clouds 3 1001 93 10000 8.7 140 23:55 11.12.2020
4951 Clouds 3 1002 93 10000 8.7 150 22:30 11.12.2020
4952 Clouds 3 1002 93 9000 9.3 150 20:48 11.12.2020
4953 Clouds 3 1002 86 10000 10.3 140 18:26 11.12.2020
4954 Clouds 4 1003 86 10000 10.3 140 15:54 11.12.2020
4955 Clouds 4 1003 86 10000 8.2 140 14:18 11.12.2020
4956 Clouds 4 1004 86 10000 7.7 140 13:25 11.12.2020
4957 Clouds 3 1006 93 10000 7.7 150 12:19 11.12.2020
4958 Clouds 3 1006 93 10000 5.7 140 11:51 11.12.2020
4959 Clouds 3 1007 93 10000 6.2 140 10:46 11.12.2020
4960 Clouds 2 1007 93 10000 5.1 140 08:53 11.12.2020
4961 Clouds 2 1007 93 6000 2.6 130 05:43 11.12.2020
4962 Mist 2 1007 100 7000 2.6 130 05:18 11.12.2020
4963 Mist 1 1008 90 2500 1.5 40 02:18 11.12.2020
4964 Rain 1 1008 93 3200 1.5 60 00:31 11.12.2020
4965 Mist 1 1008 93 3600 1 60 22:55 10.12.2020
4966 Mist 1 1008 93 3400 0.5 0 21:36 10.12.2020
4967 Snow 1 1008 94 2500 1 180 20:46 10.12.2020
4968 Mist 1 1007 94 2100 1 140 19:44 10.12.2020
4969 Snow 1 1007 90 3500 1.5 60 18:57 10.12.2020
4970 Rain 1 1006 88 4400 2.1 50 18:24 10.12.2020
4971 Snow 2 1006 88 2600 1.5 50 16:40 10.12.2020
4972 Rain 2 1005 89 4600 2.1 20 15:44 10.12.2020
4973 Rain 2 1005 100 6000 2.1 10 14:58 10.12.2020
4974 Rain 3 1005 93 9000 2.6 350 14:37 10.12.2020
4975 Rain 3 1005 93 9000 3.1 10 13:20 10.12.2020
4976 Rain 3 1005 93 10000 3.1 340 11:41 10.12.2020
4977 Clouds 2 1006 93 10000 3.6 320 08:57 10.12.2020
4978 Rain 2 1006 93 10000 2.6 330 07:51 10.12.2020
4979 Rain 2 1006 86 10000 2.6 330 06:42 10.12.2020
4980 Rain 2 1007 93 8000 4.1 310 03:40 10.12.2020
4981 Rain 3 1007 93 10000 5.7 290 02:24 10.12.2020
4982 Rain 4 1008 93 6000 2.6 310 00:23 10.12.2020
4983 Clouds 4 1009 93 6000 1.5 310 22:48 09.12.2020
4984 Rain 4 1008 93 5000 2.1 200 20:30 09.12.2020
4985 Clouds 4 1008 86 10000 1.5 170 19:34 09.12.2020
4986 Rain 5 1008 86 10000 2.1 270 17:44 09.12.2020
4987 Clouds 5 1008 80 10000 2.6 140 16:52 09.12.2020
4988 Clouds 5 1008 75 10000 2.1 120 16:23 09.12.2020
4989 Clouds 5 1008 80 10000 2.1 120 15:31 09.12.2020
4990 Clouds 5 1008 75 10000 3.1 100 14:40 09.12.2020
4991 Clouds 5 1008 80 10000 2.6 120 14:18 09.12.2020
4992 Clouds 5 1009 80 10000 3.1 110 13:19 09.12.2020
4993 Clouds 4 1009 80 10000 3.1 110 12:45 09.12.2020
4994 Clouds 4 1009 80 10000 3.6 110 11:53 09.12.2020
4995 Clouds 4 1010 80 10000 4.6 100 10:59 09.12.2020
4996 Clouds 3 1010 86 10000 5.1 110 09:38 09.12.2020
4997 Clouds 4 1009 86 10000 5.7 110 07:43 09.12.2020
4998 Clouds 4 1009 80 10000 5.7 100 05:55 09.12.2020
4999 Clouds 4 1009 86 10000 6.2 100 03:54 09.12.2020
5000 Clouds 5 1009 80 10000 6.2 110 01:56 09.12.2020
5001 Clouds 5 1010 80 10000 7.2 120 23:44 08.12.2020
5002 Clouds 5 1010 80 10000 7.2 120 23:18 08.12.2020
5003 Clouds 5 1010 80 10000 5.7 120 21:28 08.12.2020
5004 Clouds 4 1010 86 10000 7.2 120 19:40 08.12.2020
5005 Clouds 4 1010 86 10000 7.7 120 18:59 08.12.2020
5006 Clouds 4 1010 86 7000 7.2 120 17:55 08.12.2020
5007 Clouds 5 1009 86 10000 5.7 120 15:51 08.12.2020
5008 Clouds 4 1009 86 10000 7.2 130 14:31 08.12.2020
5009 Mist 4 1009 93 5000 7.7 140 13:35 08.12.2020
5010 Mist 5 1010 93 4300 7.2 140 12:29 08.12.2020
5011 Clouds 5 1010 93 7000 9.3 150 11:52 08.12.2020
5012 Clouds 5 1009 93 7000 7.2 140 10:49 08.12.2020
5013 Clouds 4 1009 93 7000 7.2 140 10:29 08.12.2020
5014 Clouds 5 1009 93 10000 8.2 140 08:53 08.12.2020
5015 Clouds 4 1007 93 9000 9.3 140 07:18 08.12.2020
5016 Clouds 5 1007 93 7000 7.7 140 03:43 08.12.2020
5017 Clouds 5 1007 93 8000 7.2 130 00:48 08.12.2020
5018 Clouds 5 1008 93 10000 6.2 140 00:25 08.12.2020
5019 Clouds 6 1008 93 10000 6.2 130 22:43 07.12.2020
5020 Clouds 6 1007 93 10000 6.7 120 21:58 07.12.2020
5021 Clouds 6 1007 87 10000 6.7 120 20:32 07.12.2020
5022 Clouds 7 1007 87 10000 5.7 120 18:47 07.12.2020
5023 Clouds 7 1006 81 10000 4.6 110 17:29 07.12.2020
5024 Clouds 7 1006 87 10000 4.6 130 16:56 07.12.2020
5025 Clouds 7 1006 81 10000 6.2 140 15:57 07.12.2020
5026 Clouds 8 1005 87 10000 5.7 130 15:23 07.12.2020
5027 Clouds 8 1005 87 10000 6.2 130 14:24 07.12.2020
5028 Clouds 7 1005 87 10000 7.2 130 13:33 07.12.2020
5029 Clouds 7 1005 87 10000 5.7 130 11:46 07.12.2020
5030 Clouds 7 1005 87 10000 5.7 130 11:27 07.12.2020
5031 Clouds 7 1005 87 10000 5.1 140 10:20 07.12.2020
5032 Clouds 6 1004 87 10000 6.7 140 08:30 07.12.2020
5033 Clouds 6 1002 87 10000 6.7 120 06:51 07.12.2020
5034 Clouds 6 1002 87 10000 8.2 120 05:21 07.12.2020
5035 Clouds 7 1002 81 10000 8.7 110 01:57 07.12.2020
5036 Clouds 7 1003 81 10000 9.3 120 00:31 07.12.2020
5037 Clouds 8 1003 75 10000 6.7 110 22:45 06.12.2020
5038 Rain 8 1004 81 10000 5.1 110 21:32 06.12.2020
5039 Clouds 8 1004 81 10000 6.7 110 20:34 06.12.2020
5040 Clouds 8 1004 81 10000 6.2 110 19:57 06.12.2020
5041 Clouds 8 1004 81 10000 5.1 90 18:52 06.12.2020
5042 Clouds 9 1005 81 10000 5.1 90 17:23 06.12.2020
5043 Clouds 9 1006 81 10000 4.1 90 15:53 06.12.2020
5044 Clouds 9 1006 81 10000 5.7 100 14:21 06.12.2020
5045 Clouds 9 1006 81 10000 4.6 100 12:52 06.12.2020
5046 Clouds 9 1007 81 10000 4.6 110 12:27 06.12.2020
5047 Clouds 9 1008 87 10000 4.6 120 11:37 06.12.2020
5048 Clouds 8 1008 87 10000 6.7 120 11:18 06.12.2020
5049 Clouds 8 1008 81 10000 5.1 120 10:31 06.12.2020
5050 Clouds 7 1008 87 10000 6.2 120 08:49 06.12.2020
5051 Clouds 7 1008 87 10000 4.6 120 06:53 06.12.2020
5052 Clear 7 1007 81 10000 5.7 120 02:40 06.12.2020
5053 Clouds 8 1008 81 10000 4.1 100 00:42 06.12.2020
5054 Clear 8 1008 81 10000 4.6 100 00:24 06.12.2020
5055 Clear 8 1008 81 10000 3.6 100 23:44 05.12.2020
5056 Clear 7 1008 81 10000 3.6 130 22:23 05.12.2020
5057 Clear 8 1008 81 10000 5.7 150 21:51 05.12.2020
5058 Clear 7 1008 81 10000 5.7 150 21:27 05.12.2020
5059 Clear 7 1008 87 10000 6.2 160 19:49 05.12.2020
5060 Clear 8 1007 81 10000 8.2 140 18:45 05.12.2020
5061 Clear 7 1007 87 10000 4.6 150 17:35 05.12.2020
5062 Clear 7 1007 87 10000 6.7 160 16:43 05.12.2020
5063 Clear 7 1007 87 10000 6.7 160 16:20 05.12.2020
5064 Clouds 8 1007 87 9000 9.3 150 14:30 05.12.2020
5065 Clouds 8 1007 86 9000 8.7 150 12:32 05.12.2020
5066 Clouds 7 1007 86 10000 8.7 150 11:49 05.12.2020
5067 Clouds 6 1006 86 9000 11.3 150 10:33 05.12.2020
5068 Clouds 4 1005 93 6000 8.7 150 07:49 05.12.2020
5069 Clouds 4 1005 93 6000 8.7 150 07:26 05.12.2020
5070 Clouds 3 1005 93 7000 7.2 140 05:22 05.12.2020
5071 Clouds 2 1002 78 10000 12.3 150 23:56 04.12.2020
5072 Clouds 2 1003 73 7000 7.7 150 22:47 04.12.2020
5073 Clouds 2 1002 64 7000 11.8 140 20:35 04.12.2020
5074 Clouds 2 1002 68 8000 11.8 140 18:54 04.12.2020
5075 Clouds 2 1002 69 9000 9.3 130 18:21 04.12.2020
5076 Clouds 2 1002 69 8000 9.8 140 17:41 04.12.2020
5077 Clouds 1 1001 86 9000 12.3 140 15:54 04.12.2020
5078 Clouds 2 1001 86 9000 10.3 140 15:20 04.12.2020
5079 Clouds 2 1001 86 9000 10.8 140 13:35 04.12.2020
5080 Clouds 2 1001 86 9000 11.8 140 12:55 04.12.2020
5081 Clouds 2 1001 86 10000 12.3 150 12:19 04.12.2020
5082 Clouds 2 1001 86 10000 10.8 140 10:35 04.12.2020
5083 Clouds 1 1001 85 10000 9.8 140 08:29 04.12.2020
5084 Clouds 1 1002 80 10000 9.3 140 06:40 04.12.2020
5085 Clouds 1 1002 80 10000 9.3 140 06:40 04.12.2020
5086 Clouds 1 1002 86 10000 8.7 130 04:52 04.12.2020
5087 Clouds 1 1005 95 9000 6.7 120 00:24 04.12.2020
5088 Mist 0 1006 94 5000 3.6 120 22:47 03.12.2020
5089 Mist 0 1007 98 5000 3.1 120 21:22 03.12.2020
5090 Mist 0 1007 98 4800 3.1 120 20:41 03.12.2020
5091 Mist -1 1008 100 5000 2.6 140 19:22 03.12.2020
5092 Mist 0 1008 100 5000 3.1 140 18:40 03.12.2020
5093 Mist -1 1009 100 4900 3.1 130 17:21 03.12.2020
5094 Clouds -1 1009 100 7000 2.6 130 15:59 03.12.2020
5095 Mist 0 1009 97 4600 2.6 130 15:32 03.12.2020
5096 Mist 0 1010 100 5000 2.1 130 14:48 03.12.2020
5097 Clouds 0 1011 97 8000 2.1 130 13:55 03.12.2020
5098 Mist 0 1011 92 5000 2.6 110 12:44 03.12.2020
5099 Mist 0 1011 92 5000 2.6 110 12:22 03.12.2020
5100 Snow 0 1013 92 4100 2.6 120 10:40 03.12.2020
5101 Snow -1 1013 92 1900 2.1 120 08:41 03.12.2020
5102 Snow -1 1014 80 10000 4.6 130 03:57 03.12.2020
5103 Snow -1 1016 80 7000 5.7 150 01:54 03.12.2020
5104 Clouds -1 1016 80 9000 5.7 130 00:19 03.12.2020
5105 Clouds -1 1017 80 10000 5.1 130 22:46 02.12.2020
5106 Clouds -1 1017 80 10000 5.1 130 21:46 02.12.2020
5107 Clouds -1 1017 86 7000 4.6 110 20:50 02.12.2020
5108 Clouds -1 1017 86 7000 4.6 110 20:32 02.12.2020
5109 Clouds -1 1017 86 6000 5.1 120 19:40 02.12.2020
5110 Clouds -1 1018 86 7000 4.1 120 17:50 02.12.2020
5111 Clouds -1 1018 86 7000 4.1 120 17:31 02.12.2020
5112 Clouds -1 1019 86 10000 4.1 120 16:42 02.12.2020
5113 Clouds 0 1020 80 10000 4.6 130 13:48 02.12.2020
5114 Mist -1 1022 92 5000 4.6 130 11:33 02.12.2020
5115 Mist -1 1022 86 5000 4.1 120 10:25 02.12.2020
5116 Clouds -2 1022 86 8000 3.6 120 07:48 02.12.2020
5117 Clouds -2 1023 92 6000 2.6 150 23:42 01.12.2020
5118 Clouds -1 1022 86 8000 4.1 140 22:20 01.12.2020
5119 Clouds 0 1021 86 8000 4.6 130 19:45 01.12.2020
5120 Clouds 0 1020 86 8000 5.1 140 18:56 01.12.2020
5121 Clouds 1 1020 89 10000 5.7 140 17:26 01.12.2020
5122 Clouds 3 1019 80 10000 7.2 130 15:24 01.12.2020
5123 Clouds 2 1019 77 7000 7.7 130 13:37 01.12.2020
5124 Mist 0 1020 92 3700 5.7 120 11:43 01.12.2020
5125 Clouds 0 1016 83 10000 1.34 100 10:55 01.12.2020
5126 Mist 0 1020 92 3100 6.7 130 10:32 01.12.2020
5127 Clouds -1 1020 92 6000 5.7 140 07:47 01.12.2020
5128 Clouds -1 1020 92 6000 5.7 130 06:46 01.12.2020
5129 Clear -2 1022 92 9000 2.1 140 01:44 01.12.2020
5130 Clear -1 1023 86 10000 4.1 120 00:52 01.12.2020
5131 Clear -1 1024 95 10000 4.6 130 23:21 30.11.2020
5132 Clouds 0 1024 95 10000 5.1 140 22:42 30.11.2020
5133 Clouds -1 1024 95 10000 5.1 140 22:22 30.11.2020
5134 Clouds 0 1025 94 10000 4.1 130 20:47 30.11.2020
5135 Clouds 0 1025 86 10000 4.1 150 19:41 30.11.2020
5136 Clouds 1 1025 89 10000 4.1 180 18:22 30.11.2020
5137 Clouds 2 1025 74 10000 2.6 110 17:46 30.11.2020
5138 Clouds 2 1025 74 10000 2.1 130 16:54 30.11.2020
5139 Clouds 4 1026 69 10000 1.5 100 15:46 30.11.2020
5140 Clouds 6 1026 69 10000 1 0 14:24 30.11.2020
5141 Clouds 5 1026 74 10000 1 0 13:42 30.11.2020
5142 Clouds 5 1027 76 10000 1 0 12:26 30.11.2020
5143 Clouds 5 1027 76 10000 2.1 340 11:57 30.11.2020
5144 Clouds 4 1027 84 10000 2.1 350 10:26 30.11.2020
5145 Clouds 4 1027 84 10000 2.1 20 09:43 30.11.2020
5146 Clouds 2 1025 74 10000 3.6 320 07:18 30.11.2020
5147 Clouds 3 1024 69 10000 5.1 300 23:39 29.11.2020
5148 Clouds 3 1023 69 10000 4.6 300 21:49 29.11.2020
5149 Clouds 3 1023 69 10000 4.6 300 21:28 29.11.2020
5150 Clouds 3 1023 69 10000 5.7 300 19:49 29.11.2020
5151 Clouds 3 1022 64 10000 4.6 300 17:47 29.11.2020
5152 Clouds 5 1022 60 10000 5.1 310 15:25 29.11.2020
5153 Clouds 5 1022 60 10000 5.1 300 13:23 29.11.2020
5154 Clouds 4 1023 60 10000 4.6 290 11:41 29.11.2020
5155 Clouds 1 1022 86 10000 4.1 260 09:42 29.11.2020
5156 Clouds 0 1022 93 10000 2.1 280 08:37 29.11.2020
5157 Clouds 0 1022 86 10000 2.6 320 05:19 29.11.2020
5158 Clouds 0 1023 95 10000 1 190 23:48 28.11.2020
5159 Clouds 1 1023 95 10000 1 250 22:56 28.11.2020
5160 Clouds 2 1023 86 10000 2.1 260 20:47 28.11.2020
5161 Clouds 1 1022 93 10000 1.5 160 19:47 28.11.2020
5162 Clouds 1 1022 92 10000 1.5 160 19:21 28.11.2020
5163 Clouds 1 1022 90 10000 2.6 310 18:27 28.11.2020
5164 Clouds 2 1022 90 10000 3.1 310 17:47 28.11.2020
5165 Clouds 2 1022 88 10000 3.1 340 16:40 28.11.2020
5166 Clouds 2 1021 79 10000 3.1 320 14:54 28.11.2020
5167 Clouds 2 1022 80 10000 3.1 340 12:35 28.11.2020
5168 Mist 1 1022 83 1600 1.5 330 10:36 28.11.2020
5169 Clouds 1 1021 97 10000 1.5 170 06:36 28.11.2020
5170 Clouds 1 1022 97 8000 2.6 210 03:32 28.11.2020
5171 Mist 1 1022 97 4500 2.1 220 01:50 28.11.2020
5172 Mist 1 1023 95 2300 2.1 190 22:56 27.11.2020
5173 Drizzle 1 1024 94 2600 1.5 190 21:33 27.11.2020
5174 Mist 1 1023 94 3300 1.5 160 20:36 27.11.2020
5175 Mist 1 1023 92 4500 1.5 160 19:30 27.11.2020
5176 Clouds 1 1023 89 6000 1.5 140 18:44 27.11.2020
5177 Clouds 2 1023 86 6000 1 0 15:19 27.11.2020
5178 Mist 2 1024 73 3900 1 0 13:44 27.11.2020
5179 Mist 2 1024 86 3900 1.5 120 12:48 27.11.2020
5180 Mist 2 1024 75 4100 1 0 11:50 27.11.2020
5181 Mist 2 1025 80 4200 1 0 10:51 27.11.2020
5182 Mist 1 1025 86 4700 1.5 170 10:24 27.11.2020
5183 Clouds 1 1025 86 10000 0.69 141 07:30 27.11.2020
5184 Clouds 1 1025 86 10000 0.69 141 07:30 27.11.2020
5185 Clouds 2 1021 80 10000 0.82 140 22:42 26.11.2020
5186 Clouds 2 1021 80 10000 0.82 140 22:22 26.11.2020
5187 Clouds 1 1025 80 10000 1 0 21:39 26.11.2020
5188 Clouds 1 1025 86 8000 1.5 140 19:41 26.11.2020
5189 Clouds 2 1025 86 8000 1.5 170 18:31 26.11.2020
5190 Clouds 2 1025 86 7000 2.1 220 16:32 26.11.2020
5191 Clouds 2 1025 86 7000 1 0 13:43 26.11.2020
5192 Clouds 2 1026 86 6000 1.5 130 12:45 26.11.2020
5193 Clouds 2 1026 86 6000 1.5 120 12:23 26.11.2020
5194 Clouds 2 1026 84 6000 2.1 120 10:38 26.11.2020
5195 Clouds 2 1026 86 6000 2.1 150 09:49 26.11.2020
5196 Clouds 2 1026 86 6000 2.1 150 09:31 26.11.2020
5197 Clouds 1 1026 86 6000 1.5 160 08:40 26.11.2020
5198 Clouds 1 1025 86 6000 2.1 120 06:56 26.11.2020
5199 Clouds 2 1025 89 7000 4.6 140 00:46 26.11.2020
5200 Clouds 2 1025 80 10000 5.1 150 21:36 25.11.2020
5201 Clouds 2 1025 80 10000 5.7 160 20:19 25.11.2020
5202 Clouds 2 1025 84 10000 6.7 140 18:58 25.11.2020
5203 Clouds 3 1024 79 8000 6.7 150 17:24 25.11.2020
5204 Clouds 3 1024 70 10000 6.7 150 15:42 25.11.2020
5205 Clouds 2 1024 70 9000 6.7 140 14:42 25.11.2020
5206 Clouds 2 1024 68 9000 6.7 140 13:44 25.11.2020
5207 Clouds 2 1025 70 8000 6.7 140 12:30 25.11.2020
5208 Clouds 2 1025 76 7000 6.7 140 11:21 25.11.2020
5209 Clouds 1 1025 87 6000 7.7 150 09:20 25.11.2020
5210 Clouds 1 1025 87 6000 9.8 150 08:49 25.11.2020
5211 Mist 1 1025 91 4900 9.3 140 07:20 25.11.2020
5212 Fog 1 1025 87 700 7.2 130 03:49 25.11.2020
5213 Fog 2 1025 84 900 6.7 130 01:34 25.11.2020
5214 Fog 2 1026 80 900 7.2 130 00:18 25.11.2020
5215 Fog 2 1026 79 1100 7.2 130 23:35 24.11.2020
5216 Mist 2 1026 79 4800 7.7 130 22:38 24.11.2020
5217 Mist 2 1026 93 5000 6.2 130 21:34 24.11.2020
5218 Mist 2 1026 93 5000 6.2 130 20:55 24.11.2020
5219 Mist 3 1027 73 3400 5.1 120 19:48 24.11.2020
5220 Mist 2 1028 69 2000 5.1 120 17:32 24.11.2020
5221 Mist 2 1028 68 1900 4.1 110 16:58 24.11.2020
5222 Mist 3 1028 68 1300 4.6 110 16:37 24.11.2020
5223 Fog 3 1028 66 1200 5.1 120 15:56 24.11.2020
5224 Mist 3 1028 93 3300 3.6 120 15:19 24.11.2020
5225 Mist 4 1028 100 3300 3.6 110 14:44 24.11.2020
5226 Fog 5 1029 100 900 3.6 110 13:34 24.11.2020
5227 Fog 2 1030 100 600 3.1 100 12:38 24.11.2020
5228 Fog 2 1031 93 400 2.6 110 11:59 24.11.2020
5229 Fog 3 1031 100 250 2.1 110 11:23 24.11.2020
5230 Fog 3 1031 72 200 1 0 10:25 24.11.2020
5231 Fog 3 1031 72 200 1 0 09:38 24.11.2020
5232 Fog 2 1031 79 200 1.5 100 08:57 24.11.2020
5233 Fog 1 1031 85 250 2.1 70 05:53 24.11.2020
5234 Clouds 4 1031 93 8000 2.1 40 00:41 24.11.2020
5235 Clear 5 1030 86 10000 0.5 0 22:24 23.11.2020
5236 Clouds 6 1030 86 10000 0.5 0 21:29 23.11.2020
5237 Clouds 6 1030 86 10000 1.5 330 20:29 23.11.2020
5238 Clouds 6 1029 86 10000 1.5 30 19:59 23.11.2020
5239 Clouds 6 1029 80 10000 1 0 17:57 23.11.2020
5240 Clouds 7 1028 80 10000 0.5 0 16:56 23.11.2020
5241 Clouds 7 1027 75 10000 1.5 170 15:18 23.11.2020
5242 Clouds 7 1024 76 10000 1.79 229 14:37 23.11.2020
5243 Clouds 6 1028 63 10000 3.1 170 12:41 23.11.2020
5244 Clouds 6 1028 62 10000 2.1 150 12:18 23.11.2020
5245 Clouds 6 1025 74 10000 0.45 225 11:41 23.11.2020
5246 Clouds 4 1028 86 10000 3.6 150 10:19 23.11.2020
5247 Clouds 3 1028 86 10000 2.1 150 09:31 23.11.2020
5248 Clear 2 1028 86 10000 2.6 140 08:36 23.11.2020
5249 Rain 2 1027 76 10000 3.1 120 06:36 23.11.2020
5250 Clear 1 1028 75 10000 2.1 160 23:59 22.11.2020
5251 Clear 1 1028 76 10000 1.5 130 22:40 22.11.2020
5252 Clear 2 1028 74 10000 1.5 120 21:26 22.11.2020
5253 Clear 2 1028 69 10000 1.5 110 20:35 22.11.2020
5254 Clear 3 1028 64 10000 2.6 130 19:51 22.11.2020
5255 Clear 3 1028 55 10000 2.6 120 18:39 22.11.2020
5256 Clear 5 1028 56 10000 4.1 130 16:36 22.11.2020
5257 Clear 6 1028 52 10000 4.1 130 15:28 22.11.2020
5258 Clear 6 1028 45 10000 5.7 140 14:27 22.11.2020
5259 Clear 6 1030 56 10000 3.1 120 12:44 22.11.2020
5260 Clear 5 1030 60 10000 2.6 140 11:55 22.11.2020
5261 Clear 5 1030 60 10000 2.6 140 11:55 22.11.2020
5262 Clear 4 1031 74 10000 2.1 140 10:55 22.11.2020
5263 Clear 3 1031 57 10000 2.1 140 10:36 22.11.2020
5264 Clear -2 1031 92 10000 0.5 0 07:43 22.11.2020
5265 Clear -1 1033 86 10000 0.5 0 01:47 22.11.2020
5266 Clear 0 1034 86 10000 3.1 150 22:52 21.11.2020
5267 Clear 0 1034 86 10000 2.6 150 21:32 21.11.2020
5268 Clear 0 1034 86 10000 3.1 160 20:54 21.11.2020
5269 Clear 0 1034 92 10000 4.1 170 20:29 21.11.2020
5270 Clear 0 1035 86 10000 3.1 170 19:50 21.11.2020
5271 Clear 0 1035 86 10000 3.1 170 19:25 21.11.2020
5272 Clear 1 1035 74 10000 2.1 130 17:57 21.11.2020
5273 Clouds 3 1035 69 10000 2.6 50 16:48 21.11.2020
5274 Clouds 4 1035 65 10000 2.6 40 15:45 21.11.2020
5275 Clouds 5 1035 65 10000 3.1 40 15:21 21.11.2020
5276 Clouds 5 1036 65 10000 3.1 20 14:42 21.11.2020
5277 Clouds 6 1036 65 10000 3.6 10 13:41 21.11.2020
5278 Clouds 6 1037 60 10000 4.1 350 12:24 21.11.2020
5279 Clouds 5 1037 69 10000 3.6 330 11:54 21.11.2020
5280 Clouds 4 1037 74 10000 3.6 320 10:37 21.11.2020
5281 Clear 2 1037 86 10000 3.6 310 09:22 21.11.2020
5282 Clear 1 1037 82 10000 3.6 300 08:50 21.11.2020
5283 Clear 0 1036 89 10000 4.6 320 05:43 21.11.2020
5284 Clear 0 1036 86 10000 5.1 330 04:24 21.11.2020
5285 Clear 2 1034 80 10000 5.1 320 00:26 21.11.2020
5286 Clear 2 1034 78 10000 5.1 320 23:25 20.11.2020
5287 Clear 3 1034 69 10000 5.7 320 21:48 20.11.2020
5288 Clear 3 1033 69 10000 6.2 330 21:26 20.11.2020
5289 Clear 4 1033 69 10000 4.6 330 20:55 20.11.2020
5290 Rain 4 1032 65 10000 5.7 330 19:44 20.11.2020
5291 Clouds 5 1031 67 10000 4.1 340 18:32 20.11.2020
5292 Clouds 5 1030 60 10000 5.7 350 17:42 20.11.2020
5293 Clouds 5 1030 60 10000 6.2 340 17:23 20.11.2020
5294 Clouds 6 1030 60 10000 6.2 340 16:37 20.11.2020
5295 Clouds 6 1029 52 10000 6.7 330 15:51 20.11.2020
5296 Clouds 7 1029 52 10000 8.2 330 14:30 20.11.2020
5297 Clouds 7 1029 56 10000 9.3 330 13:43 20.11.2020
5298 Clouds 8 1029 56 10000 7.2 330 13:18 20.11.2020
5299 Clouds 8 1029 56 10000 8.7 320 12:31 20.11.2020
5300 Clouds 7 1029 52 10000 9.3 330 11:39 20.11.2020
5301 Clouds 7 1028 58 10000 6.7 330 10:37 20.11.2020
5302 Clouds 6 1028 70 10000 5.7 350 08:52 20.11.2020
5303 Clouds 6 1027 65 10000 7.2 330 08:23 20.11.2020
5304 Clouds 8 1024 75 10000 5.7 300 05:20 20.11.2020
5305 Rain 8 1024 75 10000 7.7 300 03:43 20.11.2020
5306 Rain 7 1024 81 10000 8.7 300 22:33 19.11.2020
5307 Clouds 8 1024 87 10000 6.7 300 21:55 19.11.2020
5308 Rain 8 1023 93 5000 2.6 320 21:19 19.11.2020
5309 Rain 8 1020 92 9634 0.89 248 20:31 19.11.2020
5310 Rain 6 1022 93 6000 1.5 160 19:45 19.11.2020
5311 Rain 6 1022 93 7000 2.1 110 19:22 19.11.2020
5312 Clouds 6 1021 87 9000 4.1 160 17:39 19.11.2020
5313 Clouds 7 1021 87 10000 6.2 140 16:48 19.11.2020
5314 Clouds 8 1022 87 10000 5.7 140 15:31 19.11.2020
5315 Clouds 7 1022 87 10000 5.1 140 14:31 19.11.2020
5316 Clouds 8 1022 87 10000 6.2 150 13:44 19.11.2020
5317 Clouds 7 1023 87 10000 5.1 150 12:57 19.11.2020
5318 Clouds 7 1023 87 10000 5.1 140 12:34 19.11.2020
5319 Clouds 6 1024 87 10000 5.1 150 11:42 19.11.2020
5320 Clouds 7 1024 87 10000 5.1 150 11:23 19.11.2020
5321 Clouds 6 1024 87 10000 5.7 140 10:52 19.11.2020
5322 Clouds 6 1025 93 10000 5.1 150 09:55 19.11.2020
5323 Clouds 6 1025 93 10000 5.1 150 09:36 19.11.2020
5324 Clouds 6 1025 93 10000 6.2 150 09:18 19.11.2020
5325 Clouds 6 1025 93 10000 6.7 150 07:59 19.11.2020
5326 Clear 6 1025 81 10000 7.2 140 01:53 19.11.2020
5327 Clear 7 1025 81 10000 6.7 140 00:56 19.11.2020
5328 Clear 7 1026 75 10000 7.2 140 23:47 18.11.2020
5329 Clear 7 1026 75 10000 6.2 140 23:24 18.11.2020
5330 Clear 7 1026 75 10000 6.7 150 22:30 18.11.2020
5331 Clear 7 1027 81 10000 6.2 150 21:45 18.11.2020
5332 Clear 8 1027 81 10000 6.2 150 21:27 18.11.2020
5333 Clear 8 1027 76 10000 5.7 140 20:40 18.11.2020
5334 Clear 8 1027 81 10000 4.1 140 19:44 18.11.2020
5335 Clear 8 1027 81 10000 4.1 140 19:24 18.11.2020
5336 Clear 8 1027 76 10000 5.1 140 18:48 18.11.2020
5337 Clear 9 1028 71 10000 4.6 130 17:55 18.11.2020
5338 Clear 9 1028 76 10000 5.1 130 16:58 18.11.2020
5339 Clear 11 1028 76 10000 3.6 110 16:21 18.11.2020
5340 Clear 12 1029 76 10000 5.1 110 14:43 18.11.2020
5341 Clear 13 1029 76 10000 5.1 110 14:25 18.11.2020
5342 Clear 13 1029 71 10000 4.1 110 13:37 18.11.2020
5343 Clear 12 1030 66 10000 2.6 100 12:45 18.11.2020
5344 Clear 12 1030 66 10000 2.1 80 11:57 18.11.2020
5345 Clear 11 1030 66 10000 1.5 120 11:25 18.11.2020
5346 Clear 9 1031 75 10000 2.1 150 10:31 18.11.2020
5347 Clear 7 1028 86 10000 0.83 145 08:52 18.11.2020
5348 Clear 6 1030 86 10000 2.1 220 07:36 18.11.2020
5349 Clear 6 1030 86 10000 2.6 170 06:28 18.11.2020
5350 Clear 7 1030 86 10000 2.1 170 00:22 18.11.2020
5351 Clear 6 1030 86 10000 2.6 170 23:30 17.11.2020
5352 Clear 7 1030 86 10000 3.1 180 22:46 17.11.2020
5353 Clear 7 1030 86 10000 3.1 180 22:27 17.11.2020
5354 Clear 8 1030 75 10000 2.1 220 21:49 17.11.2020
5355 Clear 8 1030 75 10000 2.1 250 21:29 17.11.2020
5356 Clear 8 1030 75 10000 2.6 240 20:43 17.11.2020
5357 Clear 8 1030 70 10000 3.6 260 20:24 17.11.2020
5358 Clear 8 1030 70 10000 2.6 260 19:50 17.11.2020
5359 Clouds 9 1029 71 10000 3.6 280 18:23 17.11.2020
5360 Clouds 10 1029 66 10000 4.6 270 17:33 17.11.2020
5361 Clouds 10 1029 62 10000 3.1 290 16:37 17.11.2020
5362 Clouds 11 1029 62 10000 3.6 280 16:18 17.11.2020
5363 Clouds 12 1029 62 10000 4.1 290 15:38 17.11.2020
5364 Clouds 12 1029 62 10000 5.1 290 15:20 17.11.2020
5365 Clouds 12 1029 58 10000 4.6 310 14:30 17.11.2020
5366 Clouds 13 1029 54 10000 4.6 300 13:45 17.11.2020
5367 Clouds 13 1029 54 10000 4.6 300 13:22 17.11.2020
5368 Clouds 13 1029 54 10000 4.6 300 12:42 17.11.2020
5369 Clouds 13 1029 62 10000 6.2 290 11:45 17.11.2020
5370 Clouds 12 1029 62 10000 6.2 300 11:21 17.11.2020
5371 Clouds 12 1028 71 10000 2.1 270 10:39 17.11.2020
5372 Clouds 11 1028 81 10000 1 120 09:57 17.11.2020
5373 Clouds 10 1028 87 10000 0.5 0 09:36 17.11.2020
5374 Clouds 10 1026 83 10000 1.34 245 08:43 17.11.2020
5375 Clouds 10 1025 84 10000 0.89 235 07:59 17.11.2020
5376 Clouds 9 1026 93 10000 1 0 07:28 17.11.2020
5377 Clouds 9 1025 71 10000 5.7 320 04:30 17.11.2020
5378 Clouds 9 1025 71 10000 4.6 300 03:22 17.11.2020
5379 Clear 9 1024 71 10000 5.1 300 02:29 17.11.2020
5380 Clear 9 1024 76 10000 3.1 300 00:56 17.11.2020
5381 Clear 9 1024 71 10000 4.6 310 23:54 16.11.2020
5382 Clear 9 1024 71 10000 4.6 310 23:31 16.11.2020
5383 Clear 9 1024 71 10000 4.1 300 22:55 16.11.2020
5384 Clear 9 1024 71 10000 4.1 310 22:24 16.11.2020
5385 Clear 9 1023 71 10000 5.1 300 21:56 16.11.2020
5386 Clear 9 1023 71 10000 5.7 300 21:37 16.11.2020
5387 Clear 9 1022 76 10000 4.1 310 21:19 16.11.2020
5388 Clear 10 1022 66 10000 4.1 310 20:26 16.11.2020
5389 Clouds 10 1022 71 10000 3.6 310 19:51 16.11.2020
5390 Clouds 10 1022 71 10000 3.6 310 19:29 16.11.2020
5391 Clouds 10 1021 71 10000 5.1 300 18:50 16.11.2020
5392 Clouds 10 1021 71 10000 6.2 300 18:18 16.11.2020
5393 Rain 10 1021 71 10000 5.1 290 17:28 16.11.2020
5394 Rain 10 1020 76 10000 4.1 290 16:57 16.11.2020
5395 Rain 10 1020 76 10000 1.5 310 16:39 16.11.2020
5396 Rain 10 1020 87 10000 1 0 16:20 16.11.2020
5397 Rain 10 1020 87 10000 1 90 15:43 16.11.2020
5398 Rain 10 1017 85 10000 2.24 219 15:25 16.11.2020
5399 Rain 10 1017 84 10000 0.89 231 14:47 16.11.2020
5400 Rain 11 1019 85 10000 2.24 292 13:44 16.11.2020
5401 Rain 10 1019 81 10000 3.1 10 12:51 16.11.2020
5402 Rain 9 1019 87 10000 3.1 10 12:28 16.11.2020
5403 Clouds 9 1018 81 10000 2.1 10 11:39 16.11.2020
5404 Clouds 9 1018 81 10000 2.1 10 11:21 16.11.2020
5405 Clouds 9 1018 87 10000 0.5 0 10:44 16.11.2020
5406 Clouds 8 1018 87 10000 0.5 0 10:25 16.11.2020
5407 Clouds 7 1018 87 10000 1.5 180 09:46 16.11.2020
5408 Clouds 8 1017 93 10000 2.1 210 09:23 16.11.2020
5409 Clouds 7 1017 87 10000 1 0 08:41 16.11.2020
5410 Clouds 6 1016 87 10000 2.1 290 07:48 16.11.2020
5411 Clouds 6 1016 87 10000 1 260 06:53 16.11.2020
5412 Clouds 7 1016 87 10000 2.1 260 06:29 16.11.2020
5413 Clouds 7 1015 93 10000 2.1 150 04:53 16.11.2020
5414 Clouds 7 1015 93 10000 3.1 150 03:52 16.11.2020
5415 Clouds 8 1016 87 10000 7.7 150 01:44 16.11.2020
5416 Clouds 8 1016 93 7000 8.2 150 00:20 16.11.2020
5417 Clouds 8 1016 93 6000 8.7 140 23:28 15.11.2020
5418 Clouds 8 1016 93 8000 8.2 140 22:54 15.11.2020
5419 Clouds 8 1016 93 8000 8.2 140 22:22 15.11.2020
5420 Clouds 8 1017 93 10000 7.7 140 21:47 15.11.2020
5421 Clouds 8 1017 87 10000 7.7 150 21:27 15.11.2020
5422 Clouds 8 1017 87 10000 8.2 150 20:48 15.11.2020
5423 Clouds 8 1017 87 10000 8.2 150 20:28 15.11.2020
5424 Clouds 7 1018 93 10000 7.2 140 19:54 15.11.2020
5425 Clouds 7 1018 93 10000 7.2 140 19:36 15.11.2020
5426 Clouds 7 1018 93 10000 7.2 140 19:18 15.11.2020
5427 Clouds 7 1019 93 10000 6.7 150 18:41 15.11.2020
5428 Clouds 7 1019 93 10000 6.7 150 18:23 15.11.2020
5429 Clouds 7 1019 87 10000 8.7 150 17:47 15.11.2020
5430 Clouds 8 1019 87 10000 8.2 150 17:25 15.11.2020
5431 Clouds 7 1019 87 10000 8.2 150 16:52 15.11.2020
5432 Clouds 7 1020 87 10000 6.7 140 16:23 15.11.2020
5433 Clouds 8 1020 87 10000 7.2 150 15:57 15.11.2020
5434 Clouds 7 1020 93 10000 6.2 150 15:39 15.11.2020
5435 Clouds 7 1020 93 10000 5.1 140 15:20 15.11.2020
5436 Clouds 8 1021 93 10000 5.1 140 14:41 15.11.2020
5437 Clouds 8 1021 87 10000 5.7 140 14:21 15.11.2020
5438 Drizzle 8 1022 93 10000 5.1 140 13:40 15.11.2020
5439 Drizzle 8 1022 93 10000 6.2 130 12:53 15.11.2020
5440 Drizzle 7 1022 93 10000 5.1 140 12:29 15.11.2020
5441 Drizzle 7 1022 93 10000 4.1 140 11:58 15.11.2020
5442 Drizzle 7 1023 93 9000 4.6 150 11:40 15.11.2020
5443 Drizzle 7 1023 93 9000 5.7 150 11:18 15.11.2020
5444 Drizzle 7 1023 93 10000 4.6 140 10:49 15.11.2020
5445 Drizzle 7 1023 93 10000 4.6 140 10:29 15.11.2020
5446 Mist 7 1023 100 4200 4.1 140 09:45 15.11.2020
5447 Drizzle 6 1023 93 2800 4.6 140 09:22 15.11.2020
5448 Drizzle 6 1023 93 2000 4.1 130 08:54 15.11.2020
5449 Mist 6 1023 93 2000 4.1 130 08:31 15.11.2020
5450 Mist 6 1023 93 3600 3.6 120 07:43 15.11.2020
5451 Mist 5 1023 100 5000 4.6 140 05:30 15.11.2020
5452 Mist 5 1023 100 4700 5.7 140 04:50 15.11.2020
5453 Clouds 5 1024 93 7000 5.7 140 00:56 15.11.2020
5454 Clouds 6 1024 93 8000 5.1 140 00:29 15.11.2020
5455 Clouds 6 1024 93 7000 5.7 140 23:39 14.11.2020
5456 Clouds 6 1024 93 7000 5.1 130 22:51 14.11.2020
5457 Clouds 7 1025 93 8000 5.1 140 22:32 14.11.2020
5458 Clouds 7 1024 93 8000 3.6 140 21:44 14.11.2020
5459 Clouds 7 1024 93 9000 4.1 140 21:23 14.11.2020
5460 Clouds 7 1024 93 9000 4.1 140 20:59 14.11.2020
5461 Clouds 7 1024 93 9000 3.1 130 20:30 14.11.2020
5462 Clouds 7 1024 87 9000 3.6 140 19:58 14.11.2020
5463 Clouds 7 1024 87 10000 3.1 140 19:36 14.11.2020
5464 Clouds 7 1024 87 10000 5.1 140 18:55 14.11.2020
5465 Clouds 7 1024 87 10000 4.1 140 18:36 14.11.2020
5466 Clouds 7 1024 87 10000 4.1 140 18:18 14.11.2020
5467 Clouds 7 1024 87 10000 4.6 150 17:42 14.11.2020
5468 Clouds 7 1025 87 9000 4.6 140 17:23 14.11.2020
5469 Clouds 8 1025 87 9000 4.1 140 16:45 14.11.2020
5470 Clouds 8 1025 87 9000 4.1 140 16:26 14.11.2020
5471 Clouds 8 1025 87 8000 5.7 140 15:53 14.11.2020
5472 Clouds 8 1025 87 8000 5.7 140 15:30 14.11.2020
5473 Clouds 8 1025 93 8000 4.6 130 14:50 14.11.2020
5474 Clouds 9 1025 87 9000 5.1 130 14:26 14.11.2020
5475 Clouds 9 1025 87 10000 4.6 130 13:49 14.11.2020
5476 Clouds 9 1025 87 10000 4.6 130 13:27 14.11.2020
5477 Clouds 9 1025 87 10000 5.1 130 12:49 14.11.2020
5478 Clouds 9 1025 87 10000 5.1 130 12:30 14.11.2020
5479 Clouds 8 1026 81 10000 2.1 130 11:48 14.11.2020
5480 Clouds 8 1026 81 10000 2.1 130 11:30 14.11.2020
5481 Clouds 8 1026 87 10000 1 0 10:51 14.11.2020
5482 Clouds 7 1026 87 9000 0.5 0 10:27 14.11.2020
5483 Clouds 7 1026 93 9000 1 0 09:58 14.11.2020
5484 Clouds 6 1026 93 9000 3.1 200 09:39 14.11.2020
5485 Clouds 6 1025 93 10000 5.1 150 09:21 14.11.2020
5486 Clouds 6 1025 93 7000 2.6 150 08:40 14.11.2020
5487 Clouds 6 1025 93 6000 1.5 190 08:18 14.11.2020
5488 Clouds 6 1025 93 6000 1 170 07:41 14.11.2020
5489 Clouds 6 1025 93 6000 1 0 06:38 14.11.2020
5490 Clouds 6 1025 93 8000 1.5 220 06:20 14.11.2020
5491 Clouds 6 1024 86 8000 1.5 200 04:39 14.11.2020
5492 Clouds 6 1025 93 10000 2.6 190 01:29 14.11.2020
5493 Clouds 6 1025 93 10000 4.1 160 23:54 13.11.2020
5494 Clouds 6 1025 93 10000 3.6 150 23:33 13.11.2020
5495 Clouds 6 1025 93 8000 3.6 150 22:58 13.11.2020
5496 Clouds 6 1025 93 8000 3.6 150 22:39 13.11.2020
5497 Clouds 6 1025 93 8000 3.6 150 22:19 13.11.2020
5498 Clouds 6 1025 87 8000 4.6 150 21:43 13.11.2020
5499 Clouds 6 1025 87 8000 4.6 150 21:22 13.11.2020
5500 Clouds 6 1025 87 8000 4.6 150 20:51 13.11.2020
5501 Clouds 6 1025 87 8000 4.1 160 20:23 13.11.2020
5502 Clouds 6 1025 87 8000 4.1 160 19:47 13.11.2020
5503 Clouds 6 1025 87 8000 4.1 160 19:24 13.11.2020
5504 Clouds 6 1025 87 8000 3.1 150 18:59 13.11.2020
5505 Clouds 6 1025 87 8000 2.6 150 18:32 13.11.2020
5506 Clouds 6 1024 87 8000 4.6 150 17:43 13.11.2020
5507 Clouds 6 1024 87 8000 4.6 150 17:43 13.11.2020
5508 Clouds 6 1024 93 10000 4.1 160 17:21 13.11.2020
5509 Clouds 6 1024 93 9000 4.1 150 16:50 13.11.2020
5510 Clouds 6 1024 86 10000 3.6 150 16:25 13.11.2020
5511 Clouds 6 1024 86 10000 3.6 150 15:58 13.11.2020
5512 Clouds 7 1024 86 10000 3.6 140 15:33 13.11.2020
5513 Clouds 7 1024 86 8000 5.1 140 14:55 13.11.2020
5514 Clouds 7 1024 93 10000 5.1 140 14:36 13.11.2020
5515 Clouds 8 1025 86 10000 5.1 140 14:18 13.11.2020
5516 Clouds 8 1025 86 10000 5.1 140 14:18 13.11.2020
5517 Clouds 8 1025 86 10000 5.1 140 14:18 13.11.2020
5518 Clouds 8 1025 86 10000 5.1 140 13:31 13.11.2020
5519 Clouds 10 1021 81 10000 0.45 199 12:52 13.11.2020
5520 Clouds 10 1022 81 10000 0.45 210 12:27 13.11.2020
5521 Clouds 9 1025 93 8000 6.2 140 11:58 13.11.2020
5522 Clouds 9 1025 87 10000 5.7 130 11:39 13.11.2020
5523 Clouds 9 1025 87 10000 4.6 130 11:19 13.11.2020
5524 Clouds 8 1025 81 10000 3.6 140 10:41 13.11.2020
5525 Clouds 8 1025 81 10000 3.6 140 10:22 13.11.2020
5526 Clouds 7 1025 86 9000 3.1 120 09:47 13.11.2020
5527 Clouds 6 1025 93 8000 2.1 100 09:25 13.11.2020
5528 Clouds 6 1025 86 10000 0.89 132 09:25 13.11.2020
5529 Clouds 6 1025 87 10000 1.79 132 08:53 13.11.2020
5530 Clouds 5 1025 86 8000 2.6 130 08:23 13.11.2020
5531 Clouds 5 1025 86 9000 1 0 07:49 13.11.2020
5532 Clouds 5 1025 86 9000 1 0 07:27 13.11.2020
5533 Clouds 5 1024 93 9000 2.1 130 06:55 13.11.2020
5534 Clouds 5 1024 93 10000 3.1 160 06:34 13.11.2020
5535 Clouds 5 1024 93 10000 3.1 160 06:34 13.11.2020
5536 Clouds 5 1025 93 9000 1.5 140 05:40 13.11.2020
5537 Clouds 6 1025 86 10000 1.5 150 02:57 13.11.2020
5538 Clouds 6 1025 86 10000 1.5 180 01:39 13.11.2020
5539 Clouds 6 1025 81 10000 2.6 170 00:35 13.11.2020
5540 Clouds 6 1025 87 10000 2.6 170 23:49 12.11.2020
5541 Clouds 6 1025 87 10000 2.6 180 23:21 12.11.2020
5542 Clouds 6 1025 87 10000 2.6 180 22:54 12.11.2020
5543 Clouds 6 1025 87 10000 3.1 170 22:36 12.11.2020
5544 Clouds 6 1025 87 10000 2.1 140 21:57 12.11.2020
5545 Clouds 6 1025 87 10000 2.1 160 21:39 12.11.2020
5546 Clouds 6 1025 81 10000 2.1 150 21:19 12.11.2020
5547 Clouds 6 1025 81 10000 1.5 150 20:41 12.11.2020
5548 Clouds 6 1025 81 10000 1.5 150 20:23 12.11.2020
5549 Clouds 7 1025 81 10000 2.6 140 19:52 12.11.2020
5550 Clouds 7 1025 81 10000 2.6 140 19:34 12.11.2020
5551 Clouds 7 1025 81 10000 2.6 140 18:56 12.11.2020
5552 Clouds 7 1025 81 10000 2.1 140 18:37 12.11.2020
5553 Clouds 7 1025 81 10000 2.6 140 18:18 12.11.2020
5554 Clouds 7 1025 81 10000 2.6 140 17:39 12.11.2020
5555 Clouds 7 1024 81 10000 2.6 140 17:21 12.11.2020
5556 Clouds 7 1024 75 10000 3.1 150 16:44 12.11.2020
5557 Clouds 8 1024 75 10000 3.1 150 16:23 12.11.2020
5558 Clouds 8 1024 75 10000 3.1 160 15:47 12.11.2020
5559 Clouds 8 1024 75 10000 3.1 160 15:28 12.11.2020
5560 Clouds 8 1024 75 10000 3.1 150 14:47 12.11.2020
5561 Clouds 8 1024 75 10000 3.6 150 14:27 12.11.2020
5562 Clouds 8 1024 75 10000 2.6 170 13:58 12.11.2020
5563 Clouds 9 1025 70 10000 3.6 150 13:40 12.11.2020
5564 Clouds 8 1025 75 10000 3.6 160 13:19 12.11.2020
5565 Clouds 8 1025 70 10000 4.1 180 12:44 12.11.2020
5566 Clouds 7 1025 70 10000 4.1 180 12:24 12.11.2020
5567 Clouds 8 1025 70 10000 4.1 190 11:53 12.11.2020
5568 Clouds 7 1025 75 10000 4.1 170 11:30 12.11.2020
5569 Clouds 7 1025 75 10000 5.1 170 10:49 12.11.2020
5570 Clouds 6 1025 75 10000 5.1 170 10:29 12.11.2020
5571 Clouds 7 1025 75 10000 4.6 150 09:51 12.11.2020
5572 Clouds 6 1025 75 10000 5.1 150 09:27 12.11.2020
5573 Clouds 5 1025 80 10000 4.6 160 08:58 12.11.2020
5574 Clouds 6 1025 80 10000 4.6 160 08:40 12.11.2020
5575 Clouds 5 1025 80 10000 4.6 160 08:20 12.11.2020
5576 Clouds 5 1025 80 10000 4.6 160 07:54 12.11.2020
5577 Clouds 5 1025 80 10000 3.6 160 07:31 12.11.2020
5578 Clouds 5 1025 80 10000 3.6 150 06:51 12.11.2020
5579 Clouds 5 1025 80 10000 4.1 160 06:22 12.11.2020
5580 Clouds 6 1025 81 10000 4.1 140 03:45 12.11.2020
5581 Clouds 6 1026 87 10000 4.1 140 03:19 12.11.2020
5582 Clouds 6 1026 87 10000 4.6 140 00:32 12.11.2020
5583 Clouds 6 1027 87 9000 4.6 130 23:43 11.11.2020
5584 Clouds 6 1027 87 10000 4.1 130 23:24 11.11.2020
5585 Clouds 6 1027 87 10000 4.1 130 23:24 11.11.2020
5586 Clouds 6 1027 81 10000 4.6 140 22:47 11.11.2020
5587 Clouds 6 1027 81 10000 5.1 150 22:22 11.11.2020
5588 Clouds 6 1027 81 10000 5.1 150 21:57 11.11.2020
5589 Clouds 6 1027 81 10000 4.6 150 21:38 11.11.2020
5590 Clouds 6 1027 81 10000 4.6 140 21:20 11.11.2020
5591 Clouds 6 1027 87 10000 4.1 140 20:43 11.11.2020
5592 Clouds 6 1027 87 10000 4.1 140 20:22 11.11.2020
5593 Clouds 6 1027 87 10000 4.1 140 19:57 11.11.2020
5594 Clouds 6 1027 87 10000 4.6 140 19:38 11.11.2020
5595 Clouds 6 1027 87 10000 4.6 140 19:20 11.11.2020
5596 Clouds 6 1028 87 10000 4.6 130 18:41 11.11.2020
5597 Clouds 6 1028 87 10000 4.1 130 18:22 11.11.2020
5598 Clouds 7 1028 87 10000 4.6 140 17:39 11.11.2020
5599 Clouds 7 1028 87 10000 4.1 130 17:21 11.11.2020
5600 Clouds 7 1028 81 10000 4.6 130 16:40 11.11.2020
5601 Clouds 7 1028 81 10000 4.6 130 16:21 11.11.2020
5602 Clouds 7 1028 81 10000 3.6 130 15:43 11.11.2020
5603 Clouds 7 1028 81 10000 5.1 140 15:23 11.11.2020
5604 Clouds 8 1028 81 10000 4.6 140 14:49 11.11.2020
5605 Clouds 8 1028 81 10000 4.6 140 14:30 11.11.2020
5606 Clouds 8 1028 81 10000 5.1 140 13:50 11.11.2020
5607 Clouds 8 1028 81 10000 5.1 140 13:32 11.11.2020
5608 Clouds 8 1029 75 10000 4.6 140 12:38 11.11.2020
5609 Clouds 8 1029 81 10000 6.2 150 12:20 11.11.2020
5610 Clouds 8 1029 81 10000 5.7 150 11:47 11.11.2020
5611 Clouds 8 1029 87 10000 5.1 150 11:25 11.11.2020
5612 Clouds 7 1029 87 10000 5.1 150 10:39 11.11.2020
5613 Clouds 7 1029 87 10000 4.6 150 10:20 11.11.2020
5614 Clouds 7 1030 87 9000 4.1 140 09:44 11.11.2020
5615 Clouds 7 1030 87 9000 4.1 140 09:24 11.11.2020
5616 Clouds 6 1029 93 8000 3.1 140 08:46 11.11.2020
5617 Clouds 7 1029 93 8000 3.1 140 08:27 11.11.2020
5618 Clouds 6 1029 93 9000 3.6 150 07:49 11.11.2020
5619 Clouds 6 1029 93 9000 3.6 140 06:33 11.11.2020
5620 Clouds 6 1029 93 8000 2.6 140 05:59 11.11.2020
5621 Clouds 7 1029 87 8000 3.1 130 03:40 11.11.2020
5622 Clouds 7 1030 87 8000 3.1 130 00:59 11.11.2020
5623 Clouds 7 1030 87 8000 2.6 120 00:28 11.11.2020
5624 Clouds 7 1030 87 8000 2.6 130 23:43 10.11.2020
5625 Clouds 7 1030 87 8000 3.1 130 23:24 10.11.2020
5626 Clouds 7 1030 87 8000 3.1 130 22:56 10.11.2020
5627 Clouds 7 1030 87 7000 3.1 130 22:27 10.11.2020
5628 Clouds 7 1030 87 7000 3.6 120 21:44 10.11.2020
5629 Clouds 7 1030 87 7000 3.6 120 21:25 10.11.2020
5630 Clouds 7 1030 87 7000 3.1 120 20:59 10.11.2020
5631 Clouds 6 1029 87 9000 3.1 130 20:41 10.11.2020
5632 Clouds 6 1029 87 9000 3.1 130 20:22 10.11.2020
5633 Clouds 6 1030 87 10000 1.5 150 19:47 10.11.2020
5634 Clouds 6 1030 87 10000 1.5 150 19:28 10.11.2020
5635 Clouds 6 1030 87 10000 2.6 150 18:59 10.11.2020
5636 Clouds 6 1030 87 10000 2.1 130 18:40 10.11.2020
5637 Clouds 6 1029 87 10000 1 170 18:19 10.11.2020
5638 Clouds 6 1029 87 10000 1.5 160 17:43 10.11.2020
5639 Clouds 6 1029 87 10000 1.5 160 17:25 10.11.2020
5640 Clouds 7 1029 87 10000 1.5 170 16:57 10.11.2020
5641 Clouds 7 1029 87 10000 1.5 170 16:57 10.11.2020
5642 Clouds 7 1029 87 10000 2.1 200 16:37 10.11.2020
5643 Clouds 7 1029 87 10000 2.1 190 16:18 10.11.2020
5644 Clouds 7 1029 87 10000 1.5 190 15:45 10.11.2020
5645 Clouds 7 1029 87 10000 2.1 200 15:23 10.11.2020
5646 Clouds 8 1029 87 10000 2.6 180 14:41 10.11.2020
5647 Clouds 8 1029 87 10000 3.1 180 14:22 10.11.2020
5648 Clouds 7 1029 87 10000 3.1 180 13:54 10.11.2020
5649 Clouds 7 1029 87 10000 3.6 160 13:36 10.11.2020
5650 Clouds 7 1030 87 10000 3.6 180 13:18 10.11.2020
5651 Clouds 8 1030 81 10000 2.6 190 12:44 10.11.2020
5652 Clouds 8 1030 81 10000 2.6 160 12:23 10.11.2020
5653 Clouds 7 1030 81 10000 2.6 140 11:39 10.11.2020
5654 Clouds 7 1030 87 10000 1.5 170 11:20 10.11.2020
5655 Clouds 7 1030 87 8000 3.6 160 10:44 10.11.2020
5656 Clouds 7 1030 87 8000 3.6 160 10:26 10.11.2020
5657 Clouds 7 1029 93 6000 2.6 140 09:51 10.11.2020
5658 Clouds 6 1029 93 6000 1.5 120 09:27 10.11.2020
5659 Clouds 6 1029 93 6000 2.1 140 08:59 10.11.2020
5660 Rain 6 1029 93 5000 1.5 130 08:38 10.11.2020
5661 Rain 6 1029 93 5000 1 0 08:19 10.11.2020
5662 Rain 6 1029 93 5000 2.1 170 07:38 10.11.2020
5663 Drizzle 6 1028 93 5000 2.1 170 07:18 10.11.2020
5664 Drizzle 6 1028 93 5000 1 0 06:38 10.11.2020
5665 Drizzle 6 1028 93 3900 1.5 60 05:33 10.11.2020
5666 Drizzle 6 1028 93 3800 1 60 03:36 10.11.2020
5667 Drizzle 6 1028 93 3200 1 0 01:41 10.11.2020
5668 Drizzle 6 1029 93 3300 1 0 00:52 10.11.2020
5669 Drizzle 6 1028 93 3500 1.5 80 23:47 09.11.2020
5670 Drizzle 6 1028 93 3500 1.5 80 23:23 09.11.2020
5671 Drizzle 6 1029 93 2600 1.5 80 22:42 09.11.2020
5672 Drizzle 6 1029 93 2800 1.5 90 22:22 09.11.2020
5673 Drizzle 6 1029 93 2500 1 0 21:44 09.11.2020
5674 Drizzle 6 1029 93 2500 1 0 21:26 09.11.2020
5675 Drizzle 6 1029 93 3900 1 40 20:42 09.11.2020
5676 Mist 6 1028 93 4500 1.5 10 20:22 09.11.2020
5677 Mist 6 1028 93 4300 1.5 50 19:49 09.11.2020
5678 Mist 6 1028 93 4500 1.5 50 19:24 09.11.2020
5679 Mist 6 1028 93 4500 1.5 50 18:59 09.11.2020
5680 Mist 6 1028 93 4900 1 50 18:40 09.11.2020
5681 Mist 6 1028 93 5000 1 0 18:19 09.11.2020
5682 Mist 6 1028 93 5000 1.5 90 17:44 09.11.2020
5683 Mist 6 1028 93 5000 1.5 90 17:26 09.11.2020
5684 Mist 7 1028 93 5000 2.1 100 16:44 09.11.2020
5685 Clouds 7 1027 93 6000 1.5 180 16:24 09.11.2020
5686 Clouds 7 1027 93 7000 2.6 160 15:47 09.11.2020
5687 Clouds 7 1027 93 7000 2.6 160 15:28 09.11.2020
5688 Clouds 7 1027 93 7000 1 0 14:51 09.11.2020
5689 Clouds 6 1027 93 7000 1 0 14:29 09.11.2020
5690 Clouds 6 1028 93 9000 2.1 150 13:59 09.11.2020
5691 Clouds 6 1028 93 8000 2.1 150 13:38 09.11.2020
5692 Clouds 6 1028 93 7000 1.5 120 13:18 09.11.2020
5693 Clouds 6 1028 93 7000 1.5 150 12:41 09.11.2020
5694 Mist 7 1028 93 4900 1 0 12:21 09.11.2020
5695 Mist 7 1028 93 4700 0.5 0 11:43 09.11.2020
5696 Mist 7 1028 100 2600 1 0 11:24 09.11.2020
5697 Mist 7 1028 100 2600 1 0 10:58 09.11.2020
5698 Mist 6 1028 100 1600 2.1 190 10:40 09.11.2020
5699 Fog 6 1028 93 1400 2.6 190 10:21 09.11.2020
5700 Fog 6 1028 93 1300 2.1 190 09:30 09.11.2020
5701 Mist 6 1028 93 1500 1.5 180 08:55 09.11.2020
5702 Fog 5 1027 100 750 0.5 0 08:28 09.11.2020
5703 Fog 5 1027 100 750 0.5 0 07:57 09.11.2020
5704 Fog 5 1027 100 700 1 170 07:24 09.11.2020
5705 Fog 5 1027 100 800 1.5 180 06:55 09.11.2020
5706 Fog 5 1027 100 650 1 0 05:38 09.11.2020
5707 Fog 4 1027 100 1500 1 0 02:22 09.11.2020
5708 Fog 4 1027 100 900 1.5 340 01:41 09.11.2020
5709 Fog 5 1027 100 750 1.5 340 00:56 09.11.2020
5710 Fog 5 1027 100 900 2.1 350 23:48 08.11.2020
5711 Mist 5 1027 100 1300 2.1 10 23:28 08.11.2020
5712 Fog 5 1027 100 800 1.5 350 22:43 08.11.2020
5713 Fog 5 1027 100 800 1.5 350 22:22 08.11.2020
5714 Fog 5 1027 100 650 2.6 20 21:48 08.11.2020
5715 Fog 5 1027 100 650 2.6 20 21:24 08.11.2020
5716 Fog 5 1027 100 700 2.1 20 20:57 08.11.2020
5717 Fog 5 1027 100 800 2.6 360 20:38 08.11.2020
5718 Mist 5 1027 100 1100 2.6 360 20:20 08.11.2020
5719 Fog 5 1027 100 1200 2.6 350 19:45 08.11.2020
5720 Fog 5 1027 100 1200 2.6 350 19:45 08.11.2020
5721 Fog 5 1027 100 1200 2.6 350 19:23 08.11.2020
5722 Fog 5 1027 100 1000 3.1 350 18:58 08.11.2020
5723 Mist 6 1027 100 2500 2.6 350 18:39 08.11.2020
5724 Mist 5 1027 100 2500 2.6 350 18:20 08.11.2020
5725 Mist 5 1027 93 4600 2.6 360 17:56 08.11.2020
5726 Mist 5 1027 93 4600 2.6 360 17:36 08.11.2020
5727 Mist 6 1027 87 3900 0.5 0 17:18 08.11.2020
5728 Mist 6 1027 87 4200 1 0 16:38 08.11.2020
5729 Mist 5 1026 93 3700 1 0 16:20 08.11.2020
5730 Mist 6 1026 93 3600 1.5 130 15:46 08.11.2020
5731 Mist 5 1026 93 3600 1.5 130 15:27 08.11.2020
5732 Mist 5 1027 93 3300 0.5 0 15:27 08.11.2020
5733 Mist 5 1027 93 3400 1 0 14:44 08.11.2020
5734 Mist 5 1027 93 3000 0.5 0 14:24 08.11.2020
5735 Mist 5 1027 93 3000 0.5 0 13:56 08.11.2020
5736 Mist 5 1027 93 3200 0.5 0 13:38 08.11.2020
5737 Mist 5 1027 93 2700 0.5 0 13:18 08.11.2020
5738 Mist 5 1027 93 2800 1.5 90 12:40 08.11.2020
5739 Mist 4 1028 100 1800 1 0 12:22 08.11.2020
5740 Mist 4 1028 100 1800 1 0 11:56 08.11.2020
5741 Mist 4 1028 100 1900 1 0 11:37 08.11.2020
5742 Mist 5 1028 100 1400 1 0 11:19 08.11.2020
5743 Fog 4 1028 100 1000 1.5 190 10:42 08.11.2020
5744 Fog 5 1027 100 1000 1.5 160 10:18 08.11.2020
5745 Fog 5 1027 100 1300 2.1 160 09:42 08.11.2020
5746 Fog 5 1027 100 1300 2.1 160 09:23 08.11.2020
5747 Mist 5 1027 100 2100 2.6 130 08:47 08.11.2020
5748 Mist 5 1027 100 2100 2.6 130 08:27 08.11.2020
5749 Fog 5 1027 100 2300 3.1 130 07:53 08.11.2020
5750 Mist 5 1026 100 3600 3.6 140 07:32 08.11.2020
5751 Mist 4 1026 93 5000 4.1 140 06:45 08.11.2020
5752 Clear 3 1023 96 10000 0.85 128 05:55 08.11.2020
5753 Clear 4 1023 96 10000 1.06 132 04:54 08.11.2020
5754 Clear 4 1026 87 10000 3.6 130 03:27 08.11.2020
5755 Clear 5 1026 87 10000 6.2 140 01:20 08.11.2020
5756 Clear 6 1026 87 10000 6.7 140 00:49 08.11.2020
5757 Clear 6 1027 87 10000 5.7 150 00:20 08.11.2020
5758 Clear 6 1026 81 10000 5.7 160 23:40 07.11.2020
5759 Clear 7 1026 81 10000 8.2 150 23:22 07.11.2020
5760 Clear 7 1026 81 10000 9.3 140 22:40 07.11.2020
5761 Clear 7 1026 81 10000 9.3 140 22:21 07.11.2020
5762 Clear 8 1026 76 10000 9.3 140 21:44 07.11.2020
5763 Clear 8 1027 76 10000 8.7 130 21:21 07.11.2020
5764 Clear 8 1027 81 10000 8.7 140 20:50 07.11.2020
5765 Clear 8 1027 81 10000 8.7 140 20:31 07.11.2020
5766 Clear 9 1027 81 10000 9.3 150 19:52 07.11.2020
5767 Clear 9 1027 76 10000 9.8 150 19:29 07.11.2020
5768 Clear 9 1027 76 10000 10.8 140 18:58 07.11.2020
5769 Clear 9 1028 76 10000 8.2 140 18:38 07.11.2020
5770 Clear 9 1028 71 10000 6.2 130 18:19 07.11.2020
5771 Clear 10 1028 71 10000 6.2 120 17:43 07.11.2020
5772 Clear 10 1028 71 10000 6.2 120 17:23 07.11.2020
5773 Clear 10 1028 66 10000 8.2 120 16:42 07.11.2020
5774 Clear 11 1028 58 10000 8.2 130 16:23 07.11.2020
5775 Clear 12 1029 62 10000 7.7 130 15:45 07.11.2020
5776 Clear 12 1029 62 10000 7.7 130 15:23 07.11.2020
5777 Clear 12 1029 58 10000 8.2 140 14:55 07.11.2020
5778 Clear 12 1029 58 10000 8.7 130 14:37 07.11.2020
5779 Clear 12 1029 58 10000 7.2 140 14:18 07.11.2020
5780 Clear 12 1030 71 10000 3.6 100 13:39 07.11.2020
5781 Clear 12 1030 76 10000 4.1 100 13:20 07.11.2020
5782 Clear 10 1031 76 10000 5.1 130 12:32 07.11.2020
5783 Clear 9 1031 84 10000 4.55 132 11:45 07.11.2020
5784 Clear 8 1032 81 10000 4.1 110 11:24 07.11.2020
5785 Clear 8 1032 81 10000 4.1 110 10:56 07.11.2020
5786 Clouds 7 1032 81 10000 4.6 120 10:37 07.11.2020
5787 Clouds 6 1032 86 10000 4.6 120 10:18 07.11.2020
5788 Mist 6 1032 93 5000 3.6 130 09:42 07.11.2020
5789 Mist 5 1032 100 2000 2.1 110 09:19 07.11.2020
5790 Mist 4 1032 100 2100 3.1 120 08:42 07.11.2020
5791 Mist 3 1032 100 2100 3.1 120 08:22 07.11.2020
5792 Clear 2 1032 67 10000 2.1 160 07:37 07.11.2020
5793 Clear 3 1032 68 10000 2.1 150 06:48 07.11.2020
5794 Clear 3 1029 92 10000 1.83 128 05:38 07.11.2020
5795 Clear 4 1032 62 10000 2.6 170 03:25 07.11.2020
5796 Clear 4 1030 92 10000 1 127 02:28 07.11.2020
5797 Clear 4 1033 61 6000 1.5 230 01:26 07.11.2020
5798 Clear 4 1033 60 6000 1.5 190 00:29 07.11.2020
5799 Mist 4 1033 93 5000 1.5 180 23:32 06.11.2020
5800 Clear 5 1033 93 7000 1 0 22:46 06.11.2020
5801 Clear 5 1033 86 6000 1 0 22:20 06.11.2020
5802 Clear 5 1033 86 6000 1 0 21:59 06.11.2020
5803 Clear 5 1033 86 9000 2.6 250 21:41 06.11.2020
5804 Clear 5 1033 86 10000 1 240 21:20 06.11.2020
5805 Clear 5 1033 86 10000 1 240 20:44 06.11.2020
5806 Clear 5 1033 86 9000 1 30 20:20 06.11.2020
5807 Clear 6 1034 93 10000 0.5 0 19:45 06.11.2020
5808 Clear 6 1034 93 10000 0.5 0 19:27 06.11.2020
5809 Clear 6 1034 87 10000 1.5 50 18:55 06.11.2020
5810 Clear 6 1034 87 10000 1.5 50 18:55 06.11.2020
5811 Mist 6 1034 87 10000 1.5 70 18:37 06.11.2020
5812 Clear 7 1034 81 10000 2.1 60 18:19 06.11.2020
5813 Clear 7 1033 87 10000 1.5 70 17:41 06.11.2020
5814 Clear 7 1033 87 10000 1.5 70 17:23 06.11.2020
5815 Clear 9 1034 71 10000 1 30 16:42 06.11.2020
5816 Clear 10 1034 71 10000 0.5 0 16:20 06.11.2020
5817 Clear 11 1034 71 10000 1 0 15:44 06.11.2020
5818 Clear 11 1034 71 10000 1 0 15:25 06.11.2020
5819 Clear 11 1034 66 10000 1.5 10 14:49 06.11.2020
5820 Clear 11 1034 66 10000 2.6 20 14:22 06.11.2020
5821 Clear 11 1035 66 10000 2.1 0 13:42 06.11.2020
5822 Clear 11 1035 66 10000 2.1 0 13:21 06.11.2020
5823 Clear 11 1035 70 10000 1.5 10 12:43 06.11.2020
5824 Clear 11 1035 70 10000 1.5 10 12:23 06.11.2020
5825 Clear 10 1035 70 10000 2.1 10 11:40 06.11.2020
5826 Clear 9 1035 70 10000 2.1 10 11:21 06.11.2020
5827 Clear 8 1036 81 10000 1.5 350 10:37 06.11.2020
5828 Clear 8 1033 86 10000 0.89 112 10:18 06.11.2020
5829 Clear 7 1036 80 10000 2.1 350 09:44 06.11.2020
5830 Clear 5 1036 86 9000 1 340 09:21 06.11.2020
5831 Clear 5 1033 90 10000 1.68 324 08:49 06.11.2020
5832 Clear 4 1033 91 10000 1.67 321 08:28 06.11.2020
5833 Clear 3 1035 87 10000 1.67 321 07:46 06.11.2020
5834 Mist 3 1035 73 10000 3.1 340 07:27 06.11.2020
5835 Clear 3 1035 93 10000 1 310 06:48 06.11.2020
5836 Clear 3 1035 86 10000 2.6 260 05:42 06.11.2020
5837 Clear 4 1036 86 10000 4.1 310 03:18 06.11.2020
5838 Clear 5 1036 80 10000 4.1 320 00:46 06.11.2020
5839 Clear 5 1036 80 10000 4.6 320 00:19 06.11.2020
5840 Clear 5 1036 86 10000 4.6 320 23:29 05.11.2020
5841 Clouds 6 1036 86 10000 4.1 320 22:57 05.11.2020
5842 Clouds 6 1036 81 10000 4.1 320 22:37 05.11.2020
5843 Clouds 6 1036 81 10000 4.1 320 22:18 05.11.2020
5844 Clouds 6 1036 81 10000 4.6 320 21:42 05.11.2020
5845 Clouds 6 1036 81 10000 4.6 320 21:21 05.11.2020
5846 Clouds 6 1036 75 10000 4.6 320 20:45 05.11.2020
5847 Clouds 7 1036 75 10000 4.6 320 20:26 05.11.2020
5848 Clouds 7 1036 70 10000 5.1 330 19:58 05.11.2020
5849 Clouds 7 1036 75 10000 5.7 320 19:40 05.11.2020
5850 Clouds 8 1036 75 10000 5.7 320 19:22 05.11.2020
5851 Clouds 8 1036 70 10000 4.1 330 18:42 05.11.2020
5852 Clouds 8 1035 75 10000 3.6 330 18:24 05.11.2020
5853 Clouds 9 1035 75 10000 3.6 330 17:52 05.11.2020
5854 Clouds 9 1035 75 10000 3.6 330 17:27 05.11.2020
5855 Clouds 10 1035 70 10000 4.1 340 16:58 05.11.2020
5856 Clouds 10 1035 66 10000 5.1 330 16:40 05.11.2020
5857 Clouds 11 1035 66 10000 5.7 350 16:19 05.11.2020
5858 Clouds 11 1035 62 10000 6.7 340 15:43 05.11.2020
5859 Clouds 12 1035 62 10000 7.2 340 15:21 05.11.2020
5860 Clouds 12 1035 58 10000 6.7 330 14:45 05.11.2020
5861 Clouds 12 1035 58 10000 6.7 330 14:25 05.11.2020
5862 Clouds 12 1035 62 10000 5.7 330 13:42 05.11.2020
5863 Clouds 12 1035 62 10000 5.7 330 13:23 05.11.2020
5864 Clouds 12 1035 62 10000 5.7 330 12:50 05.11.2020
5865 Clouds 11 1035 62 10000 5.7 330 12:25 05.11.2020
5866 Clouds 11 1036 66 10000 7.2 330 11:54 05.11.2020
5867 Clouds 11 1036 66 10000 7.2 330 11:28 05.11.2020
5868 Clouds 10 1036 66 10000 6.7 340 10:58 05.11.2020
5869 Clear 10 1036 70 10000 6.2 340 10:39 05.11.2020
5870 Clear 9 1036 75 10000 7.2 330 10:21 05.11.2020
5871 Clear 9 1035 70 10000 7.2 320 09:44 05.11.2020
5872 Clear 9 1035 70 10000 7.2 320 09:21 05.11.2020
5873 Clear 8 1035 75 10000 7.2 320 09:21 05.11.2020
5874 Clear 8 1035 75 10000 6.7 320 08:43 05.11.2020
5875 Clear 8 1035 75 10000 6.7 320 08:25 05.11.2020
5876 Clear 7 1034 75 10000 5.7 330 07:30 05.11.2020
5877 Clear 8 1034 81 10000 5.1 330 06:52 05.11.2020
5878 Clear 8 1034 81 10000 5.1 330 06:34 05.11.2020
5879 Clouds 8 1033 76 10000 5.1 320 05:22 05.11.2020
5880 Clear 10 1032 81 10000 5.1 330 01:23 05.11.2020
5881 Clouds 10 1032 81 10000 5.7 320 00:30 05.11.2020
5882 Clouds 10 1032 76 10000 6.2 320 23:44 04.11.2020
5883 Clouds 10 1032 76 10000 6.2 320 23:25 04.11.2020
5884 Clouds 10 1031 76 10000 5.7 320 22:48 04.11.2020
5885 Clouds 10 1031 76 10000 6.7 320 22:24 04.11.2020
5886 Clouds 10 1031 76 10000 6.7 320 22:24 04.11.2020
5887 Clouds 11 1031 76 10000 6.7 320 21:57 04.11.2020
5888 Clear 11 1031 76 10000 5.7 320 21:37 04.11.2020
5889 Clouds 10 1030 76 10000 6.2 320 21:18 04.11.2020
5890 Clouds 11 1030 76 10000 6.7 320 20:42 04.11.2020
5891 Clouds 11 1030 76 10000 6.7 320 20:24 04.11.2020
5892 Clouds 11 1030 76 10000 5.7 320 19:48 04.11.2020
5893 Clouds 11 1030 76 10000 5.7 320 19:29 04.11.2020
5894 Clouds 11 1029 71 10000 5.7 330 18:45 04.11.2020
5895 Clouds 11 1029 71 10000 5.7 330 18:27 04.11.2020
5896 Clouds 11 1029 71 10000 5.1 320 17:59 04.11.2020
5897 Clouds 11 1029 66 10000 5.7 320 17:40 04.11.2020
5898 Clouds 11 1029 66 10000 6.2 320 17:20 04.11.2020
5899 Clouds 11 1028 66 10000 6.2 320 16:38 04.11.2020
5900 Clouds 11 1028 66 10000 6.7 330 16:20 04.11.2020
5901 Clouds 12 1028 66 10000 6.7 320 15:47 04.11.2020
5902 Clouds 12 1028 66 10000 6.7 320 15:25 04.11.2020
5903 Clouds 12 1028 66 10000 6.7 330 14:57 04.11.2020
5904 Clouds 12 1028 71 10000 6.7 330 14:39 04.11.2020
5905 Clouds 12 1028 71 10000 7.7 330 14:18 04.11.2020
5906 Clouds 12 1028 71 10000 7.2 320 13:41 04.11.2020
5907 Clouds 12 1027 71 10000 8.2 320 13:19 04.11.2020
5908 Clouds 12 1028 71 10000 7.7 310 12:50 04.11.2020
5909 Clouds 12 1028 71 10000 7.7 310 12:26 04.11.2020
5910 Clouds 12 1028 71 10000 7.2 320 11:56 04.11.2020
5911 Clouds 12 1028 71 10000 7.2 320 11:56 04.11.2020
5912 Clouds 12 1028 71 10000 7.7 310 11:36 04.11.2020
5913 Clouds 12 1027 71 10000 7.7 310 11:18 04.11.2020
5914 Clouds 12 1027 76 10000 7.7 310 10:41 04.11.2020
5915 Clouds 12 1027 76 10000 7.7 310 10:22 04.11.2020
5916 Clouds 11 1027 76 10000 8.7 300 09:47 04.11.2020
5917 Clouds 11 1027 76 10000 8.7 300 09:22 04.11.2020
5918 Clouds 11 1026 81 10000 7.7 310 08:44 04.11.2020
5919 Clouds 11 1026 76 10000 7.7 300 08:18 04.11.2020
5920 Clouds 11 1026 81 10000 8.2 310 07:44 04.11.2020
5921 Clouds 11 1026 81 10000 8.2 310 07:26 04.11.2020
5922 Clouds 11 1025 81 10000 8.7 310 06:42 04.11.2020
5923 Clouds 11 1025 87 10000 10.3 300 05:59 04.11.2020
5924 Mist 13 1023 100 3800 3.1 280 02:32 04.11.2020
5925 Mist 14 1022 93 4500 0.5 0 01:42 04.11.2020
5926 Mist 14 1021 93 3400 1 0 00:41 04.11.2020
5927 Mist 14 1022 100 3500 1 150 23:38 03.11.2020
5928 Mist 15 1022 100 3500 1 150 23:20 03.11.2020
5929 Mist 15 1022 93 3200 1.5 120 22:41 03.11.2020
5930 Clouds 15 1022 93 6000 1 180 22:20 03.11.2020
5931 Clouds 15 1022 93 6000 1 180 21:55 03.11.2020
5932 Clouds 15 1022 93 7000 1 0 21:37 03.11.2020
5933 Clouds 15 1022 93 7000 1 0 21:18 03.11.2020
5934 Clouds 15 1022 93 7000 1 220 20:42 03.11.2020
5935 Clouds 16 1022 93 7000 1.5 180 20:21 03.11.2020
5936 Clouds 16 1022 93 7000 1.5 170 19:43 03.11.2020
5937 Clouds 16 1020 90 10000 0.82 315 19:20 03.11.2020
5938 Rain 16 1022 93 7000 1.5 170 18:44 03.11.2020
5939 Clouds 16 1022 93 7000 2.1 180 18:20 03.11.2020
5940 Clouds 16 1022 93 7000 2.1 180 17:55 03.11.2020
5941 Clouds 17 1021 87 10000 1.5 160 17:36 03.11.2020
5942 Clouds 17 1021 87 10000 1.5 160 17:36 03.11.2020
5943 Clouds 18 1021 88 10000 1 140 16:55 03.11.2020
5944 Clouds 18 1021 88 10000 1.5 60 16:36 03.11.2020
5945 Clouds 18 1021 82 10000 2.1 60 16:18 03.11.2020
5946 Clouds 18 1021 82 10000 1.5 80 15:41 03.11.2020
5947 Clouds 19 1021 82 10000 1.5 70 15:22 03.11.2020
5948 Clouds 19 1021 77 10000 2.1 360 14:46 03.11.2020
5949 Clouds 19 1021 77 10000 2.1 360 14:27 03.11.2020
5950 Clouds 19 1021 72 10000 1.5 300 13:44 03.11.2020
5951 Clouds 19 1021 72 10000 1.5 300 13:23 03.11.2020
5952 Clouds 18 1022 82 10000 1 0 12:49 03.11.2020
5953 Clouds 18 1022 82 10000 1 0 12:28 03.11.2020
5954 Clouds 18 1022 82 10000 1 0 11:59 03.11.2020
5955 Clouds 18 1022 82 10000 0.5 0 11:40 03.11.2020
5956 Clouds 18 1022 87 10000 1 0 11:18 03.11.2020
5957 Clouds 17 1022 93 10000 1.5 190 10:39 03.11.2020
5958 Clouds 15 1022 93 10000 1.5 190 10:39 03.11.2020
5959 Clouds 15 1022 93 10000 2.1 180 10:20 03.11.2020
5960 Clouds 17 1021 93 9000 2.1 190 09:49 03.11.2020
5961 Clouds 16 1021 93 9000 2.1 190 09:31 03.11.2020
5962 Clouds 15 1021 87 9000 1.5 200 08:55 03.11.2020
5963 Clouds 15 1021 93 8000 2.1 220 08:34 03.11.2020
5964 Clouds 14 1019 94 10000 0.45 180 07:49 03.11.2020
5965 Rain 13 1020 93 5000 2.6 160 07:22 03.11.2020
5966 Clouds 13 1020 100 6000 0.5 0 06:44 03.11.2020
5967 Clear 14 1019 93 10000 2.1 150 04:54 03.11.2020
5968 Clear 14 1019 93 10000 2.6 160 01:51 03.11.2020
5969 Clear 14 1019 93 10000 3.1 170 00:40 03.11.2020
5970 Clear 14 1019 87 10000 2.6 180 23:48 02.11.2020
5971 Clear 14 1019 87 10000 2.6 180 23:29 02.11.2020
5972 Clear 14 1019 93 10000 2.1 200 22:49 02.11.2020
5973 Clear 14 1019 93 10000 2.6 180 22:30 02.11.2020
5974 Clear 14 1019 93 10000 3.1 180 21:59 02.11.2020
5975 Rain 14 1019 93 10000 2.1 140 21:37 02.11.2020
5976 Clear 14 1019 93 10000 2.1 140 21:19 02.11.2020
5977 Clear 14 1019 93 10000 2.6 160 20:39 02.11.2020
5978 Clear 15 1019 87 10000 2.1 160 20:20 02.11.2020
5979 Clear 15 1019 93 10000 2.1 210 19:46 02.11.2020
5980 Clear 15 1019 93 10000 2.1 210 19:27 02.11.2020
5981 Clear 15 1019 87 10000 3.1 230 18:56 02.11.2020
5982 Clear 16 1019 87 10000 3.1 170 18:38 02.11.2020
5983 Clear 16 1018 82 10000 1.5 190 18:19 02.11.2020
5984 Clouds 17 1016 90 10000 1.68 224 17:41 02.11.2020
5985 Clouds 17 1018 72 10000 3.6 270 17:23 02.11.2020
5986 Rain 18 1018 77 10000 3.6 270 16:49 02.11.2020
5987 Clouds 18 1018 77 10000 3.6 270 16:30 02.11.2020
5988 Rain 18 1018 72 10000 4.6 280 15:57 02.11.2020
5989 Clouds 18 1018 72 10000 4.6 280 15:38 02.11.2020
5990 Clouds 18 1018 72 10000 4.6 280 15:38 02.11.2020
5991 Clouds 18 1018 72 10000 4.6 270 15:19 02.11.2020
5992 Clouds 18 1018 72 10000 4.6 270 15:19 02.11.2020
5993 Clouds 18 1018 72 10000 1 0 14:43 02.11.2020
5994 Clouds 17 1018 82 10000 1.5 120 14:19 02.11.2020
5995 Clouds 18 1018 82 10000 2.1 140 13:48 02.11.2020
5996 Clouds 18 1018 82 10000 2.1 140 13:22 02.11.2020
5997 Clouds 18 1018 87 10000 2.6 150 12:50 02.11.2020
5998 Clouds 17 1018 87 10000 2.6 150 12:27 02.11.2020
5999 Clouds 17 1019 87 10000 2.1 150 11:46 02.11.2020
6000 Clouds 15 1019 93 10000 2.6 150 11:20 02.11.2020
6001 Clouds 15 1019 93 10000 1.5 170 10:48 02.11.2020
6002 Clouds 15 1019 93 10000 1.5 170 10:26 02.11.2020
6003 Clouds 14 1019 93 10000 3.6 170 09:56 02.11.2020
6004 Clouds 14 1019 93 10000 3.1 190 09:30 02.11.2020
6005 Clouds 13 1019 100 10000 3.6 180 08:59 02.11.2020
6006 Clouds 13 1019 93 8000 3.1 170 08:39 02.11.2020
6007 Mist 13 1019 93 8000 3.6 180 08:19 02.11.2020
6008 Mist 13 1019 93 8000 3.1 190 07:42 02.11.2020
6009 Clouds 13 1019 100 7000 3.6 170 06:46 02.11.2020
6010 Clouds 13 1019 100 7000 3.1 180 05:39 02.11.2020
6011 Mist 11 1019 93 3400 2.1 190 01:35 02.11.2020
6012 Rain 11 1019 93 5000 2.6 170 00:41 02.11.2020
6013 Mist 11 1019 93 5000 2.6 170 00:23 02.11.2020
6014 Rain 11 1020 93 2800 2.1 180 23:40 01.11.2020
6015 Rain 11 1019 93 3500 2.1 190 23:21 01.11.2020
6016 Mist 11 1020 93 5000 3.1 190 22:44 01.11.2020
6017 Mist 11 1020 93 5000 3.1 190 22:23 01.11.2020
6018 Mist 11 1020 93 5000 3.1 180 21:46 01.11.2020
6019 Mist 11 1020 93 5000 3.1 180 21:26 01.11.2020
6020 Mist 11 1020 93 4900 2.6 240 20:51 01.11.2020
6021 Rain 11 1020 93 4900 2.6 240 20:29 01.11.2020
6022 Rain 11 1020 93 4900 1.5 270 19:58 01.11.2020
6023 Rain 11 1020 93 6000 0.5 0 19:39 01.11.2020
6024 Rain 11 1020 93 6000 0.5 0 19:39 01.11.2020
6025 Rain 11 1020 93 6000 2.1 170 19:20 01.11.2020
6026 Rain 11 1020 93 9000 3.1 160 18:40 01.11.2020
6027 Rain 11 1020 93 10000 2.6 150 18:19 01.11.2020
6028 Rain 11 1020 93 10000 2.6 150 17:56 01.11.2020
6029 Rain 11 1020 93 10000 1.5 140 17:37 01.11.2020
6030 Rain 11 1021 93 10000 1.5 190 17:18 01.11.2020
6031 Rain 11 1020 87 10000 2.6 130 16:39 01.11.2020
6032 Rain 11 1021 87 10000 1 0 16:19 01.11.2020
6033 Clouds 12 1020 87 10000 2.1 40 15:40 01.11.2020
6034 Rain 12 1020 87 10000 2.1 40 15:21 01.11.2020
6035 Rain 12 1021 87 10000 1 0 14:54 01.11.2020
6036 Rain 12 1019 87 10000 0.98 137 14:36 01.11.2020
6037 Rain 12 1019 86 10000 0.98 137 14:18 01.11.2020
6038 Rain 13 1019 86 10000 0.98 137 13:44 01.11.2020
6039 Rain 12 1020 93 10000 2.1 140 13:26 01.11.2020
6040 Clouds 12 1021 87 10000 2.1 160 12:43 01.11.2020
6041 Clouds 12 1021 87 10000 1.5 130 12:22 01.11.2020
6042 Clouds 13 1021 87 10000 1.5 130 11:50 01.11.2020
6043 Clouds 13 1021 93 10000 1.5 190 11:19 01.11.2020
6044 Mist 12 1021 93 6000 1.5 180 10:43 01.11.2020
6045 Mist 12 1021 93 6000 1.5 180 10:24 01.11.2020
6046 Mist 11 1022 93 5000 1.5 190 09:55 01.11.2020
6047 Fog 10 1022 100 2600 1.5 220 09:35 01.11.2020
6048 Fog 10 1022 93 4200 2.1 210 08:46 01.11.2020
6049 Clouds 10 1022 87 10000 4.1 130 08:20 01.11.2020
6050 Clouds 10 1022 93 10000 4.6 140 07:39 01.11.2020
6051 Mist 10 1021 93 5000 4.1 120 03:54 01.11.2020
6052 Clouds 11 1022 93 10000 2.1 100 01:49 01.11.2020
6053 Clouds 11 1022 87 10000 2.1 130 00:26 01.11.2020
6054 Clouds 10 1022 93 10000 2.1 150 23:26 31.10.2020
6055 Clouds 10 1023 93 10000 2.6 200 22:58 31.10.2020
6056 Clouds 10 1023 93 10000 2.6 170 22:39 31.10.2020
6057 Clouds 10 1023 87 10000 2.1 160 22:20 31.10.2020
6058 Clouds 11 1023 87 10000 0.5 0 21:44 31.10.2020
6059 Clouds 11 1022 87 10000 1.5 70 21:19 31.10.2020
6060 Clouds 12 1023 87 10000 2.6 40 20:38 31.10.2020
6061 Clouds 12 1023 76 10000 1 0 20:18 31.10.2020
6062 Clouds 13 1023 76 10000 2.6 330 19:41 31.10.2020
6063 Clouds 13 1023 76 10000 2.6 330 19:22 31.10.2020
6064 Clouds 13 1023 71 10000 2.6 320 18:47 31.10.2020
6065 Clouds 14 1023 71 10000 2.6 320 18:24 31.10.2020
6066 Clouds 14 1023 67 10000 2.6 300 17:40 31.10.2020
6067 Clouds 14 1023 67 10000 2.6 300 17:22 31.10.2020
6068 Clouds 15 1023 67 10000 3.6 330 16:44 31.10.2020
6069 Clouds 15 1023 63 10000 4.6 320 16:26 31.10.2020
6070 Clouds 15 1022 63 10000 5.1 320 15:45 31.10.2020
6071 Clouds 16 1022 63 10000 5.7 300 15:25 31.10.2020
6072 Clouds 16 1022 63 10000 5.7 300 14:52 31.10.2020
6073 Clouds 16 1022 63 10000 6.2 320 14:31 31.10.2020
6074 Clouds 16 1023 63 10000 6.7 310 13:51 31.10.2020
6075 Clouds 16 1023 59 10000 7.7 300 13:28 31.10.2020
6076 Clouds 15 1023 62 10000 7.7 300 12:45 31.10.2020
6077 Clouds 14 1023 62 10000 6.7 290 12:19 31.10.2020
6078 Clouds 14 1023 62 10000 6.2 290 11:39 31.10.2020
6079 Clouds 14 1023 67 10000 7.7 290 11:21 31.10.2020
6080 Clouds 14 1023 67 10000 7.7 280 10:37 31.10.2020
6081 Clouds 13 1023 67 10000 6.2 290 09:48 31.10.2020
6082 Clouds 13 1023 67 10000 6.2 290 09:30 31.10.2020
6083 Clouds 13 1023 67 10000 7.7 290 08:57 31.10.2020
6084 Clouds 13 1022 67 10000 8.7 280 08:20 31.10.2020
6085 Clouds 13 1022 67 10000 8.2 280 08:20 31.10.2020
6086 Clouds 13 1022 67 10000 8.7 290 07:28 31.10.2020
6087 Clouds 13 1022 67 10000 9.8 280 06:56 31.10.2020
6088 Clouds 13 1022 67 10000 9.8 290 06:36 31.10.2020
6089 Rain 12 1022 82 10000 9.3 280 03:47 31.10.2020
6090 Rain 12 1022 82 10000 8.7 280 02:27 31.10.2020
6091 Rain 13 1021 71 10000 9.8 280 00:52 31.10.2020
6092 Clouds 13 1021 71 10000 10.3 280 23:54 30.10.2020
6093 Clouds 13 1021 76 10000 8.2 280 23:30 30.10.2020
6094 Clouds 13 1021 76 10000 8.2 280 23:30 30.10.2020
6095 Clouds 13 1021 76 10000 7.7 280 22:59 30.10.2020
6096 Clouds 13 1021 82 10000 6.7 290 22:38 30.10.2020
6097 Clouds 12 1021 82 10000 7.2 280 22:19 30.10.2020
6098 Clouds 12 1021 82 10000 7.2 280 22:19 30.10.2020
6099 Rain 12 1021 82 10000 6.2 280 21:47 30.10.2020
6100 Rain 12 1021 82 10000 6.2 280 21:26 30.10.2020
6101 Rain 12 1021 82 10000 6.2 290 20:45 30.10.2020
6102 Rain 12 1021 82 10000 6.2 290 20:26 30.10.2020
6103 Rain 12 1021 82 10000 7.2 280 19:58 30.10.2020
6104 Rain 12 1021 82 10000 8.2 280 19:37 30.10.2020
6105 Rain 12 1021 82 10000 8.7 280 19:18 30.10.2020
6106 Rain 12 1021 82 10000 7.2 280 18:41 30.10.2020
6107 Rain 12 1021 82 10000 6.7 280 18:22 30.10.2020
6108 Rain 12 1020 82 10000 7.7 270 17:44 30.10.2020
6109 Rain 12 1020 82 10000 6.7 280 17:21 30.10.2020
6110 Rain 12 1018 94 10000 1.34 232 16:50 30.10.2020
6111 Rain 13 1020 76 10000 6.2 290 16:25 30.10.2020
6112 Rain 13 1020 82 10000 6.2 280 15:44 30.10.2020
6113 Rain 13 1020 82 10000 6.2 280 15:26 30.10.2020
6114 Rain 13 1020 82 10000 5.7 280 14:58 30.10.2020
6115 Rain 12 1021 82 10000 3.6 290 14:39 30.10.2020
6116 Rain 12 1021 87 10000 2.6 250 14:21 30.10.2020
6117 Rain 12 1021 87 10000 2.6 250 14:21 30.10.2020
6118 Clouds 12 1021 93 10000 3.1 190 13:42 30.10.2020
6119 Rain 12 1021 93 10000 3.1 180 13:20 30.10.2020
6120 Rain 11 1021 93 10000 3.1 180 12:46 30.10.2020
6121 Rain 11 1021 93 10000 4.1 170 12:22 30.10.2020
6122 Rain 11 1022 93 10000 3.6 170 11:55 30.10.2020
6123 Rain 10 1022 93 10000 4.1 170 11:21 30.10.2020
6124 Rain 10 1022 93 10000 4.1 170 10:50 30.10.2020
6125 Rain 10 1022 93 10000 3.6 180 10:25 30.10.2020
6126 Rain 9 1022 93 10000 3.6 180 09:48 30.10.2020
6127 Rain 9 1022 93 10000 3.6 180 09:25 30.10.2020
6128 Rain 9 1022 87 10000 3.6 190 08:59 30.10.2020
6129 Rain 9 1022 87 10000 3.6 190 08:31 30.10.2020
6130 Rain 9 1022 93 10000 3.1 180 07:52 30.10.2020
6131 Rain 9 1022 93 10000 2.1 180 07:33 30.10.2020
6132 Rain 9 1022 93 10000 2.6 230 06:49 30.10.2020
6133 Rain 9 1022 87 10000 3.1 270 05:45 30.10.2020
6134 Rain 9 1022 76 10000 4.6 280 02:43 30.10.2020
6135 Clear 9 1022 76 10000 5.7 280 01:18 30.10.2020
6136 Rain 9 1022 81 10000 4.6 300 23:58 29.10.2020
6137 Clear 9 1022 81 10000 4.1 300 23:40 29.10.2020
6138 Clear 9 1022 76 10000 4.6 290 23:21 29.10.2020
6139 Clear 9 1022 81 10000 4.1 300 22:43 29.10.2020
6140 Clear 9 1022 81 10000 4.1 300 22:24 29.10.2020
6141 Clouds 9 1021 81 10000 4.6 300 21:43 29.10.2020
6142 Clouds 9 1021 81 10000 4.6 300 21:22 29.10.2020
6143 Clouds 9 1021 76 10000 3.6 310 21:22 29.10.2020
6144 Clouds 9 1021 76 10000 4.6 300 20:42 29.10.2020
6145 Clouds 9 1021 81 10000 3.6 300 20:21 29.10.2020
6146 Clouds 9 1021 81 10000 3.6 300 19:54 29.10.2020
6147 Clear 9 1020 76 10000 5.7 290 19:36 29.10.2020
6148 Clear 10 1020 76 10000 6.2 280 19:18 29.10.2020
6149 Clear 10 1020 71 10000 5.7 270 18:41 29.10.2020
6150 Clear 10 1019 76 10000 5.1 270 18:21 29.10.2020
6151 Clear 10 1019 76 10000 6.7 270 17:42 29.10.2020
6152 Clouds 10 1019 71 10000 7.7 270 17:21 29.10.2020
6153 Clouds 11 1018 71 10000 7.7 260 16:52 29.10.2020
6154 Clouds 11 1018 66 10000 8.2 270 16:23 29.10.2020
6155 Clouds 12 1018 66 10000 6.7 280 15:57 29.10.2020
6156 Rain 12 1018 66 10000 6.7 280 15:39 29.10.2020
6157 Rain 13 1018 66 10000 6.7 280 15:21 29.10.2020
6158 Clouds 13 1018 76 10000 4.6 250 14:46 29.10.2020
6159 Clouds 13 1018 76 10000 6.7 270 14:24 29.10.2020
6160 Rain 12 1018 81 10000 6.2 280 13:49 29.10.2020
6161 Rain 12 1018 81 10000 6.2 280 13:28 29.10.2020
6162 Rain 12 1018 76 10000 4.6 270 12:59 29.10.2020
6163 Rain 12 1018 81 10000 2.1 260 12:39 29.10.2020
6164 Rain 12 1019 81 10000 1.5 250 12:19 29.10.2020
6165 Rain 12 1018 87 10000 1 0 11:44 29.10.2020
6166 Rain 12 1018 81 10000 1.5 230 11:24 29.10.2020
6167 Rain 11 1018 81 10000 1.5 220 10:37 29.10.2020
6168 Rain 11 1018 87 10000 1 0 10:19 29.10.2020
6169 Rain 11 1018 87 10000 1 0 09:51 29.10.2020
6170 Rain 10 1018 87 10000 0.5 0 09:28 29.10.2020
6171 Rain 10 1017 81 10000 2.6 160 08:55 29.10.2020
6172 Rain 10 1017 87 10000 2.6 160 08:33 29.10.2020
6173 Rain 10 1017 87 10000 2.6 160 07:54 29.10.2020
6174 Rain 10 1017 93 10000 4.1 170 07:35 29.10.2020
6175 Rain 10 1017 87 10000 2.1 180 06:56 29.10.2020
6176 Rain 9 1017 93 10000 2.1 190 04:52 29.10.2020
6177 Rain 9 1017 93 10000 1.5 210 03:58 29.10.2020
6178 Clouds 9 1015 88 10000 0.45 247 01:22 29.10.2020
6179 Clouds 8 1015 86 10000 1.64 284 00:31 29.10.2020
6180 Clouds 9 1015 84 10000 0.89 244 23:46 28.10.2020
6181 Clouds 9 1015 85 10000 0.89 252 23:21 28.10.2020
6182 Clear 9 1018 93 10000 2.6 170 22:45 28.10.2020
6183 Clear 9 1018 93 10000 2.6 170 22:26 28.10.2020
6184 Clear 9 1018 93 10000 2.6 170 21:58 28.10.2020
6185 Clear 10 1018 87 10000 2.6 250 21:40 28.10.2020
6186 Clear 10 1018 93 10000 0.5 0 21:20 28.10.2020
6187 Clear 10 1017 87 10000 1.5 160 20:42 28.10.2020
6188 Clear 10 1017 81 10000 2.6 230 20:22 28.10.2020
6189 Clear 11 1017 87 10000 3.1 210 19:50 28.10.2020
6190 Clear 11 1017 87 10000 3.1 210 19:28 28.10.2020
6191 Clear 11 1017 81 10000 2.1 190 18:48 28.10.2020
6192 Clear 11 1017 81 10000 1.5 170 18:21 28.10.2020
6193 Clear 11 1017 81 10000 1.5 170 18:21 28.10.2020
6194 Clear 11 1016 81 10000 2.6 130 17:45 28.10.2020
6195 Clear 11 1016 76 10000 3.1 160 17:25 28.10.2020
6196 Clear 12 1016 76 10000 3.1 160 16:57 28.10.2020
6197 Clear 13 1016 71 10000 2.6 160 16:39 28.10.2020
6198 Clear 14 1016 67 10000 1.5 140 16:20 28.10.2020
6199 Clear 15 1016 67 10000 1.5 140 15:38 28.10.2020
6200 Clouds 16 1016 72 10000 0.55 223 15:19 28.10.2020
6201 Clear 16 1016 67 10000 1.5 70 14:43 28.10.2020
6202 Clear 14 1016 67 10000 1.5 70 14:23 28.10.2020
6203 Clear 14 1017 70 10000 2.24 59 12:48 28.10.2020
6204 Clear 13 1014 82 10000 1.34 112 12:27 28.10.2020
6205 Clear 13 1014 82 10000 0.45 112 11:57 28.10.2020
6206 Clouds 12 1016 76 10000 1 0 11:39 28.10.2020
6207 Clear 12 1014 83 10000 0.89 106 11:19 28.10.2020
6208 Clouds 11 1016 76 10000 0.5 0 10:44 28.10.2020
6209 Clear 11 1014 84 10000 0.86 164 10:26 28.10.2020
6210 Clouds 9 1016 81 10000 1.5 280 09:44 28.10.2020
6211 Clouds 9 1016 81 10000 1.5 280 09:23 28.10.2020
6212 Clouds 8 1016 81 10000 2.1 250 08:51 28.10.2020
6213 Clouds 7 1016 81 10000 2.1 250 08:31 28.10.2020
6214 Clouds 7 1016 87 10000 2.1 250 07:54 28.10.2020
6215 Clouds 7 1016 87 10000 1 310 07:31 28.10.2020
6216 Clouds 6 1016 87 10000 0.5 0 06:56 28.10.2020
6217 Clouds 6 1015 87 10000 1.5 340 06:37 28.10.2020
6218 Clouds 6 1015 87 10000 1 0 05:23 28.10.2020
6219 Clouds 6 1015 87 10000 1.5 300 04:50 28.10.2020
6220 Clouds 6 1015 87 10000 2.6 290 03:31 28.10.2020
6221 Clouds 7 1016 87 10000 2.1 270 01:55 28.10.2020
6222 Clouds 7 1016 87 10000 1 0 00:33 28.10.2020
6223 Drizzle 7 1016 87 10000 1 50 23:47 27.10.2020
6224 Clouds 8 1016 81 7000 2.6 310 23:21 27.10.2020
6225 Drizzle 8 1016 76 10000 3.1 300 22:44 27.10.2020
6226 Clouds 8 1016 76 10000 5.1 300 22:19 27.10.2020
6227 Clouds 8 1016 76 10000 5.1 300 21:57 27.10.2020
6228 Clouds 8 1016 76 10000 5.1 300 21:57 27.10.2020
6229 Clouds 8 1016 76 10000 4.6 310 21:38 27.10.2020
6230 Clouds 8 1016 76 10000 4.6 300 21:19 27.10.2020
6231 Clouds 8 1015 76 10000 4.6 310 20:50 27.10.2020
6232 Clouds 8 1015 76 10000 3.1 300 20:24 27.10.2020
6233 Clouds 8 1015 76 10000 3.1 300 19:57 27.10.2020
6234 Clouds 8 1015 76 10000 3.6 310 19:38 27.10.2020
6235 Clouds 8 1015 76 10000 4.6 310 19:19 27.10.2020
6236 Clouds 8 1015 81 10000 4.1 290 18:45 27.10.2020
6237 Clouds 8 1015 81 10000 3.1 290 18:27 27.10.2020
6238 Clouds 8 1015 81 10000 3.1 290 17:59 27.10.2020
6239 Clouds 8 1014 81 10000 4.6 300 17:40 27.10.2020
6240 Clouds 8 1014 81 10000 5.1 290 17:19 27.10.2020
6241 Clouds 8 1014 87 10000 4.6 310 16:44 27.10.2020
6242 Clouds 8 1014 87 10000 4.6 310 16:23 27.10.2020
6243 Clouds 9 1014 81 10000 5.1 300 15:42 27.10.2020
6244 Clouds 9 1014 81 10000 4.6 290 15:24 27.10.2020
6245 Clouds 9 1013 76 10000 5.7 300 14:51 27.10.2020
6246 Rain 9 1013 76 10000 5.7 300 14:32 27.10.2020
6247 Clouds 9 1013 76 10000 4.6 300 13:59 27.10.2020
6248 Clouds 9 1013 81 10000 4.6 300 13:32 27.10.2020
6249 Clouds 9 1013 76 10000 4.6 290 12:54 27.10.2020
6250 Clouds 9 1013 76 10000 4.6 290 12:36 27.10.2020
6251 Clouds 9 1013 76 10000 5.1 300 12:18 27.10.2020
6252 Clouds 9 1013 76 10000 4.6 300 11:42 27.10.2020
6253 Rain 9 1012 76 10000 5.1 310 11:21 27.10.2020
6254 Clouds 8 1012 81 10000 5.7 300 10:44 27.10.2020
6255 Clouds 8 1012 81 10000 4.6 290 10:21 27.10.2020
6256 Clouds 8 1012 81 10000 5.1 280 09:42 27.10.2020
6257 Clouds 8 1012 81 10000 5.1 280 09:23 27.10.2020
6258 Clouds 8 1012 81 10000 4.1 290 08:33 27.10.2020
6259 Clouds 8 1011 81 10000 4.6 310 07:58 27.10.2020
6260 Clouds 8 1011 81 10000 4.1 300 07:40 27.10.2020
6261 Clouds 8 1010 81 10000 4.6 300 07:21 27.10.2020
6262 Clouds 9 1010 76 10000 4.1 300 06:21 27.10.2020
6263 Clouds 9 1010 76 10000 4.1 300 05:47 27.10.2020
6264 Clouds 9 1010 76 10000 4.1 300 05:28 27.10.2020
6265 Clouds 10 1009 81 10000 3.1 310 04:43 27.10.2020
6266 Clouds 11 1009 81 10000 2.6 300 01:32 27.10.2020
6267 Clouds 11 1009 81 10000 2.1 310 00:48 27.10.2020
6268 Clouds 11 1009 81 10000 1.5 230 23:40 26.10.2020
6269 Clouds 11 1008 81 10000 3.1 290 23:19 26.10.2020
6270 Clouds 11 1008 81 10000 2.1 310 22:46 26.10.2020
6271 Clouds 11 1008 76 10000 2.6 320 22:21 26.10.2020
6272 Clouds 11 1008 71 10000 5.1 280 21:42 26.10.2020
6273 Clouds 11 1007 76 10000 5.1 280 21:19 26.10.2020
6274 Clouds 11 1007 76 10000 5.1 280 20:55 26.10.2020
6275 Clear 11 1007 76 10000 6.2 280 20:37 26.10.2020
6276 Clear 12 1007 76 10000 5.7 280 20:18 26.10.2020
6277 Clear 12 1006 71 10000 6.7 280 19:44 26.10.2020
6278 Clear 12 1006 76 10000 5.1 300 19:22 26.10.2020
6279 Clear 12 1005 82 10000 4.6 300 18:42 26.10.2020
6280 Clear 12 1005 82 10000 5.1 290 18:22 26.10.2020
6281 Clear 13 1004 72 10000 5.7 250 17:45 26.10.2020
6282 Clear 13 1004 72 10000 5.7 250 17:24 26.10.2020
6283 Clear 14 1003 72 10000 5.1 160 16:59 26.10.2020
6284 Clear 15 1003 63 10000 5.7 170 16:39 26.10.2020
6285 Clouds 16 1003 67 10000 5.7 160 16:19 26.10.2020
6286 Clouds 17 1003 63 10000 7.7 170 15:41 26.10.2020
6287 Clouds 17 1003 63 10000 8.7 170 15:20 26.10.2020
6288 Clouds 17 1003 63 10000 7.7 170 15:20 26.10.2020
6289 Clouds 17 1003 63 10000 7.7 170 15:20 26.10.2020
6290 Clouds 18 1003 59 10000 8.2 160 14:46 26.10.2020
6291 Clouds 18 1003 63 10000 8.2 160 14:26 26.10.2020
6292 Clouds 18 1003 67 10000 8.7 160 13:43 26.10.2020
6293 Clouds 17 1003 67 10000 7.7 160 13:23 26.10.2020
6294 Clouds 16 1004 72 10000 8.2 160 12:48 26.10.2020
6295 Clouds 15 1004 72 10000 8.2 160 12:27 26.10.2020
6296 Clouds 15 1004 77 10000 6.2 140 11:57 26.10.2020
6297 Clouds 15 1004 82 10000 6.7 140 11:37 26.10.2020
6298 Clouds 14 1005 87 10000 7.2 130 11:19 26.10.2020
6299 Clouds 13 1005 87 10000 6.7 130 10:44 26.10.2020
6300 Clouds 12 1005 87 10000 6.7 130 10:25 26.10.2020
6301 Clouds 11 1005 93 10000 7.2 130 09:48 26.10.2020
6302 Clouds 11 1006 93 10000 7.2 130 09:26 26.10.2020
6303 Clouds 11 1006 93 10000 6.2 130 08:48 26.10.2020
6304 Clouds 11 1006 93 10000 6.7 140 08:22 26.10.2020
6305 Clouds 10 1006 93 10000 7.2 140 07:38 26.10.2020
6306 Clouds 11 1006 100 9000 7.2 140 07:18 26.10.2020
6307 Clouds 11 1007 100 7000 6.2 140 05:30 26.10.2020
6308 Clouds 11 1008 93 7000 7.2 140 04:18 26.10.2020
6309 Clouds 11 1008 93 8000 6.2 130 03:20 26.10.2020
6310 Clouds 11 1008 93 8000 6.2 130 03:20 26.10.2020
6311 Clouds 11 1008 93 8000 6.2 130 03:20 26.10.2020
6312 Clouds 11 1008 93 8000 6.2 130 03:20 26.10.2020
6313 Clouds 11 1010 93 7000 6.2 150 01:34 26.10.2020
6314 Clouds 11 1010 87 8000 7.2 140 00:33 26.10.2020
6315 Clouds 12 1010 93 7000 6.7 140 23:45 25.10.2020
6316 Clouds 12 1010 93 7000 6.7 140 23:22 25.10.2020
6317 Clouds 12 1010 93 7000 5.7 140 22:44 25.10.2020
6318 Clouds 12 1010 93 7000 5.7 140 22:25 25.10.2020
6319 Clouds 12 1011 93 8000 5.7 140 21:49 25.10.2020
6320 Clouds 12 1011 93 8000 5.7 140 21:30 25.10.2020
6321 Clouds 12 1011 93 9000 6.2 140 20:58 25.10.2020
6322 Clouds 12 1011 93 9000 5.7 130 20:39 25.10.2020
6323 Clouds 12 1011 93 9000 4.1 120 20:19 25.10.2020
6324 Clouds 12 1011 93 9000 4.1 120 19:49 25.10.2020
6325 Clouds 12 1011 93 8000 4.1 130 19:26 25.10.2020
6326 Clouds 12 1011 93 8000 3.6 130 18:58 25.10.2020
6327 Clouds 12 1012 93 7000 4.6 140 18:40 25.10.2020
6328 Clouds 12 1012 93 7000 3.6 130 18:21 25.10.2020
6329 Clouds 12 1012 93 7000 3.6 130 17:54 25.10.2020
6330 Clouds 12 1012 93 8000 4.1 160 17:36 25.10.2020
6331 Clouds 12 1012 93 10000 4.1 150 17:18 25.10.2020
6332 Clear 12 1011 90 10000 4.01 130 16:39 25.10.2020
6333 Clouds 12 1012 87 10000 2.1 130 16:21 25.10.2020
6334 Mist 12 1012 93 8000 1.5 80 15:47 25.10.2020
6335 Mist 12 1012 100 8000 2.1 80 15:26 25.10.2020
6336 Clouds 13 1012 93 7000 2.6 60 14:52 25.10.2020
6337 Clouds 13 1012 93 7000 2.6 60 14:29 25.10.2020
6338 Mist 13 1013 100 4500 1.5 40 13:44 25.10.2020
6339 Mist 12 1013 100 1400 1.5 110 13:23 25.10.2020
6340 Fog 12 1014 100 3200 2.6 90 12:49 25.10.2020
6341 Fog 12 1014 100 1100 2.1 60 12:27 25.10.2020
6342 Fog 12 1014 100 1100 2.1 60 11:58 25.10.2020
6343 Fog 12 1014 100 1000 1.5 60 11:40 25.10.2020
6344 Mist 11 1015 100 2300 1.5 300 11:19 25.10.2020
6345 Fog 10 1015 100 1300 1.5 300 10:45 25.10.2020
6346 Fog 11 1015 100 1300 1.5 300 10:25 25.10.2020
6347 Fog 11 1015 93 1200 1 0 09:50 25.10.2020
6348 Clear 10 1015 93 10000 0.43 278 09:21 25.10.2020
6349 Mist 10 1016 100 1500 1 0 08:58 25.10.2020
6350 Drizzle 10 1016 100 900 1.5 250 08:40 25.10.2020
6351 Fog 10 1016 100 900 2.1 290 08:22 25.10.2020
6352 Mist 10 1016 100 1000 1.5 330 07:42 25.10.2020
6353 Mist 10 1015 100 1200 2.1 340 06:52 25.10.2020
6354 Fog 9 1015 100 750 1 0 06:26 25.10.2020
6355 Fog 9 1015 100 400 0.5 0 05:19 25.10.2020
6356 Fog 9 1016 100 350 0.5 0 04:48 25.10.2020
6357 Fog 10 1017 100 250 1.5 20 02:24 25.10.2020
6358 Clouds 11 1015 97 10000 0.45 202 00:53 25.10.2020
6359 Clear 11 1017 93 10000 1 0 00:28 25.10.2020
6360 Clear 12 1017 93 10000 0.5 0 23:54 24.10.2020
6361 Clear 12 1017 93 10000 1 130 23:31 24.10.2020
6362 Clear 12 1017 93 10000 1 0 22:58 24.10.2020
6363 Clear 12 1017 87 10000 1.5 360 22:40 24.10.2020
6364 Clear 12 1017 87 10000 2.6 310 22:21 24.10.2020
6365 Clouds 12 1015 95 10000 0.89 213 21:44 24.10.2020
6366 Clouds 12 1015 95 10000 0.45 218 21:44 24.10.2020
6367 Clouds 12 1015 95 10000 0.45 218 21:44 24.10.2020
6368 Clear 12 1017 93 10000 2.1 330 21:22 24.10.2020
6369 Clear 12 1017 93 10000 1 0 20:58 24.10.2020
6370 Clear 12 1017 93 10000 1 40 20:39 24.10.2020
6371 Clear 12 1017 93 10000 1 40 20:20 24.10.2020
6372 Clouds 13 1017 87 10000 1.5 30 19:40 24.10.2020
6373 Clouds 13 1017 87 10000 1.5 30 19:22 24.10.2020
6374 Clouds 13 1017 82 10000 3.1 300 18:49 24.10.2020
6375 Clouds 14 1017 82 10000 3.1 300 18:28 24.10.2020
6376 Clouds 15 1017 77 10000 3.1 320 17:44 24.10.2020
6377 Clouds 15 1017 77 10000 3.1 320 17:25 24.10.2020
6378 Clouds 16 1017 72 10000 3.6 310 16:53 24.10.2020
6379 Clouds 17 1017 72 10000 3.6 310 16:34 24.10.2020
6380 Clouds 16 1017 72 10000 4.6 310 15:57 24.10.2020
6381 Clouds 17 1017 77 10000 4.1 310 15:37 24.10.2020
6382 Clouds 17 1017 72 10000 3.6 310 15:18 24.10.2020
6383 Clouds 17 1017 72 10000 4.1 320 14:30 24.10.2020
6384 Clouds 16 1017 82 10000 6.2 310 13:55 24.10.2020
6385 Clouds 16 1017 82 10000 6.2 310 13:36 24.10.2020
6386 Clouds 16 1017 82 10000 6.2 310 13:18 24.10.2020
6387 Rain 15 1017 87 10000 5.1 310 12:37 24.10.2020
6388 Rain 14 1017 87 10000 3.6 290 12:19 24.10.2020
6389 Rain 13 1017 93 10000 2.1 250 11:49 24.10.2020
6390 Rain 13 1015 94 10000 1.79 247 11:20 24.10.2020
6391 Rain 13 1017 93 4000 1 0 10:43 24.10.2020
6392 Rain 13 1015 95 10000 0.89 236 10:25 24.10.2020
6393 Rain 13 1015 96 10000 0.89 238 09:45 24.10.2020
6394 Rain 13 1014 96 10000 1.34 208 09:26 24.10.2020
6395 Rain 13 1014 96 10000 2.24 232 08:56 24.10.2020
6396 Rain 12 1014 96 10000 0.89 241 08:19 24.10.2020
6397 Rain 12 1015 93 2700 1.5 170 07:51 24.10.2020
6398 Rain 10 1015 93 2700 1.5 170 07:20 24.10.2020
6399 Rain 10 1015 93 2100 1.5 220 06:50 24.10.2020
6400 Rain 9 1015 100 2000 1.5 180 05:43 24.10.2020
6401 Mist 9 1015 93 4400 1.5 140 02:26 24.10.2020
6402 Fog 9 1016 100 2500 1 0 00:56 24.10.2020
6403 Fog 9 1016 100 2000 1 180 00:37 24.10.2020
6404 Rain 9 1016 100 2000 2.6 220 00:19 24.10.2020
6405 Rain 9 1015 100 1000 1 110 23:41 23.10.2020
6406 Fog 9 1015 100 1000 1 110 23:22 23.10.2020
6407 Rain 9 1016 100 700 1 0 22:42 23.10.2020
6408 Fog 9 1015 100 550 2.1 170 22:22 23.10.2020
6409 Fog 9 1015 100 550 2.1 170 21:58 23.10.2020
6410 Fog 10 1015 100 550 2.6 160 21:39 23.10.2020
6411 Fog 10 1015 93 500 2.6 130 21:20 23.10.2020
6412 Fog 10 1015 93 500 2.1 160 20:39 23.10.2020
6413 Fog 10 1015 93 650 2.6 120 20:20 23.10.2020
6414 Fog 10 1016 100 500 2.1 140 19:45 23.10.2020
6415 Fog 10 1016 100 500 2.1 140 19:26 23.10.2020
6416 Mist 10 1015 100 1500 2.6 150 18:48 23.10.2020
6417 Mist 11 1015 93 3300 3.1 130 18:30 23.10.2020
6418 Mist 11 1016 87 5000 1 0 17:47 23.10.2020
6419 Mist 11 1016 87 5000 1.5 170 17:22 23.10.2020
6420 Mist 11 1016 87 5000 1.5 170 16:55 23.10.2020
6421 Clouds 11 1016 87 6000 1.5 160 16:35 23.10.2020
6422 Clouds 12 1016 87 7000 1.5 110 15:58 23.10.2020
6423 Clouds 12 1016 93 6000 2.1 150 15:40 23.10.2020
6424 Clouds 12 1016 87 7000 2.1 160 15:19 23.10.2020
6425 Clouds 12 1016 87 7000 2.1 160 15:19 23.10.2020
6426 Clouds 12 1017 87 7000 1.5 120 14:48 23.10.2020
6427 Clouds 12 1017 87 7000 1.5 120 14:29 23.10.2020
6428 Mist 12 1017 93 5000 1 0 13:43 23.10.2020
6429 Mist 12 1017 93 5000 1 0 13:24 23.10.2020
6430 Mist 12 1017 87 4900 0.5 0 12:51 23.10.2020
6431 Mist 10 1018 93 4500 1 0 12:31 23.10.2020
6432 Fog 9 1018 100 2000 1 0 11:56 23.10.2020
6433 Fog 9 1018 100 2000 1 0 11:38 23.10.2020
6434 Rain 9 1018 93 1300 0.5 0 11:19 23.10.2020
6435 Fog 9 1018 100 350 1 90 10:39 23.10.2020
6436 Fog 9 1018 100 400 0.5 0 10:20 23.10.2020
6437 Fog 8 1018 100 200 1 0 09:43 23.10.2020
6438 Fog 9 1018 93 300 0.5 0 09:23 23.10.2020
6439 Fog 8 1018 93 300 0.5 0 08:51 23.10.2020
6440 Clouds 8 1015 95 10000 0.62 139 08:26 23.10.2020
6441 Clouds 8 1015 95 10000 0.15 146 07:27 23.10.2020
6442 Clouds 8 1015 96 10000 0.15 146 06:49 23.10.2020
6443 Clouds 7 1015 95 10000 0.1 176 06:20 23.10.2020
6444 Fog 8 1019 93 400 1.5 220 03:44 23.10.2020
6445 Fog 8 1019 100 1200 1 180 02:27 23.10.2020
6446 Fog 8 1019 93 4800 1.5 180 00:54 23.10.2020
6447 Fog 8 1019 93 4800 1.5 180 00:32 23.10.2020
6448 Clouds 8 1019 93 6000 1 140 23:38 22.10.2020
6449 Clouds 9 1019 93 6000 1.5 130 23:19 22.10.2020
6450 Clouds 9 1020 93 9000 1.5 120 22:45 22.10.2020
6451 Clouds 9 1020 93 9000 1.5 120 22:26 22.10.2020
6452 Clouds 9 1020 93 9000 1.5 120 21:58 22.10.2020
6453 Clear 10 1020 93 10000 1 140 21:38 22.10.2020
6454 Clear 10 1020 87 10000 2.1 120 21:18 22.10.2020
6455 Clear 10 1020 87 10000 0.5 0 20:43 22.10.2020
6456 Clear 10 1020 87 10000 1 0 20:24 22.10.2020
6457 Clear 11 1020 87 10000 2.6 140 19:43 22.10.2020
6458 Clear 11 1020 81 10000 2.1 140 19:21 22.10.2020
6459 Clear 11 1020 81 10000 2.1 140 18:57 22.10.2020
6460 Clear 12 1020 81 10000 2.1 120 18:36 22.10.2020
6461 Clear 12 1020 76 10000 2.1 100 18:18 22.10.2020
6462 Clear 13 1020 76 10000 2.1 120 17:42 22.10.2020
6463 Clear 14 1020 71 10000 2.6 160 17:20 22.10.2020
6464 Clear 14 1020 71 10000 1.5 150 16:44 22.10.2020
6465 Clear 15 1020 71 10000 1.5 150 16:24 22.10.2020
6466 Clouds 14 1020 71 10000 2.1 160 15:49 22.10.2020
6467 Clouds 15 1020 71 10000 1 0 15:27 22.10.2020
6468 Clouds 14 1020 76 10000 1.5 120 14:50 22.10.2020
6469 Clouds 14 1020 76 10000 1.5 120 14:29 22.10.2020
6470 Clouds 14 1021 71 10000 1.5 220 13:58 22.10.2020
6471 Clouds 14 1021 71 10000 1.5 220 13:39 22.10.2020
6472 Clouds 14 1021 71 10000 1.5 0 13:20 22.10.2020
6473 Clouds 13 1021 76 10000 1 0 12:29 22.10.2020
6474 Clouds 12 1021 87 10000 0.5 0 11:54 22.10.2020
6475 Clouds 11 1021 81 10000 2.1 360 11:36 22.10.2020
6476 Clouds 11 1021 87 10000 2.1 360 11:18 22.10.2020
6477 Clouds 10 1021 93 8000 1.5 350 10:44 22.10.2020
6478 Clouds 10 1021 93 8000 1.5 350 10:23 22.10.2020
6479 Clouds 9 1018 95 10000 0.45 270 09:42 22.10.2020
6480 Clouds 9 1018 96 10000 0.89 260 09:18 22.10.2020
6481 Clouds 8 1018 97 10000 0.45 254 08:39 22.10.2020
6482 Clouds 8 1017 96 10000 0.45 265 08:19 22.10.2020
6483 Clouds 8 1017 96 10000 0.98 337 07:43 22.10.2020
6484 Clouds 8 1017 95 10000 0.86 332 07:18 22.10.2020
6485 Clouds 8 1016 95 10000 0.45 257 06:38 22.10.2020
6486 Clouds 8 1016 96 10000 0.56 1 06:18 22.10.2020
6487 Clouds 7 1016 97 10000 0.45 157 05:37 22.10.2020
6488 Fog 8 1017 93 2200 1 80 02:55 22.10.2020
6489 Mist 8 1017 93 5000 1.5 280 00:50 22.10.2020
6490 Clouds 9 1016 93 7000 1 0 00:21 22.10.2020
6491 Clouds 9 1016 93 10000 2.6 50 23:42 21.10.2020
6492 Clouds 9 1016 93 10000 1.5 30 22:59 21.10.2020
6493 Clouds 9 1017 93 10000 2.1 350 22:37 21.10.2020
6494 Clouds 9 1016 93 10000 2.1 90 22:19 21.10.2020
6495 Clouds 9 1016 87 10000 1.5 80 21:45 21.10.2020
6496 Clouds 10 1014 94 10000 0.45 104 21:19 21.10.2020
6497 Clouds 10 1014 94 10000 0.89 106 20:57 21.10.2020
6498 Clouds 10 1014 94 10000 0.89 106 20:57 21.10.2020
6499 Clouds 10 1016 81 10000 2.1 130 20:39 21.10.2020
6500 Clouds 11 1016 87 10000 2.1 140 20:18 21.10.2020
6501 Clouds 11 1016 82 10000 2.1 140 19:40 21.10.2020
6502 Clouds 11 1016 82 10000 2.1 120 19:22 21.10.2020
6503 Clouds 12 1016 82 10000 1.5 120 18:49 21.10.2020
6504 Clouds 12 1016 82 10000 1.5 120 18:27 21.10.2020
6505 Clouds 13 1016 72 10000 3.6 140 17:50 21.10.2020
6506 Clouds 14 1016 72 10000 4.6 140 17:22 21.10.2020
6507 Clouds 14 1016 72 10000 4.6 140 16:58 21.10.2020
6508 Clouds 15 1016 67 10000 5.7 140 16:38 21.10.2020
6509 Clouds 15 1016 67 10000 5.7 140 16:19 21.10.2020
6510 Clouds 15 1016 63 10000 6.2 150 15:45 21.10.2020
6511 Clouds 15 1016 67 10000 6.7 140 15:21 21.10.2020
6512 Clouds 15 1016 67 10000 5.1 120 14:49 21.10.2020
6513 Clouds 14 1016 71 10000 4.6 120 14:29 21.10.2020
6514 Clouds 13 1017 71 10000 4.1 110 13:57 21.10.2020
6515 Clouds 13 1017 76 10000 4.6 130 13:39 21.10.2020
6516 Clouds 12 1017 76 10000 4.6 130 13:20 21.10.2020
6517 Clouds 11 1017 76 10000 4.6 120 12:38 21.10.2020
6518 Clouds 11 1017 76 10000 4.6 120 12:20 21.10.2020
6519 Clouds 10 1017 81 10000 4.6 140 11:46 21.10.2020
6520 Clouds 10 1016 87 10000 5.1 130 11:20 21.10.2020
6521 Clouds 9 1017 87 10000 4.6 130 10:49 21.10.2020
6522 Clouds 9 1016 87 10000 5.1 140 10:27 21.10.2020
6523 Clouds 9 1016 87 10000 5.7 140 09:58 21.10.2020
6524 Clouds 9 1016 87 10000 5.7 140 09:39 21.10.2020
6525 Clouds 8 1016 87 10000 4.6 140 08:59 21.10.2020
6526 Clouds 8 1016 87 10000 4.6 140 08:40 21.10.2020
6527 Clouds 8 1016 87 10000 4.6 140 08:22 21.10.2020
6528 Clouds 8 1016 87 10000 4.6 140 07:48 21.10.2020
6529 Clouds 8 1016 93 10000 2.6 130 06:59 21.10.2020
6530 Clouds 7 1016 87 10000 4.1 130 06:33 21.10.2020
6531 Clouds 8 1016 93 10000 3.1 120 05:59 21.10.2020
6532 Clouds 8 1017 81 10000 7.2 150 02:46 21.10.2020
6533 Clouds 9 1018 76 10000 8.7 140 00:25 21.10.2020
6534 Clouds 9 1019 76 10000 8.7 140 23:28 20.10.2020
6535 Clouds 10 1019 71 10000 9.3 140 22:41 20.10.2020
6536 Clouds 10 1019 66 10000 8.7 140 22:23 20.10.2020
6537 Clouds 10 1019 71 10000 8.7 140 21:47 20.10.2020
6538 Clouds 10 1019 66 10000 8.7 140 21:19 20.10.2020
6539 Clouds 11 1019 62 10000 8.7 140 20:43 20.10.2020
6540 Clouds 11 1019 62 10000 9.8 140 20:24 20.10.2020
6541 Clouds 11 1019 62 10000 10.3 140 19:46 20.10.2020
6542 Clouds 11 1020 62 10000 9.3 140 19:22 20.10.2020
6543 Clouds 11 1020 62 10000 8.7 140 18:59 20.10.2020
6544 Clouds 11 1020 62 10000 8.7 140 18:59 20.10.2020
6545 Clouds 12 1020 62 10000 8.7 140 18:38 20.10.2020
6546 Clouds 12 1020 62 10000 7.7 140 17:59 20.10.2020
6547 Clouds 12 1021 62 10000 8.7 150 17:40 20.10.2020
6548 Clouds 13 1021 62 10000 8.7 150 17:21 20.10.2020
6549 Clouds 13 1021 62 10000 10.8 150 16:42 20.10.2020
6550 Clouds 14 1021 62 10000 10.8 150 16:24 20.10.2020
6551 Clouds 14 1021 62 10000 10.3 150 15:49 20.10.2020
6552 Clouds 14 1021 62 10000 9.8 150 15:29 20.10.2020
6553 Clouds 14 1021 62 10000 12.3 150 14:47 20.10.2020
6554 Clear 14 1021 62 10000 10.8 150 14:25 20.10.2020
6555 Clear 14 1022 66 10000 10.3 140 13:59 20.10.2020
6556 Clear 14 1022 66 10000 10.3 140 13:40 20.10.2020
6557 Clear 14 1023 66 10000 9.3 150 13:20 20.10.2020
6558 Clear 13 1023 71 10000 9.3 140 12:51 20.10.2020
6559 Clear 13 1023 71 10000 8.2 140 12:31 20.10.2020
6560 Clear 12 1023 71 10000 8.7 140 11:48 20.10.2020
6561 Clear 12 1023 76 10000 7.2 130 11:29 20.10.2020
6562 Clouds 10 1023 81 10000 6.2 130 10:49 20.10.2020
6563 Clouds 9 1023 81 10000 6.7 140 10:26 20.10.2020
6564 Clouds 8 1023 87 10000 5.7 130 09:47 20.10.2020
6565 Clouds 7 1023 87 10000 5.7 130 09:20 20.10.2020
6566 Clouds 7 1023 93 10000 3.6 120 08:50 20.10.2020
6567 Clouds 6 1023 86 10000 3.6 120 08:26 20.10.2020
6568 Clouds 6 1023 86 10000 3.6 130 07:48 20.10.2020
6569 Clouds 6 1022 93 10000 3.6 120 07:24 20.10.2020
6570 Clouds 7 1022 93 10000 5.1 140 06:24 20.10.2020
6571 Clear 7 1022 93 10000 2.24 133 04:58 20.10.2020
6572 Clear 7 1024 91 10000 2.24 117 02:33 20.10.2020
6573 Clouds 7 1023 93 9000 2.1 160 01:43 20.10.2020
6574 Clouds 8 1021 89 10000 1.91 126 00:56 20.10.2020
6575 Clouds 7 1024 86 10000 0.5 0 00:37 20.10.2020
6576 Clouds 7 1024 86 10000 0.5 0 00:18 20.10.2020
6577 Clouds 8 1024 93 10000 0.5 0 23:39 19.10.2020
6578 Clouds 8 1021 86 10000 0.89 112 23:18 19.10.2020
6579 Clouds 9 1024 87 10000 1.5 60 22:42 19.10.2020
6580 Clouds 9 1024 87 10000 1.5 80 22:20 19.10.2020
6581 Clouds 9 1024 87 10000 1.5 90 21:41 19.10.2020
6582 Clouds 9 1024 81 10000 1 80 21:19 19.10.2020
6583 Clouds 9 1024 81 10000 1.5 110 20:45 19.10.2020
6584 Clouds 9 1024 81 10000 1.5 110 20:26 19.10.2020
6585 Clouds 9 1024 81 10000 2.1 110 19:46 19.10.2020
6586 Clouds 9 1024 81 10000 2.1 110 19:22 19.10.2020
6587 Clouds 9 1024 81 10000 2.1 110 19:22 19.10.2020
6588 Clouds 9 1024 81 10000 1.5 100 18:51 19.10.2020
6589 Clouds 9 1024 81 10000 2.1 110 18:31 19.10.2020
6590 Clouds 10 1024 76 10000 2.6 100 17:56 19.10.2020
6591 Clouds 10 1024 76 10000 2.6 100 17:38 19.10.2020
6592 Clouds 10 1024 81 10000 2.1 100 17:19 19.10.2020
6593 Clouds 11 1024 76 10000 3.1 100 16:42 19.10.2020
6594 Clouds 11 1024 76 10000 3.1 100 16:20 19.10.2020
6595 Clouds 11 1021 77 10000 0.89 89 15:40 19.10.2020
6596 Clouds 12 1025 75 10000 1.99 144 15:21 19.10.2020
6597 Clouds 12 1025 74 10000 1.99 144 14:47 19.10.2020
6598 Clouds 12 1025 74 10000 1.52 153 14:24 19.10.2020
6599 Clouds 12 1025 75 10000 0.62 163 13:48 19.10.2020
6600 Clouds 11 1025 77 10000 0.36 295 13:30 19.10.2020
6601 Clouds 11 1026 82 10000 0.36 295 12:46 19.10.2020
6602 Clouds 11 1026 83 10000 0.79 300 12:28 19.10.2020
6603 Clouds 11 1023 80 10000 0.89 112 11:51 19.10.2020
6604 Clouds 10 1026 87 10000 1.5 140 11:24 19.10.2020
6605 Clouds 9 1026 87 10000 1.5 140 10:55 19.10.2020
6606 Clouds 8 1026 81 10000 1.5 170 10:36 19.10.2020
6607 Clouds 8 1025 87 10000 1 0 10:18 19.10.2020
6608 Clouds 8 1025 87 10000 0.5 0 09:42 19.10.2020
6609 Clouds 7 1025 87 10000 0.5 0 09:18 19.10.2020
6610 Clear 7 1025 87 10000 1.5 220 08:47 19.10.2020
6611 Clear 7 1025 87 10000 1.5 220 08:21 19.10.2020
6612 Clouds 6 1024 93 10000 2.1 180 07:21 19.10.2020
6613 Clouds 7 1024 87 10000 1.5 190 06:50 19.10.2020
6614 Clouds 7 1024 87 10000 1.5 190 06:50 19.10.2020
6615 Clear 6 1024 93 10000 2.1 160 05:42 19.10.2020
6616 Clear 7 1024 93 10000 2.6 170 03:47 19.10.2020
6617 Clear 7 1024 86 10000 2.6 180 01:57 19.10.2020
6618 Clear 6 1024 86 10000 2.1 230 00:43 19.10.2020
6619 Clear 6 1024 87 10000 3.1 250 23:59 18.10.2020
6620 Clear 6 1023 81 10000 3.6 260 23:40 18.10.2020
6621 Clear 6 1023 81 10000 3.6 260 23:21 18.10.2020
6622 Clear 6 1023 81 10000 3.1 240 22:45 18.10.2020
6623 Clear 7 1023 75 10000 3.6 250 22:20 18.10.2020
6624 Clear 7 1023 75 10000 2.6 260 21:50 18.10.2020
6625 Clear 8 1022 70 10000 2.6 260 21:29 18.10.2020
6626 Clear 8 1022 76 10000 2.1 260 20:47 18.10.2020
6627 Clouds 8 1022 76 10000 2.1 260 20:25 18.10.2020
6628 Clouds 8 1022 71 10000 3.1 280 19:57 18.10.2020
6629 Clouds 9 1022 76 10000 2.6 260 19:39 18.10.2020
6630 Clouds 9 1022 71 10000 2.6 330 19:19 18.10.2020
6631 Clouds 10 1021 66 10000 3.6 300 18:46 18.10.2020
6632 Clouds 10 1021 66 10000 3.6 300 18:24 18.10.2020
6633 Rain 11 1021 62 10000 4.6 280 17:43 18.10.2020
6634 Clouds 11 1021 62 10000 4.6 280 17:24 18.10.2020
6635 Clouds 12 1021 62 10000 5.1 270 16:44 18.10.2020
6636 Clouds 12 1021 62 10000 5.1 270 16:26 18.10.2020
6637 Clouds 12 1021 62 10000 5.1 270 15:57 18.10.2020
6638 Clouds 12 1021 62 10000 5.1 270 15:38 18.10.2020
6639 Clouds 12 1021 58 10000 4.6 290 15:18 18.10.2020
6640 Clouds 12 1021 62 10000 5.1 280 14:47 18.10.2020
6641 Clouds 12 1021 62 10000 5.1 280 14:27 18.10.2020
6642 Clouds 12 1021 58 10000 6.2 270 13:47 18.10.2020
6643 Clouds 12 1021 58 10000 6.2 270 13:27 18.10.2020
6644 Clouds 13 1021 58 10000 5.7 270 12:59 18.10.2020
6645 Clouds 12 1021 58 10000 6.7 290 12:40 18.10.2020
6646 Clouds 12 1021 58 10000 6.7 290 12:20 18.10.2020
6647 Clouds 11 1021 71 10000 5.1 310 11:40 18.10.2020
6648 Clouds 10 1021 71 10000 5.1 310 11:22 18.10.2020
6649 Clouds 10 1021 76 10000 4.6 270 10:40 18.10.2020
6650 Clouds 9 1021 76 10000 3.6 280 10:20 18.10.2020
6651 Clouds 9 1020 81 10000 3.6 290 09:49 18.10.2020
6652 Clouds 8 1020 81 10000 3.6 290 09:21 18.10.2020
6653 Clouds 8 1020 81 10000 3.1 280 08:56 18.10.2020
6654 Clouds 7 1020 81 10000 3.1 280 08:37 18.10.2020
6655 Clouds 7 1019 81 10000 2.6 290 08:19 18.10.2020
6656 Clouds 7 1019 75 10000 2.6 300 06:51 18.10.2020
6657 Clouds 7 1019 75 10000 3.1 300 03:59 18.10.2020
6658 Clouds 7 1018 75 10000 3.1 310 02:55 18.10.2020
6659 Clouds 7 1018 81 10000 4.6 310 01:38 18.10.2020
6660 Clouds 8 1018 75 10000 4.6 320 00:48 18.10.2020
6661 Clouds 8 1018 75 10000 4.6 320 00:24 18.10.2020
6662 Clouds 8 1018 75 10000 5.7 300 23:43 17.10.2020
6663 Clouds 8 1018 70 10000 5.7 300 23:22 17.10.2020
6664 Clouds 8 1018 70 10000 5.7 300 22:59 17.10.2020
6665 Clouds 8 1017 76 10000 5.1 300 22:40 17.10.2020
6666 Clouds 8 1017 76 10000 4.6 300 22:19 17.10.2020
6667 Clouds 8 1017 81 10000 5.1 310 21:44 17.10.2020
6668 Clouds 8 1017 76 10000 5.1 300 21:23 17.10.2020
6669 Clouds 8 1017 76 10000 5.1 300 20:49 17.10.2020
6670 Clouds 8 1017 76 10000 4.6 290 20:21 17.10.2020
6671 Clouds 8 1017 76 10000 4.6 290 19:59 17.10.2020
6672 Clouds 8 1016 70 10000 4.6 280 19:40 17.10.2020
6673 Clouds 8 1016 76 10000 4.1 310 19:18 17.10.2020
6674 Clouds 8 1016 76 10000 4.1 320 18:41 17.10.2020
6675 Clouds 8 1016 76 10000 3.6 320 18:19 17.10.2020
6676 Clouds 9 1016 76 10000 4.6 310 17:42 17.10.2020
6677 Clouds 9 1016 76 10000 4.6 310 17:21 17.10.2020
6678 Clouds 9 1016 81 10000 3.6 300 16:48 17.10.2020
6679 Clouds 9 1015 71 10000 4.1 320 16:23 17.10.2020
6680 Clouds 9 1015 76 10000 4.6 320 16:23 17.10.2020
6681 Clouds 10 1015 71 10000 4.1 320 15:55 17.10.2020
6682 Clouds 10 1015 71 10000 5.7 310 15:36 17.10.2020
6683 Clouds 10 1015 71 10000 5.7 320 15:18 17.10.2020
6684 Clouds 10 1015 76 10000 4.6 320 14:39 17.10.2020
6685 Clouds 10 1015 76 10000 6.2 310 14:20 17.10.2020
6686 Clouds 10 1015 70 10000 6.7 310 13:48 17.10.2020
6687 Clouds 10 1015 70 10000 6.7 310 13:30 17.10.2020
6688 Clouds 9 1015 70 10000 6.7 310 12:59 17.10.2020
6689 Clouds 9 1015 70 10000 6.7 310 12:59 17.10.2020
6690 Clouds 9 1015 70 10000 6.7 310 12:38 17.10.2020
6691 Clouds 8 1015 81 10000 7.2<